GFSCGP_prec_precacc_027.txt.gz
Total_Precipitation_Accumulation
0.00 0.00 0.00 0.00 0.00 0.00 0.00 0.00 0.00 0.00 0.00 0.00 0.00 0.01 0.08 0.00 0.00 0.00 0.00 0.00 0.00 0.00 0.00 0.00 0.00 0.00 0.00 0.00 0.00 0.00 0.00 0.00 0.02 0.06 0.03 0.03 0.01 0.00 0.00 0.00 0.01 0.02 0.02 0.11
0.00 0.00 0.00 0.00 0.00 0.00 0.00 0.00 0.00 0.00 0.00 0.00 0.00 0.00 0.00 0.00 0.00 0.00 0.00 0.00 0.00 0.00 0.00 0.00 0.00 0.00 0.00 0.00 0.00 0.00 0.00 0.00 0.00 0.01 0.01 0.01 0.01 0.00 0.00 0.00 0.01 0.01 0.02 0.04
0.00 0.00 0.00 0.00 0.00 0.00 0.00 0.00 0.00 0.00 0.00 0.00 0.00 0.00 0.00 0.00 0.00 0.00 0.00 0.00 0.00 0.00 0.00 0.00 0.00 0.00 0.00 0.00 0.00 0.00 0.00 0.00 0.01 0.02 0.02 0.07 0.08 0.03 0.01 0.00 0.03 0.01 0.02 0.02
0.00 0.00 0.00 0.00 0.00 0.00 0.00 0.00 0.00 0.00 0.00 0.00 0.00 0.00 0.00 0.01 0.03 0.01 0.00 0.00 0.00 0.00 0.00 0.00 0.00 0.00 0.00 0.00 0.00 0.00 0.00 0.00 0.01 0.03 0.01 0.05 0.02 0.01 0.00 0.00 0.00 0.01 0.01 0.01
0.00 0.00 0.00 0.00 0.00 0.00 0.00 0.00 0.00 0.00 0.00 0.00 0.00 0.00 0.00 0.00 0.00 0.00 0.00 0.00 0.00 0.00 0.00 0.00 0.00 0.00 0.00 0.00 0.00 0.00 0.00 0.00 0.01 0.02 0.01 0.04 0.01 0.00 0.00 0.00 0.00 0.01 0.03 0.00
0.00 0.00 0.00 0.00 0.00 0.00 0.00 0.00 0.00 0.00 0.00 0.00 0.00 0.00 0.00 0.00 0.00 0.00 0.00 0.00 0.00 0.00 0.00 0.00 0.00 0.00 0.00 0.00 0.00 0.00 0.00 0.00 0.00 0.01 0.01 0.04 0.03 0.00 0.00 0.00 0.00 0.00 0.00 0.00
0.00 0.00 0.00 0.00 0.00 0.00 0.00 0.00 0.00 0.00 0.00 0.00 0.00 0.00 0.00 0.00 0.00 0.00 0.00 0.01 0.00 0.00 0.00 0.00 0.00 0.00 0.00 0.00 0.00 0.00 0.00 0.00 0.00 0.00 0.00 0.01 0.01 0.01 0.01 0.01 0.00 0.00 0.00 0.00
0.00 0.00 0.00 0.00 0.00 0.00 0.00 0.00 0.00 0.00 0.00 0.00 0.00 0.00 0.00 0.00 0.00 0.00 0.00 0.00 0.00 0.00 0.00 0.00 0.00 0.00 0.00 0.00 0.00 0.00 0.00 0.00 0.00 0.00 0.00 0.00 0.00 0.00 0.00 0.00 0.00 0.00 0.00 0.00
0.00 0.00 0.00 0.00 0.00 0.00 0.00 0.00 0.00 0.00 0.00 0.00 0.00 0.00 0.00 0.00 0.00 0.00 0.00 0.00 0.00 0.00 0.00 0.00 0.00 0.00 0.00 0.00 0.00 0.00 0.00 0.00 0.00 0.00 0.00 0.00 0.00 0.00 0.00 0.00 0.00 0.00 0.00 0.00
0.00 0.00 0.00 0.00 0.00 0.00 0.00 0.00 0.00 0.00 0.00 0.00 0.00 0.00 0.00 0.00 0.00 0.00 0.00 0.00 0.00 0.00 0.00 0.00 0.00 0.00 0.00 0.00 0.00 0.00 0.00 0.00 0.00 0.00 0.00 0.00 0.00 0.00 0.00 0.00 0.00 0.00 0.00 0.00
0.00 0.00 0.00 0.00 0.00 0.00 0.00 0.00 0.00 0.00 0.00 0.00 0.00 0.00 0.00 0.00 0.00 0.00 0.00 0.00 0.00 0.00 0.00 0.00 0.00 0.00 0.00 0.00 0.00 0.00 0.00 0.00 0.00 0.00 0.00 0.00 0.00 0.00 0.00 0.00 0.00 0.00 0.00 0.00
0.00 0.00 0.00 0.00 0.00 0.00 0.00 0.00 0.00 0.00 0.00 0.00 0.00 0.00 0.00 0.00 0.00 0.00 0.00 0.00 0.00 0.00 0.00 0.00 0.00 0.00 0.00 0.00 0.00 0.00 0.00 0.00 0.00 0.00 0.00 0.00 0.00 0.00 0.00 0.00 0.00 0.00 0.00 0.00
0.00 0.00 0.00 0.00 0.00 0.00 0.00 0.00 0.00 0.00 0.00 0.00 0.00 0.00 0.00 0.00 0.00 0.00 0.00 0.00 0.00 0.00 0.00 0.00 0.00 0.00 0.00 0.00 0.00 0.00 0.00 0.00 0.00 0.00 0.00 0.00 0.00 0.00 0.00 0.00 0.00 0.00 0.00 0.00
0.00 0.00 0.00 0.00 0.00 0.00 0.00 0.00 0.00 0.00 0.00 0.00 0.00 0.00 0.00 0.00 0.00 0.00 0.00 0.00 0.00 0.00 0.00 0.00 0.00 0.00 0.00 0.00 0.00 0.00 0.00 0.00 0.00 0.00 0.00 0.00 0.00 0.00 0.00 0.00 0.00 0.00 0.00 0.00
0.00 0.00 0.00 0.00 0.00 0.00 0.00 0.00 0.00 0.00 0.00 0.00 0.00 0.00 0.00 0.00 0.00 0.00 0.00 0.00 0.00 0.00 0.00 0.00 0.00 0.00 0.00 0.00 0.00 0.00 0.00 0.00 0.00 0.00 0.00 0.00 0.00 0.00 0.00 0.00 0.01 0.00 0.00 0.00
0.00 0.00 0.00 0.00 0.00 0.00 0.00 0.00 0.00 0.00 0.00 0.00 0.00 0.00 0.00 0.00 0.00 0.00 0.00 0.00 0.00 0.00 0.00 0.00 0.00 0.00 0.00 0.00 0.00 0.00 0.00 0.00 0.00 0.00 0.00 0.00 0.00 0.00 0.00 0.00 0.02 0.01 0.00 0.01
0.00 0.00 0.00 0.00 0.00 0.00 0.00 0.00 0.00 0.00 0.00 0.00 0.00 0.00 0.00 0.00 0.00 0.00 0.00 0.00 0.00 0.00 0.00 0.00 0.00 0.00 0.00 0.00 0.00 0.00 0.00 0.00 0.00 0.00 0.00 0.00 0.00 0.00 0.00 0.00 0.00 0.00 0.01 0.05
0.00 0.00 0.00 0.00 0.00 0.01 0.00 0.00 0.00 0.00 0.00 0.00 0.00 0.00 0.00 0.00 0.00 0.00 0.00 0.00 0.00 0.00 0.00 0.00 0.00 0.00 0.00 0.00 0.00 0.00 0.00 0.00 0.00 0.00 0.00 0.00 0.00 0.00 0.00 0.00 0.00 0.00 0.00 0.04
0.00 0.00 0.00 0.00 0.00 0.01 0.00 0.00 0.00 0.00 0.00 0.00 0.00 0.00 0.00 0.00 0.00 0.00 0.00 0.00 0.00 0.00 0.00 0.00 0.00 0.00 0.00 0.00 0.00 0.00 0.00 0.00 0.00 0.00 0.00 0.00 0.00 0.00 0.00 0.00 0.00 0.01 0.02 0.13
0.00 0.00 0.00 0.00 0.00 0.00 0.00 0.00 0.00 0.00 0.00 0.00 0.00 0.00 0.00 0.00 0.00 0.00 0.00 0.00 0.00 0.00 0.00 0.00 0.00 0.00 0.00 0.00 0.00 0.00 0.00 0.00 0.00 0.00 0.00 0.00 0.00 0.00 0.00 0.04 0.04 0.17 0.38 0.32
0.01 0.04 0.02 0.00 0.00 0.00 0.00 0.00 0.00 0.01 0.03 0.00 0.00 0.00 0.00 0.00 0.00 0.00 0.00 0.00 0.00 0.00 0.00 0.00 0.00 0.00 0.00 0.00 0.00 0.00 0.00 0.00 0.00 0.00 0.00 0.00 0.00 0.01 0.11 0.18 0.17 0.22 0.24 0.07
0.14 0.19 0.11 0.00 0.02 0.01 0.00 0.01 0.03 0.01 0.00 0.00 0.00 0.00 0.00 0.00 0.00 0.00 0.00 0.00 0.00 0.00 0.00 0.00 0.00 0.00 0.00 0.00 0.00 0.00 0.00 0.00 0.00 0.00 0.00 0.00 0.01 0.03 0.12 0.19 0.19 0.18 0.09 0.03
0.21 0.15 0.08 0.01 0.05 0.02 0.02 0.02 0.06 0.04 0.00 0.00 0.00 0.00 0.00 0.00 0.00 0.00 0.00 0.00 0.00 0.00 0.00 0.00 0.00 0.00 0.00 0.00 0.00 0.00 0.00 0.00 0.00 0.00 0.00 0.00 0.01 0.02 0.07 0.15 0.10 0.04 0.08 0.09
0.16 0.21 0.15 0.06 0.02 0.05 0.08 0.06 0.07 0.12 0.10 0.01 0.00 0.00 0.00 0.00 0.00 0.00 0.00 0.00 0.00 0.00 0.00 0.00 0.00 0.00 0.00 0.00 0.00 0.00 0.00 0.00 0.00 0.00 0.00 0.01 0.03 0.09 0.13 0.28 0.10 0.11 0.21 0.26
0.44 0.30 0.17 0.13 0.09 0.20 0.24 0.40 0.14 0.15 0.09 0.04 0.10 0.13 0.08 0.06 0.07 0.04 0.01 0.05 0.07 0.06 0.05 0.07 0.08 0.05 0.05 0.02 0.00 0.00 0.00 0.00 0.02 0.13 0.24 0.31 0.31 0.22 0.16 0.34 0.30 0.41 0.62 0.63
0.58 0.55 0.42 0.29 0.20 0.26 0.35 0.41 0.24 0.14 0.20 0.18 0.22 0.37 0.42 0.36 0.48 0.50 0.43 0.42 0.38 0.45 0.45 0.43 0.46 0.43 0.50 0.51 0.36 0.25 0.19 0.19 0.22 0.27 0.28 0.29 0.27 0.37 0.45 0.48 0.51 0.63 0.76 0.74

GFSCGP_prec_precacc_030.txt.gz
Total_Precipitation_Accumulation
0.00 0.00 0.00 0.00 0.00 0.00 0.00 0.00 0.00 0.00 0.00 0.00 0.00 0.01 0.08 0.00 0.14 0.03 0.00 0.00 0.00 0.00 0.00 0.00 0.00 0.00 0.00 0.00 0.00 0.00 0.00 0.01 0.02 0.07 0.03 0.03 0.01 0.00 0.00 0.00 0.01 0.02 0.02 0.11
0.00 0.00 0.00 0.00 0.00 0.00 0.00 0.00 0.00 0.00 0.00 0.00 0.00 0.00 0.00 0.00 0.03 0.01 0.00 0.01 0.00 0.00 0.00 0.00 0.00 0.00 0.00 0.00 0.00 0.00 0.00 0.00 0.00 0.01 0.01 0.01 0.01 0.00 0.00 0.00 0.01 0.01 0.02 0.05
0.00 0.00 0.00 0.00 0.00 0.00 0.00 0.00 0.00 0.00 0.00 0.00 0.00 0.00 0.00 0.00 0.00 0.00 0.00 0.00 0.00 0.00 0.00 0.00 0.00 0.00 0.00 0.00 0.00 0.00 0.00 0.00 0.01 0.02 0.02 0.07 0.08 0.03 0.01 0.00 0.03 0.01 0.02 0.02
0.00 0.00 0.00 0.00 0.00 0.00 0.00 0.00 0.00 0.00 0.00 0.00 0.00 0.00 0.00 0.01 0.03 0.01 0.00 0.00 0.02 0.00 0.00 0.00 0.00 0.00 0.00 0.00 0.00 0.00 0.00 0.00 0.01 0.03 0.01 0.05 0.02 0.01 0.00 0.00 0.00 0.01 0.01 0.01
0.00 0.00 0.00 0.00 0.00 0.00 0.00 0.00 0.00 0.00 0.00 0.00 0.00 0.00 0.00 0.00 0.00 0.00 0.00 0.00 0.01 0.00 0.00 0.00 0.00 0.00 0.00 0.00 0.00 0.00 0.00 0.00 0.01 0.02 0.01 0.04 0.01 0.00 0.00 0.00 0.00 0.01 0.03 0.00
0.00 0.00 0.00 0.00 0.00 0.00 0.00 0.00 0.00 0.00 0.00 0.00 0.00 0.00 0.00 0.00 0.00 0.00 0.00 0.00 0.00 0.00 0.00 0.00 0.00 0.00 0.00 0.00 0.00 0.00 0.00 0.00 0.00 0.01 0.01 0.04 0.03 0.00 0.00 0.00 0.00 0.00 0.00 0.00
0.00 0.00 0.00 0.00 0.00 0.00 0.00 0.00 0.00 0.00 0.00 0.00 0.00 0.00 0.00 0.00 0.00 0.00 0.00 0.01 0.00 0.00 0.00 0.00 0.00 0.00 0.00 0.00 0.00 0.00 0.00 0.00 0.00 0.00 0.00 0.01 0.01 0.01 0.01 0.01 0.00 0.00 0.00 0.00
0.00 0.00 0.00 0.00 0.00 0.00 0.00 0.00 0.00 0.00 0.00 0.00 0.00 0.00 0.00 0.00 0.00 0.00 0.00 0.00 0.00 0.00 0.00 0.00 0.00 0.00 0.00 0.00 0.00 0.00 0.00 0.00 0.00 0.00 0.00 0.00 0.00 0.00 0.00 0.00 0.00 0.00 0.00 0.00
0.00 0.00 0.00 0.00 0.00 0.00 0.00 0.00 0.00 0.00 0.00 0.00 0.00 0.00 0.00 0.00 0.00 0.00 0.00 0.00 0.00 0.00 0.00 0.00 0.00 0.00 0.00 0.00 0.00 0.00 0.00 0.00 0.00 0.00 0.00 0.00 0.00 0.00 0.00 0.00 0.00 0.00 0.00 0.00
0.00 0.00 0.00 0.00 0.00 0.00 0.00 0.00 0.00 0.00 0.00 0.00 0.00 0.00 0.00 0.00 0.00 0.00 0.00 0.00 0.00 0.00 0.00 0.00 0.00 0.00 0.00 0.00 0.00 0.00 0.00 0.00 0.00 0.00 0.00 0.00 0.00 0.00 0.00 0.00 0.00 0.00 0.00 0.00
0.00 0.00 0.00 0.00 0.00 0.00 0.00 0.00 0.00 0.00 0.00 0.00 0.00 0.00 0.00 0.00 0.00 0.00 0.00 0.00 0.00 0.00 0.00 0.00 0.00 0.00 0.00 0.00 0.00 0.00 0.00 0.00 0.00 0.00 0.00 0.00 0.00 0.00 0.00 0.00 0.00 0.00 0.00 0.00
0.00 0.00 0.00 0.00 0.00 0.00 0.00 0.00 0.00 0.00 0.00 0.00 0.00 0.00 0.00 0.00 0.00 0.00 0.00 0.00 0.00 0.00 0.00 0.00 0.00 0.00 0.00 0.00 0.00 0.00 0.00 0.00 0.00 0.00 0.00 0.00 0.00 0.00 0.00 0.00 0.00 0.00 0.00 0.00
0.00 0.00 0.00 0.00 0.00 0.00 0.00 0.00 0.00 0.00 0.00 0.00 0.00 0.00 0.00 0.00 0.00 0.00 0.00 0.00 0.00 0.00 0.00 0.00 0.00 0.00 0.00 0.00 0.00 0.00 0.00 0.00 0.00 0.00 0.00 0.00 0.00 0.00 0.00 0.00 0.00 0.00 0.00 0.00
0.00 0.00 0.00 0.00 0.00 0.00 0.00 0.00 0.00 0.00 0.00 0.00 0.00 0.00 0.00 0.00 0.00 0.00 0.00 0.00 0.00 0.00 0.00 0.00 0.00 0.00 0.00 0.00 0.00 0.00 0.00 0.00 0.00 0.00 0.00 0.00 0.00 0.00 0.00 0.00 0.00 0.00 0.00 0.00
0.00 0.00 0.00 0.00 0.00 0.00 0.00 0.00 0.00 0.00 0.00 0.00 0.00 0.00 0.00 0.00 0.00 0.00 0.00 0.00 0.00 0.00 0.00 0.00 0.00 0.00 0.00 0.00 0.00 0.00 0.00 0.00 0.00 0.00 0.00 0.00 0.00 0.00 0.00 0.00 0.01 0.00 0.00 0.00
0.00 0.00 0.00 0.00 0.00 0.00 0.00 0.00 0.00 0.00 0.00 0.00 0.00 0.00 0.00 0.00 0.00 0.00 0.00 0.00 0.00 0.00 0.00 0.00 0.00 0.00 0.00 0.00 0.00 0.00 0.00 0.00 0.00 0.00 0.00 0.00 0.00 0.00 0.00 0.00 0.02 0.01 0.00 0.01
0.00 0.00 0.00 0.00 0.00 0.00 0.00 0.00 0.00 0.00 0.00 0.00 0.00 0.00 0.00 0.00 0.00 0.00 0.00 0.00 0.00 0.00 0.00 0.00 0.00 0.00 0.00 0.00 0.00 0.00 0.00 0.00 0.00 0.00 0.00 0.00 0.00 0.00 0.00 0.00 0.00 0.00 0.01 0.05
0.00 0.00 0.00 0.00 0.00 0.01 0.00 0.00 0.00 0.00 0.00 0.00 0.00 0.00 0.00 0.00 0.00 0.00 0.00 0.00 0.00 0.00 0.00 0.00 0.00 0.00 0.00 0.00 0.00 0.00 0.00 0.00 0.00 0.00 0.00 0.00 0.00 0.00 0.00 0.00 0.00 0.00 0.00 0.04
0.00 0.00 0.00 0.00 0.00 0.01 0.00 0.00 0.00 0.00 0.00 0.00 0.00 0.00 0.00 0.00 0.00 0.00 0.00 0.00 0.00 0.00 0.00 0.00 0.00 0.00 0.00 0.00 0.00 0.00 0.00 0.00 0.00 0.00 0.00 0.00 0.00 0.00 0.00 0.00 0.00 0.01 0.02 0.13
0.00 0.00 0.00 0.00 0.00 0.00 0.00 0.00 0.00 0.00 0.00 0.00 0.00 0.00 0.00 0.00 0.00 0.00 0.00 0.00 0.00 0.00 0.00 0.00 0.00 0.00 0.00 0.00 0.00 0.00 0.00 0.00 0.00 0.00 0.00 0.00 0.00 0.00 0.00 0.04 0.04 0.17 0.38 0.32
0.01 0.04 0.02 0.00 0.00 0.00 0.00 0.00 0.00 0.01 0.05 0.00 0.00 0.00 0.00 0.00 0.00 0.00 0.00 0.00 0.00 0.00 0.00 0.00 0.00 0.00 0.00 0.00 0.00 0.00 0.00 0.00 0.00 0.00 0.00 0.00 0.00 0.01 0.11 0.18 0.17 0.22 0.24 0.07
0.14 0.19 0.11 0.00 0.02 0.01 0.00 0.01 0.03 0.01 0.01 0.00 0.00 0.00 0.00 0.00 0.00 0.00 0.00 0.00 0.00 0.00 0.00 0.00 0.00 0.00 0.00 0.00 0.00 0.00 0.00 0.00 0.00 0.00 0.00 0.00 0.01 0.03 0.12 0.19 0.19 0.18 0.09 0.03
0.21 0.15 0.08 0.01 0.05 0.02 0.02 0.02 0.06 0.04 0.00 0.00 0.00 0.00 0.00 0.00 0.00 0.00 0.00 0.00 0.00 0.00 0.00 0.00 0.00 0.00 0.00 0.00 0.00 0.00 0.00 0.00 0.00 0.00 0.00 0.00 0.01 0.02 0.07 0.15 0.10 0.05 0.09 0.09
0.16 0.21 0.15 0.06 0.02 0.05 0.08 0.06 0.07 0.12 0.10 0.01 0.00 0.00 0.00 0.00 0.00 0.00 0.00 0.00 0.00 0.00 0.00 0.00 0.00 0.00 0.00 0.00 0.00 0.00 0.00 0.00 0.00 0.00 0.00 0.01 0.03 0.09 0.13 0.28 0.10 0.11 0.21 0.26
0.44 0.30 0.17 0.13 0.09 0.20 0.24 0.40 0.14 0.15 0.09 0.04 0.10 0.13 0.08 0.06 0.07 0.04 0.01 0.05 0.07 0.06 0.05 0.07 0.08 0.05 0.05 0.02 0.00 0.00 0.00 0.00 0.02 0.13 0.24 0.31 0.31 0.22 0.16 0.34 0.30 0.41 0.62 0.63
0.58 0.55 0.42 0.29 0.20 0.26 0.35 0.41 0.24 0.14 0.20 0.18 0.22 0.37 0.42 0.36 0.48 0.50 0.43 0.42 0.38 0.46 0.45 0.43 0.46 0.43 0.50 0.51 0.36 0.25 0.19 0.19 0.22 0.27 0.28 0.29 0.27 0.37 0.45 0.48 0.51 0.63 0.76 0.76

GFSCGP_prec_precacc_033.txt.gz
Total_Precipitation_Accumulation
0.00 0.00 0.00 0.00 0.00 0.00 0.00 0.00 0.00 0.00 0.00 0.00 0.00 0.01 0.08 0.00 0.18 0.47 0.22 0.10 0.02 0.00 0.00 0.00 0.00 0.00 0.00 0.00 0.00 0.00 0.00 0.01 0.02 0.07 0.03 0.03 0.01 0.00 0.00 0.00 0.01 0.02 0.02 0.11
0.00 0.00 0.00 0.00 0.00 0.00 0.00 0.00 0.00 0.00 0.00 0.00 0.00 0.00 0.00 0.00 0.06 0.22 0.14 0.08 0.03 0.00 0.00 0.00 0.00 0.00 0.00 0.00 0.00 0.00 0.00 0.00 0.00 0.01 0.01 0.01 0.01 0.00 0.00 0.00 0.01 0.01 0.02 0.05
0.00 0.00 0.00 0.00 0.00 0.00 0.00 0.00 0.00 0.00 0.00 0.00 0.00 0.00 0.00 0.00 0.00 0.01 0.06 0.04 0.09 0.00 0.00 0.00 0.00 0.00 0.00 0.00 0.00 0.00 0.00 0.00 0.01 0.02 0.02 0.07 0.08 0.03 0.01 0.00 0.03 0.01 0.02 0.02
0.00 0.00 0.00 0.00 0.00 0.00 0.00 0.00 0.00 0.00 0.00 0.00 0.00 0.00 0.00 0.01 0.03 0.01 0.00 0.00 0.07 0.01 0.01 0.00 0.00 0.00 0.00 0.00 0.00 0.00 0.00 0.00 0.01 0.03 0.01 0.05 0.02 0.01 0.00 0.00 0.00 0.01 0.01 0.01
0.00 0.00 0.00 0.00 0.00 0.00 0.00 0.00 0.00 0.00 0.00 0.00 0.00 0.00 0.00 0.00 0.00 0.00 0.00 0.00 0.10 0.15 0.01 0.01 0.00 0.00 0.00 0.00 0.00 0.00 0.00 0.00 0.01 0.02 0.01 0.04 0.01 0.00 0.00 0.00 0.00 0.01 0.03 0.00
0.00 0.00 0.00 0.00 0.00 0.00 0.00 0.00 0.00 0.00 0.00 0.00 0.00 0.00 0.00 0.00 0.00 0.00 0.00 0.00 0.00 0.00 0.00 0.01 0.00 0.00 0.00 0.00 0.00 0.00 0.00 0.00 0.00 0.01 0.01 0.04 0.03 0.00 0.00 0.00 0.00 0.00 0.00 0.00
0.00 0.00 0.00 0.00 0.00 0.00 0.00 0.00 0.00 0.00 0.00 0.00 0.00 0.00 0.00 0.00 0.00 0.00 0.00 0.01 0.00 0.00 0.00 0.01 0.00 0.00 0.00 0.00 0.00 0.00 0.00 0.00 0.00 0.00 0.00 0.01 0.01 0.01 0.01 0.01 0.00 0.00 0.00 0.00
0.00 0.00 0.00 0.00 0.00 0.00 0.00 0.00 0.00 0.00 0.00 0.00 0.00 0.00 0.00 0.00 0.00 0.00 0.00 0.00 0.00 0.00 0.00 0.00 0.00 0.00 0.00 0.00 0.00 0.00 0.00 0.00 0.00 0.00 0.00 0.00 0.00 0.00 0.00 0.00 0.00 0.00 0.00 0.00
0.00 0.00 0.00 0.00 0.00 0.00 0.00 0.00 0.00 0.00 0.00 0.00 0.00 0.00 0.00 0.00 0.00 0.00 0.00 0.00 0.00 0.00 0.00 0.00 0.00 0.00 0.00 0.00 0.00 0.00 0.00 0.00 0.00 0.00 0.00 0.00 0.00 0.00 0.00 0.00 0.00 0.00 0.00 0.00
0.00 0.00 0.00 0.00 0.00 0.00 0.00 0.00 0.00 0.00 0.00 0.00 0.00 0.00 0.00 0.00 0.00 0.00 0.00 0.00 0.00 0.00 0.00 0.00 0.00 0.00 0.00 0.00 0.00 0.00 0.00 0.00 0.00 0.00 0.00 0.00 0.00 0.00 0.00 0.00 0.00 0.00 0.00 0.00
0.00 0.00 0.00 0.00 0.00 0.00 0.00 0.00 0.00 0.00 0.00 0.00 0.00 0.00 0.00 0.00 0.00 0.00 0.00 0.00 0.00 0.00 0.00 0.00 0.00 0.00 0.00 0.00 0.00 0.00 0.00 0.00 0.00 0.00 0.00 0.00 0.00 0.00 0.00 0.00 0.00 0.00 0.00 0.00
0.00 0.00 0.00 0.00 0.00 0.00 0.00 0.00 0.00 0.00 0.00 0.00 0.00 0.00 0.00 0.00 0.00 0.00 0.00 0.00 0.00 0.00 0.00 0.00 0.00 0.00 0.00 0.00 0.00 0.00 0.00 0.00 0.00 0.00 0.00 0.00 0.00 0.00 0.00 0.00 0.00 0.00 0.00 0.00
0.00 0.00 0.00 0.00 0.00 0.00 0.00 0.00 0.00 0.00 0.00 0.00 0.00 0.00 0.00 0.00 0.00 0.00 0.00 0.00 0.00 0.00 0.00 0.00 0.00 0.00 0.00 0.00 0.00 0.00 0.00 0.00 0.00 0.00 0.00 0.00 0.00 0.00 0.00 0.00 0.00 0.00 0.00 0.00
0.00 0.00 0.00 0.00 0.00 0.00 0.00 0.00 0.00 0.00 0.00 0.00 0.00 0.00 0.00 0.00 0.00 0.00 0.00 0.00 0.00 0.00 0.00 0.00 0.00 0.00 0.00 0.00 0.00 0.00 0.00 0.00 0.00 0.00 0.00 0.00 0.00 0.00 0.00 0.00 0.00 0.00 0.00 0.00
0.00 0.00 0.00 0.00 0.00 0.00 0.00 0.00 0.00 0.00 0.00 0.00 0.00 0.00 0.00 0.00 0.00 0.00 0.00 0.00 0.00 0.00 0.00 0.00 0.00 0.00 0.00 0.00 0.00 0.00 0.00 0.00 0.00 0.00 0.00 0.00 0.00 0.00 0.00 0.00 0.01 0.00 0.00 0.00
0.00 0.00 0.00 0.00 0.00 0.00 0.00 0.00 0.00 0.00 0.00 0.00 0.00 0.00 0.00 0.00 0.00 0.00 0.00 0.00 0.00 0.00 0.00 0.00 0.00 0.00 0.00 0.00 0.00 0.00 0.00 0.00 0.00 0.00 0.00 0.00 0.00 0.00 0.00 0.00 0.02 0.01 0.00 0.01
0.00 0.00 0.00 0.00 0.00 0.00 0.00 0.00 0.00 0.00 0.00 0.00 0.00 0.00 0.00 0.00 0.00 0.00 0.00 0.00 0.00 0.00 0.00 0.00 0.00 0.00 0.00 0.00 0.00 0.00 0.00 0.00 0.00 0.00 0.00 0.00 0.00 0.00 0.00 0.00 0.00 0.00 0.01 0.05
0.00 0.00 0.00 0.00 0.00 0.01 0.00 0.00 0.00 0.00 0.00 0.00 0.00 0.00 0.00 0.00 0.00 0.00 0.00 0.00 0.00 0.00 0.00 0.00 0.00 0.00 0.00 0.00 0.00 0.00 0.00 0.00 0.00 0.00 0.00 0.00 0.00 0.00 0.00 0.00 0.00 0.00 0.00 0.04
0.00 0.00 0.00 0.00 0.00 0.01 0.00 0.00 0.00 0.00 0.00 0.00 0.00 0.00 0.00 0.00 0.00 0.00 0.00 0.00 0.00 0.00 0.00 0.00 0.00 0.00 0.00 0.00 0.00 0.00 0.00 0.00 0.00 0.00 0.00 0.00 0.00 0.00 0.00 0.00 0.00 0.01 0.02 0.13
0.00 0.00 0.00 0.00 0.00 0.00 0.00 0.00 0.00 0.00 0.00 0.00 0.00 0.00 0.00 0.00 0.00 0.00 0.00 0.00 0.00 0.00 0.00 0.00 0.00 0.00 0.00 0.00 0.00 0.00 0.00 0.00 0.00 0.00 0.00 0.00 0.00 0.00 0.00 0.04 0.04 0.17 0.38 0.32
0.01 0.04 0.02 0.00 0.00 0.01 0.00 0.00 0.00 0.01 0.05 0.00 0.00 0.00 0.00 0.00 0.00 0.00 0.00 0.00 0.00 0.00 0.00 0.00 0.00 0.00 0.00 0.00 0.00 0.00 0.00 0.00 0.00 0.00 0.00 0.00 0.00 0.01 0.11 0.18 0.17 0.22 0.24 0.07
0.14 0.19 0.11 0.00 0.03 0.03 0.00 0.01 0.03 0.01 0.01 0.00 0.00 0.00 0.00 0.00 0.00 0.00 0.00 0.00 0.00 0.00 0.00 0.00 0.00 0.00 0.00 0.00 0.00 0.00 0.00 0.00 0.00 0.00 0.00 0.00 0.01 0.03 0.12 0.19 0.19 0.18 0.09 0.03
0.21 0.16 0.09 0.01 0.06 0.02 0.03 0.02 0.06 0.04 0.01 0.00 0.00 0.00 0.00 0.00 0.00 0.00 0.00 0.00 0.00 0.00 0.00 0.00 0.00 0.00 0.00 0.00 0.00 0.00 0.00 0.00 0.00 0.00 0.00 0.00 0.01 0.02 0.07 0.15 0.10 0.05 0.09 0.09
0.16 0.21 0.15 0.06 0.02 0.05 0.08 0.06 0.07 0.12 0.10 0.01 0.00 0.00 0.00 0.00 0.00 0.00 0.00 0.00 0.00 0.00 0.00 0.00 0.00 0.00 0.00 0.00 0.00 0.00 0.00 0.00 0.00 0.00 0.00 0.01 0.03 0.09 0.13 0.28 0.10 0.11 0.22 0.27
0.44 0.30 0.17 0.13 0.09 0.20 0.24 0.40 0.14 0.15 0.09 0.04 0.10 0.13 0.08 0.06 0.07 0.04 0.01 0.05 0.07 0.06 0.05 0.07 0.08 0.06 0.05 0.02 0.00 0.00 0.00 0.00 0.02 0.13 0.24 0.31 0.31 0.22 0.16 0.34 0.30 0.42 0.63 0.64
0.58 0.55 0.42 0.29 0.20 0.26 0.35 0.41 0.24 0.14 0.20 0.18 0.22 0.37 0.42 0.36 0.48 0.50 0.43 0.42 0.38 0.46 0.45 0.43 0.46 0.43 0.50 0.51 0.36 0.25 0.19 0.19 0.22 0.27 0.28 0.29 0.27 0.37 0.45 0.48 0.51 0.63 0.76 0.76

GFSCGP_prec_precacc_039.txt.gz
Total_Precipitation_Accumulation
0.00 0.00 0.00 0.00 0.00 0.00 0.00 0.00 0.00 0.00 0.00 0.00 0.00 0.01 0.08 0.00 0.18 0.47 0.22 0.10 0.04 0.00 0.00 0.00 0.00 0.00 0.00 0.00 0.00 0.00 0.00 0.01 0.02 0.07 0.03 0.03 0.01 0.00 0.00 0.00 0.01 0.02 0.02 0.11
0.00 0.00 0.00 0.00 0.00 0.00 0.00 0.00 0.00 0.00 0.00 0.00 0.00 0.00 0.00 0.00 0.06 0.22 0.14 0.08 0.03 0.00 0.00 0.00 0.00 0.00 0.00 0.00 0.00 0.00 0.00 0.00 0.00 0.01 0.01 0.01 0.01 0.00 0.00 0.00 0.01 0.01 0.02 0.05
0.00 0.00 0.00 0.00 0.00 0.00 0.00 0.00 0.00 0.00 0.00 0.00 0.00 0.01 0.02 0.01 0.03 0.01 0.07 0.05 0.09 0.00 0.00 0.00 0.00 0.00 0.00 0.00 0.00 0.00 0.00 0.00 0.01 0.02 0.02 0.07 0.08 0.03 0.01 0.00 0.03 0.01 0.02 0.02
0.00 0.00 0.00 0.00 0.00 0.00 0.00 0.00 0.00 0.00 0.00 0.00 0.00 0.00 0.01 0.02 0.03 0.01 0.00 0.00 0.07 0.01 0.01 0.00 0.00 0.00 0.00 0.00 0.00 0.00 0.00 0.00 0.01 0.03 0.01 0.05 0.02 0.01 0.00 0.00 0.00 0.01 0.01 0.01
0.00 0.00 0.00 0.00 0.00 0.00 0.00 0.00 0.00 0.00 0.00 0.00 0.00 0.00 0.00 0.00 0.00 0.00 0.00 0.00 0.10 0.15 0.01 0.01 0.00 0.00 0.00 0.00 0.00 0.00 0.00 0.00 0.01 0.02 0.01 0.04 0.01 0.00 0.00 0.00 0.00 0.01 0.03 0.00
0.00 0.00 0.00 0.00 0.00 0.00 0.00 0.00 0.00 0.00 0.00 0.00 0.00 0.00 0.00 0.00 0.00 0.00 0.00 0.00 0.00 0.00 0.00 0.01 0.00 0.00 0.00 0.00 0.00 0.00 0.00 0.00 0.00 0.01 0.01 0.04 0.03 0.00 0.00 0.00 0.00 0.00 0.00 0.00
0.00 0.00 0.00 0.00 0.00 0.00 0.00 0.00 0.00 0.00 0.00 0.00 0.00 0.00 0.00 0.00 0.00 0.00 0.00 0.01 0.00 0.00 0.00 0.01 0.00 0.00 0.00 0.00 0.00 0.00 0.00 0.00 0.00 0.00 0.00 0.01 0.01 0.01 0.01 0.01 0.00 0.00 0.00 0.00
0.00 0.00 0.00 0.00 0.00 0.00 0.00 0.00 0.00 0.00 0.00 0.00 0.00 0.00 0.00 0.00 0.00 0.00 0.00 0.00 0.00 0.00 0.00 0.00 0.00 0.00 0.00 0.00 0.00 0.00 0.00 0.00 0.00 0.00 0.00 0.00 0.00 0.00 0.00 0.00 0.00 0.00 0.00 0.00
0.00 0.00 0.00 0.00 0.00 0.00 0.00 0.00 0.00 0.00 0.00 0.00 0.00 0.00 0.00 0.00 0.00 0.00 0.00 0.00 0.00 0.00 0.00 0.00 0.00 0.00 0.00 0.00 0.00 0.00 0.00 0.00 0.00 0.00 0.00 0.00 0.00 0.00 0.00 0.00 0.00 0.00 0.00 0.00
0.00 0.00 0.00 0.00 0.00 0.00 0.00 0.00 0.00 0.00 0.00 0.00 0.00 0.00 0.00 0.00 0.00 0.00 0.00 0.00 0.00 0.00 0.00 0.00 0.00 0.00 0.00 0.00 0.00 0.00 0.00 0.00 0.00 0.00 0.00 0.00 0.00 0.00 0.00 0.00 0.00 0.00 0.00 0.00
0.00 0.00 0.00 0.00 0.00 0.00 0.00 0.00 0.00 0.00 0.00 0.00 0.00 0.00 0.00 0.00 0.00 0.00 0.00 0.00 0.00 0.00 0.00 0.00 0.00 0.00 0.00 0.00 0.00 0.00 0.00 0.00 0.00 0.00 0.00 0.00 0.00 0.00 0.00 0.00 0.00 0.00 0.00 0.00
0.02 0.01 0.00 0.00 0.00 0.00 0.00 0.00 0.00 0.00 0.00 0.00 0.00 0.00 0.00 0.00 0.00 0.00 0.00 0.00 0.00 0.00 0.00 0.00 0.00 0.00 0.00 0.00 0.00 0.00 0.00 0.00 0.00 0.00 0.00 0.00 0.00 0.00 0.00 0.00 0.00 0.00 0.00 0.00
0.08 0.03 0.00 0.00 0.00 0.00 0.00 0.00 0.00 0.00 0.00 0.00 0.00 0.00 0.00 0.00 0.00 0.00 0.00 0.00 0.00 0.00 0.00 0.00 0.00 0.00 0.00 0.00 0.00 0.00 0.00 0.00 0.00 0.00 0.00 0.00 0.00 0.00 0.00 0.00 0.00 0.00 0.00 0.00
0.12 0.02 0.00 0.00 0.00 0.00 0.00 0.00 0.00 0.00 0.00 0.00 0.00 0.00 0.00 0.00 0.00 0.00 0.00 0.00 0.00 0.00 0.00 0.00 0.00 0.00 0.00 0.00 0.00 0.00 0.00 0.00 0.00 0.00 0.00 0.00 0.00 0.00 0.00 0.00 0.00 0.00 0.00 0.00
0.06 0.01 0.00 0.00 0.00 0.00 0.00 0.00 0.00 0.00 0.00 0.00 0.00 0.00 0.00 0.00 0.00 0.00 0.00 0.00 0.00 0.00 0.00 0.00 0.00 0.00 0.00 0.00 0.00 0.00 0.00 0.00 0.00 0.00 0.00 0.00 0.00 0.00 0.00 0.00 0.01 0.00 0.00 0.00
0.03 0.01 0.00 0.00 0.00 0.00 0.00 0.00 0.00 0.00 0.00 0.00 0.00 0.00 0.00 0.00 0.00 0.00 0.00 0.00 0.00 0.00 0.00 0.00 0.00 0.00 0.00 0.00 0.00 0.00 0.00 0.00 0.00 0.00 0.00 0.00 0.00 0.00 0.00 0.00 0.02 0.01 0.00 0.01
0.01 0.00 0.00 0.00 0.00 0.00 0.00 0.00 0.00 0.00 0.00 0.00 0.00 0.00 0.00 0.00 0.00 0.00 0.00 0.00 0.00 0.00 0.00 0.00 0.00 0.00 0.00 0.00 0.00 0.00 0.00 0.00 0.00 0.00 0.00 0.00 0.00 0.00 0.00 0.00 0.00 0.00 0.01 0.05
0.00 0.01 0.00 0.00 0.00 0.01 0.00 0.00 0.00 0.00 0.00 0.00 0.00 0.00 0.00 0.00 0.00 0.00 0.00 0.00 0.00 0.00 0.00 0.00 0.00 0.00 0.00 0.01 0.00 0.00 0.00 0.00 0.00 0.00 0.00 0.00 0.00 0.00 0.00 0.00 0.00 0.00 0.00 0.04
0.01 0.01 0.00 0.00 0.00 0.01 0.00 0.00 0.00 0.00 0.00 0.00 0.00 0.00 0.00 0.00 0.00 0.00 0.00 0.00 0.00 0.00 0.00 0.00 0.00 0.00 0.00 0.00 0.00 0.00 0.00 0.00 0.00 0.00 0.00 0.00 0.00 0.00 0.00 0.00 0.00 0.01 0.02 0.13
0.05 0.01 0.00 0.00 0.02 0.00 0.00 0.00 0.00 0.00 0.00 0.00 0.00 0.00 0.00 0.00 0.00 0.00 0.00 0.00 0.00 0.00 0.00 0.00 0.00 0.00 0.00 0.00 0.00 0.00 0.00 0.00 0.00 0.00 0.00 0.00 0.00 0.00 0.00 0.04 0.04 0.17 0.38 0.32
0.09 0.06 0.02 0.01 0.06 0.03 0.00 0.00 0.00 0.02 0.05 0.01 0.01 0.00 0.00 0.00 0.00 0.00 0.00 0.00 0.00 0.00 0.00 0.00 0.00 0.00 0.00 0.00 0.00 0.00 0.00 0.00 0.00 0.00 0.00 0.00 0.00 0.01 0.11 0.18 0.17 0.22 0.24 0.07
0.31 0.30 0.15 0.03 0.13 0.14 0.02 0.05 0.04 0.01 0.01 0.01 0.01 0.00 0.00 0.00 0.00 0.01 0.00 0.00 0.00 0.00 0.00 0.00 0.00 0.00 0.00 0.00 0.00 0.00 0.00 0.00 0.00 0.00 0.00 0.00 0.01 0.03 0.12 0.19 0.19 0.18 0.09 0.03
0.37 0.33 0.22 0.09 0.19 0.08 0.09 0.13 0.07 0.04 0.01 0.01 0.00 0.00 0.00 0.00 0.01 0.02 0.00 0.00 0.00 0.00 0.00 0.00 0.00 0.00 0.00 0.00 0.00 0.00 0.00 0.00 0.00 0.00 0.00 0.00 0.01 0.02 0.07 0.15 0.10 0.05 0.09 0.09
0.19 0.24 0.20 0.08 0.05 0.06 0.12 0.16 0.09 0.12 0.10 0.01 0.00 0.00 0.00 0.00 0.00 0.02 0.02 0.00 0.00 0.00 0.00 0.00 0.00 0.00 0.00 0.00 0.00 0.00 0.00 0.00 0.00 0.00 0.00 0.01 0.03 0.09 0.13 0.28 0.10 0.11 0.22 0.27
0.46 0.31 0.19 0.13 0.09 0.20 0.24 0.42 0.21 0.18 0.09 0.04 0.10 0.13 0.08 0.06 0.07 0.05 0.03 0.06 0.07 0.06 0.05 0.07 0.08 0.06 0.05 0.02 0.00 0.00 0.00 0.00 0.02 0.13 0.24 0.31 0.31 0.22 0.16 0.34 0.30 0.42 0.63 0.64
0.60 0.59 0.45 0.30 0.20 0.26 0.35 0.42 0.26 0.30 0.29 0.18 0.22 0.37 0.42 0.36 0.48 0.51 0.44 0.43 0.38 0.46 0.45 0.43 0.46 0.43 0.50 0.51 0.36 0.25 0.19 0.19 0.22 0.27 0.28 0.29 0.27 0.37 0.45 0.48 0.51 0.63 0.76 0.77

GFSCGP_prec_precacc_042.txt.gz
Total_Precipitation_Accumulation
0.00 0.00 0.00 0.00 0.00 0.00 0.00 0.00 0.00 0.00 0.00 0.00 0.00 0.01 0.08 0.00 0.18 0.47 0.22 0.10 0.04 0.00 0.00 0.00 0.00 0.00 0.00 0.00 0.00 0.00 0.00 0.01 0.02 0.07 0.03 0.03 0.01 0.00 0.00 0.00 0.01 0.02 0.02 0.11
0.00 0.00 0.00 0.00 0.00 0.00 0.00 0.00 0.00 0.00 0.00 0.00 0.00 0.00 0.00 0.00 0.06 0.22 0.14 0.08 0.03 0.00 0.00 0.00 0.00 0.00 0.00 0.00 0.00 0.00 0.00 0.00 0.00 0.01 0.01 0.01 0.01 0.00 0.00 0.00 0.01 0.01 0.02 0.05
0.00 0.00 0.00 0.00 0.00 0.00 0.00 0.00 0.00 0.00 0.00 0.00 0.00 0.01 0.02 0.01 0.03 0.01 0.07 0.05 0.09 0.00 0.00 0.00 0.00 0.00 0.00 0.00 0.00 0.00 0.00 0.00 0.01 0.02 0.02 0.07 0.08 0.03 0.01 0.00 0.03 0.01 0.02 0.02
0.00 0.00 0.00 0.00 0.00 0.00 0.00 0.00 0.00 0.00 0.00 0.00 0.00 0.00 0.01 0.02 0.03 0.01 0.00 0.00 0.07 0.01 0.01 0.00 0.00 0.00 0.00 0.00 0.00 0.00 0.00 0.00 0.01 0.03 0.01 0.05 0.02 0.01 0.00 0.00 0.00 0.01 0.01 0.01
0.00 0.00 0.00 0.00 0.00 0.00 0.00 0.00 0.00 0.00 0.00 0.00 0.00 0.00 0.00 0.00 0.00 0.00 0.00 0.00 0.10 0.15 0.01 0.01 0.00 0.00 0.00 0.00 0.00 0.00 0.00 0.00 0.01 0.02 0.01 0.04 0.01 0.00 0.00 0.00 0.00 0.01 0.03 0.00
0.00 0.00 0.00 0.00 0.00 0.00 0.00 0.00 0.00 0.00 0.00 0.00 0.00 0.00 0.00 0.00 0.00 0.00 0.00 0.00 0.00 0.00 0.00 0.01 0.00 0.00 0.00 0.00 0.00 0.00 0.00 0.00 0.00 0.01 0.01 0.04 0.03 0.00 0.00 0.00 0.00 0.00 0.00 0.00
0.00 0.00 0.00 0.00 0.00 0.00 0.00 0.00 0.00 0.00 0.00 0.00 0.00 0.00 0.00 0.00 0.00 0.00 0.00 0.01 0.00 0.00 0.00 0.01 0.00 0.00 0.00 0.00 0.00 0.00 0.00 0.00 0.00 0.00 0.00 0.01 0.01 0.01 0.01 0.01 0.00 0.00 0.00 0.00
0.00 0.00 0.00 0.00 0.00 0.00 0.00 0.00 0.00 0.00 0.00 0.00 0.00 0.00 0.00 0.00 0.00 0.00 0.00 0.00 0.00 0.00 0.00 0.00 0.00 0.00 0.00 0.00 0.00 0.00 0.00 0.00 0.00 0.00 0.00 0.00 0.00 0.00 0.00 0.00 0.00 0.00 0.00 0.00
0.00 0.00 0.00 0.00 0.00 0.00 0.00 0.00 0.00 0.00 0.00 0.00 0.00 0.00 0.00 0.00 0.00 0.00 0.00 0.00 0.00 0.00 0.00 0.00 0.00 0.00 0.00 0.00 0.00 0.00 0.00 0.00 0.00 0.00 0.00 0.00 0.00 0.00 0.00 0.00 0.00 0.00 0.00 0.00
0.00 0.00 0.00 0.00 0.00 0.00 0.00 0.00 0.00 0.00 0.00 0.00 0.00 0.00 0.00 0.00 0.00 0.00 0.00 0.00 0.00 0.00 0.00 0.00 0.00 0.00 0.00 0.00 0.00 0.00 0.00 0.00 0.00 0.00 0.00 0.00 0.00 0.00 0.00 0.00 0.00 0.00 0.00 0.00
0.00 0.01 0.00 0.00 0.00 0.00 0.00 0.00 0.00 0.00 0.00 0.00 0.00 0.00 0.00 0.00 0.00 0.00 0.00 0.00 0.00 0.00 0.00 0.00 0.00 0.00 0.00 0.00 0.00 0.00 0.00 0.00 0.00 0.00 0.00 0.00 0.00 0.00 0.00 0.00 0.00 0.00 0.00 0.00
0.03 0.05 0.01 0.00 0.00 0.00 0.00 0.00 0.00 0.00 0.00 0.00 0.00 0.00 0.00 0.00 0.00 0.00 0.00 0.00 0.00 0.00 0.00 0.00 0.00 0.00 0.00 0.00 0.00 0.00 0.00 0.00 0.00 0.00 0.00 0.00 0.00 0.00 0.00 0.00 0.00 0.00 0.00 0.00
0.11 0.09 0.02 0.00 0.00 0.00 0.00 0.00 0.00 0.00 0.00 0.00 0.00 0.00 0.00 0.00 0.00 0.00 0.00 0.00 0.00 0.00 0.00 0.00 0.00 0.00 0.00 0.00 0.00 0.00 0.00 0.00 0.00 0.00 0.00 0.00 0.00 0.00 0.00 0.00 0.00 0.00 0.00 0.00
0.25 0.09 0.02 0.00 0.00 0.00 0.00 0.00 0.00 0.00 0.00 0.00 0.00 0.00 0.00 0.00 0.00 0.00 0.00 0.00 0.00 0.00 0.00 0.00 0.00 0.00 0.00 0.00 0.00 0.00 0.00 0.00 0.00 0.00 0.00 0.00 0.00 0.00 0.00 0.00 0.00 0.00 0.00 0.00
0.18 0.07 0.00 0.00 0.00 0.00 0.00 0.00 0.00 0.00 0.00 0.00 0.00 0.00 0.00 0.00 0.00 0.00 0.00 0.00 0.00 0.00 0.00 0.00 0.00 0.00 0.00 0.00 0.00 0.00 0.00 0.00 0.00 0.00 0.00 0.00 0.00 0.00 0.00 0.00 0.01 0.00 0.00 0.00
0.08 0.06 0.02 0.00 0.00 0.00 0.00 0.00 0.00 0.00 0.00 0.00 0.00 0.00 0.00 0.00 0.00 0.00 0.00 0.00 0.00 0.00 0.00 0.00 0.00 0.00 0.00 0.00 0.00 0.00 0.00 0.00 0.00 0.00 0.00 0.00 0.00 0.00 0.00 0.00 0.02 0.01 0.00 0.01
0.07 0.08 0.04 0.00 0.00 0.00 0.00 0.00 0.00 0.00 0.00 0.00 0.00 0.00 0.00 0.00 0.00 0.00 0.00 0.00 0.00 0.00 0.00 0.00 0.00 0.00 0.00 0.00 0.00 0.00 0.00 0.00 0.00 0.00 0.00 0.00 0.00 0.00 0.00 0.00 0.00 0.00 0.01 0.05
0.03 0.11 0.04 0.00 0.00 0.01 0.00 0.00 0.00 0.00 0.00 0.00 0.00 0.00 0.00 0.00 0.00 0.00 0.00 0.00 0.00 0.00 0.00 0.00 0.00 0.00 0.00 0.01 0.00 0.00 0.00 0.00 0.00 0.00 0.00 0.00 0.00 0.00 0.00 0.00 0.00 0.00 0.00 0.04
0.03 0.10 0.06 0.02 0.00 0.01 0.00 0.00 0.00 0.00 0.00 0.00 0.00 0.00 0.00 0.00 0.00 0.00 0.00 0.00 0.00 0.00 0.00 0.00 0.00 0.00 0.00 0.00 0.00 0.00 0.00 0.00 0.00 0.00 0.00 0.00 0.00 0.00 0.00 0.00 0.00 0.01 0.02 0.13
0.11 0.09 0.12 0.04 0.04 0.03 0.00 0.00 0.00 0.00 0.00 0.00 0.00 0.00 0.00 0.00 0.00 0.00 0.00 0.00 0.00 0.00 0.00 0.00 0.00 0.00 0.00 0.00 0.00 0.00 0.00 0.00 0.00 0.00 0.00 0.00 0.00 0.00 0.00 0.04 0.04 0.17 0.38 0.32
0.22 0.20 0.12 0.05 0.09 0.05 0.01 0.00 0.00 0.02 0.05 0.01 0.01 0.00 0.00 0.00 0.00 0.00 0.00 0.00 0.00 0.00 0.00 0.00 0.00 0.00 0.00 0.00 0.00 0.00 0.00 0.00 0.00 0.00 0.00 0.00 0.00 0.01 0.11 0.18 0.17 0.22 0.24 0.07
0.46 0.50 0.35 0.16 0.16 0.19 0.04 0.06 0.04 0.02 0.01 0.01 0.01 0.00 0.00 0.00 0.01 0.02 0.00 0.00 0.00 0.00 0.00 0.00 0.00 0.00 0.00 0.00 0.00 0.00 0.00 0.00 0.00 0.00 0.00 0.00 0.01 0.03 0.12 0.19 0.19 0.18 0.09 0.03
0.47 0.48 0.43 0.22 0.26 0.12 0.11 0.14 0.07 0.04 0.01 0.01 0.00 0.00 0.00 0.00 0.02 0.05 0.03 0.01 0.00 0.00 0.00 0.00 0.00 0.00 0.00 0.00 0.00 0.00 0.00 0.00 0.00 0.00 0.00 0.00 0.01 0.02 0.07 0.15 0.10 0.05 0.09 0.09
0.28 0.35 0.32 0.13 0.07 0.11 0.13 0.17 0.09 0.12 0.10 0.01 0.00 0.00 0.00 0.00 0.00 0.03 0.03 0.03 0.02 0.01 0.00 0.00 0.00 0.00 0.00 0.00 0.00 0.00 0.00 0.00 0.00 0.00 0.00 0.01 0.03 0.09 0.13 0.28 0.10 0.11 0.22 0.27
0.48 0.37 0.28 0.15 0.10 0.23 0.27 0.43 0.21 0.18 0.09 0.04 0.10 0.13 0.08 0.06 0.07 0.06 0.03 0.06 0.08 0.08 0.06 0.08 0.08 0.06 0.05 0.02 0.00 0.00 0.00 0.00 0.02 0.13 0.24 0.31 0.31 0.22 0.16 0.34 0.30 0.42 0.63 0.64
0.70 0.67 0.52 0.32 0.21 0.27 0.39 0.43 0.26 0.31 0.30 0.18 0.22 0.37 0.42 0.36 0.48 0.51 0.44 0.43 0.39 0.46 0.46 0.43 0.46 0.43 0.50 0.51 0.36 0.25 0.19 0.19 0.22 0.27 0.28 0.29 0.27 0.37 0.45 0.48 0.51 0.64 0.77 0.77

GFSCGP_prec_precacc_045.txt.gz
Total_Precipitation_Accumulation
0.00 0.00 0.00 0.00 0.00 0.00 0.00 0.00 0.00 0.00 0.00 0.00 0.00 0.01 0.08 0.00 0.18 0.47 0.22 0.10 0.04 0.00 0.00 0.00 0.00 0.00 0.00 0.00 0.00 0.00 0.00 0.01 0.02 0.07 0.03 0.03 0.01 0.00 0.00 0.00 0.01 0.02 0.02 0.11
0.00 0.00 0.00 0.00 0.00 0.00 0.00 0.00 0.00 0.00 0.00 0.00 0.00 0.00 0.00 0.00 0.06 0.22 0.14 0.08 0.03 0.00 0.00 0.00 0.00 0.00 0.00 0.00 0.00 0.00 0.00 0.00 0.00 0.01 0.01 0.01 0.01 0.00 0.00 0.00 0.01 0.01 0.02 0.05
0.00 0.00 0.00 0.00 0.00 0.00 0.00 0.00 0.00 0.00 0.00 0.00 0.00 0.01 0.02 0.01 0.03 0.01 0.07 0.05 0.09 0.00 0.00 0.00 0.00 0.00 0.00 0.00 0.00 0.00 0.00 0.00 0.01 0.02 0.02 0.07 0.08 0.03 0.01 0.00 0.03 0.01 0.02 0.02
0.00 0.00 0.00 0.00 0.00 0.00 0.00 0.00 0.00 0.00 0.00 0.00 0.00 0.00 0.01 0.02 0.03 0.01 0.00 0.00 0.07 0.01 0.01 0.00 0.00 0.00 0.00 0.00 0.00 0.00 0.00 0.00 0.01 0.03 0.01 0.05 0.02 0.01 0.00 0.00 0.00 0.01 0.01 0.01
0.00 0.00 0.00 0.00 0.00 0.00 0.00 0.00 0.00 0.00 0.00 0.00 0.00 0.00 0.00 0.00 0.00 0.00 0.00 0.00 0.10 0.15 0.01 0.01 0.00 0.00 0.00 0.00 0.00 0.00 0.00 0.00 0.01 0.02 0.01 0.04 0.01 0.00 0.00 0.00 0.00 0.01 0.03 0.00
0.00 0.00 0.00 0.00 0.00 0.00 0.00 0.00 0.00 0.00 0.00 0.00 0.00 0.00 0.00 0.00 0.00 0.00 0.00 0.00 0.00 0.00 0.00 0.01 0.00 0.00 0.00 0.00 0.00 0.00 0.00 0.00 0.00 0.01 0.01 0.04 0.03 0.00 0.00 0.00 0.00 0.00 0.00 0.00
0.00 0.00 0.00 0.00 0.00 0.00 0.00 0.00 0.00 0.00 0.00 0.00 0.00 0.00 0.00 0.00 0.00 0.00 0.00 0.01 0.00 0.00 0.00 0.01 0.00 0.00 0.00 0.00 0.00 0.00 0.00 0.00 0.00 0.00 0.00 0.01 0.01 0.01 0.01 0.01 0.00 0.00 0.00 0.00
0.00 0.00 0.00 0.00 0.00 0.00 0.00 0.00 0.00 0.00 0.00 0.00 0.00 0.00 0.00 0.00 0.00 0.00 0.00 0.00 0.00 0.00 0.00 0.00 0.00 0.00 0.00 0.00 0.00 0.00 0.00 0.00 0.00 0.00 0.00 0.00 0.00 0.00 0.00 0.00 0.00 0.00 0.00 0.00
0.00 0.00 0.00 0.00 0.00 0.00 0.00 0.00 0.00 0.00 0.00 0.00 0.00 0.00 0.00 0.00 0.00 0.00 0.00 0.00 0.00 0.00 0.00 0.00 0.00 0.00 0.00 0.00 0.00 0.00 0.00 0.00 0.00 0.00 0.00 0.00 0.00 0.00 0.00 0.00 0.00 0.00 0.00 0.00
0.00 0.00 0.00 0.00 0.00 0.00 0.00 0.00 0.00 0.00 0.00 0.00 0.00 0.00 0.00 0.00 0.00 0.00 0.00 0.00 0.00 0.00 0.00 0.00 0.00 0.00 0.00 0.00 0.00 0.00 0.00 0.00 0.00 0.00 0.00 0.00 0.00 0.00 0.00 0.00 0.00 0.00 0.00 0.00
0.00 0.01 0.00 0.00 0.00 0.00 0.00 0.00 0.00 0.00 0.00 0.00 0.00 0.00 0.00 0.00 0.00 0.00 0.00 0.00 0.00 0.00 0.00 0.00 0.00 0.00 0.00 0.00 0.00 0.00 0.00 0.00 0.00 0.00 0.00 0.00 0.00 0.00 0.00 0.00 0.00 0.00 0.00 0.00
0.03 0.05 0.01 0.00 0.00 0.00 0.00 0.00 0.00 0.00 0.00 0.00 0.00 0.00 0.00 0.00 0.00 0.00 0.00 0.00 0.00 0.00 0.00 0.00 0.00 0.00 0.00 0.00 0.00 0.00 0.00 0.00 0.00 0.00 0.00 0.00 0.00 0.00 0.00 0.00 0.00 0.00 0.00 0.00
0.11 0.09 0.03 0.00 0.00 0.00 0.00 0.00 0.00 0.00 0.00 0.00 0.00 0.00 0.00 0.00 0.00 0.00 0.00 0.00 0.00 0.00 0.00 0.00 0.00 0.00 0.00 0.00 0.00 0.00 0.00 0.00 0.00 0.00 0.00 0.00 0.00 0.00 0.00 0.00 0.00 0.00 0.00 0.00
0.26 0.11 0.02 0.00 0.00 0.00 0.00 0.00 0.00 0.00 0.00 0.00 0.00 0.00 0.00 0.00 0.00 0.00 0.00 0.00 0.00 0.00 0.00 0.00 0.00 0.00 0.00 0.00 0.00 0.00 0.00 0.00 0.00 0.00 0.00 0.00 0.00 0.00 0.00 0.00 0.00 0.00 0.00 0.00
0.18 0.08 0.01 0.00 0.00 0.00 0.00 0.00 0.00 0.00 0.00 0.00 0.00 0.00 0.00 0.00 0.00 0.00 0.00 0.00 0.00 0.00 0.00 0.00 0.00 0.00 0.00 0.00 0.00 0.00 0.00 0.00 0.00 0.00 0.00 0.00 0.00 0.00 0.00 0.00 0.01 0.00 0.00 0.00
0.08 0.07 0.03 0.01 0.00 0.00 0.00 0.00 0.00 0.00 0.00 0.00 0.00 0.00 0.00 0.00 0.00 0.00 0.00 0.00 0.00 0.00 0.00 0.00 0.00 0.00 0.00 0.00 0.00 0.00 0.00 0.00 0.00 0.00 0.00 0.00 0.00 0.00 0.00 0.00 0.02 0.01 0.00 0.01
0.07 0.08 0.08 0.02 0.00 0.00 0.00 0.00 0.00 0.00 0.00 0.00 0.00 0.00 0.00 0.00 0.00 0.00 0.00 0.00 0.00 0.00 0.00 0.00 0.00 0.00 0.00 0.00 0.00 0.00 0.00 0.00 0.00 0.00 0.00 0.00 0.00 0.00 0.00 0.00 0.00 0.00 0.01 0.05
0.04 0.14 0.12 0.03 0.04 0.06 0.00 0.00 0.00 0.00 0.00 0.00 0.00 0.00 0.00 0.00 0.00 0.00 0.00 0.00 0.00 0.00 0.00 0.00 0.00 0.00 0.00 0.01 0.00 0.00 0.00 0.00 0.00 0.00 0.00 0.00 0.00 0.00 0.00 0.00 0.00 0.00 0.00 0.04
0.04 0.17 0.15 0.13 0.14 0.12 0.04 0.00 0.00 0.00 0.00 0.00 0.00 0.00 0.00 0.00 0.00 0.00 0.00 0.00 0.00 0.00 0.00 0.00 0.00 0.00 0.00 0.00 0.00 0.00 0.00 0.00 0.00 0.00 0.00 0.00 0.00 0.00 0.00 0.00 0.00 0.01 0.02 0.13
0.13 0.15 0.27 0.22 0.30 0.31 0.03 0.00 0.00 0.00 0.00 0.00 0.00 0.00 0.00 0.00 0.00 0.00 0.00 0.01 0.00 0.00 0.00 0.00 0.00 0.00 0.00 0.00 0.00 0.00 0.00 0.00 0.00 0.00 0.00 0.00 0.00 0.00 0.00 0.04 0.04 0.17 0.38 0.32
0.28 0.30 0.28 0.20 0.32 0.40 0.03 0.01 0.00 0.02 0.05 0.01 0.01 0.00 0.00 0.00 0.00 0.02 0.02 0.01 0.01 0.01 0.00 0.00 0.00 0.00 0.00 0.00 0.00 0.00 0.00 0.00 0.00 0.00 0.00 0.00 0.00 0.01 0.11 0.18 0.17 0.22 0.24 0.07
0.57 0.67 0.66 0.38 0.45 0.55 0.07 0.08 0.05 0.02 0.01 0.01 0.01 0.00 0.00 0.00 0.02 0.03 0.01 0.01 0.01 0.00 0.00 0.00 0.00 0.00 0.00 0.00 0.00 0.00 0.00 0.00 0.00 0.00 0.00 0.00 0.01 0.03 0.12 0.19 0.19 0.18 0.09 0.03
0.63 0.68 0.64 0.44 0.62 0.44 0.15 0.15 0.07 0.04 0.01 0.01 0.01 0.00 0.00 0.00 0.02 0.05 0.03 0.02 0.01 0.00 0.00 0.00 0.00 0.00 0.00 0.00 0.00 0.00 0.00 0.00 0.00 0.00 0.00 0.00 0.01 0.02 0.07 0.15 0.10 0.05 0.09 0.09
0.44 0.50 0.45 0.26 0.23 0.31 0.17 0.17 0.09 0.12 0.10 0.01 0.00 0.00 0.00 0.00 0.00 0.03 0.04 0.03 0.02 0.01 0.00 0.00 0.00 0.00 0.00 0.00 0.00 0.00 0.00 0.00 0.00 0.00 0.00 0.01 0.03 0.09 0.13 0.28 0.10 0.11 0.22 0.27
0.60 0.51 0.42 0.24 0.20 0.32 0.28 0.43 0.21 0.18 0.09 0.04 0.10 0.13 0.08 0.06 0.07 0.06 0.04 0.07 0.10 0.10 0.08 0.08 0.08 0.06 0.05 0.02 0.00 0.00 0.00 0.00 0.02 0.13 0.24 0.31 0.31 0.22 0.16 0.34 0.30 0.42 0.63 0.64
0.88 0.92 0.77 0.46 0.30 0.35 0.40 0.43 0.26 0.31 0.30 0.18 0.22 0.37 0.43 0.36 0.48 0.51 0.44 0.43 0.40 0.48 0.49 0.46 0.46 0.43 0.50 0.51 0.36 0.25 0.19 0.19 0.22 0.27 0.28 0.29 0.27 0.37 0.45 0.48 0.51 0.64 0.77 0.77

GFSCGP_prec_precacc_048.txt.gz
Total_Precipitation_Accumulation
0.00 0.00 0.00 0.00 0.00 0.00 0.00 0.00 0.00 0.00 0.00 0.01 0.00 0.01 0.08 0.00 0.18 0.47 0.22 0.10 0.04 0.00 0.00 0.00 0.00 0.00 0.00 0.00 0.00 0.00 0.00 0.01 0.02 0.07 0.03 0.03 0.01 0.00 0.00 0.00 0.01 0.02 0.02 0.11
0.00 0.00 0.00 0.00 0.00 0.00 0.00 0.00 0.00 0.00 0.00 0.00 0.00 0.00 0.00 0.00 0.06 0.22 0.14 0.08 0.03 0.00 0.00 0.00 0.00 0.00 0.00 0.00 0.00 0.00 0.00 0.00 0.00 0.01 0.01 0.01 0.01 0.00 0.00 0.00 0.01 0.01 0.02 0.05
0.00 0.00 0.00 0.00 0.00 0.00 0.00 0.00 0.00 0.00 0.00 0.00 0.00 0.01 0.02 0.01 0.03 0.01 0.07 0.05 0.09 0.00 0.00 0.00 0.00 0.00 0.00 0.00 0.00 0.00 0.00 0.00 0.01 0.02 0.02 0.07 0.08 0.03 0.01 0.00 0.03 0.01 0.02 0.02
0.00 0.00 0.00 0.00 0.00 0.00 0.00 0.00 0.00 0.00 0.00 0.00 0.00 0.00 0.01 0.02 0.03 0.01 0.00 0.00 0.07 0.01 0.01 0.00 0.00 0.00 0.00 0.00 0.00 0.00 0.00 0.00 0.01 0.03 0.01 0.05 0.02 0.01 0.00 0.00 0.00 0.01 0.01 0.01
0.00 0.00 0.00 0.00 0.00 0.00 0.00 0.00 0.00 0.00 0.00 0.00 0.00 0.00 0.00 0.00 0.00 0.00 0.00 0.00 0.10 0.15 0.01 0.01 0.00 0.00 0.00 0.00 0.00 0.00 0.00 0.00 0.01 0.02 0.01 0.04 0.01 0.00 0.00 0.00 0.00 0.01 0.03 0.00
0.00 0.00 0.00 0.00 0.00 0.00 0.00 0.00 0.00 0.00 0.00 0.00 0.00 0.00 0.00 0.00 0.00 0.00 0.00 0.00 0.00 0.00 0.00 0.01 0.00 0.00 0.00 0.00 0.00 0.00 0.00 0.00 0.00 0.01 0.01 0.04 0.03 0.00 0.00 0.00 0.00 0.00 0.00 0.00
0.00 0.00 0.00 0.00 0.00 0.00 0.00 0.00 0.00 0.00 0.00 0.00 0.00 0.00 0.00 0.00 0.00 0.00 0.00 0.01 0.00 0.00 0.00 0.01 0.00 0.00 0.00 0.00 0.00 0.00 0.00 0.00 0.00 0.00 0.00 0.01 0.01 0.01 0.01 0.01 0.00 0.00 0.00 0.00
0.00 0.00 0.00 0.00 0.00 0.00 0.00 0.00 0.00 0.00 0.00 0.00 0.00 0.00 0.00 0.00 0.00 0.00 0.00 0.00 0.00 0.00 0.00 0.00 0.00 0.00 0.00 0.00 0.00 0.00 0.00 0.00 0.00 0.00 0.00 0.00 0.00 0.00 0.00 0.00 0.00 0.00 0.00 0.00
0.00 0.00 0.00 0.00 0.00 0.00 0.00 0.00 0.00 0.00 0.00 0.00 0.00 0.00 0.00 0.00 0.00 0.00 0.00 0.00 0.00 0.00 0.00 0.00 0.00 0.00 0.00 0.00 0.00 0.00 0.00 0.00 0.00 0.00 0.00 0.00 0.00 0.00 0.00 0.00 0.00 0.00 0.00 0.00
0.00 0.00 0.00 0.00 0.00 0.00 0.00 0.00 0.00 0.00 0.00 0.00 0.00 0.00 0.00 0.00 0.00 0.00 0.00 0.00 0.00 0.00 0.00 0.00 0.00 0.00 0.00 0.00 0.00 0.00 0.00 0.00 0.00 0.00 0.00 0.00 0.00 0.00 0.00 0.00 0.00 0.00 0.00 0.00
0.00 0.01 0.00 0.00 0.00 0.00 0.00 0.00 0.00 0.00 0.00 0.00 0.00 0.00 0.00 0.00 0.00 0.00 0.00 0.00 0.00 0.00 0.00 0.00 0.00 0.00 0.00 0.00 0.00 0.00 0.00 0.00 0.00 0.00 0.00 0.00 0.00 0.00 0.00 0.00 0.00 0.00 0.00 0.00
0.03 0.05 0.01 0.00 0.00 0.00 0.00 0.00 0.00 0.00 0.00 0.00 0.00 0.00 0.00 0.00 0.00 0.00 0.00 0.00 0.00 0.00 0.00 0.00 0.00 0.00 0.00 0.00 0.00 0.00 0.00 0.00 0.00 0.00 0.00 0.00 0.00 0.00 0.00 0.00 0.00 0.00 0.00 0.00
0.11 0.09 0.03 0.00 0.00 0.00 0.00 0.00 0.00 0.00 0.00 0.00 0.00 0.00 0.00 0.00 0.00 0.00 0.00 0.00 0.00 0.00 0.00 0.00 0.00 0.00 0.00 0.00 0.00 0.00 0.00 0.00 0.00 0.00 0.00 0.00 0.00 0.00 0.00 0.00 0.00 0.00 0.00 0.00
0.26 0.11 0.02 0.00 0.00 0.00 0.00 0.00 0.00 0.00 0.00 0.00 0.00 0.00 0.00 0.00 0.00 0.00 0.00 0.00 0.00 0.00 0.00 0.00 0.00 0.00 0.00 0.00 0.00 0.00 0.00 0.00 0.00 0.00 0.00 0.00 0.00 0.00 0.00 0.00 0.00 0.00 0.00 0.00
0.18 0.08 0.01 0.00 0.00 0.00 0.00 0.00 0.00 0.00 0.00 0.00 0.00 0.00 0.00 0.00 0.00 0.00 0.00 0.00 0.00 0.00 0.00 0.00 0.00 0.00 0.00 0.00 0.00 0.00 0.00 0.00 0.00 0.00 0.00 0.00 0.00 0.00 0.00 0.00 0.01 0.00 0.00 0.00
0.09 0.07 0.03 0.01 0.00 0.00 0.00 0.00 0.00 0.00 0.00 0.00 0.00 0.00 0.00 0.00 0.00 0.00 0.00 0.00 0.00 0.00 0.00 0.00 0.00 0.00 0.00 0.00 0.00 0.00 0.00 0.00 0.00 0.00 0.00 0.00 0.00 0.00 0.00 0.00 0.02 0.01 0.00 0.01
0.10 0.09 0.09 0.02 0.00 0.01 0.00 0.00 0.00 0.00 0.00 0.00 0.00 0.00 0.00 0.00 0.00 0.00 0.00 0.00 0.00 0.00 0.00 0.00 0.00 0.00 0.00 0.00 0.00 0.00 0.00 0.00 0.00 0.00 0.00 0.00 0.00 0.00 0.00 0.00 0.00 0.00 0.01 0.05
0.07 0.17 0.15 0.03 0.06 0.10 0.01 0.00 0.00 0.00 0.00 0.00 0.00 0.00 0.00 0.00 0.00 0.00 0.00 0.00 0.00 0.00 0.00 0.00 0.00 0.00 0.00 0.01 0.00 0.00 0.00 0.00 0.00 0.00 0.00 0.00 0.00 0.00 0.00 0.00 0.00 0.00 0.00 0.04
0.07 0.20 0.17 0.16 0.19 0.15 0.08 0.02 0.00 0.00 0.01 0.00 0.00 0.00 0.00 0.00 0.00 0.00 0.00 0.00 0.00 0.00 0.00 0.00 0.00 0.00 0.00 0.00 0.00 0.00 0.00 0.00 0.00 0.00 0.00 0.00 0.00 0.00 0.00 0.00 0.00 0.01 0.02 0.13
0.16 0.20 0.32 0.27 0.39 0.44 0.19 0.09 0.02 0.03 0.04 0.00 0.00 0.00 0.00 0.01 0.02 0.00 0.00 0.01 0.00 0.00 0.00 0.00 0.00 0.00 0.00 0.00 0.00 0.00 0.00 0.00 0.00 0.00 0.00 0.00 0.00 0.00 0.00 0.04 0.04 0.17 0.38 0.32
0.31 0.35 0.32 0.23 0.39 0.52 0.24 0.13 0.11 0.14 0.09 0.01 0.01 0.00 0.00 0.01 0.00 0.02 0.02 0.01 0.01 0.01 0.00 0.00 0.00 0.00 0.00 0.00 0.00 0.00 0.00 0.00 0.00 0.00 0.00 0.00 0.00 0.01 0.11 0.18 0.17 0.22 0.24 0.07
0.62 0.73 0.75 0.46 0.57 0.75 0.28 0.33 0.29 0.09 0.02 0.01 0.02 0.00 0.00 0.02 0.03 0.03 0.01 0.01 0.01 0.01 0.00 0.00 0.00 0.00 0.00 0.00 0.00 0.00 0.00 0.00 0.00 0.00 0.00 0.00 0.01 0.03 0.12 0.19 0.19 0.18 0.09 0.03
0.78 0.83 0.83 0.61 0.88 0.86 0.56 0.51 0.29 0.08 0.08 0.04 0.01 0.00 0.00 0.00 0.02 0.05 0.03 0.02 0.01 0.00 0.00 0.00 0.00 0.00 0.00 0.00 0.00 0.00 0.00 0.00 0.00 0.00 0.00 0.00 0.01 0.02 0.07 0.15 0.10 0.05 0.09 0.09
0.63 0.75 0.66 0.50 0.69 0.78 0.55 0.57 0.35 0.24 0.20 0.04 0.01 0.00 0.00 0.00 0.01 0.03 0.04 0.04 0.02 0.02 0.01 0.02 0.01 0.00 0.00 0.00 0.00 0.00 0.00 0.00 0.00 0.00 0.00 0.01 0.03 0.09 0.13 0.28 0.10 0.11 0.22 0.27
0.76 0.65 0.55 0.48 0.59 0.74 0.56 0.76 0.47 0.28 0.17 0.06 0.11 0.13 0.09 0.07 0.07 0.06 0.04 0.08 0.11 0.15 0.11 0.09 0.11 0.07 0.06 0.02 0.00 0.00 0.00 0.00 0.02 0.13 0.24 0.31 0.31 0.22 0.16 0.34 0.30 0.42 0.63 0.64
1.07 1.09 0.89 0.60 0.50 0.78 0.71 0.62 0.38 0.35 0.36 0.22 0.24 0.38 0.45 0.39 0.49 0.51 0.46 0.45 0.42 0.54 0.61 0.59 0.50 0.44 0.51 0.51 0.36 0.25 0.19 0.19 0.22 0.28 0.28 0.29 0.27 0.37 0.45 0.48 0.52 0.65 0.78 0.78

GFSCGP_prec_precacc_051.txt.gz
Total_Precipitation_Accumulation
0.00 0.00 0.00 0.00 0.00 0.00 0.00 0.00 0.00 0.00 0.00 0.01 0.01 0.02 0.22 0.00 0.18 0.47 0.22 0.10 0.04 0.00 0.00 0.00 0.00 0.00 0.00 0.00 0.00 0.00 0.00 0.01 0.02 0.07 0.03 0.03 0.01 0.00 0.00 0.00 0.01 0.02 0.02 0.11
0.00 0.00 0.00 0.00 0.00 0.00 0.00 0.00 0.00 0.00 0.00 0.00 0.01 0.01 0.01 0.00 0.06 0.22 0.14 0.08 0.03 0.00 0.00 0.00 0.00 0.00 0.00 0.00 0.00 0.00 0.00 0.00 0.00 0.01 0.01 0.01 0.01 0.00 0.00 0.00 0.01 0.01 0.02 0.05
0.00 0.00 0.00 0.00 0.00 0.00 0.00 0.00 0.00 0.00 0.00 0.00 0.01 0.02 0.02 0.02 0.03 0.01 0.07 0.05 0.09 0.00 0.00 0.00 0.00 0.00 0.00 0.00 0.00 0.00 0.00 0.00 0.01 0.02 0.02 0.07 0.08 0.03 0.01 0.00 0.03 0.01 0.02 0.02
0.00 0.00 0.00 0.00 0.00 0.00 0.00 0.00 0.00 0.00 0.00 0.00 0.00 0.00 0.01 0.03 0.04 0.01 0.00 0.00 0.07 0.01 0.01 0.00 0.00 0.00 0.00 0.00 0.00 0.00 0.00 0.00 0.01 0.03 0.01 0.05 0.02 0.01 0.00 0.00 0.00 0.01 0.01 0.01
0.00 0.00 0.00 0.00 0.00 0.00 0.00 0.00 0.00 0.00 0.00 0.00 0.00 0.00 0.00 0.00 0.01 0.01 0.00 0.00 0.10 0.15 0.01 0.01 0.00 0.00 0.00 0.00 0.00 0.00 0.00 0.00 0.01 0.02 0.01 0.04 0.01 0.00 0.00 0.00 0.00 0.01 0.03 0.00
0.00 0.00 0.00 0.00 0.00 0.00 0.00 0.00 0.00 0.00 0.00 0.00 0.00 0.00 0.00 0.00 0.00 0.00 0.00 0.00 0.00 0.00 0.00 0.01 0.00 0.00 0.00 0.00 0.00 0.00 0.00 0.00 0.00 0.01 0.01 0.04 0.03 0.00 0.00 0.00 0.00 0.00 0.00 0.00
0.00 0.00 0.00 0.00 0.00 0.00 0.00 0.00 0.00 0.00 0.00 0.00 0.00 0.00 0.00 0.00 0.00 0.00 0.00 0.01 0.00 0.00 0.00 0.01 0.00 0.00 0.00 0.00 0.00 0.00 0.00 0.00 0.00 0.00 0.00 0.01 0.01 0.01 0.01 0.01 0.00 0.00 0.00 0.00
0.00 0.00 0.00 0.00 0.00 0.00 0.00 0.00 0.00 0.00 0.00 0.00 0.00 0.00 0.00 0.00 0.00 0.01 0.01 0.00 0.00 0.00 0.00 0.00 0.00 0.00 0.00 0.00 0.00 0.00 0.00 0.00 0.00 0.00 0.00 0.00 0.00 0.00 0.00 0.00 0.00 0.00 0.00 0.00
0.00 0.00 0.00 0.00 0.00 0.00 0.00 0.00 0.00 0.00 0.00 0.00 0.00 0.00 0.00 0.00 0.00 0.00 0.00 0.00 0.01 0.00 0.00 0.00 0.00 0.00 0.00 0.00 0.00 0.00 0.00 0.00 0.00 0.00 0.00 0.00 0.00 0.00 0.00 0.00 0.00 0.00 0.00 0.00
0.00 0.00 0.00 0.00 0.00 0.00 0.00 0.00 0.00 0.00 0.00 0.00 0.00 0.00 0.00 0.00 0.00 0.00 0.00 0.00 0.00 0.00 0.00 0.00 0.00 0.00 0.00 0.00 0.00 0.00 0.00 0.00 0.00 0.00 0.00 0.00 0.00 0.00 0.00 0.00 0.00 0.00 0.00 0.00
0.00 0.01 0.00 0.00 0.00 0.00 0.00 0.00 0.00 0.00 0.00 0.00 0.00 0.00 0.00 0.00 0.00 0.00 0.00 0.00 0.00 0.00 0.00 0.00 0.00 0.00 0.00 0.00 0.00 0.00 0.00 0.00 0.00 0.00 0.00 0.00 0.00 0.00 0.00 0.00 0.00 0.00 0.00 0.00
0.03 0.05 0.01 0.00 0.00 0.00 0.00 0.00 0.00 0.00 0.00 0.00 0.00 0.00 0.00 0.00 0.00 0.00 0.00 0.00 0.00 0.00 0.00 0.00 0.00 0.00 0.00 0.00 0.00 0.00 0.00 0.00 0.00 0.00 0.00 0.00 0.00 0.00 0.00 0.00 0.00 0.00 0.00 0.00
0.11 0.09 0.03 0.00 0.00 0.00 0.00 0.00 0.00 0.00 0.00 0.00 0.00 0.00 0.00 0.00 0.00 0.00 0.00 0.00 0.00 0.00 0.00 0.00 0.00 0.00 0.00 0.00 0.00 0.00 0.00 0.00 0.00 0.00 0.00 0.00 0.00 0.00 0.00 0.00 0.00 0.00 0.00 0.00
0.26 0.11 0.02 0.00 0.00 0.00 0.00 0.00 0.00 0.00 0.00 0.00 0.00 0.00 0.00 0.00 0.00 0.00 0.00 0.00 0.00 0.00 0.00 0.00 0.00 0.00 0.00 0.00 0.00 0.00 0.00 0.00 0.00 0.00 0.00 0.00 0.00 0.00 0.00 0.00 0.00 0.00 0.00 0.00
0.18 0.08 0.01 0.00 0.00 0.00 0.00 0.00 0.00 0.00 0.00 0.00 0.00 0.00 0.00 0.00 0.00 0.00 0.00 0.00 0.00 0.00 0.00 0.00 0.00 0.00 0.00 0.00 0.00 0.00 0.00 0.00 0.00 0.00 0.00 0.00 0.00 0.00 0.00 0.00 0.01 0.00 0.00 0.00
0.09 0.07 0.04 0.01 0.00 0.00 0.00 0.00 0.00 0.00 0.00 0.00 0.00 0.00 0.00 0.00 0.00 0.00 0.00 0.00 0.00 0.00 0.00 0.00 0.00 0.00 0.00 0.00 0.00 0.00 0.00 0.00 0.00 0.00 0.00 0.00 0.00 0.00 0.00 0.00 0.02 0.01 0.00 0.01
0.14 0.12 0.12 0.02 0.00 0.01 0.00 0.00 0.00 0.00 0.00 0.00 0.00 0.00 0.00 0.00 0.00 0.00 0.00 0.00 0.00 0.00 0.00 0.00 0.00 0.00 0.00 0.00 0.00 0.00 0.00 0.00 0.00 0.00 0.00 0.00 0.00 0.00 0.00 0.00 0.00 0.00 0.01 0.05
0.11 0.21 0.21 0.05 0.06 0.10 0.01 0.00 0.00 0.00 0.00 0.00 0.00 0.00 0.00 0.00 0.00 0.00 0.00 0.00 0.00 0.00 0.00 0.00 0.00 0.00 0.00 0.01 0.00 0.00 0.00 0.00 0.00 0.00 0.00 0.00 0.00 0.00 0.00 0.00 0.00 0.00 0.00 0.04
0.07 0.26 0.25 0.20 0.21 0.15 0.08 0.02 0.00 0.00 0.01 0.00 0.00 0.00 0.00 0.00 0.00 0.00 0.00 0.00 0.00 0.00 0.00 0.00 0.00 0.00 0.00 0.00 0.00 0.00 0.00 0.00 0.00 0.00 0.00 0.00 0.00 0.00 0.00 0.00 0.00 0.01 0.02 0.13
0.19 0.26 0.42 0.30 0.41 0.45 0.19 0.09 0.03 0.04 0.05 0.00 0.00 0.00 0.00 0.01 0.02 0.00 0.01 0.01 0.00 0.00 0.00 0.00 0.00 0.00 0.00 0.00 0.00 0.00 0.00 0.00 0.00 0.00 0.00 0.00 0.00 0.00 0.00 0.04 0.04 0.17 0.38 0.32
0.36 0.46 0.46 0.29 0.43 0.53 0.24 0.16 0.25 0.29 0.12 0.01 0.01 0.00 0.00 0.01 0.00 0.02 0.02 0.01 0.01 0.01 0.00 0.00 0.00 0.00 0.00 0.00 0.00 0.00 0.00 0.00 0.00 0.00 0.00 0.00 0.00 0.01 0.11 0.18 0.17 0.22 0.24 0.07
0.66 0.80 0.82 0.52 0.63 0.80 0.30 0.47 0.54 0.35 0.16 0.05 0.02 0.00 0.00 0.02 0.03 0.03 0.01 0.01 0.01 0.01 0.00 0.00 0.00 0.00 0.00 0.00 0.00 0.00 0.00 0.00 0.00 0.00 0.00 0.00 0.01 0.03 0.12 0.19 0.19 0.18 0.09 0.03
0.85 0.87 0.88 0.65 0.92 0.90 0.63 0.76 0.60 0.39 0.47 0.22 0.04 0.00 0.00 0.00 0.02 0.06 0.03 0.02 0.01 0.00 0.00 0.00 0.00 0.00 0.00 0.00 0.00 0.00 0.00 0.00 0.00 0.00 0.00 0.00 0.01 0.02 0.07 0.15 0.10 0.05 0.09 0.09
0.78 0.90 0.82 0.68 0.82 0.92 0.69 0.82 0.77 0.64 0.63 0.37 0.06 0.00 0.00 0.00 0.01 0.04 0.04 0.04 0.03 0.02 0.01 0.02 0.01 0.01 0.01 0.01 0.00 0.00 0.00 0.00 0.00 0.00 0.00 0.01 0.03 0.09 0.13 0.28 0.10 0.11 0.22 0.27
0.91 0.83 0.75 0.73 0.81 0.95 0.77 1.06 0.90 0.67 0.45 0.26 0.17 0.16 0.10 0.07 0.07 0.06 0.05 0.09 0.12 0.16 0.13 0.10 0.12 0.10 0.08 0.03 0.01 0.01 0.00 0.00 0.02 0.13 0.24 0.31 0.31 0.22 0.16 0.34 0.30 0.42 0.63 0.65
1.21 1.27 1.13 0.89 0.79 1.02 0.94 1.06 0.85 0.70 0.62 0.37 0.34 0.45 0.47 0.40 0.51 0.53 0.50 0.49 0.45 0.56 0.65 0.62 0.51 0.48 0.55 0.54 0.37 0.26 0.20 0.20 0.22 0.28 0.28 0.29 0.27 0.37 0.45 0.48 0.52 0.74 0.87 0.82

GFSCGP_prec_precacc_054.txt.gz
Total_Precipitation_Accumulation
0.00 0.00 0.00 0.00 0.00 0.00 0.00 0.00 0.00 0.00 0.00 0.01 0.01 0.05 0.52 0.28 0.22 0.47 0.22 0.10 0.04 0.00 0.00 0.00 0.00 0.00 0.00 0.00 0.00 0.00 0.00 0.01 0.02 0.07 0.03 0.03 0.01 0.00 0.01 0.00 0.01 0.02 0.02 0.12
0.00 0.00 0.00 0.00 0.00 0.00 0.00 0.00 0.00 0.00 0.00 0.00 0.01 0.03 0.09 0.07 0.07 0.22 0.14 0.08 0.03 0.00 0.00 0.00 0.00 0.00 0.00 0.00 0.00 0.00 0.00 0.01 0.00 0.01 0.01 0.01 0.01 0.00 0.00 0.01 0.02 0.01 0.02 0.05
0.00 0.00 0.00 0.00 0.00 0.00 0.00 0.00 0.00 0.00 0.00 0.00 0.01 0.03 0.07 0.07 0.14 0.13 0.07 0.05 0.09 0.00 0.00 0.00 0.00 0.00 0.00 0.00 0.00 0.00 0.00 0.00 0.01 0.02 0.02 0.07 0.08 0.03 0.01 0.01 0.03 0.01 0.02 0.02
0.00 0.00 0.00 0.00 0.00 0.00 0.00 0.00 0.00 0.00 0.00 0.00 0.00 0.00 0.01 0.04 0.32 0.64 0.07 0.00 0.07 0.01 0.01 0.00 0.00 0.00 0.00 0.00 0.00 0.00 0.00 0.00 0.01 0.03 0.01 0.05 0.02 0.01 0.00 0.00 0.00 0.01 0.01 0.01
0.00 0.00 0.00 0.00 0.00 0.00 0.00 0.00 0.00 0.00 0.00 0.00 0.00 0.00 0.00 0.00 0.06 0.47 0.16 0.02 0.10 0.15 0.01 0.01 0.00 0.00 0.00 0.00 0.00 0.00 0.00 0.00 0.01 0.02 0.01 0.04 0.01 0.00 0.00 0.00 0.00 0.02 0.03 0.00
0.00 0.00 0.00 0.00 0.00 0.00 0.00 0.00 0.00 0.00 0.00 0.00 0.00 0.00 0.00 0.00 0.00 0.07 0.22 0.11 0.02 0.00 0.00 0.01 0.00 0.00 0.00 0.00 0.00 0.00 0.00 0.00 0.00 0.01 0.01 0.04 0.03 0.00 0.00 0.00 0.00 0.00 0.00 0.00
0.00 0.00 0.00 0.00 0.00 0.00 0.00 0.00 0.00 0.00 0.00 0.00 0.00 0.00 0.00 0.00 0.00 0.01 0.07 0.18 0.02 0.00 0.00 0.01 0.00 0.00 0.00 0.00 0.00 0.00 0.00 0.00 0.00 0.00 0.00 0.01 0.01 0.01 0.01 0.01 0.00 0.00 0.00 0.00
0.00 0.00 0.00 0.00 0.00 0.00 0.00 0.00 0.00 0.00 0.00 0.00 0.00 0.00 0.00 0.00 0.00 0.01 0.03 0.03 0.06 0.00 0.00 0.00 0.00 0.00 0.00 0.00 0.00 0.00 0.00 0.00 0.00 0.00 0.00 0.00 0.00 0.00 0.00 0.00 0.00 0.00 0.00 0.00
0.00 0.00 0.00 0.00 0.00 0.00 0.00 0.00 0.00 0.00 0.00 0.00 0.00 0.00 0.00 0.00 0.00 0.00 0.04 0.07 0.06 0.04 0.00 0.00 0.00 0.00 0.00 0.00 0.00 0.00 0.00 0.00 0.00 0.00 0.00 0.00 0.00 0.00 0.00 0.00 0.00 0.00 0.00 0.00
0.00 0.00 0.00 0.00 0.00 0.00 0.00 0.00 0.00 0.00 0.00 0.00 0.00 0.00 0.00 0.00 0.00 0.00 0.00 0.04 0.03 0.14 0.16 0.02 0.00 0.00 0.00 0.00 0.00 0.00 0.00 0.00 0.00 0.00 0.00 0.00 0.00 0.00 0.00 0.00 0.00 0.00 0.00 0.00
0.00 0.01 0.00 0.00 0.00 0.00 0.00 0.00 0.00 0.00 0.00 0.00 0.00 0.00 0.00 0.00 0.00 0.00 0.00 0.00 0.00 0.03 0.25 0.25 0.06 0.00 0.00 0.00 0.00 0.00 0.00 0.00 0.00 0.00 0.00 0.00 0.00 0.00 0.00 0.00 0.00 0.00 0.00 0.00
0.03 0.05 0.01 0.00 0.00 0.00 0.00 0.00 0.00 0.00 0.00 0.00 0.00 0.00 0.00 0.00 0.00 0.00 0.00 0.00 0.00 0.00 0.07 0.31 0.27 0.01 0.00 0.00 0.00 0.00 0.00 0.00 0.00 0.00 0.00 0.00 0.00 0.00 0.00 0.00 0.00 0.00 0.00 0.00
0.11 0.09 0.03 0.00 0.00 0.00 0.00 0.00 0.00 0.00 0.00 0.00 0.00 0.00 0.00 0.00 0.00 0.00 0.00 0.00 0.00 0.00 0.00 0.05 0.15 0.03 0.00 0.00 0.00 0.00 0.00 0.00 0.00 0.00 0.00 0.00 0.00 0.00 0.00 0.00 0.00 0.00 0.00 0.00
0.26 0.11 0.02 0.00 0.00 0.00 0.00 0.00 0.00 0.00 0.00 0.00 0.00 0.00 0.00 0.00 0.00 0.00 0.00 0.00 0.00 0.00 0.00 0.00 0.00 0.06 0.01 0.00 0.00 0.00 0.00 0.00 0.00 0.00 0.00 0.00 0.00 0.00 0.00 0.00 0.00 0.00 0.00 0.00
0.18 0.08 0.01 0.00 0.00 0.00 0.00 0.00 0.00 0.00 0.00 0.00 0.00 0.00 0.00 0.00 0.00 0.00 0.00 0.00 0.00 0.00 0.00 0.00 0.00 0.05 0.05 0.00 0.00 0.00 0.00 0.00 0.00 0.00 0.00 0.00 0.00 0.00 0.00 0.00 0.01 0.00 0.00 0.00
0.09 0.07 0.04 0.01 0.00 0.00 0.00 0.00 0.00 0.00 0.00 0.00 0.00 0.00 0.00 0.00 0.00 0.00 0.00 0.00 0.00 0.00 0.00 0.00 0.00 0.00 0.00 0.00 0.00 0.00 0.00 0.00 0.00 0.00 0.00 0.00 0.00 0.00 0.00 0.00 0.02 0.01 0.00 0.01
0.15 0.15 0.15 0.03 0.00 0.01 0.00 0.00 0.00 0.00 0.00 0.00 0.00 0.00 0.00 0.00 0.00 0.00 0.00 0.00 0.00 0.00 0.00 0.00 0.00 0.00 0.07 0.02 0.00 0.00 0.00 0.00 0.00 0.00 0.00 0.00 0.00 0.00 0.00 0.00 0.00 0.00 0.01 0.05
0.13 0.27 0.30 0.08 0.08 0.14 0.01 0.00 0.00 0.00 0.00 0.00 0.00 0.00 0.00 0.00 0.00 0.00 0.00 0.00 0.01 0.01 0.00 0.00 0.00 0.00 0.05 0.05 0.09 0.00 0.00 0.00 0.00 0.00 0.00 0.00 0.00 0.00 0.00 0.00 0.00 0.00 0.00 0.04
0.08 0.30 0.32 0.26 0.25 0.16 0.08 0.02 0.00 0.00 0.01 0.00 0.00 0.00 0.00 0.00 0.00 0.00 0.00 0.01 0.01 0.01 0.00 0.00 0.00 0.00 0.00 0.00 0.01 0.00 0.00 0.00 0.00 0.00 0.00 0.00 0.00 0.00 0.00 0.00 0.00 0.01 0.02 0.13
0.19 0.29 0.49 0.37 0.46 0.46 0.19 0.09 0.03 0.04 0.05 0.00 0.00 0.00 0.00 0.01 0.02 0.00 0.01 0.01 0.06 0.04 0.00 0.00 0.00 0.00 0.00 0.00 0.00 0.00 0.00 0.00 0.00 0.00 0.00 0.00 0.00 0.00 0.00 0.04 0.04 0.17 0.38 0.32
0.40 0.55 0.55 0.37 0.48 0.54 0.24 0.16 0.25 0.30 0.12 0.01 0.01 0.00 0.00 0.01 0.00 0.02 0.02 0.01 0.02 0.07 0.01 0.00 0.00 0.00 0.00 0.00 0.00 0.00 0.00 0.00 0.00 0.00 0.00 0.00 0.00 0.01 0.11 0.18 0.17 0.22 0.24 0.07
0.70 0.89 0.90 0.58 0.70 0.84 0.30 0.47 0.54 0.35 0.16 0.05 0.02 0.00 0.00 0.02 0.03 0.03 0.01 0.01 0.01 0.01 0.00 0.00 0.00 0.00 0.00 0.00 0.00 0.00 0.00 0.00 0.00 0.00 0.00 0.00 0.01 0.03 0.12 0.19 0.19 0.18 0.09 0.03
0.90 0.94 0.94 0.72 0.95 0.92 0.64 0.77 0.61 0.40 0.47 0.23 0.06 0.01 0.02 0.02 0.05 0.06 0.03 0.02 0.01 0.00 0.00 0.00 0.00 0.00 0.01 0.01 0.00 0.00 0.00 0.00 0.00 0.00 0.00 0.00 0.01 0.02 0.07 0.15 0.11 0.05 0.09 0.10
0.80 0.94 0.88 0.73 0.83 0.96 0.71 0.85 0.82 0.71 0.69 0.42 0.15 0.03 0.03 0.04 0.04 0.05 0.04 0.04 0.03 0.02 0.01 0.02 0.02 0.01 0.01 0.01 0.01 0.00 0.00 0.00 0.00 0.00 0.00 0.01 0.03 0.09 0.13 0.28 0.11 0.11 0.22 0.27
0.99 0.93 0.87 0.85 0.91 1.04 0.89 1.26 1.08 0.83 0.64 0.48 0.36 0.30 0.16 0.15 0.10 0.07 0.06 0.09 0.12 0.16 0.13 0.10 0.13 0.10 0.08 0.04 0.02 0.01 0.00 0.00 0.02 0.13 0.24 0.31 0.31 0.23 0.17 0.34 0.30 0.42 0.63 0.65
1.31 1.36 1.27 1.04 0.92 1.16 1.05 1.24 1.07 0.99 0.85 0.72 0.71 0.70 0.64 0.53 0.54 0.54 0.50 0.49 0.46 0.57 0.65 0.63 0.52 0.48 0.55 0.54 0.37 0.26 0.20 0.20 0.23 0.28 0.28 0.29 0.27 0.37 0.45 0.49 0.52 0.74 0.87 0.83

GFSCGP_prec_precacc_057.txt.gz
Total_Precipitation_Accumulation
0.00 0.00 0.00 0.00 0.00 0.00 0.00 0.00 0.00 0.00 0.00 0.01 0.01 0.06 0.53 0.29 0.39 0.85 0.30 0.13 0.04 0.00 0.00 0.00 0.00 0.00 0.00 0.00 0.00 0.00 0.00 0.01 0.02 0.07 0.03 0.03 0.01 0.00 0.01 0.00 0.01 0.02 0.03 0.13
0.00 0.00 0.00 0.00 0.00 0.00 0.00 0.00 0.00 0.00 0.00 0.00 0.01 0.03 0.10 0.07 0.11 0.51 0.53 0.11 0.03 0.00 0.00 0.00 0.00 0.00 0.00 0.00 0.00 0.00 0.00 0.01 0.00 0.01 0.01 0.01 0.01 0.00 0.00 0.02 0.05 0.01 0.02 0.05
0.00 0.00 0.00 0.00 0.00 0.00 0.00 0.00 0.00 0.00 0.00 0.00 0.01 0.03 0.07 0.09 0.15 0.29 0.28 0.13 0.13 0.00 0.00 0.00 0.00 0.00 0.00 0.00 0.00 0.00 0.00 0.00 0.01 0.02 0.02 0.07 0.08 0.03 0.01 0.03 0.04 0.02 0.02 0.02
0.00 0.00 0.00 0.00 0.00 0.00 0.00 0.00 0.00 0.00 0.00 0.00 0.00 0.00 0.01 0.06 0.34 1.08 0.83 0.16 0.11 0.03 0.01 0.00 0.00 0.00 0.00 0.00 0.00 0.00 0.00 0.00 0.01 0.03 0.01 0.05 0.02 0.01 0.00 0.00 0.00 0.02 0.01 0.01
0.00 0.00 0.00 0.00 0.00 0.00 0.00 0.00 0.00 0.00 0.00 0.00 0.00 0.00 0.00 0.00 0.07 0.63 0.92 0.23 0.13 0.16 0.01 0.01 0.00 0.00 0.00 0.00 0.00 0.00 0.00 0.00 0.01 0.02 0.01 0.04 0.01 0.00 0.00 0.00 0.01 0.02 0.04 0.00
0.00 0.00 0.00 0.00 0.00 0.00 0.00 0.00 0.00 0.00 0.00 0.00 0.00 0.00 0.00 0.00 0.00 0.07 0.27 0.23 0.11 0.01 0.00 0.01 0.00 0.00 0.00 0.00 0.00 0.00 0.00 0.00 0.00 0.01 0.01 0.04 0.03 0.00 0.00 0.00 0.00 0.00 0.00 0.00
0.00 0.00 0.00 0.00 0.00 0.00 0.00 0.00 0.00 0.00 0.00 0.00 0.00 0.00 0.00 0.00 0.00 0.01 0.07 0.22 0.10 0.05 0.00 0.01 0.00 0.00 0.00 0.00 0.00 0.00 0.00 0.00 0.00 0.00 0.00 0.01 0.01 0.01 0.01 0.01 0.00 0.00 0.00 0.00
0.00 0.00 0.00 0.00 0.00 0.00 0.00 0.00 0.00 0.00 0.00 0.00 0.00 0.00 0.00 0.00 0.00 0.01 0.04 0.04 0.08 0.06 0.04 0.01 0.00 0.00 0.00 0.00 0.00 0.00 0.00 0.00 0.00 0.00 0.00 0.00 0.00 0.00 0.00 0.00 0.00 0.00 0.00 0.00
0.00 0.00 0.00 0.00 0.00 0.00 0.00 0.00 0.00 0.00 0.00 0.00 0.00 0.00 0.00 0.00 0.00 0.00 0.05 0.08 0.12 0.17 0.13 0.05 0.01 0.00 0.00 0.00 0.00 0.00 0.00 0.00 0.00 0.00 0.00 0.00 0.00 0.00 0.00 0.00 0.00 0.00 0.00 0.00
0.00 0.00 0.00 0.00 0.00 0.00 0.00 0.00 0.00 0.00 0.00 0.00 0.00 0.00 0.00 0.00 0.00 0.00 0.00 0.04 0.03 0.30 0.45 0.20 0.07 0.02 0.03 0.00 0.00 0.00 0.00 0.00 0.00 0.00 0.00 0.00 0.00 0.00 0.00 0.00 0.00 0.00 0.00 0.00
0.00 0.01 0.00 0.00 0.00 0.00 0.00 0.00 0.00 0.00 0.00 0.00 0.00 0.00 0.00 0.00 0.00 0.00 0.00 0.00 0.00 0.03 0.49 0.82 0.32 0.11 0.03 0.02 0.00 0.00 0.00 0.00 0.00 0.00 0.00 0.00 0.00 0.00 0.00 0.00 0.00 0.00 0.00 0.00
0.03 0.05 0.01 0.00 0.00 0.00 0.00 0.00 0.00 0.00 0.00 0.00 0.00 0.00 0.00 0.00 0.00 0.00 0.01 0.01 0.00 0.00 0.08 0.59 0.63 0.15 0.01 0.00 0.00 0.00 0.00 0.00 0.00 0.00 0.00 0.00 0.00 0.00 0.00 0.00 0.00 0.00 0.00 0.00
0.11 0.09 0.03 0.00 0.00 0.00 0.00 0.00 0.00 0.00 0.00 0.00 0.00 0.00 0.00 0.00 0.00 0.00 0.01 0.01 0.00 0.00 0.00 0.06 0.23 0.07 0.00 0.00 0.00 0.00 0.00 0.00 0.00 0.00 0.00 0.00 0.00 0.00 0.00 0.00 0.00 0.00 0.00 0.00
0.26 0.11 0.02 0.00 0.00 0.00 0.00 0.00 0.00 0.00 0.00 0.00 0.00 0.00 0.00 0.00 0.00 0.00 0.00 0.00 0.01 0.02 0.04 0.02 0.00 0.08 0.13 0.01 0.00 0.00 0.00 0.00 0.00 0.00 0.00 0.00 0.00 0.00 0.00 0.00 0.00 0.00 0.00 0.00
0.18 0.08 0.01 0.00 0.00 0.00 0.00 0.00 0.00 0.00 0.00 0.00 0.00 0.00 0.00 0.00 0.00 0.00 0.00 0.00 0.00 0.00 0.08 0.06 0.02 0.09 0.37 0.28 0.03 0.00 0.00 0.00 0.00 0.00 0.00 0.00 0.00 0.00 0.00 0.00 0.01 0.00 0.00 0.00
0.09 0.07 0.04 0.01 0.00 0.00 0.00 0.00 0.00 0.00 0.00 0.00 0.00 0.00 0.00 0.00 0.00 0.00 0.00 0.00 0.00 0.00 0.00 0.01 0.01 0.02 0.13 0.18 0.04 0.00 0.00 0.00 0.00 0.00 0.00 0.00 0.00 0.00 0.00 0.00 0.02 0.01 0.00 0.01
0.15 0.17 0.17 0.03 0.00 0.01 0.00 0.00 0.00 0.00 0.00 0.00 0.00 0.00 0.00 0.00 0.00 0.00 0.00 0.00 0.00 0.00 0.00 0.01 0.04 0.03 0.13 0.06 0.03 0.02 0.02 0.00 0.00 0.00 0.00 0.00 0.00 0.00 0.00 0.00 0.00 0.00 0.01 0.05
0.13 0.31 0.36 0.09 0.10 0.17 0.01 0.00 0.00 0.00 0.00 0.00 0.00 0.00 0.00 0.00 0.00 0.00 0.00 0.00 0.01 0.01 0.01 0.01 0.03 0.09 0.15 0.35 0.45 0.24 0.14 0.04 0.01 0.00 0.00 0.00 0.00 0.00 0.00 0.00 0.00 0.00 0.00 0.04
0.08 0.31 0.37 0.28 0.27 0.17 0.08 0.02 0.00 0.00 0.01 0.00 0.00 0.00 0.00 0.00 0.00 0.00 0.00 0.01 0.01 0.01 0.01 0.01 0.00 0.03 0.04 0.20 0.50 1.02 0.56 0.19 0.06 0.00 0.00 0.00 0.00 0.00 0.00 0.00 0.00 0.01 0.02 0.13
0.20 0.30 0.55 0.43 0.49 0.46 0.19 0.09 0.03 0.04 0.05 0.00 0.00 0.00 0.00 0.01 0.02 0.00 0.01 0.01 0.06 0.04 0.04 0.02 0.01 0.01 0.00 0.05 0.13 0.32 0.74 0.13 0.03 0.00 0.00 0.00 0.00 0.00 0.00 0.04 0.04 0.17 0.38 0.32
0.41 0.57 0.58 0.42 0.57 0.56 0.24 0.16 0.25 0.30 0.12 0.01 0.01 0.00 0.00 0.01 0.00 0.02 0.02 0.01 0.02 0.07 0.02 0.01 0.00 0.00 0.00 0.01 0.06 0.12 0.15 0.05 0.01 0.01 0.00 0.00 0.00 0.01 0.11 0.18 0.17 0.22 0.24 0.07
0.72 0.94 0.96 0.63 0.76 0.88 0.30 0.47 0.56 0.35 0.16 0.05 0.02 0.00 0.00 0.02 0.03 0.03 0.01 0.01 0.01 0.01 0.00 0.00 0.00 0.00 0.00 0.02 0.03 0.05 0.05 0.02 0.01 0.04 0.03 0.00 0.01 0.03 0.12 0.19 0.19 0.18 0.09 0.03
0.92 0.97 0.98 0.74 0.96 0.93 0.64 0.77 0.61 0.40 0.47 0.23 0.06 0.01 0.02 0.02 0.05 0.06 0.03 0.02 0.01 0.00 0.00 0.00 0.00 0.00 0.02 0.04 0.03 0.01 0.00 0.00 0.00 0.00 0.05 0.03 0.01 0.02 0.07 0.15 0.11 0.05 0.09 0.10
0.81 0.94 0.89 0.74 0.83 0.96 0.71 0.85 0.82 0.71 0.70 0.43 0.15 0.03 0.03 0.04 0.04 0.06 0.05 0.05 0.03 0.02 0.01 0.02 0.02 0.01 0.01 0.01 0.01 0.00 0.00 0.00 0.00 0.00 0.00 0.02 0.03 0.09 0.13 0.28 0.11 0.11 0.22 0.27
1.03 0.94 0.88 0.86 0.92 1.06 0.90 1.29 1.12 0.85 0.65 0.49 0.37 0.30 0.16 0.18 0.15 0.13 0.08 0.10 0.12 0.16 0.13 0.10 0.13 0.10 0.08 0.04 0.02 0.01 0.01 0.01 0.02 0.13 0.24 0.31 0.31 0.23 0.17 0.34 0.30 0.42 0.63 0.65
1.33 1.36 1.29 1.06 0.94 1.23 1.08 1.33 1.18 1.12 1.01 0.84 0.80 0.76 0.70 0.65 0.76 0.65 0.53 0.51 0.46 0.57 0.65 0.63 0.52 0.48 0.55 0.54 0.38 0.26 0.20 0.20 0.23 0.28 0.28 0.29 0.27 0.37 0.45 0.49 0.53 0.74 0.87 0.83

GFSCGP_prec_precacc_060.txt.gz
Total_Precipitation_Accumulation
0.00 0.00 0.00 0.00 0.00 0.00 0.00 0.00 0.00 0.00 0.00 0.01 0.01 0.07 0.53 0.31 0.39 0.85 0.30 0.14 0.04 0.00 0.00 0.00 0.00 0.00 0.00 0.00 0.00 0.00 0.00 0.01 0.02 0.07 0.03 0.03 0.01 0.00 0.01 0.02 0.01 0.02 0.05 0.14
0.00 0.00 0.00 0.00 0.00 0.00 0.00 0.00 0.00 0.00 0.00 0.00 0.01 0.04 0.12 0.11 0.13 0.52 0.63 0.13 0.06 0.00 0.00 0.00 0.00 0.00 0.00 0.00 0.00 0.00 0.00 0.01 0.00 0.01 0.01 0.01 0.01 0.00 0.00 0.04 0.09 0.01 0.03 0.07
0.00 0.00 0.00 0.00 0.00 0.00 0.00 0.00 0.00 0.00 0.00 0.00 0.02 0.12 0.16 0.20 0.17 0.32 0.81 0.30 0.18 0.01 0.00 0.00 0.00 0.00 0.00 0.00 0.00 0.00 0.00 0.00 0.01 0.02 0.02 0.07 0.08 0.03 0.01 0.03 0.05 0.02 0.02 0.02
0.00 0.00 0.00 0.00 0.00 0.00 0.00 0.00 0.00 0.00 0.00 0.00 0.00 0.02 0.06 0.08 0.34 1.11 1.00 0.37 0.15 0.03 0.01 0.00 0.00 0.00 0.00 0.00 0.00 0.00 0.00 0.00 0.01 0.03 0.01 0.05 0.02 0.01 0.00 0.00 0.00 0.02 0.01 0.01
0.00 0.00 0.00 0.00 0.00 0.00 0.00 0.00 0.00 0.00 0.00 0.00 0.00 0.00 0.00 0.00 0.07 0.64 0.95 0.26 0.14 0.16 0.01 0.01 0.00 0.00 0.00 0.00 0.00 0.00 0.00 0.00 0.01 0.02 0.01 0.04 0.01 0.00 0.00 0.00 0.01 0.02 0.04 0.00
0.00 0.00 0.00 0.00 0.00 0.00 0.00 0.00 0.00 0.00 0.00 0.00 0.00 0.00 0.00 0.00 0.00 0.07 0.27 0.23 0.11 0.01 0.00 0.01 0.00 0.00 0.00 0.00 0.00 0.00 0.00 0.00 0.00 0.01 0.01 0.04 0.03 0.00 0.00 0.00 0.00 0.00 0.00 0.01
0.00 0.00 0.00 0.00 0.00 0.00 0.00 0.00 0.00 0.00 0.00 0.00 0.00 0.00 0.00 0.00 0.00 0.01 0.07 0.22 0.10 0.05 0.01 0.01 0.00 0.00 0.00 0.00 0.00 0.00 0.00 0.00 0.00 0.00 0.00 0.01 0.01 0.01 0.01 0.01 0.00 0.00 0.00 0.00
0.00 0.00 0.00 0.00 0.00 0.00 0.00 0.00 0.00 0.00 0.00 0.00 0.00 0.00 0.00 0.00 0.00 0.01 0.04 0.05 0.11 0.07 0.08 0.04 0.00 0.00 0.00 0.00 0.00 0.00 0.00 0.00 0.00 0.00 0.00 0.00 0.00 0.00 0.00 0.00 0.00 0.00 0.00 0.00
0.00 0.00 0.00 0.00 0.00 0.00 0.00 0.00 0.00 0.00 0.00 0.00 0.00 0.00 0.00 0.00 0.00 0.00 0.05 0.08 0.13 0.18 0.15 0.09 0.01 0.01 0.00 0.00 0.00 0.00 0.00 0.00 0.00 0.00 0.00 0.00 0.00 0.00 0.00 0.00 0.00 0.00 0.00 0.00
0.00 0.00 0.00 0.00 0.00 0.00 0.00 0.00 0.00 0.00 0.00 0.00 0.00 0.00 0.00 0.00 0.00 0.00 0.00 0.04 0.03 0.30 0.45 0.21 0.08 0.03 0.06 0.02 0.00 0.00 0.00 0.00 0.00 0.00 0.00 0.00 0.00 0.00 0.00 0.00 0.00 0.00 0.00 0.00
0.00 0.01 0.00 0.00 0.00 0.00 0.00 0.00 0.00 0.00 0.00 0.00 0.00 0.00 0.00 0.00 0.00 0.00 0.00 0.00 0.00 0.03 0.49 0.83 0.32 0.11 0.04 0.05 0.00 0.00 0.00 0.00 0.00 0.00 0.00 0.00 0.00 0.00 0.00 0.00 0.00 0.00 0.00 0.00
0.03 0.05 0.01 0.00 0.00 0.00 0.00 0.00 0.00 0.00 0.00 0.00 0.00 0.00 0.00 0.00 0.00 0.00 0.02 0.02 0.01 0.06 0.13 0.61 0.63 0.15 0.01 0.00 0.00 0.00 0.00 0.00 0.00 0.00 0.00 0.00 0.00 0.00 0.00 0.00 0.00 0.00 0.00 0.00
0.11 0.09 0.03 0.00 0.00 0.00 0.00 0.00 0.00 0.00 0.00 0.00 0.00 0.00 0.00 0.00 0.00 0.00 0.02 0.02 0.00 0.05 0.03 0.10 0.25 0.09 0.01 0.00 0.00 0.00 0.00 0.00 0.00 0.00 0.00 0.00 0.00 0.00 0.00 0.00 0.00 0.00 0.00 0.00
0.26 0.11 0.02 0.00 0.00 0.00 0.00 0.00 0.00 0.00 0.00 0.00 0.00 0.00 0.00 0.00 0.00 0.00 0.00 0.00 0.06 0.16 0.15 0.12 0.02 0.08 0.13 0.01 0.00 0.00 0.00 0.00 0.00 0.00 0.00 0.00 0.00 0.00 0.00 0.00 0.00 0.00 0.00 0.00
0.18 0.08 0.01 0.00 0.00 0.00 0.00 0.00 0.00 0.00 0.00 0.00 0.00 0.00 0.00 0.00 0.00 0.00 0.00 0.00 0.00 0.03 0.17 0.20 0.07 0.09 0.37 0.28 0.03 0.01 0.00 0.00 0.00 0.00 0.00 0.00 0.00 0.00 0.00 0.00 0.01 0.00 0.00 0.00
0.09 0.07 0.04 0.01 0.00 0.00 0.00 0.00 0.00 0.00 0.00 0.00 0.00 0.00 0.00 0.00 0.00 0.00 0.00 0.00 0.00 0.01 0.03 0.03 0.02 0.02 0.13 0.19 0.05 0.03 0.04 0.03 0.00 0.00 0.00 0.00 0.00 0.00 0.00 0.00 0.02 0.01 0.00 0.01
0.15 0.17 0.17 0.03 0.00 0.01 0.00 0.00 0.00 0.00 0.00 0.00 0.00 0.00 0.00 0.00 0.00 0.00 0.00 0.00 0.00 0.00 0.01 0.02 0.05 0.05 0.14 0.06 0.04 0.02 0.09 0.07 0.02 0.01 0.00 0.00 0.00 0.00 0.00 0.00 0.00 0.00 0.01 0.05
0.13 0.31 0.37 0.10 0.10 0.17 0.01 0.00 0.00 0.00 0.00 0.00 0.00 0.00 0.00 0.00 0.00 0.00 0.00 0.00 0.01 0.01 0.02 0.01 0.04 0.14 0.22 0.38 0.48 0.25 0.16 0.15 0.08 0.08 0.01 0.00 0.00 0.00 0.00 0.00 0.00 0.00 0.00 0.04
0.08 0.31 0.37 0.29 0.27 0.17 0.08 0.02 0.00 0.00 0.01 0.00 0.00 0.00 0.00 0.00 0.00 0.00 0.00 0.01 0.01 0.01 0.01 0.02 0.01 0.07 0.15 0.41 0.56 1.10 0.66 0.32 0.14 0.05 0.02 0.00 0.00 0.00 0.00 0.00 0.00 0.01 0.02 0.13
0.20 0.30 0.55 0.44 0.52 0.47 0.19 0.09 0.03 0.04 0.05 0.00 0.00 0.00 0.00 0.01 0.02 0.00 0.01 0.01 0.06 0.04 0.04 0.02 0.02 0.03 0.01 0.14 0.26 0.44 1.02 0.50 0.25 0.07 0.02 0.04 0.00 0.00 0.00 0.04 0.04 0.17 0.38 0.32
0.41 0.57 0.58 0.43 0.61 0.57 0.24 0.16 0.25 0.30 0.12 0.01 0.01 0.00 0.00 0.01 0.00 0.02 0.02 0.01 0.02 0.07 0.02 0.01 0.01 0.01 0.00 0.03 0.17 0.25 0.19 0.10 0.21 0.11 0.10 0.07 0.00 0.01 0.11 0.18 0.17 0.22 0.24 0.07
0.72 0.94 0.96 0.65 0.80 0.90 0.30 0.47 0.56 0.35 0.16 0.05 0.02 0.00 0.00 0.02 0.03 0.03 0.01 0.01 0.01 0.01 0.00 0.00 0.01 0.01 0.00 0.04 0.08 0.16 0.23 0.10 0.03 0.10 0.11 0.04 0.01 0.04 0.12 0.19 0.19 0.18 0.09 0.03
0.92 0.97 0.98 0.74 0.97 0.94 0.64 0.77 0.61 0.40 0.47 0.23 0.06 0.01 0.02 0.02 0.05 0.06 0.03 0.02 0.01 0.00 0.00 0.00 0.01 0.00 0.02 0.04 0.03 0.01 0.05 0.19 0.17 0.06 0.09 0.09 0.06 0.03 0.07 0.15 0.11 0.05 0.09 0.10
0.81 0.94 0.89 0.74 0.83 0.96 0.71 0.85 0.82 0.71 0.70 0.43 0.15 0.03 0.03 0.04 0.04 0.06 0.05 0.05 0.03 0.02 0.01 0.02 0.02 0.01 0.01 0.01 0.01 0.00 0.00 0.00 0.07 0.11 0.06 0.09 0.17 0.17 0.17 0.29 0.16 0.12 0.22 0.27
1.03 0.94 0.88 0.86 0.92 1.06 0.90 1.29 1.12 0.86 0.66 0.49 0.37 0.31 0.17 0.18 0.15 0.13 0.08 0.10 0.12 0.16 0.13 0.10 0.13 0.10 0.08 0.04 0.02 0.01 0.01 0.01 0.02 0.13 0.28 0.39 0.41 0.36 0.26 0.39 0.34 0.44 0.64 0.66
1.33 1.36 1.29 1.06 0.94 1.24 1.09 1.33 1.19 1.13 1.02 0.85 0.81 0.77 0.71 0.69 0.79 0.67 0.54 0.51 0.47 0.58 0.66 0.63 0.52 0.48 0.55 0.54 0.38 0.26 0.20 0.20 0.23 0.28 0.28 0.30 0.32 0.42 0.48 0.52 0.53 0.75 0.89 0.84

GFSCGP_prec_precacc_063.txt.gz
Total_Precipitation_Accumulation
0.00 0.00 0.00 0.00 0.00 0.00 0.00 0.00 0.00 0.00 0.00 0.01 0.01 0.07 0.53 0.31 0.41 0.85 0.31 0.15 0.04 0.00 0.00 0.00 0.00 0.00 0.00 0.00 0.00 0.00 0.00 0.01 0.02 0.07 0.03 0.03 0.01 0.00 0.01 0.04 0.06 0.08 0.07 0.15
0.00 0.00 0.00 0.00 0.00 0.00 0.00 0.00 0.00 0.00 0.00 0.00 0.01 0.04 0.13 0.18 0.15 0.52 0.63 0.13 0.06 0.00 0.00 0.00 0.00 0.00 0.00 0.00 0.00 0.00 0.00 0.01 0.00 0.01 0.01 0.01 0.01 0.01 0.02 0.06 0.10 0.04 0.09 0.11
0.00 0.00 0.00 0.00 0.00 0.00 0.00 0.00 0.00 0.00 0.00 0.00 0.02 0.13 0.24 0.40 0.22 0.32 0.81 0.30 0.18 0.01 0.00 0.00 0.00 0.00 0.00 0.00 0.00 0.00 0.00 0.00 0.01 0.02 0.02 0.07 0.08 0.03 0.02 0.05 0.05 0.02 0.02 0.03
0.00 0.00 0.00 0.00 0.00 0.00 0.00 0.00 0.00 0.00 0.00 0.00 0.00 0.03 0.11 0.18 0.34 1.11 1.00 0.37 0.15 0.03 0.01 0.00 0.00 0.00 0.00 0.00 0.00 0.00 0.00 0.00 0.01 0.03 0.01 0.05 0.02 0.01 0.00 0.01 0.01 0.02 0.02 0.01
0.00 0.00 0.00 0.00 0.00 0.00 0.00 0.00 0.00 0.00 0.00 0.00 0.00 0.00 0.00 0.01 0.07 0.64 0.95 0.26 0.14 0.16 0.01 0.01 0.00 0.00 0.00 0.00 0.00 0.00 0.00 0.00 0.01 0.02 0.01 0.04 0.01 0.00 0.00 0.00 0.01 0.02 0.05 0.00
0.00 0.00 0.00 0.00 0.00 0.00 0.00 0.00 0.00 0.00 0.00 0.00 0.00 0.00 0.00 0.00 0.00 0.07 0.27 0.23 0.11 0.01 0.00 0.01 0.00 0.00 0.00 0.00 0.00 0.00 0.00 0.00 0.00 0.01 0.01 0.04 0.03 0.00 0.00 0.00 0.00 0.00 0.00 0.01
0.00 0.00 0.00 0.00 0.00 0.00 0.00 0.00 0.00 0.00 0.00 0.00 0.00 0.00 0.00 0.00 0.00 0.01 0.07 0.22 0.10 0.05 0.01 0.01 0.00 0.00 0.00 0.00 0.00 0.00 0.00 0.00 0.00 0.00 0.00 0.01 0.01 0.01 0.01 0.01 0.00 0.00 0.00 0.00
0.00 0.00 0.00 0.00 0.00 0.00 0.00 0.00 0.00 0.00 0.00 0.00 0.00 0.00 0.00 0.00 0.00 0.01 0.04 0.05 0.11 0.07 0.08 0.04 0.00 0.00 0.00 0.00 0.00 0.00 0.00 0.00 0.00 0.00 0.00 0.00 0.00 0.00 0.00 0.00 0.00 0.00 0.00 0.00
0.00 0.00 0.00 0.00 0.00 0.00 0.00 0.00 0.00 0.00 0.00 0.00 0.00 0.00 0.00 0.00 0.00 0.00 0.05 0.08 0.13 0.18 0.15 0.09 0.01 0.01 0.00 0.00 0.00 0.00 0.00 0.00 0.00 0.00 0.00 0.00 0.00 0.00 0.00 0.00 0.00 0.00 0.00 0.00
0.00 0.00 0.00 0.00 0.00 0.00 0.00 0.00 0.00 0.00 0.00 0.00 0.00 0.00 0.00 0.00 0.00 0.00 0.00 0.04 0.03 0.30 0.45 0.21 0.08 0.03 0.06 0.02 0.00 0.00 0.00 0.00 0.00 0.00 0.00 0.00 0.00 0.00 0.00 0.00 0.00 0.00 0.00 0.00
0.00 0.01 0.00 0.00 0.00 0.00 0.00 0.00 0.00 0.00 0.00 0.00 0.00 0.00 0.00 0.00 0.00 0.00 0.00 0.00 0.00 0.03 0.49 0.83 0.33 0.14 0.05 0.05 0.01 0.00 0.00 0.00 0.00 0.00 0.00 0.00 0.00 0.00 0.00 0.00 0.00 0.00 0.00 0.00
0.03 0.05 0.01 0.00 0.00 0.00 0.00 0.00 0.00 0.00 0.00 0.00 0.00 0.00 0.00 0.00 0.00 0.00 0.02 0.02 0.01 0.06 0.13 0.61 0.73 0.36 0.14 0.07 0.04 0.03 0.01 0.00 0.00 0.00 0.00 0.00 0.00 0.00 0.00 0.00 0.00 0.00 0.00 0.00
0.11 0.09 0.03 0.00 0.00 0.00 0.00 0.00 0.00 0.00 0.00 0.00 0.00 0.00 0.00 0.00 0.00 0.00 0.02 0.02 0.00 0.05 0.04 0.12 0.34 0.26 0.14 0.05 0.01 0.01 0.01 0.00 0.00 0.00 0.00 0.00 0.00 0.00 0.00 0.00 0.00 0.00 0.00 0.00
0.26 0.11 0.02 0.00 0.00 0.00 0.00 0.00 0.00 0.00 0.00 0.00 0.00 0.00 0.00 0.00 0.00 0.00 0.00 0.00 0.07 0.17 0.19 0.27 0.25 0.24 0.20 0.03 0.00 0.00 0.00 0.00 0.00 0.00 0.00 0.00 0.00 0.00 0.00 0.00 0.00 0.00 0.00 0.00
0.18 0.08 0.01 0.00 0.00 0.00 0.00 0.00 0.00 0.00 0.00 0.00 0.00 0.00 0.00 0.00 0.00 0.00 0.00 0.00 0.01 0.07 0.26 0.29 0.20 0.15 0.38 0.29 0.03 0.01 0.00 0.00 0.00 0.01 0.00 0.00 0.00 0.00 0.00 0.00 0.01 0.00 0.00 0.00
0.09 0.07 0.04 0.01 0.00 0.00 0.00 0.00 0.00 0.00 0.00 0.00 0.00 0.00 0.00 0.00 0.00 0.00 0.00 0.00 0.00 0.01 0.06 0.07 0.08 0.08 0.13 0.19 0.05 0.03 0.05 0.04 0.00 0.00 0.01 0.02 0.00 0.00 0.00 0.00 0.02 0.01 0.00 0.01
0.15 0.17 0.17 0.03 0.00 0.01 0.00 0.00 0.00 0.00 0.00 0.00 0.00 0.00 0.00 0.00 0.00 0.00 0.00 0.00 0.00 0.00 0.01 0.03 0.08 0.10 0.17 0.06 0.04 0.02 0.10 0.08 0.02 0.01 0.01 0.01 0.01 0.00 0.00 0.00 0.00 0.00 0.01 0.05
0.13 0.31 0.37 0.10 0.10 0.17 0.01 0.00 0.00 0.00 0.00 0.00 0.00 0.00 0.00 0.00 0.00 0.00 0.00 0.00 0.01 0.01 0.02 0.01 0.04 0.15 0.25 0.40 0.48 0.25 0.16 0.15 0.08 0.08 0.01 0.00 0.00 0.01 0.01 0.00 0.00 0.00 0.00 0.04
0.08 0.31 0.37 0.29 0.27 0.17 0.08 0.02 0.00 0.00 0.01 0.00 0.00 0.00 0.00 0.00 0.00 0.00 0.00 0.01 0.01 0.01 0.01 0.02 0.01 0.07 0.16 0.41 0.56 1.12 0.66 0.32 0.14 0.06 0.02 0.00 0.00 0.00 0.00 0.00 0.00 0.01 0.02 0.13
0.20 0.30 0.55 0.44 0.52 0.47 0.19 0.09 0.03 0.04 0.05 0.00 0.00 0.00 0.00 0.01 0.02 0.00 0.01 0.01 0.06 0.04 0.04 0.02 0.02 0.03 0.01 0.14 0.26 0.47 1.03 0.50 0.25 0.07 0.02 0.04 0.01 0.00 0.00 0.04 0.05 0.18 0.38 0.32
0.41 0.57 0.58 0.43 0.62 0.57 0.24 0.16 0.25 0.30 0.12 0.01 0.01 0.00 0.00 0.01 0.00 0.02 0.02 0.01 0.02 0.07 0.02 0.01 0.01 0.01 0.00 0.03 0.17 0.25 0.19 0.10 0.21 0.11 0.10 0.07 0.03 0.04 0.14 0.24 0.21 0.25 0.25 0.07
0.72 0.94 0.96 0.65 0.80 0.91 0.30 0.47 0.56 0.35 0.16 0.05 0.02 0.00 0.00 0.02 0.03 0.03 0.01 0.01 0.01 0.01 0.00 0.00 0.01 0.01 0.00 0.04 0.08 0.16 0.23 0.11 0.03 0.10 0.11 0.04 0.03 0.08 0.19 0.22 0.22 0.22 0.11 0.04
0.92 0.97 0.98 0.74 0.97 0.94 0.64 0.77 0.61 0.40 0.47 0.23 0.06 0.01 0.02 0.03 0.05 0.06 0.03 0.02 0.01 0.00 0.00 0.00 0.01 0.00 0.02 0.04 0.03 0.01 0.05 0.19 0.18 0.06 0.09 0.09 0.06 0.04 0.11 0.17 0.12 0.05 0.09 0.10
0.81 0.94 0.89 0.74 0.83 0.96 0.71 0.85 0.82 0.71 0.70 0.43 0.15 0.04 0.04 0.04 0.04 0.06 0.05 0.05 0.03 0.02 0.01 0.02 0.02 0.01 0.01 0.01 0.01 0.00 0.00 0.00 0.07 0.11 0.06 0.09 0.17 0.17 0.19 0.32 0.18 0.12 0.22 0.27
1.03 0.94 0.88 0.86 0.92 1.06 0.90 1.29 1.12 0.86 0.66 0.49 0.37 0.31 0.17 0.19 0.16 0.13 0.09 0.10 0.12 0.16 0.13 0.10 0.13 0.10 0.08 0.04 0.02 0.01 0.01 0.01 0.02 0.13 0.28 0.39 0.42 0.36 0.27 0.40 0.37 0.46 0.66 0.69
1.33 1.36 1.29 1.06 0.94 1.24 1.09 1.33 1.19 1.13 1.02 0.86 0.81 0.77 0.71 0.70 0.81 0.68 0.54 0.51 0.47 0.58 0.66 0.63 0.52 0.48 0.55 0.54 0.38 0.26 0.20 0.20 0.23 0.28 0.28 0.30 0.33 0.48 0.53 0.55 0.56 0.81 0.95 0.88

GFSCGP_prec_precacc_066.txt.gz
Total_Precipitation_Accumulation
0.00 0.00 0.00 0.00 0.00 0.00 0.00 0.00 0.00 0.00 0.00 0.01 0.01 0.07 0.53 0.31 0.41 0.85 0.31 0.15 0.04 0.00 0.00 0.00 0.00 0.00 0.00 0.00 0.00 0.00 0.00 0.01 0.02 0.07 0.03 0.03 0.01 0.00 0.01 0.04 0.07 0.11 0.08 0.19
0.00 0.00 0.00 0.00 0.00 0.00 0.00 0.00 0.00 0.00 0.00 0.00 0.01 0.04 0.13 0.18 0.20 0.53 0.63 0.13 0.06 0.00 0.00 0.00 0.00 0.00 0.00 0.00 0.00 0.00 0.00 0.01 0.00 0.01 0.01 0.01 0.01 0.01 0.02 0.06 0.11 0.04 0.11 0.18
0.00 0.00 0.00 0.00 0.00 0.00 0.00 0.00 0.00 0.00 0.00 0.00 0.02 0.13 0.24 0.41 0.23 0.32 0.81 0.30 0.18 0.01 0.00 0.00 0.00 0.00 0.00 0.00 0.00 0.00 0.00 0.00 0.01 0.02 0.02 0.07 0.08 0.03 0.02 0.05 0.07 0.02 0.03 0.08
0.00 0.00 0.00 0.00 0.00 0.00 0.00 0.00 0.00 0.00 0.00 0.00 0.00 0.03 0.11 0.19 0.35 1.11 1.00 0.37 0.15 0.03 0.01 0.00 0.00 0.00 0.00 0.00 0.00 0.00 0.00 0.00 0.01 0.03 0.01 0.05 0.02 0.01 0.00 0.01 0.01 0.02 0.02 0.03
0.00 0.00 0.00 0.00 0.00 0.00 0.00 0.00 0.00 0.00 0.00 0.00 0.00 0.00 0.00 0.01 0.07 0.64 0.95 0.26 0.14 0.16 0.01 0.01 0.00 0.00 0.00 0.00 0.00 0.00 0.00 0.00 0.01 0.02 0.01 0.04 0.01 0.00 0.00 0.00 0.01 0.03 0.05 0.01
0.00 0.00 0.00 0.00 0.00 0.00 0.00 0.00 0.00 0.00 0.00 0.00 0.00 0.00 0.00 0.00 0.00 0.07 0.27 0.23 0.11 0.01 0.00 0.01 0.00 0.00 0.00 0.00 0.00 0.00 0.00 0.00 0.00 0.01 0.01 0.04 0.03 0.00 0.00 0.00 0.00 0.00 0.01 0.02
0.00 0.00 0.00 0.00 0.00 0.00 0.00 0.00 0.00 0.00 0.00 0.00 0.00 0.00 0.00 0.00 0.00 0.01 0.07 0.22 0.10 0.05 0.01 0.01 0.00 0.00 0.00 0.00 0.00 0.00 0.00 0.00 0.00 0.00 0.00 0.01 0.01 0.01 0.01 0.01 0.00 0.00 0.00 0.00
0.00 0.00 0.00 0.00 0.00 0.00 0.00 0.00 0.00 0.00 0.00 0.00 0.00 0.00 0.00 0.00 0.00 0.01 0.04 0.05 0.11 0.07 0.08 0.04 0.00 0.00 0.00 0.00 0.00 0.00 0.00 0.00 0.00 0.00 0.00 0.00 0.00 0.00 0.00 0.00 0.00 0.00 0.00 0.00
0.00 0.00 0.00 0.00 0.00 0.00 0.00 0.00 0.00 0.00 0.00 0.00 0.00 0.00 0.00 0.00 0.00 0.00 0.05 0.08 0.13 0.18 0.15 0.09 0.01 0.01 0.00 0.00 0.00 0.00 0.00 0.00 0.00 0.00 0.00 0.00 0.00 0.00 0.00 0.00 0.00 0.00 0.00 0.00
0.00 0.00 0.00 0.00 0.00 0.00 0.00 0.00 0.00 0.00 0.00 0.00 0.00 0.00 0.00 0.00 0.00 0.00 0.00 0.04 0.03 0.30 0.45 0.21 0.08 0.03 0.06 0.02 0.00 0.00 0.00 0.00 0.00 0.00 0.00 0.00 0.00 0.00 0.00 0.00 0.00 0.00 0.00 0.00
0.00 0.01 0.00 0.00 0.00 0.00 0.00 0.00 0.00 0.00 0.00 0.00 0.00 0.00 0.00 0.00 0.00 0.00 0.00 0.00 0.00 0.03 0.49 0.84 0.38 0.17 0.07 0.06 0.01 0.00 0.00 0.00 0.00 0.00 0.00 0.00 0.00 0.00 0.00 0.00 0.00 0.00 0.00 0.00
0.03 0.05 0.01 0.00 0.00 0.00 0.00 0.00 0.00 0.00 0.00 0.00 0.00 0.00 0.00 0.00 0.00 0.00 0.02 0.02 0.01 0.06 0.13 0.61 0.77 0.45 0.19 0.09 0.05 0.03 0.01 0.00 0.00 0.00 0.00 0.00 0.00 0.00 0.00 0.00 0.00 0.00 0.00 0.00
0.11 0.09 0.03 0.00 0.00 0.00 0.00 0.00 0.00 0.00 0.00 0.00 0.00 0.00 0.00 0.00 0.00 0.00 0.02 0.02 0.00 0.05 0.04 0.12 0.35 0.31 0.23 0.13 0.03 0.03 0.01 0.00 0.00 0.00 0.00 0.00 0.00 0.00 0.00 0.00 0.00 0.00 0.00 0.00
0.26 0.11 0.02 0.00 0.00 0.00 0.00 0.00 0.00 0.00 0.00 0.00 0.00 0.00 0.00 0.00 0.00 0.00 0.00 0.00 0.07 0.18 0.19 0.27 0.25 0.28 0.26 0.10 0.06 0.02 0.02 0.01 0.00 0.00 0.00 0.00 0.00 0.00 0.00 0.00 0.00 0.00 0.00 0.00
0.18 0.08 0.01 0.00 0.00 0.00 0.00 0.00 0.00 0.00 0.00 0.00 0.00 0.00 0.00 0.00 0.00 0.00 0.00 0.00 0.01 0.07 0.26 0.30 0.21 0.16 0.40 0.32 0.07 0.04 0.01 0.01 0.01 0.01 0.00 0.00 0.00 0.00 0.00 0.00 0.01 0.00 0.00 0.00
0.09 0.07 0.04 0.01 0.00 0.00 0.00 0.00 0.00 0.00 0.00 0.00 0.00 0.00 0.00 0.00 0.00 0.00 0.00 0.00 0.00 0.01 0.06 0.07 0.09 0.11 0.15 0.22 0.07 0.05 0.05 0.04 0.01 0.00 0.01 0.02 0.00 0.00 0.00 0.00 0.02 0.01 0.00 0.01
0.15 0.17 0.17 0.03 0.00 0.01 0.00 0.00 0.00 0.00 0.00 0.00 0.00 0.00 0.00 0.00 0.00 0.00 0.00 0.00 0.00 0.00 0.01 0.03 0.08 0.13 0.21 0.12 0.08 0.04 0.10 0.08 0.02 0.01 0.03 0.03 0.02 0.00 0.00 0.00 0.00 0.00 0.01 0.05
0.13 0.31 0.37 0.10 0.10 0.17 0.01 0.00 0.00 0.00 0.00 0.00 0.00 0.00 0.00 0.00 0.00 0.00 0.00 0.00 0.01 0.01 0.02 0.01 0.04 0.15 0.26 0.42 0.53 0.30 0.16 0.15 0.08 0.08 0.01 0.00 0.03 0.02 0.01 0.00 0.00 0.00 0.00 0.04
0.08 0.31 0.37 0.29 0.27 0.17 0.08 0.02 0.00 0.00 0.01 0.00 0.00 0.00 0.00 0.00 0.00 0.00 0.00 0.01 0.01 0.01 0.01 0.02 0.01 0.07 0.16 0.42 0.57 1.14 0.68 0.32 0.14 0.06 0.02 0.00 0.00 0.01 0.02 0.01 0.01 0.01 0.02 0.13
0.20 0.30 0.55 0.44 0.52 0.47 0.19 0.09 0.03 0.04 0.05 0.00 0.00 0.00 0.00 0.01 0.02 0.00 0.01 0.01 0.06 0.04 0.04 0.02 0.02 0.03 0.01 0.14 0.26 0.47 1.06 0.52 0.26 0.07 0.02 0.04 0.01 0.00 0.00 0.05 0.08 0.19 0.38 0.32
0.41 0.57 0.58 0.43 0.62 0.57 0.24 0.16 0.25 0.30 0.12 0.01 0.01 0.00 0.00 0.01 0.00 0.02 0.02 0.01 0.02 0.07 0.02 0.01 0.01 0.01 0.00 0.03 0.17 0.25 0.20 0.12 0.21 0.11 0.10 0.07 0.03 0.04 0.14 0.24 0.22 0.26 0.27 0.09
0.72 0.94 0.96 0.65 0.80 0.91 0.30 0.47 0.56 0.35 0.16 0.05 0.02 0.00 0.00 0.02 0.03 0.03 0.01 0.01 0.01 0.01 0.00 0.00 0.01 0.01 0.00 0.04 0.08 0.16 0.23 0.11 0.04 0.11 0.11 0.04 0.03 0.08 0.19 0.22 0.23 0.25 0.15 0.06
0.92 0.97 0.98 0.74 0.97 0.94 0.64 0.77 0.61 0.40 0.47 0.23 0.06 0.01 0.02 0.03 0.05 0.06 0.03 0.02 0.01 0.00 0.00 0.00 0.01 0.00 0.02 0.04 0.03 0.01 0.05 0.19 0.18 0.07 0.10 0.10 0.06 0.04 0.11 0.19 0.17 0.07 0.10 0.10
0.81 0.94 0.89 0.74 0.83 0.96 0.71 0.85 0.82 0.71 0.70 0.43 0.15 0.04 0.04 0.05 0.05 0.06 0.05 0.05 0.03 0.02 0.01 0.02 0.02 0.01 0.01 0.01 0.01 0.00 0.00 0.00 0.07 0.11 0.07 0.09 0.17 0.17 0.19 0.32 0.18 0.12 0.22 0.27
1.03 0.94 0.88 0.86 0.92 1.06 0.90 1.29 1.12 0.86 0.66 0.49 0.37 0.31 0.17 0.19 0.16 0.14 0.10 0.11 0.13 0.16 0.13 0.10 0.13 0.10 0.08 0.04 0.02 0.01 0.01 0.01 0.02 0.13 0.28 0.39 0.42 0.37 0.28 0.40 0.37 0.46 0.66 0.69
1.33 1.36 1.29 1.06 0.94 1.24 1.09 1.33 1.19 1.13 1.02 0.86 0.81 0.77 0.72 0.70 0.82 0.68 0.55 0.52 0.47 0.58 0.66 0.64 0.52 0.48 0.55 0.54 0.38 0.26 0.20 0.20 0.23 0.28 0.28 0.30 0.33 0.48 0.53 0.55 0.56 0.81 0.95 0.88

GFSCGP_prec_precacc_069.txt.gz
Total_Precipitation_Accumulation
0.00 0.00 0.00 0.00 0.00 0.00 0.00 0.00 0.00 0.00 0.00 0.01 0.01 0.07 0.53 0.31 0.41 0.85 0.32 0.15 0.04 0.00 0.00 0.00 0.00 0.00 0.00 0.00 0.00 0.00 0.00 0.01 0.02 0.07 0.03 0.03 0.01 0.00 0.01 0.04 0.07 0.13 0.09 0.19
0.00 0.00 0.00 0.00 0.00 0.00 0.00 0.00 0.00 0.00 0.00 0.00 0.01 0.04 0.13 0.18 0.20 0.53 0.63 0.13 0.06 0.00 0.00 0.00 0.00 0.00 0.00 0.00 0.00 0.00 0.00 0.01 0.00 0.01 0.01 0.01 0.01 0.01 0.02 0.06 0.11 0.06 0.12 0.20
0.00 0.00 0.00 0.00 0.00 0.00 0.00 0.00 0.00 0.00 0.00 0.00 0.02 0.13 0.24 0.41 0.23 0.32 0.81 0.30 0.18 0.01 0.00 0.00 0.00 0.00 0.00 0.00 0.00 0.00 0.00 0.00 0.01 0.02 0.02 0.07 0.08 0.03 0.02 0.05 0.07 0.02 0.04 0.10
0.00 0.00 0.00 0.00 0.00 0.00 0.00 0.00 0.00 0.00 0.00 0.00 0.00 0.03 0.11 0.19 0.35 1.11 1.00 0.37 0.15 0.03 0.01 0.00 0.00 0.00 0.00 0.00 0.00 0.00 0.00 0.00 0.01 0.03 0.01 0.05 0.02 0.01 0.01 0.01 0.01 0.02 0.02 0.05
0.00 0.00 0.00 0.00 0.00 0.00 0.00 0.00 0.00 0.00 0.00 0.00 0.00 0.00 0.00 0.01 0.07 0.64 0.95 0.26 0.14 0.16 0.01 0.01 0.00 0.00 0.00 0.00 0.00 0.00 0.00 0.00 0.01 0.02 0.01 0.04 0.01 0.00 0.00 0.00 0.01 0.03 0.05 0.04
0.00 0.00 0.00 0.00 0.00 0.00 0.00 0.00 0.00 0.00 0.00 0.00 0.00 0.00 0.00 0.00 0.00 0.08 0.27 0.23 0.11 0.01 0.00 0.01 0.00 0.00 0.00 0.00 0.00 0.00 0.00 0.00 0.00 0.01 0.01 0.04 0.03 0.00 0.00 0.00 0.00 0.00 0.01 0.07
0.00 0.00 0.00 0.00 0.00 0.00 0.00 0.00 0.00 0.00 0.00 0.00 0.00 0.00 0.00 0.00 0.00 0.01 0.07 0.22 0.10 0.05 0.01 0.01 0.00 0.00 0.00 0.00 0.00 0.00 0.00 0.00 0.00 0.00 0.00 0.01 0.01 0.01 0.01 0.01 0.00 0.00 0.00 0.01
0.00 0.00 0.00 0.00 0.00 0.00 0.00 0.00 0.00 0.00 0.00 0.00 0.00 0.00 0.00 0.00 0.00 0.01 0.04 0.05 0.11 0.07 0.08 0.04 0.00 0.00 0.00 0.00 0.00 0.00 0.00 0.00 0.00 0.00 0.00 0.00 0.00 0.00 0.00 0.00 0.00 0.00 0.00 0.00
0.00 0.00 0.00 0.00 0.00 0.00 0.00 0.00 0.00 0.00 0.00 0.00 0.00 0.00 0.00 0.00 0.00 0.00 0.05 0.08 0.13 0.18 0.15 0.09 0.01 0.01 0.00 0.00 0.00 0.00 0.00 0.00 0.00 0.00 0.00 0.00 0.00 0.00 0.00 0.00 0.00 0.00 0.00 0.00
0.00 0.00 0.00 0.00 0.00 0.00 0.00 0.00 0.00 0.00 0.00 0.00 0.00 0.00 0.00 0.00 0.00 0.00 0.00 0.04 0.03 0.30 0.45 0.21 0.08 0.04 0.06 0.02 0.00 0.00 0.00 0.00 0.00 0.00 0.00 0.00 0.00 0.00 0.00 0.00 0.00 0.00 0.00 0.00
0.00 0.01 0.00 0.00 0.00 0.00 0.00 0.00 0.00 0.00 0.00 0.00 0.00 0.00 0.00 0.00 0.00 0.00 0.00 0.00 0.00 0.03 0.49 0.84 0.38 0.20 0.10 0.06 0.01 0.00 0.00 0.00 0.00 0.00 0.00 0.00 0.00 0.00 0.00 0.00 0.00 0.00 0.00 0.00
0.03 0.05 0.01 0.00 0.00 0.00 0.00 0.00 0.00 0.00 0.00 0.00 0.00 0.00 0.00 0.00 0.00 0.00 0.02 0.02 0.01 0.06 0.13 0.61 0.77 0.47 0.21 0.10 0.05 0.03 0.01 0.00 0.00 0.00 0.00 0.00 0.00 0.00 0.00 0.00 0.00 0.00 0.00 0.00
0.11 0.09 0.03 0.00 0.00 0.00 0.00 0.00 0.00 0.00 0.00 0.00 0.00 0.00 0.00 0.00 0.00 0.00 0.02 0.02 0.00 0.05 0.04 0.12 0.35 0.31 0.25 0.14 0.03 0.03 0.01 0.00 0.00 0.00 0.00 0.00 0.00 0.00 0.00 0.00 0.00 0.00 0.00 0.00
0.26 0.11 0.02 0.00 0.00 0.00 0.00 0.00 0.00 0.00 0.00 0.00 0.00 0.00 0.00 0.00 0.00 0.00 0.00 0.00 0.07 0.18 0.19 0.27 0.25 0.30 0.43 0.19 0.08 0.02 0.03 0.01 0.00 0.00 0.00 0.00 0.00 0.00 0.00 0.00 0.00 0.00 0.00 0.00
0.18 0.08 0.01 0.00 0.00 0.00 0.00 0.00 0.00 0.00 0.00 0.00 0.00 0.00 0.00 0.00 0.00 0.00 0.00 0.00 0.01 0.07 0.26 0.30 0.21 0.16 0.43 0.39 0.11 0.05 0.02 0.01 0.01 0.01 0.00 0.00 0.00 0.00 0.00 0.00 0.01 0.00 0.00 0.00
0.09 0.07 0.04 0.01 0.00 0.00 0.00 0.00 0.00 0.00 0.00 0.00 0.00 0.00 0.00 0.00 0.00 0.00 0.00 0.00 0.00 0.01 0.06 0.07 0.09 0.11 0.15 0.27 0.16 0.11 0.08 0.06 0.01 0.01 0.01 0.02 0.00 0.00 0.00 0.00 0.02 0.01 0.00 0.01
0.15 0.17 0.17 0.03 0.00 0.01 0.00 0.00 0.00 0.00 0.00 0.00 0.00 0.00 0.00 0.00 0.00 0.00 0.00 0.00 0.00 0.00 0.01 0.03 0.08 0.13 0.21 0.12 0.10 0.12 0.17 0.11 0.02 0.02 0.03 0.03 0.02 0.00 0.00 0.00 0.00 0.00 0.01 0.05
0.13 0.31 0.37 0.10 0.10 0.17 0.01 0.00 0.00 0.00 0.00 0.00 0.00 0.00 0.00 0.00 0.00 0.00 0.00 0.00 0.01 0.01 0.02 0.01 0.04 0.15 0.26 0.42 0.53 0.32 0.22 0.17 0.09 0.09 0.01 0.00 0.03 0.02 0.01 0.00 0.00 0.00 0.00 0.04
0.08 0.31 0.37 0.29 0.27 0.17 0.08 0.02 0.00 0.00 0.01 0.00 0.00 0.00 0.00 0.00 0.00 0.00 0.00 0.01 0.01 0.01 0.01 0.02 0.01 0.07 0.16 0.42 0.57 1.15 0.69 0.32 0.16 0.07 0.03 0.00 0.00 0.01 0.02 0.01 0.01 0.02 0.02 0.13
0.20 0.30 0.55 0.44 0.52 0.47 0.19 0.09 0.03 0.04 0.05 0.00 0.00 0.00 0.00 0.01 0.02 0.00 0.01 0.01 0.06 0.04 0.04 0.02 0.02 0.03 0.01 0.14 0.26 0.47 1.06 0.53 0.27 0.09 0.03 0.04 0.01 0.00 0.00 0.06 0.08 0.20 0.38 0.32
0.41 0.57 0.58 0.43 0.62 0.57 0.24 0.16 0.25 0.30 0.12 0.01 0.01 0.00 0.00 0.01 0.00 0.02 0.02 0.01 0.02 0.07 0.02 0.01 0.01 0.01 0.00 0.03 0.17 0.25 0.20 0.12 0.22 0.12 0.11 0.08 0.03 0.04 0.14 0.24 0.22 0.28 0.29 0.09
0.72 0.94 0.96 0.65 0.80 0.91 0.30 0.47 0.56 0.35 0.16 0.05 0.02 0.00 0.00 0.02 0.03 0.03 0.01 0.01 0.01 0.01 0.00 0.00 0.01 0.01 0.00 0.04 0.08 0.16 0.23 0.11 0.04 0.11 0.12 0.04 0.03 0.08 0.19 0.22 0.24 0.26 0.16 0.07
0.92 0.97 0.98 0.74 0.97 0.94 0.64 0.77 0.61 0.40 0.47 0.23 0.06 0.01 0.02 0.03 0.05 0.06 0.03 0.02 0.01 0.00 0.00 0.00 0.01 0.00 0.02 0.04 0.03 0.01 0.05 0.19 0.18 0.07 0.10 0.10 0.07 0.05 0.11 0.19 0.17 0.09 0.13 0.13
0.81 0.94 0.89 0.74 0.83 0.96 0.71 0.85 0.82 0.71 0.70 0.43 0.15 0.04 0.04 0.05 0.05 0.06 0.05 0.05 0.03 0.02 0.01 0.02 0.02 0.01 0.01 0.01 0.01 0.00 0.00 0.00 0.07 0.11 0.07 0.09 0.17 0.17 0.20 0.32 0.18 0.12 0.22 0.28
1.03 0.94 0.88 0.86 0.92 1.06 0.90 1.29 1.12 0.86 0.66 0.49 0.37 0.31 0.17 0.19 0.16 0.14 0.10 0.11 0.13 0.16 0.13 0.10 0.13 0.11 0.08 0.04 0.02 0.01 0.01 0.01 0.02 0.13 0.28 0.39 0.42 0.37 0.28 0.41 0.37 0.46 0.66 0.69
1.33 1.36 1.29 1.06 0.94 1.24 1.09 1.33 1.19 1.13 1.02 0.86 0.81 0.77 0.72 0.70 0.82 0.68 0.55 0.52 0.47 0.59 0.67 0.64 0.52 0.48 0.55 0.54 0.38 0.26 0.20 0.21 0.23 0.28 0.28 0.30 0.33 0.48 0.53 0.55 0.56 0.81 0.96 0.91

GFSCGP_prec_precacc_072.txt.gz
Total_Precipitation_Accumulation
0.00 0.00 0.00 0.00 0.00 0.00 0.00 0.00 0.00 0.00 0.00 0.01 0.01 0.07 0.53 0.31 0.41 0.85 0.32 0.15 0.04 0.00 0.00 0.00 0.00 0.00 0.00 0.00 0.00 0.00 0.00 0.01 0.02 0.07 0.03 0.03 0.01 0.00 0.01 0.04 0.07 0.13 0.10 0.22
0.00 0.00 0.00 0.00 0.00 0.00 0.00 0.00 0.00 0.00 0.00 0.00 0.01 0.04 0.13 0.18 0.20 0.53 0.63 0.13 0.06 0.00 0.00 0.00 0.00 0.00 0.00 0.00 0.00 0.00 0.00 0.01 0.00 0.01 0.01 0.01 0.01 0.01 0.03 0.06 0.11 0.06 0.13 0.25
0.00 0.00 0.00 0.00 0.00 0.00 0.00 0.00 0.00 0.00 0.00 0.00 0.02 0.13 0.24 0.41 0.23 0.33 0.81 0.30 0.18 0.01 0.00 0.00 0.00 0.00 0.00 0.00 0.00 0.00 0.00 0.00 0.01 0.02 0.02 0.07 0.08 0.05 0.08 0.07 0.07 0.03 0.07 0.10
0.00 0.00 0.00 0.00 0.00 0.00 0.00 0.00 0.00 0.00 0.00 0.00 0.00 0.03 0.11 0.19 0.35 1.12 1.01 0.37 0.15 0.03 0.01 0.00 0.00 0.00 0.00 0.00 0.00 0.00 0.00 0.00 0.01 0.03 0.01 0.05 0.02 0.01 0.02 0.01 0.01 0.03 0.06 0.06
0.00 0.00 0.00 0.00 0.00 0.00 0.00 0.00 0.00 0.00 0.00 0.00 0.00 0.00 0.00 0.01 0.07 0.65 0.96 0.27 0.14 0.16 0.01 0.01 0.00 0.00 0.00 0.00 0.00 0.00 0.00 0.00 0.01 0.02 0.01 0.04 0.01 0.00 0.02 0.01 0.09 0.09 0.10 0.07
0.00 0.00 0.00 0.00 0.00 0.00 0.00 0.00 0.00 0.00 0.00 0.00 0.00 0.00 0.00 0.00 0.00 0.08 0.27 0.23 0.11 0.01 0.00 0.01 0.00 0.00 0.00 0.00 0.00 0.00 0.00 0.00 0.00 0.01 0.01 0.04 0.03 0.01 0.00 0.02 0.08 0.05 0.04 0.10
0.00 0.00 0.00 0.00 0.00 0.00 0.00 0.00 0.00 0.00 0.00 0.00 0.00 0.00 0.00 0.00 0.00 0.01 0.07 0.22 0.10 0.05 0.01 0.01 0.00 0.00 0.00 0.00 0.00 0.00 0.00 0.00 0.00 0.00 0.00 0.01 0.01 0.02 0.04 0.06 0.02 0.00 0.00 0.01
0.00 0.00 0.00 0.00 0.00 0.00 0.00 0.00 0.00 0.00 0.00 0.00 0.00 0.00 0.00 0.00 0.00 0.01 0.04 0.05 0.11 0.07 0.08 0.04 0.00 0.00 0.00 0.00 0.00 0.00 0.00 0.00 0.00 0.00 0.00 0.00 0.00 0.00 0.00 0.00 0.00 0.00 0.00 0.00
0.00 0.00 0.00 0.00 0.00 0.00 0.00 0.00 0.00 0.00 0.00 0.00 0.00 0.00 0.00 0.00 0.00 0.00 0.05 0.08 0.13 0.18 0.15 0.09 0.01 0.01 0.00 0.00 0.00 0.00 0.00 0.00 0.00 0.00 0.00 0.00 0.00 0.00 0.00 0.00 0.00 0.00 0.00 0.00
0.00 0.00 0.00 0.00 0.00 0.00 0.00 0.00 0.00 0.00 0.00 0.00 0.00 0.00 0.00 0.00 0.00 0.00 0.00 0.04 0.03 0.30 0.45 0.21 0.08 0.04 0.06 0.02 0.00 0.00 0.00 0.00 0.00 0.00 0.00 0.00 0.00 0.00 0.00 0.00 0.00 0.00 0.00 0.00
0.00 0.01 0.00 0.00 0.00 0.00 0.00 0.00 0.00 0.00 0.00 0.00 0.00 0.00 0.00 0.00 0.00 0.00 0.00 0.00 0.00 0.04 0.50 0.84 0.40 0.21 0.10 0.06 0.01 0.00 0.00 0.00 0.00 0.00 0.00 0.00 0.00 0.00 0.00 0.00 0.00 0.00 0.00 0.00
0.03 0.05 0.01 0.00 0.00 0.00 0.00 0.00 0.00 0.00 0.00 0.00 0.00 0.00 0.00 0.00 0.00 0.00 0.02 0.02 0.01 0.06 0.14 0.63 0.78 0.50 0.23 0.11 0.05 0.03 0.01 0.00 0.00 0.00 0.00 0.00 0.00 0.00 0.00 0.00 0.00 0.00 0.00 0.00
0.11 0.09 0.03 0.00 0.00 0.00 0.00 0.00 0.00 0.00 0.00 0.00 0.00 0.00 0.00 0.00 0.00 0.00 0.02 0.02 0.01 0.05 0.04 0.13 0.36 0.39 0.34 0.17 0.04 0.03 0.01 0.00 0.00 0.00 0.00 0.00 0.00 0.00 0.00 0.00 0.00 0.00 0.00 0.00
0.26 0.11 0.02 0.00 0.00 0.00 0.00 0.00 0.00 0.00 0.00 0.00 0.00 0.00 0.00 0.00 0.00 0.00 0.00 0.00 0.07 0.18 0.19 0.28 0.27 0.36 0.54 0.31 0.12 0.03 0.03 0.01 0.01 0.00 0.00 0.00 0.00 0.00 0.00 0.00 0.00 0.00 0.00 0.00
0.18 0.08 0.01 0.00 0.00 0.00 0.00 0.00 0.00 0.00 0.00 0.00 0.00 0.00 0.00 0.00 0.00 0.00 0.00 0.00 0.01 0.07 0.26 0.30 0.21 0.17 0.47 0.47 0.18 0.10 0.05 0.02 0.01 0.01 0.00 0.00 0.00 0.00 0.00 0.00 0.01 0.00 0.00 0.00
0.09 0.07 0.04 0.01 0.00 0.00 0.00 0.00 0.00 0.00 0.00 0.00 0.00 0.00 0.00 0.00 0.00 0.00 0.00 0.00 0.00 0.01 0.06 0.07 0.09 0.11 0.15 0.28 0.21 0.15 0.14 0.12 0.04 0.01 0.01 0.02 0.00 0.00 0.00 0.00 0.02 0.01 0.00 0.01
0.15 0.17 0.17 0.03 0.00 0.01 0.00 0.00 0.00 0.00 0.00 0.00 0.00 0.00 0.00 0.00 0.00 0.00 0.00 0.00 0.00 0.00 0.01 0.03 0.08 0.13 0.21 0.12 0.10 0.14 0.20 0.16 0.07 0.03 0.04 0.03 0.02 0.00 0.00 0.00 0.00 0.00 0.01 0.05
0.13 0.31 0.37 0.10 0.10 0.17 0.01 0.00 0.00 0.00 0.00 0.00 0.00 0.00 0.00 0.00 0.00 0.00 0.00 0.00 0.01 0.01 0.02 0.01 0.04 0.15 0.26 0.42 0.53 0.32 0.22 0.19 0.11 0.10 0.02 0.01 0.03 0.02 0.01 0.00 0.00 0.00 0.00 0.04
0.08 0.31 0.37 0.29 0.27 0.17 0.08 0.02 0.00 0.00 0.01 0.00 0.00 0.00 0.00 0.00 0.00 0.00 0.00 0.01 0.01 0.01 0.01 0.02 0.01 0.07 0.16 0.42 0.57 1.15 0.69 0.32 0.16 0.11 0.09 0.03 0.01 0.01 0.03 0.01 0.02 0.02 0.02 0.13
0.20 0.30 0.55 0.44 0.52 0.47 0.19 0.09 0.03 0.04 0.05 0.00 0.00 0.00 0.00 0.01 0.02 0.00 0.01 0.01 0.06 0.04 0.04 0.02 0.02 0.03 0.01 0.14 0.26 0.47 1.06 0.53 0.27 0.10 0.08 0.07 0.04 0.01 0.01 0.10 0.14 0.27 0.43 0.33
0.41 0.57 0.58 0.43 0.62 0.57 0.24 0.16 0.25 0.30 0.12 0.01 0.01 0.00 0.00 0.01 0.00 0.02 0.02 0.01 0.02 0.07 0.02 0.01 0.01 0.01 0.00 0.03 0.17 0.25 0.20 0.12 0.22 0.12 0.13 0.12 0.05 0.05 0.15 0.26 0.29 0.39 0.38 0.14
0.72 0.94 0.96 0.65 0.80 0.91 0.30 0.47 0.56 0.35 0.16 0.05 0.02 0.00 0.00 0.02 0.03 0.03 0.01 0.01 0.01 0.01 0.00 0.00 0.01 0.01 0.00 0.04 0.08 0.16 0.23 0.11 0.04 0.11 0.12 0.05 0.04 0.08 0.19 0.23 0.24 0.29 0.29 0.20
0.92 0.97 0.98 0.74 0.97 0.94 0.64 0.77 0.61 0.40 0.47 0.23 0.06 0.01 0.02 0.03 0.05 0.06 0.03 0.02 0.01 0.00 0.00 0.00 0.01 0.00 0.02 0.04 0.03 0.01 0.05 0.19 0.18 0.07 0.10 0.10 0.07 0.05 0.12 0.19 0.17 0.10 0.15 0.20
0.81 0.94 0.89 0.74 0.83 0.96 0.71 0.85 0.82 0.71 0.70 0.43 0.15 0.04 0.04 0.05 0.05 0.06 0.05 0.05 0.03 0.02 0.01 0.02 0.02 0.01 0.01 0.01 0.01 0.00 0.00 0.00 0.07 0.11 0.07 0.09 0.17 0.17 0.20 0.32 0.18 0.12 0.23 0.28
1.03 0.94 0.88 0.86 0.92 1.06 0.90 1.29 1.12 0.86 0.66 0.49 0.37 0.31 0.17 0.19 0.16 0.14 0.10 0.11 0.13 0.16 0.13 0.10 0.13 0.11 0.08 0.04 0.02 0.01 0.01 0.01 0.02 0.13 0.28 0.39 0.42 0.37 0.28 0.41 0.37 0.46 0.66 0.69
1.33 1.36 1.29 1.06 0.94 1.24 1.09 1.33 1.19 1.13 1.02 0.86 0.81 0.77 0.72 0.70 0.82 0.68 0.55 0.52 0.47 0.59 0.67 0.65 0.53 0.48 0.56 0.54 0.38 0.26 0.20 0.21 0.23 0.29 0.28 0.30 0.33 0.48 0.53 0.55 0.56 0.81 0.96 0.91

GFSCGP_prec_precacc_075.txt.gz
Total_Precipitation_Accumulation
0.00 0.00 0.00 0.00 0.00 0.00 0.00 0.00 0.00 0.00 0.00 0.01 0.01 0.08 0.53 0.31 0.41 0.86 0.32 0.16 0.05 0.01 0.00 0.00 0.00 0.00 0.00 0.00 0.00 0.00 0.00 0.01 0.02 0.07 0.03 0.03 0.01 0.00 0.01 0.05 0.07 0.13 0.12 0.25
0.00 0.00 0.00 0.00 0.00 0.00 0.00 0.00 0.00 0.00 0.00 0.00 0.01 0.04 0.13 0.18 0.20 0.53 0.63 0.16 0.07 0.01 0.00 0.00 0.00 0.00 0.00 0.00 0.00 0.00 0.00 0.01 0.00 0.01 0.01 0.01 0.01 0.01 0.04 0.07 0.11 0.06 0.14 0.26
0.00 0.00 0.00 0.00 0.00 0.00 0.00 0.00 0.00 0.00 0.00 0.00 0.02 0.13 0.24 0.41 0.23 0.33 0.82 0.31 0.19 0.02 0.01 0.00 0.00 0.00 0.00 0.00 0.00 0.00 0.00 0.00 0.01 0.02 0.02 0.07 0.10 0.08 0.13 0.08 0.07 0.03 0.16 0.12
0.00 0.00 0.00 0.00 0.00 0.00 0.00 0.00 0.00 0.00 0.00 0.00 0.00 0.03 0.11 0.19 0.35 1.12 1.01 0.38 0.15 0.04 0.01 0.00 0.00 0.00 0.00 0.00 0.00 0.00 0.00 0.00 0.01 0.03 0.01 0.05 0.02 0.01 0.02 0.01 0.01 0.03 0.06 0.06
0.00 0.00 0.00 0.00 0.00 0.00 0.00 0.00 0.00 0.00 0.00 0.00 0.00 0.00 0.02 0.02 0.08 0.65 0.96 0.27 0.16 0.16 0.01 0.02 0.00 0.00 0.01 0.00 0.00 0.00 0.00 0.00 0.01 0.02 0.02 0.04 0.01 0.01 0.02 0.01 0.11 0.11 0.10 0.07
0.00 0.00 0.00 0.00 0.00 0.00 0.00 0.00 0.00 0.00 0.00 0.00 0.00 0.00 0.01 0.01 0.04 0.09 0.27 0.23 0.11 0.02 0.01 0.04 0.01 0.00 0.00 0.00 0.00 0.00 0.00 0.00 0.00 0.01 0.01 0.04 0.04 0.01 0.00 0.07 0.11 0.06 0.04 0.10
0.00 0.00 0.00 0.00 0.00 0.00 0.00 0.00 0.00 0.00 0.00 0.00 0.00 0.00 0.00 0.00 0.00 0.01 0.07 0.24 0.12 0.08 0.02 0.02 0.01 0.00 0.00 0.00 0.00 0.00 0.00 0.00 0.00 0.00 0.00 0.01 0.01 0.02 0.05 0.10 0.02 0.00 0.00 0.01
0.00 0.00 0.00 0.00 0.00 0.00 0.00 0.00 0.00 0.00 0.00 0.00 0.00 0.00 0.00 0.00 0.00 0.01 0.04 0.05 0.11 0.07 0.08 0.04 0.01 0.00 0.00 0.00 0.00 0.00 0.00 0.00 0.00 0.00 0.00 0.00 0.00 0.00 0.00 0.00 0.00 0.01 0.00 0.01
0.00 0.00 0.00 0.00 0.00 0.00 0.00 0.00 0.00 0.00 0.00 0.00 0.00 0.00 0.00 0.00 0.00 0.00 0.05 0.08 0.13 0.19 0.17 0.09 0.01 0.01 0.01 0.00 0.00 0.00 0.00 0.00 0.00 0.00 0.00 0.00 0.00 0.00 0.00 0.00 0.00 0.00 0.00 0.02
0.00 0.00 0.00 0.00 0.00 0.00 0.00 0.00 0.00 0.00 0.00 0.00 0.00 0.00 0.00 0.00 0.00 0.00 0.00 0.04 0.05 0.39 0.59 0.38 0.15 0.08 0.07 0.03 0.00 0.00 0.00 0.00 0.00 0.00 0.00 0.00 0.00 0.00 0.00 0.00 0.00 0.00 0.00 0.00
0.00 0.01 0.00 0.00 0.00 0.00 0.00 0.00 0.00 0.00 0.00 0.00 0.00 0.00 0.00 0.00 0.00 0.00 0.00 0.00 0.01 0.14 0.66 1.04 0.71 0.42 0.19 0.11 0.03 0.00 0.00 0.00 0.00 0.00 0.00 0.00 0.00 0.00 0.00 0.00 0.00 0.00 0.00 0.00
0.03 0.05 0.01 0.00 0.00 0.00 0.00 0.00 0.00 0.00 0.00 0.00 0.00 0.00 0.00 0.00 0.00 0.00 0.02 0.02 0.02 0.11 0.30 0.83 1.09 0.81 0.51 0.27 0.17 0.12 0.02 0.00 0.00 0.00 0.00 0.00 0.00 0.00 0.00 0.00 0.00 0.00 0.00 0.00
0.11 0.09 0.03 0.00 0.00 0.00 0.00 0.00 0.00 0.00 0.00 0.00 0.00 0.00 0.00 0.00 0.00 0.00 0.02 0.02 0.01 0.06 0.05 0.19 0.47 0.48 0.60 0.47 0.16 0.09 0.07 0.03 0.01 0.00 0.00 0.00 0.00 0.00 0.00 0.00 0.00 0.00 0.00 0.00
0.26 0.11 0.02 0.00 0.00 0.00 0.00 0.00 0.00 0.00 0.00 0.00 0.00 0.00 0.00 0.00 0.00 0.00 0.00 0.00 0.07 0.18 0.19 0.29 0.29 0.40 0.61 0.55 0.31 0.13 0.07 0.03 0.02 0.02 0.00 0.00 0.00 0.00 0.00 0.00 0.00 0.00 0.00 0.00
0.18 0.08 0.01 0.00 0.00 0.00 0.00 0.00 0.00 0.00 0.00 0.00 0.00 0.00 0.00 0.00 0.00 0.00 0.00 0.00 0.01 0.07 0.26 0.30 0.21 0.19 0.51 0.58 0.32 0.32 0.22 0.16 0.08 0.04 0.02 0.03 0.00 0.00 0.00 0.00 0.01 0.00 0.00 0.00
0.09 0.07 0.04 0.01 0.00 0.00 0.00 0.00 0.00 0.00 0.00 0.00 0.00 0.00 0.00 0.00 0.00 0.00 0.00 0.00 0.00 0.01 0.06 0.07 0.09 0.11 0.15 0.30 0.26 0.25 0.26 0.22 0.14 0.09 0.06 0.02 0.01 0.01 0.01 0.01 0.02 0.01 0.00 0.01
0.15 0.17 0.17 0.03 0.00 0.01 0.01 0.00 0.00 0.00 0.00 0.00 0.00 0.00 0.00 0.00 0.00 0.00 0.00 0.00 0.00 0.00 0.01 0.03 0.08 0.13 0.21 0.12 0.11 0.16 0.26 0.20 0.13 0.10 0.06 0.04 0.02 0.00 0.01 0.02 0.01 0.01 0.01 0.05
0.13 0.31 0.37 0.10 0.10 0.17 0.02 0.00 0.00 0.00 0.00 0.00 0.00 0.00 0.00 0.00 0.00 0.00 0.00 0.00 0.01 0.01 0.02 0.01 0.04 0.15 0.26 0.42 0.53 0.32 0.23 0.21 0.13 0.11 0.02 0.01 0.03 0.02 0.02 0.02 0.03 0.02 0.01 0.04
0.08 0.31 0.37 0.29 0.27 0.17 0.08 0.02 0.00 0.00 0.01 0.00 0.00 0.00 0.00 0.00 0.00 0.00 0.00 0.01 0.01 0.01 0.01 0.02 0.01 0.07 0.16 0.42 0.57 1.15 0.69 0.32 0.16 0.12 0.13 0.07 0.02 0.02 0.04 0.03 0.05 0.06 0.04 0.13
0.20 0.30 0.55 0.44 0.52 0.47 0.19 0.09 0.03 0.04 0.05 0.00 0.00 0.00 0.00 0.01 0.02 0.00 0.01 0.01 0.06 0.04 0.04 0.02 0.02 0.03 0.01 0.14 0.26 0.47 1.06 0.53 0.27 0.10 0.09 0.10 0.07 0.04 0.04 0.12 0.15 0.31 0.48 0.36
0.41 0.57 0.58 0.43 0.62 0.57 0.24 0.16 0.25 0.30 0.12 0.01 0.01 0.00 0.00 0.01 0.00 0.02 0.02 0.01 0.02 0.07 0.02 0.01 0.01 0.01 0.00 0.03 0.17 0.25 0.20 0.12 0.22 0.12 0.13 0.12 0.05 0.06 0.16 0.26 0.30 0.41 0.44 0.24
0.72 0.94 0.96 0.65 0.80 0.91 0.30 0.47 0.56 0.35 0.16 0.05 0.02 0.00 0.00 0.02 0.03 0.03 0.01 0.01 0.01 0.01 0.00 0.00 0.01 0.01 0.00 0.04 0.08 0.16 0.23 0.11 0.04 0.11 0.12 0.05 0.04 0.08 0.19 0.23 0.24 0.30 0.31 0.28
0.92 0.97 0.99 0.75 0.97 0.94 0.64 0.77 0.61 0.40 0.47 0.23 0.06 0.01 0.02 0.03 0.05 0.06 0.03 0.02 0.01 0.00 0.00 0.00 0.01 0.00 0.02 0.04 0.03 0.01 0.05 0.19 0.18 0.07 0.10 0.10 0.07 0.05 0.12 0.19 0.17 0.10 0.15 0.22
0.81 0.94 0.89 0.74 0.83 0.96 0.71 0.85 0.82 0.71 0.70 0.43 0.15 0.04 0.04 0.05 0.05 0.06 0.05 0.05 0.03 0.02 0.01 0.02 0.02 0.01 0.01 0.01 0.01 0.00 0.00 0.00 0.07 0.11 0.07 0.09 0.17 0.17 0.20 0.32 0.18 0.12 0.23 0.29
1.03 0.94 0.88 0.86 0.92 1.06 0.90 1.29 1.12 0.86 0.66 0.49 0.37 0.31 0.17 0.19 0.16 0.14 0.10 0.11 0.13 0.16 0.13 0.10 0.13 0.11 0.08 0.04 0.02 0.01 0.01 0.01 0.02 0.13 0.28 0.39 0.42 0.37 0.28 0.41 0.37 0.46 0.66 0.69
1.33 1.36 1.29 1.06 0.94 1.24 1.09 1.33 1.19 1.13 1.02 0.86 0.81 0.77 0.72 0.70 0.82 0.68 0.55 0.52 0.47 0.59 0.67 0.65 0.53 0.48 0.56 0.54 0.38 0.26 0.20 0.21 0.23 0.29 0.28 0.30 0.33 0.48 0.53 0.55 0.56 0.81 0.96 0.91

GFSCGP_prec_precacc_078.txt.gz
Total_Precipitation_Accumulation
0.00 0.00 0.00 0.00 0.00 0.00 0.00 0.00 0.00 0.00 0.00 0.01 0.02 0.19 0.77 0.32 0.41 0.86 0.32 0.16 0.07 0.01 0.01 0.00 0.00 0.00 0.00 0.00 0.00 0.00 0.00 0.01 0.02 0.07 0.03 0.03 0.01 0.01 0.02 0.08 0.10 0.17 0.17 0.25
0.00 0.00 0.00 0.00 0.00 0.00 0.00 0.00 0.00 0.01 0.01 0.01 0.04 0.08 0.28 0.19 0.20 0.53 0.63 0.16 0.08 0.02 0.01 0.00 0.00 0.00 0.01 0.00 0.00 0.00 0.00 0.01 0.00 0.01 0.01 0.01 0.01 0.02 0.06 0.12 0.14 0.06 0.14 0.26
0.00 0.00 0.00 0.00 0.00 0.00 0.00 0.00 0.00 0.00 0.02 0.00 0.02 0.14 0.25 0.41 0.23 0.33 0.82 0.32 0.22 0.03 0.03 0.00 0.00 0.00 0.02 0.01 0.00 0.00 0.00 0.00 0.01 0.02 0.02 0.08 0.14 0.14 0.27 0.25 0.10 0.03 0.16 0.12
0.00 0.00 0.00 0.00 0.00 0.00 0.00 0.00 0.00 0.00 0.00 0.00 0.00 0.03 0.12 0.19 0.36 1.15 1.02 0.38 0.16 0.04 0.02 0.01 0.00 0.01 0.01 0.01 0.00 0.00 0.00 0.00 0.01 0.03 0.01 0.05 0.03 0.03 0.03 0.02 0.02 0.04 0.06 0.06
0.00 0.00 0.00 0.00 0.00 0.00 0.00 0.00 0.00 0.00 0.00 0.00 0.00 0.00 0.03 0.10 0.20 0.71 0.98 0.28 0.19 0.16 0.01 0.02 0.01 0.00 0.01 0.00 0.00 0.00 0.00 0.00 0.01 0.02 0.04 0.06 0.02 0.16 0.13 0.04 0.25 0.18 0.12 0.08
0.00 0.00 0.00 0.00 0.00 0.00 0.00 0.00 0.00 0.00 0.00 0.00 0.00 0.00 0.01 0.25 0.35 0.26 0.28 0.24 0.24 0.06 0.03 0.04 0.01 0.01 0.00 0.00 0.00 0.00 0.00 0.00 0.01 0.01 0.02 0.05 0.07 0.20 0.23 0.16 0.19 0.10 0.04 0.10
0.00 0.00 0.00 0.00 0.00 0.00 0.00 0.00 0.00 0.00 0.00 0.00 0.00 0.00 0.00 0.06 0.44 0.36 0.09 0.24 0.14 0.11 0.08 0.04 0.01 0.01 0.00 0.00 0.00 0.00 0.00 0.00 0.00 0.00 0.00 0.01 0.04 0.08 0.24 0.34 0.04 0.02 0.03 0.01
0.00 0.00 0.00 0.00 0.00 0.00 0.00 0.00 0.00 0.00 0.00 0.00 0.00 0.00 0.00 0.00 0.02 0.06 0.04 0.05 0.11 0.09 0.11 0.16 0.01 0.02 0.00 0.00 0.00 0.00 0.00 0.00 0.00 0.00 0.01 0.02 0.02 0.03 0.02 0.13 0.02 0.04 0.07 0.04
0.00 0.00 0.00 0.00 0.00 0.00 0.00 0.00 0.00 0.00 0.00 0.00 0.00 0.00 0.00 0.00 0.00 0.00 0.05 0.08 0.14 0.31 0.30 0.18 0.04 0.02 0.06 0.00 0.00 0.00 0.00 0.00 0.00 0.00 0.00 0.00 0.01 0.00 0.01 0.01 0.01 0.00 0.03 0.11
0.00 0.00 0.00 0.00 0.00 0.00 0.00 0.00 0.00 0.00 0.00 0.00 0.00 0.00 0.00 0.00 0.00 0.00 0.00 0.04 0.05 0.43 1.01 0.94 0.37 0.16 0.12 0.04 0.01 0.00 0.00 0.00 0.00 0.00 0.00 0.00 0.00 0.01 0.00 0.01 0.00 0.00 0.02 0.14
0.00 0.01 0.00 0.00 0.00 0.00 0.00 0.00 0.00 0.00 0.00 0.00 0.00 0.01 0.00 0.00 0.00 0.00 0.00 0.00 0.01 0.16 0.92 1.78 1.51 0.68 0.36 0.19 0.12 0.09 0.02 0.00 0.00 0.00 0.00 0.00 0.00 0.00 0.00 0.00 0.00 0.00 0.00 0.04
0.03 0.05 0.01 0.00 0.00 0.00 0.00 0.00 0.00 0.00 0.00 0.00 0.00 0.03 0.00 0.00 0.00 0.00 0.02 0.02 0.02 0.12 0.39 1.04 1.56 1.27 0.94 0.50 0.30 0.27 0.14 0.04 0.01 0.00 0.01 0.00 0.00 0.00 0.00 0.00 0.00 0.00 0.00 0.01
0.11 0.09 0.03 0.00 0.00 0.00 0.00 0.00 0.00 0.00 0.00 0.00 0.00 0.00 0.00 0.00 0.00 0.00 0.02 0.02 0.01 0.06 0.07 0.29 0.66 0.78 0.85 0.96 0.54 0.46 0.61 0.39 0.10 0.02 0.00 0.00 0.00 0.00 0.00 0.01 0.00 0.00 0.00 0.00
0.26 0.11 0.02 0.00 0.00 0.00 0.00 0.00 0.00 0.00 0.00 0.00 0.00 0.00 0.00 0.00 0.00 0.00 0.00 0.00 0.07 0.18 0.20 0.33 0.36 0.50 0.70 0.68 0.56 0.45 0.49 0.54 0.40 0.14 0.15 0.07 0.01 0.00 0.00 0.01 0.02 0.02 0.01 0.00
0.18 0.08 0.01 0.00 0.00 0.00 0.00 0.00 0.00 0.00 0.00 0.00 0.00 0.00 0.00 0.00 0.00 0.00 0.00 0.00 0.01 0.07 0.26 0.30 0.24 0.21 0.54 0.59 0.40 0.55 0.46 0.36 0.36 0.20 0.35 0.54 0.57 0.11 0.01 0.02 0.06 0.05 0.03 0.00
0.09 0.07 0.04 0.01 0.00 0.00 0.00 0.00 0.00 0.00 0.00 0.00 0.00 0.00 0.00 0.00 0.00 0.00 0.00 0.00 0.00 0.01 0.06 0.07 0.09 0.11 0.16 0.31 0.29 0.33 0.53 0.49 0.36 0.29 0.30 0.27 0.56 0.29 0.11 0.05 0.06 0.05 0.03 0.03
0.15 0.17 0.17 0.03 0.00 0.01 0.01 0.00 0.00 0.00 0.00 0.00 0.01 0.01 0.00 0.00 0.00 0.00 0.00 0.00 0.00 0.00 0.01 0.03 0.08 0.13 0.21 0.12 0.11 0.18 0.34 0.33 0.31 0.22 0.16 0.15 0.21 0.17 0.13 0.08 0.05 0.05 0.05 0.09
0.13 0.31 0.37 0.10 0.10 0.18 0.02 0.00 0.00 0.00 0.00 0.00 0.00 0.00 0.00 0.00 0.00 0.00 0.00 0.00 0.01 0.01 0.02 0.01 0.04 0.15 0.26 0.42 0.53 0.32 0.23 0.21 0.14 0.13 0.03 0.03 0.05 0.06 0.13 0.09 0.08 0.09 0.07 0.09
0.08 0.31 0.37 0.29 0.28 0.17 0.08 0.02 0.00 0.00 0.01 0.00 0.00 0.00 0.00 0.00 0.00 0.00 0.00 0.01 0.01 0.01 0.01 0.02 0.01 0.07 0.16 0.42 0.57 1.15 0.69 0.32 0.16 0.13 0.13 0.07 0.02 0.02 0.09 0.11 0.13 0.15 0.12 0.19
0.20 0.30 0.55 0.44 0.52 0.47 0.19 0.09 0.03 0.04 0.05 0.00 0.00 0.00 0.00 0.01 0.02 0.00 0.01 0.01 0.06 0.04 0.04 0.02 0.02 0.03 0.01 0.14 0.26 0.47 1.06 0.53 0.27 0.10 0.09 0.10 0.08 0.04 0.05 0.17 0.19 0.33 0.51 0.41
0.41 0.57 0.58 0.43 0.62 0.57 0.25 0.16 0.25 0.30 0.12 0.01 0.01 0.00 0.00 0.01 0.00 0.02 0.02 0.01 0.02 0.07 0.02 0.01 0.01 0.01 0.00 0.03 0.17 0.25 0.20 0.12 0.22 0.12 0.13 0.12 0.05 0.06 0.16 0.27 0.32 0.47 0.48 0.28
0.72 0.94 0.97 0.65 0.81 0.93 0.30 0.47 0.56 0.35 0.16 0.05 0.02 0.00 0.00 0.02 0.03 0.03 0.01 0.01 0.01 0.01 0.00 0.00 0.01 0.01 0.00 0.04 0.08 0.16 0.23 0.11 0.04 0.11 0.12 0.05 0.04 0.08 0.19 0.23 0.25 0.30 0.32 0.29
0.92 0.98 0.99 0.75 1.00 0.95 0.64 0.77 0.61 0.40 0.47 0.23 0.06 0.01 0.02 0.03 0.05 0.06 0.03 0.02 0.01 0.00 0.00 0.00 0.01 0.00 0.02 0.04 0.03 0.01 0.05 0.19 0.18 0.07 0.10 0.10 0.07 0.05 0.12 0.19 0.17 0.10 0.15 0.22
0.81 0.94 0.89 0.74 0.83 0.96 0.71 0.85 0.82 0.71 0.70 0.43 0.15 0.04 0.04 0.05 0.05 0.06 0.05 0.05 0.03 0.02 0.01 0.02 0.02 0.01 0.01 0.01 0.01 0.00 0.00 0.00 0.07 0.11 0.07 0.09 0.17 0.17 0.20 0.32 0.18 0.12 0.23 0.29
1.03 0.94 0.88 0.86 0.92 1.06 0.90 1.29 1.12 0.86 0.66 0.49 0.37 0.31 0.17 0.19 0.16 0.14 0.10 0.11 0.13 0.16 0.13 0.10 0.13 0.11 0.08 0.04 0.02 0.01 0.01 0.01 0.02 0.13 0.28 0.39 0.42 0.37 0.28 0.41 0.37 0.46 0.66 0.69
1.33 1.36 1.30 1.06 0.94 1.24 1.09 1.33 1.19 1.13 1.02 0.86 0.81 0.77 0.72 0.70 0.82 0.68 0.55 0.52 0.47 0.59 0.67 0.65 0.53 0.48 0.56 0.54 0.38 0.26 0.20 0.21 0.23 0.29 0.28 0.30 0.33 0.48 0.53 0.55 0.56 0.81 0.96 0.91

GFSCGP_prec_precacc_081.txt.gz
Total_Precipitation_Accumulation
0.00 0.00 0.00 0.00 0.00 0.00 0.00 0.00 0.00 0.01 0.01 0.04 0.11 0.26 1.09 0.57 0.44 0.86 0.32 0.16 0.07 0.01 0.01 0.00 0.00 0.00 0.00 0.00 0.00 0.00 0.00 0.01 0.02 0.07 0.03 0.04 0.02 0.01 0.07 0.16 0.23 0.25 0.26 0.27
0.00 0.00 0.00 0.00 0.00 0.00 0.00 0.00 0.00 0.02 0.02 0.04 0.10 0.10 0.29 0.20 0.20 0.53 0.63 0.16 0.08 0.02 0.01 0.00 0.00 0.00 0.01 0.00 0.00 0.00 0.01 0.01 0.00 0.01 0.02 0.01 0.02 0.04 0.10 0.25 0.30 0.10 0.19 0.27
0.00 0.00 0.00 0.00 0.00 0.00 0.00 0.00 0.00 0.00 0.03 0.04 0.08 0.20 0.31 0.45 0.24 0.33 0.82 0.32 0.22 0.03 0.03 0.00 0.00 0.00 0.02 0.01 0.00 0.00 0.00 0.00 0.01 0.02 0.03 0.10 0.17 0.21 0.35 0.31 0.17 0.06 0.16 0.12
0.00 0.00 0.00 0.00 0.00 0.00 0.00 0.00 0.00 0.00 0.00 0.00 0.02 0.08 0.20 0.24 0.37 1.18 1.03 0.38 0.16 0.04 0.03 0.01 0.00 0.01 0.01 0.01 0.00 0.00 0.00 0.00 0.01 0.04 0.02 0.07 0.06 0.07 0.06 0.06 0.08 0.07 0.06 0.06
0.00 0.00 0.00 0.00 0.00 0.00 0.00 0.00 0.00 0.00 0.00 0.00 0.00 0.01 0.04 0.17 0.47 1.01 1.08 0.31 0.19 0.17 0.03 0.02 0.01 0.00 0.01 0.00 0.00 0.00 0.00 0.00 0.01 0.02 0.05 0.06 0.02 0.17 0.15 0.09 0.38 0.19 0.13 0.08
0.00 0.00 0.00 0.00 0.00 0.00 0.00 0.00 0.00 0.00 0.00 0.00 0.00 0.01 0.02 0.29 0.46 0.62 0.61 0.33 0.25 0.08 0.07 0.06 0.02 0.01 0.00 0.00 0.00 0.00 0.00 0.00 0.01 0.01 0.02 0.07 0.08 0.21 0.27 0.20 0.26 0.11 0.05 0.10
0.00 0.00 0.00 0.00 0.00 0.00 0.00 0.00 0.00 0.00 0.00 0.00 0.00 0.00 0.02 0.08 0.49 0.58 0.52 0.36 0.19 0.13 0.14 0.06 0.02 0.02 0.01 0.00 0.00 0.00 0.00 0.00 0.00 0.00 0.01 0.05 0.07 0.12 0.28 0.35 0.04 0.06 0.14 0.07
0.00 0.00 0.00 0.00 0.00 0.00 0.00 0.00 0.00 0.00 0.00 0.00 0.00 0.00 0.00 0.00 0.02 0.10 0.09 0.09 0.21 0.17 0.20 0.25 0.10 0.03 0.01 0.03 0.00 0.00 0.00 0.00 0.00 0.00 0.01 0.04 0.07 0.06 0.04 0.15 0.06 0.11 0.16 0.07
0.00 0.00 0.00 0.00 0.00 0.00 0.00 0.00 0.00 0.00 0.00 0.00 0.00 0.00 0.02 0.04 0.05 0.02 0.09 0.14 0.20 0.50 0.55 0.34 0.14 0.06 0.08 0.06 0.00 0.00 0.00 0.00 0.00 0.00 0.01 0.01 0.01 0.02 0.02 0.04 0.06 0.02 0.08 0.12
0.00 0.00 0.00 0.00 0.00 0.00 0.00 0.00 0.00 0.00 0.00 0.00 0.02 0.03 0.09 0.08 0.06 0.05 0.01 0.04 0.06 0.51 1.41 1.45 0.89 0.32 0.22 0.16 0.06 0.09 0.04 0.01 0.01 0.00 0.01 0.03 0.01 0.03 0.03 0.05 0.03 0.01 0.05 0.21
0.00 0.01 0.00 0.00 0.00 0.00 0.00 0.00 0.00 0.00 0.00 0.00 0.03 0.07 0.08 0.10 0.05 0.01 0.00 0.00 0.02 0.19 1.06 2.19 2.05 1.52 0.59 0.41 0.21 0.33 0.33 0.24 0.11 0.04 0.05 0.05 0.05 0.02 0.02 0.03 0.02 0.04 0.07 0.12
0.03 0.05 0.01 0.00 0.00 0.00 0.00 0.00 0.00 0.00 0.00 0.00 0.02 0.06 0.05 0.08 0.02 0.00 0.03 0.03 0.02 0.15 0.44 1.06 1.62 1.42 1.24 0.97 0.54 0.62 0.99 0.42 0.23 0.16 0.16 0.09 0.05 0.05 0.07 0.02 0.01 0.00 0.02 0.03
0.11 0.09 0.03 0.00 0.00 0.00 0.00 0.00 0.00 0.00 0.00 0.00 0.01 0.01 0.01 0.03 0.02 0.00 0.02 0.02 0.01 0.06 0.07 0.30 0.67 0.88 1.36 1.31 0.94 0.69 0.98 1.45 0.47 0.16 0.17 0.20 0.19 0.13 0.10 0.06 0.00 0.01 0.01 0.03
0.26 0.11 0.02 0.00 0.00 0.00 0.00 0.00 0.00 0.00 0.00 0.00 0.01 0.01 0.00 0.00 0.00 0.00 0.00 0.00 0.07 0.18 0.20 0.34 0.38 0.56 0.96 0.95 0.77 0.75 0.93 1.04 1.03 0.36 0.32 0.30 0.24 0.20 0.17 0.11 0.05 0.02 0.02 0.01
0.18 0.08 0.01 0.00 0.00 0.00 0.00 0.00 0.00 0.00 0.00 0.00 0.03 0.00 0.00 0.00 0.00 0.00 0.00 0.00 0.01 0.07 0.26 0.31 0.24 0.23 0.63 0.66 0.43 0.56 0.53 0.50 0.60 0.39 0.49 0.89 1.18 0.54 0.43 0.26 0.22 0.11 0.04 0.01
0.09 0.07 0.04 0.01 0.00 0.00 0.00 0.00 0.00 0.00 0.00 0.00 0.00 0.01 0.00 0.00 0.00 0.00 0.00 0.00 0.00 0.01 0.06 0.07 0.09 0.12 0.17 0.33 0.30 0.34 0.56 0.53 0.45 0.41 0.42 0.40 0.92 0.81 0.62 0.60 0.31 0.16 0.09 0.05
0.15 0.17 0.17 0.03 0.00 0.01 0.01 0.00 0.00 0.00 0.00 0.00 0.02 0.01 0.00 0.00 0.00 0.00 0.00 0.00 0.00 0.00 0.01 0.03 0.08 0.13 0.21 0.12 0.11 0.18 0.36 0.35 0.34 0.29 0.34 0.36 0.36 0.22 0.16 0.21 0.27 0.24 0.14 0.16
0.13 0.31 0.37 0.10 0.10 0.18 0.02 0.00 0.00 0.00 0.00 0.00 0.00 0.00 0.00 0.00 0.00 0.00 0.00 0.00 0.01 0.01 0.02 0.01 0.04 0.15 0.26 0.42 0.53 0.32 0.23 0.21 0.15 0.14 0.06 0.07 0.19 0.15 0.16 0.16 0.23 0.28 0.21 0.17
0.08 0.31 0.37 0.29 0.28 0.17 0.08 0.02 0.00 0.00 0.01 0.00 0.00 0.00 0.00 0.00 0.00 0.00 0.00 0.01 0.01 0.01 0.01 0.02 0.01 0.07 0.16 0.42 0.57 1.15 0.69 0.32 0.16 0.13 0.14 0.08 0.04 0.04 0.11 0.15 0.21 0.24 0.19 0.24
0.20 0.30 0.55 0.44 0.52 0.47 0.19 0.09 0.03 0.04 0.05 0.00 0.00 0.00 0.00 0.01 0.02 0.00 0.01 0.01 0.06 0.04 0.04 0.02 0.02 0.03 0.01 0.14 0.26 0.47 1.06 0.53 0.27 0.10 0.09 0.10 0.08 0.04 0.06 0.18 0.22 0.38 0.62 0.48
0.41 0.57 0.58 0.43 0.62 0.58 0.25 0.16 0.25 0.30 0.12 0.01 0.01 0.00 0.00 0.01 0.00 0.02 0.02 0.01 0.02 0.07 0.02 0.01 0.01 0.01 0.00 0.03 0.17 0.25 0.20 0.12 0.22 0.12 0.13 0.12 0.05 0.06 0.16 0.27 0.32 0.48 0.51 0.33
0.72 0.95 0.97 0.65 0.81 0.94 0.30 0.47 0.56 0.35 0.16 0.05 0.02 0.00 0.00 0.02 0.03 0.03 0.01 0.01 0.01 0.01 0.00 0.00 0.01 0.01 0.00 0.04 0.08 0.16 0.23 0.11 0.04 0.11 0.12 0.05 0.04 0.08 0.19 0.23 0.25 0.30 0.32 0.29
0.92 0.98 1.01 0.76 1.02 0.95 0.64 0.77 0.61 0.40 0.47 0.23 0.06 0.01 0.02 0.03 0.05 0.06 0.03 0.02 0.01 0.00 0.00 0.00 0.01 0.00 0.02 0.04 0.03 0.01 0.05 0.19 0.18 0.07 0.10 0.10 0.07 0.05 0.12 0.19 0.17 0.10 0.15 0.22
0.81 0.94 0.89 0.74 0.83 0.96 0.71 0.85 0.82 0.71 0.70 0.43 0.15 0.04 0.04 0.05 0.05 0.06 0.05 0.05 0.03 0.02 0.01 0.02 0.02 0.01 0.01 0.01 0.01 0.00 0.00 0.00 0.07 0.11 0.07 0.09 0.17 0.17 0.20 0.32 0.18 0.12 0.23 0.29
1.03 0.94 0.88 0.86 0.92 1.06 0.90 1.29 1.12 0.86 0.66 0.49 0.37 0.31 0.17 0.19 0.16 0.14 0.10 0.11 0.13 0.16 0.13 0.10 0.13 0.11 0.08 0.04 0.02 0.01 0.01 0.01 0.02 0.13 0.28 0.39 0.42 0.37 0.28 0.41 0.37 0.46 0.66 0.69
1.33 1.36 1.31 1.07 0.94 1.24 1.09 1.33 1.19 1.13 1.02 0.86 0.81 0.77 0.72 0.70 0.82 0.68 0.55 0.52 0.47 0.59 0.67 0.65 0.53 0.48 0.56 0.54 0.38 0.26 0.20 0.21 0.23 0.29 0.28 0.30 0.33 0.48 0.53 0.55 0.56 0.81 0.96 0.91

GFSCGP_prec_precacc_084.txt.gz
Total_Precipitation_Accumulation
0.00 0.00 0.00 0.00 0.00 0.00 0.00 0.00 0.00 0.01 0.03 0.11 0.21 0.29 1.09 0.58 0.44 0.88 0.32 0.16 0.07 0.01 0.01 0.00 0.00 0.00 0.00 0.00 0.00 0.00 0.00 0.01 0.02 0.07 0.03 0.04 0.05 0.01 0.07 0.17 0.27 0.36 0.31 0.30
0.00 0.00 0.00 0.00 0.00 0.00 0.00 0.00 0.00 0.02 0.03 0.04 0.19 0.18 0.31 0.24 0.28 0.60 0.64 0.16 0.08 0.02 0.01 0.00 0.00 0.00 0.01 0.00 0.00 0.00 0.01 0.01 0.00 0.01 0.02 0.02 0.03 0.05 0.12 0.25 0.33 0.16 0.21 0.28
0.00 0.00 0.00 0.00 0.00 0.00 0.00 0.00 0.00 0.00 0.03 0.04 0.12 0.24 0.33 0.47 0.32 0.44 0.84 0.32 0.22 0.03 0.04 0.00 0.00 0.00 0.02 0.01 0.00 0.00 0.00 0.00 0.01 0.02 0.03 0.11 0.18 0.22 0.39 0.32 0.17 0.08 0.16 0.14
0.00 0.00 0.00 0.00 0.00 0.00 0.00 0.00 0.00 0.00 0.00 0.00 0.05 0.13 0.24 0.29 0.44 1.25 1.06 0.38 0.16 0.05 0.05 0.04 0.00 0.01 0.01 0.01 0.00 0.00 0.00 0.00 0.01 0.04 0.02 0.07 0.07 0.08 0.06 0.06 0.09 0.08 0.07 0.08
0.00 0.00 0.00 0.00 0.00 0.00 0.00 0.00 0.00 0.00 0.00 0.00 0.00 0.03 0.04 0.28 0.58 1.15 1.17 0.34 0.23 0.18 0.07 0.05 0.02 0.01 0.01 0.00 0.00 0.00 0.00 0.00 0.01 0.02 0.05 0.06 0.02 0.18 0.16 0.10 0.44 0.20 0.14 0.09
0.00 0.00 0.00 0.00 0.00 0.00 0.00 0.00 0.00 0.00 0.00 0.00 0.00 0.01 0.02 0.29 0.47 0.70 0.68 0.41 0.30 0.09 0.09 0.08 0.03 0.02 0.01 0.00 0.00 0.00 0.00 0.00 0.01 0.01 0.02 0.07 0.08 0.21 0.28 0.22 0.37 0.17 0.06 0.12
0.00 0.00 0.00 0.00 0.00 0.00 0.00 0.00 0.00 0.00 0.00 0.00 0.00 0.00 0.02 0.08 0.49 0.59 0.53 0.36 0.19 0.13 0.15 0.06 0.02 0.02 0.01 0.00 0.00 0.00 0.00 0.00 0.00 0.00 0.01 0.05 0.07 0.12 0.28 0.38 0.05 0.07 0.14 0.07
0.00 0.00 0.00 0.00 0.00 0.00 0.00 0.00 0.00 0.00 0.00 0.00 0.00 0.00 0.00 0.02 0.11 0.19 0.13 0.09 0.21 0.19 0.24 0.30 0.13 0.04 0.02 0.06 0.00 0.00 0.00 0.00 0.00 0.00 0.01 0.04 0.07 0.06 0.05 0.15 0.06 0.11 0.18 0.08
0.00 0.00 0.00 0.00 0.00 0.00 0.00 0.00 0.00 0.00 0.00 0.00 0.00 0.00 0.02 0.07 0.13 0.03 0.09 0.14 0.20 0.50 0.55 0.41 0.19 0.12 0.16 0.13 0.02 0.00 0.00 0.00 0.00 0.00 0.01 0.01 0.01 0.02 0.02 0.04 0.07 0.03 0.10 0.12
0.00 0.00 0.00 0.00 0.00 0.00 0.00 0.00 0.00 0.00 0.00 0.00 0.07 0.07 0.12 0.10 0.08 0.06 0.02 0.04 0.08 0.54 1.42 1.57 1.04 0.43 0.26 0.27 0.15 0.17 0.07 0.01 0.02 0.01 0.02 0.03 0.02 0.03 0.03 0.06 0.03 0.03 0.05 0.21
0.00 0.01 0.00 0.00 0.00 0.00 0.00 0.00 0.00 0.00 0.00 0.00 0.05 0.10 0.12 0.15 0.10 0.05 0.04 0.04 0.05 0.28 1.16 2.28 2.16 1.74 0.76 0.56 0.45 0.69 0.55 0.42 0.26 0.16 0.13 0.11 0.08 0.03 0.02 0.03 0.03 0.06 0.07 0.13
0.03 0.05 0.01 0.00 0.00 0.00 0.00 0.00 0.00 0.00 0.00 0.00 0.02 0.07 0.08 0.23 0.16 0.07 0.05 0.06 0.06 0.23 0.53 1.16 1.69 1.50 1.30 1.06 0.71 0.90 1.40 0.60 0.31 0.19 0.21 0.19 0.20 0.17 0.12 0.02 0.02 0.04 0.02 0.03
0.11 0.09 0.03 0.00 0.00 0.00 0.00 0.00 0.00 0.00 0.00 0.00 0.01 0.01 0.01 0.16 0.17 0.04 0.02 0.03 0.03 0.11 0.11 0.31 0.71 0.92 1.39 1.36 1.06 1.03 1.40 1.95 0.69 0.32 0.23 0.27 0.31 0.33 0.25 0.13 0.04 0.03 0.02 0.03
0.26 0.11 0.02 0.00 0.00 0.00 0.00 0.00 0.00 0.00 0.00 0.00 0.01 0.01 0.00 0.00 0.00 0.00 0.00 0.00 0.07 0.19 0.21 0.35 0.39 0.56 0.97 1.04 0.86 0.92 1.27 1.38 1.49 0.63 0.50 0.44 0.41 0.38 0.31 0.22 0.20 0.15 0.11 0.02
0.18 0.08 0.01 0.00 0.00 0.00 0.00 0.00 0.00 0.00 0.00 0.00 0.03 0.00 0.00 0.00 0.00 0.00 0.00 0.00 0.01 0.07 0.26 0.31 0.25 0.23 0.64 0.71 0.51 0.65 0.59 0.59 0.75 0.67 0.75 1.01 1.34 0.83 0.73 0.44 0.44 0.29 0.21 0.13
0.09 0.07 0.04 0.01 0.00 0.00 0.00 0.00 0.00 0.00 0.00 0.00 0.00 0.01 0.00 0.00 0.00 0.00 0.00 0.00 0.00 0.01 0.06 0.07 0.10 0.13 0.19 0.33 0.32 0.39 0.57 0.54 0.47 0.44 0.50 0.54 1.02 0.98 0.75 0.79 0.53 0.38 0.26 0.22
0.15 0.17 0.17 0.03 0.00 0.01 0.01 0.00 0.00 0.01 0.01 0.00 0.02 0.01 0.00 0.00 0.00 0.00 0.00 0.00 0.00 0.00 0.01 0.03 0.08 0.13 0.21 0.12 0.11 0.18 0.37 0.35 0.35 0.30 0.37 0.40 0.41 0.28 0.21 0.24 0.32 0.33 0.28 0.30
0.13 0.31 0.37 0.10 0.10 0.18 0.02 0.00 0.00 0.00 0.01 0.00 0.00 0.00 0.00 0.00 0.00 0.00 0.00 0.00 0.01 0.01 0.02 0.01 0.04 0.15 0.27 0.43 0.53 0.32 0.23 0.21 0.15 0.14 0.06 0.08 0.25 0.36 0.28 0.20 0.25 0.31 0.28 0.28
0.08 0.31 0.37 0.29 0.28 0.17 0.08 0.02 0.00 0.00 0.01 0.00 0.00 0.00 0.00 0.00 0.00 0.00 0.00 0.01 0.01 0.01 0.01 0.02 0.01 0.07 0.16 0.42 0.57 1.15 0.69 0.32 0.16 0.13 0.14 0.08 0.04 0.04 0.13 0.20 0.24 0.30 0.29 0.32
0.20 0.30 0.55 0.44 0.52 0.47 0.19 0.09 0.03 0.04 0.06 0.02 0.00 0.00 0.00 0.01 0.02 0.00 0.01 0.01 0.06 0.04 0.04 0.02 0.02 0.03 0.01 0.14 0.26 0.47 1.06 0.53 0.27 0.10 0.09 0.10 0.08 0.04 0.06 0.19 0.26 0.41 0.67 0.55
0.41 0.57 0.58 0.43 0.62 0.58 0.25 0.16 0.25 0.30 0.12 0.02 0.02 0.00 0.00 0.01 0.00 0.02 0.02 0.01 0.02 0.07 0.02 0.01 0.01 0.01 0.00 0.03 0.17 0.25 0.20 0.12 0.22 0.12 0.13 0.12 0.05 0.06 0.16 0.27 0.32 0.48 0.52 0.36
0.72 0.95 0.97 0.65 0.81 0.94 0.30 0.47 0.56 0.35 0.16 0.05 0.02 0.00 0.00 0.02 0.03 0.03 0.01 0.01 0.01 0.01 0.00 0.00 0.01 0.01 0.00 0.04 0.08 0.16 0.23 0.11 0.04 0.11 0.12 0.05 0.04 0.08 0.19 0.23 0.25 0.30 0.32 0.29
0.92 0.98 1.01 0.76 1.02 0.95 0.64 0.77 0.61 0.40 0.47 0.23 0.06 0.02 0.02 0.03 0.05 0.06 0.03 0.02 0.01 0.00 0.00 0.00 0.01 0.00 0.02 0.04 0.03 0.01 0.05 0.19 0.18 0.07 0.10 0.10 0.07 0.05 0.12 0.19 0.17 0.10 0.15 0.22
0.81 0.94 0.89 0.74 0.84 0.96 0.71 0.85 0.82 0.71 0.70 0.43 0.15 0.04 0.04 0.05 0.05 0.06 0.05 0.05 0.03 0.02 0.01 0.02 0.02 0.01 0.01 0.01 0.01 0.00 0.00 0.00 0.07 0.11 0.07 0.09 0.17 0.17 0.20 0.32 0.18 0.12 0.23 0.29
1.03 0.94 0.88 0.86 0.92 1.06 0.90 1.29 1.12 0.86 0.66 0.49 0.37 0.31 0.17 0.19 0.16 0.14 0.10 0.11 0.13 0.16 0.13 0.10 0.13 0.11 0.08 0.04 0.02 0.01 0.01 0.01 0.02 0.13 0.28 0.39 0.42 0.37 0.28 0.41 0.37 0.46 0.66 0.69
1.33 1.36 1.31 1.07 0.94 1.24 1.09 1.33 1.19 1.13 1.02 0.86 0.81 0.77 0.72 0.70 0.82 0.68 0.55 0.52 0.47 0.59 0.67 0.65 0.53 0.48 0.56 0.54 0.38 0.26 0.20 0.21 0.23 0.29 0.28 0.30 0.33 0.48 0.53 0.55 0.56 0.81 0.96 0.91

GFSCGP_prec_precacc_087.txt.gz
Total_Precipitation_Accumulation
0.00 0.00 0.00 0.00 0.00 0.00 0.00 0.00 0.00 0.01 0.06 0.35 0.30 0.32 1.09 0.58 0.44 0.88 0.33 0.16 0.07 0.01 0.01 0.00 0.00 0.00 0.00 0.00 0.00 0.00 0.00 0.01 0.02 0.07 0.03 0.05 0.10 0.03 0.09 0.17 0.27 0.36 0.34 0.36
0.00 0.00 0.00 0.00 0.00 0.00 0.00 0.00 0.00 0.03 0.13 0.16 0.27 0.24 0.31 0.24 0.32 0.62 0.65 0.16 0.08 0.02 0.01 0.00 0.00 0.00 0.01 0.00 0.00 0.00 0.01 0.01 0.00 0.01 0.02 0.02 0.06 0.06 0.12 0.26 0.33 0.16 0.21 0.33
0.00 0.00 0.00 0.00 0.00 0.00 0.00 0.00 0.00 0.02 0.08 0.11 0.19 0.29 0.33 0.48 0.39 0.54 0.86 0.32 0.23 0.03 0.04 0.00 0.00 0.00 0.02 0.01 0.00 0.00 0.00 0.00 0.01 0.02 0.03 0.11 0.18 0.22 0.39 0.32 0.17 0.08 0.16 0.15
0.00 0.00 0.00 0.00 0.00 0.00 0.00 0.00 0.00 0.00 0.01 0.01 0.05 0.13 0.24 0.29 0.47 1.31 1.14 0.39 0.17 0.07 0.05 0.04 0.00 0.01 0.01 0.01 0.00 0.00 0.00 0.00 0.01 0.04 0.02 0.09 0.07 0.08 0.06 0.06 0.09 0.08 0.08 0.09
0.00 0.00 0.00 0.00 0.00 0.00 0.00 0.00 0.00 0.00 0.00 0.00 0.00 0.03 0.04 0.28 0.58 1.16 1.21 0.35 0.23 0.19 0.08 0.06 0.02 0.03 0.04 0.00 0.00 0.00 0.00 0.00 0.01 0.02 0.05 0.06 0.03 0.18 0.16 0.10 0.45 0.20 0.14 0.10
0.00 0.00 0.00 0.00 0.00 0.00 0.00 0.00 0.00 0.00 0.00 0.00 0.00 0.01 0.02 0.29 0.47 0.70 0.68 0.42 0.31 0.10 0.11 0.09 0.05 0.05 0.04 0.01 0.00 0.00 0.00 0.00 0.01 0.01 0.02 0.07 0.08 0.21 0.29 0.22 0.39 0.17 0.06 0.12
0.00 0.00 0.00 0.00 0.00 0.00 0.00 0.00 0.00 0.00 0.00 0.00 0.00 0.00 0.02 0.08 0.49 0.59 0.53 0.41 0.27 0.18 0.19 0.09 0.05 0.05 0.06 0.01 0.00 0.00 0.00 0.00 0.00 0.00 0.01 0.05 0.07 0.12 0.29 0.38 0.06 0.09 0.15 0.07
0.00 0.00 0.00 0.00 0.00 0.00 0.00 0.00 0.00 0.00 0.00 0.00 0.00 0.00 0.00 0.03 0.14 0.22 0.20 0.11 0.24 0.21 0.25 0.31 0.19 0.10 0.11 0.10 0.00 0.00 0.00 0.00 0.00 0.00 0.01 0.04 0.07 0.06 0.05 0.15 0.06 0.12 0.18 0.08
0.00 0.00 0.00 0.00 0.00 0.00 0.00 0.00 0.00 0.00 0.00 0.00 0.00 0.00 0.02 0.10 0.17 0.07 0.12 0.15 0.21 0.52 0.55 0.41 0.21 0.16 0.19 0.18 0.02 0.00 0.00 0.00 0.00 0.00 0.01 0.01 0.01 0.02 0.02 0.04 0.07 0.05 0.10 0.13
0.00 0.00 0.00 0.00 0.00 0.00 0.00 0.00 0.00 0.00 0.00 0.00 0.07 0.07 0.12 0.13 0.12 0.12 0.11 0.12 0.10 0.56 1.43 1.57 1.05 0.44 0.31 0.40 0.21 0.19 0.08 0.02 0.03 0.01 0.02 0.03 0.02 0.03 0.03 0.06 0.03 0.08 0.09 0.25
0.00 0.01 0.00 0.00 0.00 0.00 0.00 0.00 0.00 0.00 0.00 0.00 0.05 0.11 0.12 0.16 0.13 0.07 0.05 0.09 0.10 0.31 1.23 2.42 2.29 1.88 0.80 0.72 0.58 0.77 0.65 0.54 0.40 0.18 0.14 0.11 0.08 0.03 0.05 0.03 0.03 0.07 0.13 0.16
0.03 0.05 0.01 0.00 0.00 0.00 0.00 0.00 0.00 0.00 0.00 0.00 0.02 0.07 0.08 0.24 0.16 0.08 0.06 0.08 0.09 0.29 0.62 1.26 1.80 1.72 1.48 1.15 0.83 1.04 1.64 0.81 0.44 0.24 0.22 0.19 0.20 0.17 0.15 0.06 0.03 0.07 0.03 0.05
0.11 0.09 0.03 0.00 0.00 0.00 0.00 0.00 0.00 0.00 0.00 0.00 0.01 0.01 0.01 0.16 0.18 0.05 0.03 0.04 0.05 0.16 0.15 0.36 0.77 1.00 1.46 1.45 1.14 1.20 1.69 2.36 0.96 0.50 0.28 0.27 0.31 0.33 0.26 0.16 0.09 0.06 0.05 0.09
0.26 0.11 0.02 0.00 0.00 0.00 0.00 0.00 0.00 0.00 0.00 0.00 0.01 0.01 0.00 0.00 0.00 0.00 0.00 0.00 0.07 0.20 0.23 0.36 0.40 0.58 1.01 1.09 0.98 1.14 1.56 1.65 1.85 1.15 0.78 0.47 0.43 0.41 0.35 0.26 0.23 0.16 0.12 0.04
0.18 0.08 0.01 0.00 0.00 0.00 0.00 0.00 0.00 0.00 0.00 0.00 0.03 0.00 0.00 0.00 0.00 0.00 0.00 0.00 0.01 0.07 0.27 0.32 0.25 0.24 0.65 0.72 0.53 0.72 0.69 0.62 0.79 0.80 1.00 1.19 1.38 0.87 0.82 0.57 0.58 0.36 0.23 0.13
0.09 0.07 0.04 0.01 0.00 0.00 0.00 0.00 0.00 0.00 0.00 0.00 0.00 0.01 0.00 0.00 0.00 0.00 0.00 0.00 0.00 0.01 0.06 0.07 0.10 0.13 0.19 0.33 0.33 0.42 0.60 0.55 0.47 0.44 0.54 0.65 1.14 1.02 0.77 0.83 0.61 0.46 0.36 0.33
0.15 0.17 0.17 0.03 0.00 0.01 0.01 0.00 0.00 0.01 0.01 0.00 0.02 0.01 0.00 0.00 0.00 0.00 0.00 0.00 0.00 0.00 0.01 0.03 0.08 0.13 0.22 0.12 0.12 0.18 0.37 0.36 0.35 0.30 0.37 0.41 0.46 0.35 0.25 0.26 0.32 0.34 0.29 0.33
0.13 0.31 0.37 0.10 0.10 0.18 0.02 0.00 0.00 0.00 0.01 0.00 0.00 0.00 0.00 0.00 0.00 0.00 0.00 0.00 0.01 0.01 0.02 0.01 0.04 0.15 0.27 0.43 0.54 0.32 0.23 0.21 0.15 0.14 0.06 0.08 0.25 0.36 0.29 0.22 0.27 0.32 0.28 0.28
0.08 0.31 0.37 0.29 0.28 0.17 0.08 0.02 0.00 0.00 0.01 0.00 0.00 0.00 0.00 0.00 0.00 0.00 0.00 0.01 0.01 0.01 0.01 0.02 0.01 0.07 0.16 0.42 0.57 1.15 0.69 0.32 0.16 0.13 0.14 0.10 0.05 0.04 0.13 0.20 0.26 0.33 0.30 0.32
0.20 0.30 0.55 0.44 0.52 0.47 0.19 0.09 0.03 0.04 0.06 0.02 0.00 0.00 0.00 0.01 0.02 0.00 0.01 0.01 0.06 0.04 0.04 0.02 0.02 0.03 0.01 0.14 0.26 0.47 1.06 0.53 0.27 0.10 0.09 0.10 0.08 0.04 0.06 0.19 0.26 0.41 0.67 0.55
0.41 0.57 0.58 0.43 0.62 0.58 0.25 0.16 0.25 0.30 0.12 0.02 0.02 0.00 0.00 0.01 0.00 0.02 0.02 0.01 0.02 0.07 0.02 0.01 0.01 0.01 0.00 0.03 0.17 0.25 0.20 0.12 0.22 0.12 0.13 0.12 0.05 0.06 0.16 0.27 0.32 0.48 0.52 0.36
0.72 0.95 0.97 0.65 0.81 0.94 0.30 0.47 0.56 0.35 0.16 0.05 0.02 0.00 0.00 0.02 0.03 0.03 0.01 0.01 0.01 0.01 0.00 0.00 0.01 0.01 0.00 0.04 0.08 0.16 0.23 0.11 0.04 0.11 0.12 0.05 0.04 0.08 0.19 0.23 0.25 0.30 0.32 0.29
0.92 0.98 1.01 0.76 1.02 0.95 0.64 0.77 0.61 0.40 0.47 0.23 0.07 0.02 0.03 0.03 0.05 0.06 0.03 0.02 0.01 0.00 0.00 0.00 0.01 0.00 0.02 0.04 0.03 0.01 0.05 0.19 0.18 0.07 0.10 0.10 0.07 0.05 0.12 0.19 0.17 0.10 0.15 0.22
0.81 0.94 0.89 0.74 0.84 0.96 0.71 0.85 0.82 0.71 0.70 0.43 0.16 0.05 0.05 0.06 0.05 0.06 0.05 0.05 0.03 0.02 0.01 0.02 0.02 0.01 0.01 0.01 0.01 0.00 0.00 0.00 0.07 0.11 0.07 0.09 0.17 0.17 0.20 0.32 0.18 0.12 0.23 0.29
1.03 0.94 0.88 0.86 0.92 1.06 0.90 1.29 1.12 0.86 0.66 0.49 0.37 0.31 0.17 0.19 0.16 0.14 0.10 0.11 0.13 0.16 0.13 0.10 0.13 0.11 0.08 0.04 0.02 0.01 0.01 0.01 0.02 0.13 0.28 0.39 0.42 0.37 0.28 0.41 0.37 0.46 0.66 0.69
1.33 1.36 1.31 1.07 0.94 1.24 1.09 1.33 1.19 1.13 1.02 0.86 0.81 0.77 0.72 0.70 0.82 0.68 0.55 0.52 0.47 0.59 0.67 0.65 0.53 0.48 0.56 0.54 0.38 0.26 0.20 0.21 0.23 0.29 0.28 0.30 0.33 0.48 0.53 0.55 0.56 0.81 0.96 0.91

GFSCGP_prec_precacc_090.txt.gz
Total_Precipitation_Accumulation
0.00 0.00 0.00 0.00 0.00 0.00 0.00 0.02 0.03 0.02 0.07 0.53 0.48 0.49 1.14 0.58 0.44 0.88 0.33 0.16 0.07 0.01 0.01 0.00 0.00 0.00 0.00 0.00 0.00 0.00 0.00 0.01 0.02 0.07 0.03 0.05 0.10 0.05 0.10 0.17 0.28 0.38 0.35 0.36
0.00 0.00 0.00 0.00 0.00 0.00 0.00 0.00 0.01 0.07 0.25 0.36 0.62 0.42 0.39 0.25 0.32 0.62 0.65 0.16 0.08 0.02 0.01 0.00 0.00 0.00 0.01 0.00 0.00 0.00 0.01 0.01 0.00 0.01 0.02 0.02 0.06 0.06 0.12 0.26 0.33 0.16 0.21 0.33
0.00 0.00 0.00 0.00 0.00 0.00 0.00 0.00 0.00 0.03 0.16 0.27 0.42 0.42 0.36 0.49 0.40 0.60 0.86 0.33 0.23 0.04 0.04 0.00 0.00 0.00 0.02 0.01 0.00 0.00 0.00 0.00 0.01 0.02 0.03 0.11 0.18 0.22 0.39 0.32 0.17 0.08 0.16 0.15
0.00 0.00 0.00 0.00 0.00 0.00 0.00 0.00 0.00 0.00 0.01 0.05 0.14 0.19 0.24 0.29 0.49 1.31 1.14 0.39 0.17 0.07 0.05 0.04 0.00 0.01 0.01 0.01 0.00 0.00 0.00 0.00 0.01 0.04 0.02 0.09 0.07 0.09 0.07 0.06 0.09 0.08 0.09 0.09
0.00 0.00 0.00 0.00 0.00 0.00 0.00 0.00 0.00 0.00 0.00 0.00 0.02 0.03 0.04 0.28 0.58 1.16 1.21 0.35 0.23 0.19 0.08 0.06 0.02 0.03 0.04 0.00 0.00 0.00 0.00 0.00 0.01 0.02 0.05 0.06 0.03 0.18 0.16 0.10 0.45 0.20 0.14 0.10
0.00 0.00 0.00 0.00 0.00 0.00 0.00 0.00 0.00 0.00 0.00 0.00 0.00 0.01 0.02 0.29 0.47 0.70 0.68 0.42 0.31 0.10 0.11 0.10 0.05 0.05 0.04 0.01 0.00 0.00 0.00 0.00 0.01 0.01 0.02 0.07 0.08 0.22 0.29 0.22 0.39 0.17 0.06 0.12
0.00 0.00 0.00 0.00 0.00 0.00 0.00 0.00 0.00 0.00 0.00 0.00 0.00 0.00 0.02 0.08 0.49 0.59 0.53 0.42 0.30 0.18 0.20 0.09 0.06 0.07 0.08 0.02 0.00 0.00 0.00 0.00 0.00 0.00 0.01 0.05 0.07 0.12 0.29 0.39 0.08 0.10 0.15 0.07
0.00 0.00 0.00 0.00 0.00 0.00 0.00 0.00 0.00 0.00 0.00 0.00 0.00 0.00 0.00 0.03 0.14 0.22 0.20 0.16 0.28 0.25 0.27 0.33 0.22 0.15 0.19 0.14 0.00 0.00 0.00 0.00 0.00 0.00 0.01 0.04 0.07 0.06 0.06 0.15 0.07 0.14 0.18 0.08
0.00 0.00 0.00 0.00 0.00 0.00 0.00 0.00 0.00 0.00 0.00 0.00 0.00 0.00 0.02 0.10 0.17 0.07 0.12 0.16 0.24 0.55 0.57 0.42 0.22 0.22 0.29 0.24 0.04 0.00 0.00 0.00 0.01 0.00 0.01 0.01 0.01 0.02 0.02 0.04 0.07 0.06 0.10 0.13
0.00 0.00 0.00 0.00 0.00 0.00 0.00 0.00 0.00 0.00 0.00 0.00 0.07 0.07 0.12 0.13 0.12 0.14 0.13 0.15 0.15 0.60 1.45 1.59 1.13 0.50 0.44 0.54 0.25 0.19 0.08 0.04 0.07 0.03 0.02 0.03 0.02 0.03 0.03 0.06 0.05 0.10 0.09 0.27
0.00 0.01 0.00 0.00 0.00 0.00 0.00 0.00 0.00 0.00 0.00 0.00 0.05 0.11 0.12 0.16 0.13 0.07 0.07 0.17 0.18 0.38 1.25 2.45 2.40 1.91 0.96 0.92 0.59 0.79 0.71 0.65 0.60 0.36 0.16 0.11 0.08 0.03 0.05 0.03 0.03 0.07 0.16 0.20
0.03 0.05 0.01 0.00 0.00 0.00 0.00 0.00 0.00 0.00 0.00 0.00 0.02 0.07 0.08 0.24 0.16 0.08 0.07 0.12 0.15 0.34 0.64 1.27 1.83 1.74 1.56 1.36 0.91 1.08 1.73 0.97 0.74 0.50 0.32 0.21 0.21 0.17 0.19 0.08 0.06 0.08 0.08 0.16
0.11 0.09 0.03 0.00 0.00 0.00 0.00 0.00 0.00 0.00 0.00 0.00 0.01 0.01 0.01 0.16 0.18 0.05 0.03 0.04 0.05 0.16 0.16 0.36 0.78 1.05 1.52 1.57 1.20 1.25 1.73 2.50 1.19 0.87 0.57 0.37 0.32 0.33 0.27 0.17 0.12 0.07 0.06 0.12
0.26 0.11 0.02 0.00 0.00 0.00 0.00 0.00 0.00 0.00 0.00 0.00 0.01 0.01 0.00 0.00 0.00 0.00 0.00 0.00 0.07 0.20 0.23 0.36 0.41 0.61 1.04 1.16 1.04 1.29 1.70 1.80 2.01 1.35 1.11 0.60 0.45 0.41 0.35 0.26 0.23 0.16 0.12 0.04
0.18 0.08 0.01 0.00 0.00 0.00 0.00 0.00 0.00 0.00 0.00 0.00 0.03 0.00 0.00 0.00 0.00 0.00 0.00 0.00 0.01 0.07 0.27 0.32 0.25 0.26 0.68 0.75 0.58 0.77 0.79 0.77 0.89 0.85 1.19 1.54 1.50 0.88 0.82 0.57 0.59 0.39 0.27 0.17
0.09 0.07 0.04 0.01 0.00 0.00 0.00 0.00 0.00 0.00 0.00 0.00 0.00 0.01 0.00 0.00 0.00 0.00 0.00 0.00 0.00 0.01 0.06 0.07 0.10 0.13 0.23 0.35 0.37 0.49 0.67 0.60 0.48 0.45 0.54 0.68 1.26 1.08 0.78 0.83 0.61 0.46 0.37 0.35
0.15 0.17 0.17 0.03 0.00 0.01 0.01 0.00 0.00 0.01 0.01 0.00 0.02 0.01 0.00 0.00 0.00 0.00 0.00 0.00 0.00 0.00 0.01 0.03 0.08 0.14 0.22 0.13 0.13 0.21 0.38 0.37 0.35 0.30 0.37 0.41 0.47 0.36 0.27 0.27 0.33 0.34 0.29 0.35
0.13 0.31 0.37 0.10 0.10 0.18 0.02 0.00 0.00 0.00 0.01 0.00 0.00 0.00 0.00 0.00 0.00 0.00 0.00 0.00 0.01 0.01 0.02 0.01 0.04 0.15 0.27 0.43 0.55 0.33 0.24 0.22 0.16 0.14 0.06 0.08 0.25 0.36 0.30 0.23 0.28 0.33 0.28 0.29
0.08 0.31 0.37 0.29 0.28 0.17 0.08 0.02 0.00 0.00 0.01 0.00 0.00 0.00 0.00 0.00 0.00 0.00 0.00 0.01 0.01 0.01 0.01 0.02 0.01 0.07 0.16 0.42 0.57 1.15 0.70 0.33 0.17 0.13 0.14 0.10 0.05 0.04 0.13 0.20 0.26 0.33 0.30 0.32
0.20 0.30 0.55 0.44 0.52 0.47 0.19 0.09 0.03 0.04 0.06 0.02 0.00 0.00 0.00 0.01 0.02 0.00 0.01 0.01 0.06 0.04 0.04 0.02 0.02 0.03 0.01 0.14 0.26 0.47 1.06 0.53 0.27 0.10 0.09 0.10 0.08 0.04 0.06 0.19 0.26 0.41 0.67 0.55
0.41 0.57 0.58 0.43 0.62 0.58 0.25 0.16 0.25 0.30 0.12 0.02 0.02 0.00 0.00 0.01 0.01 0.02 0.02 0.01 0.02 0.07 0.02 0.01 0.01 0.01 0.00 0.03 0.17 0.25 0.20 0.12 0.22 0.12 0.13 0.12 0.05 0.06 0.16 0.27 0.32 0.48 0.52 0.36
0.72 0.95 0.97 0.65 0.81 0.94 0.30 0.47 0.56 0.35 0.16 0.05 0.02 0.00 0.00 0.02 0.04 0.04 0.01 0.01 0.01 0.01 0.00 0.00 0.01 0.01 0.00 0.04 0.08 0.16 0.23 0.11 0.04 0.11 0.12 0.05 0.04 0.08 0.19 0.23 0.25 0.30 0.32 0.29
0.92 0.98 1.01 0.76 1.02 0.95 0.64 0.77 0.61 0.40 0.47 0.23 0.07 0.03 0.03 0.03 0.06 0.07 0.03 0.02 0.01 0.00 0.00 0.00 0.01 0.00 0.02 0.04 0.03 0.01 0.05 0.19 0.18 0.07 0.10 0.10 0.07 0.05 0.12 0.19 0.17 0.10 0.15 0.22
0.81 0.94 0.89 0.74 0.84 0.96 0.71 0.85 0.82 0.71 0.70 0.43 0.16 0.05 0.07 0.08 0.08 0.08 0.06 0.05 0.03 0.02 0.01 0.02 0.02 0.01 0.01 0.01 0.01 0.00 0.00 0.00 0.07 0.11 0.07 0.09 0.17 0.17 0.20 0.32 0.18 0.12 0.23 0.29
1.03 0.94 0.88 0.86 0.92 1.06 0.90 1.29 1.12 0.86 0.66 0.49 0.37 0.31 0.18 0.20 0.18 0.15 0.10 0.11 0.13 0.16 0.13 0.10 0.13 0.11 0.08 0.04 0.02 0.01 0.01 0.01 0.02 0.13 0.28 0.39 0.42 0.37 0.28 0.41 0.37 0.46 0.66 0.69
1.33 1.36 1.31 1.07 0.94 1.24 1.09 1.33 1.19 1.13 1.02 0.86 0.81 0.77 0.72 0.70 0.82 0.69 0.55 0.52 0.47 0.59 0.67 0.65 0.53 0.48 0.56 0.54 0.38 0.26 0.20 0.21 0.23 0.29 0.28 0.30 0.33 0.48 0.53 0.55 0.56 0.81 0.96 0.91

GFSCGP_prec_precacc_093.txt.gz
Total_Precipitation_Accumulation
0.00 0.00 0.00 0.01 0.00 0.00 0.01 0.03 0.09 0.07 0.08 0.63 0.65 0.60 1.22 0.60 0.46 0.88 0.33 0.16 0.07 0.01 0.01 0.00 0.00 0.00 0.00 0.00 0.00 0.00 0.00 0.01 0.02 0.07 0.03 0.05 0.10 0.05 0.10 0.17 0.28 0.38 0.35 0.36
0.00 0.00 0.00 0.00 0.00 0.00 0.00 0.00 0.02 0.12 0.32 0.48 0.89 0.62 0.47 0.31 0.35 0.63 0.65 0.16 0.08 0.02 0.01 0.00 0.00 0.00 0.01 0.00 0.00 0.00 0.01 0.01 0.00 0.01 0.02 0.02 0.06 0.06 0.12 0.26 0.33 0.16 0.21 0.33
0.00 0.00 0.00 0.00 0.00 0.00 0.00 0.00 0.00 0.06 0.31 0.48 0.61 0.70 0.41 0.53 0.44 0.60 0.86 0.33 0.23 0.04 0.04 0.00 0.00 0.00 0.02 0.01 0.00 0.00 0.00 0.00 0.01 0.02 0.03 0.11 0.18 0.22 0.39 0.32 0.17 0.08 0.16 0.15
0.00 0.00 0.00 0.00 0.00 0.00 0.00 0.00 0.00 0.00 0.03 0.16 0.21 0.34 0.27 0.29 0.49 1.31 1.14 0.39 0.17 0.07 0.05 0.04 0.00 0.01 0.01 0.01 0.00 0.00 0.00 0.00 0.01 0.04 0.02 0.12 0.10 0.13 0.09 0.06 0.09 0.08 0.09 0.09
0.00 0.00 0.00 0.00 0.00 0.00 0.00 0.00 0.00 0.00 0.00 0.04 0.07 0.09 0.06 0.28 0.58 1.16 1.21 0.35 0.23 0.19 0.08 0.06 0.02 0.03 0.04 0.00 0.00 0.00 0.00 0.00 0.01 0.02 0.05 0.07 0.06 0.20 0.17 0.10 0.45 0.20 0.14 0.10
0.00 0.00 0.00 0.00 0.00 0.00 0.00 0.00 0.00 0.00 0.00 0.00 0.00 0.01 0.02 0.29 0.47 0.70 0.68 0.42 0.31 0.10 0.11 0.10 0.05 0.05 0.04 0.01 0.00 0.00 0.00 0.00 0.01 0.01 0.02 0.07 0.10 0.27 0.31 0.25 0.40 0.17 0.06 0.12
0.00 0.00 0.00 0.00 0.00 0.00 0.00 0.00 0.00 0.00 0.00 0.00 0.00 0.00 0.02 0.08 0.49 0.59 0.53 0.42 0.31 0.19 0.20 0.09 0.06 0.07 0.09 0.02 0.00 0.00 0.00 0.00 0.00 0.00 0.01 0.05 0.07 0.13 0.39 0.47 0.08 0.10 0.17 0.09
0.00 0.00 0.00 0.00 0.00 0.00 0.00 0.00 0.00 0.00 0.00 0.00 0.00 0.00 0.00 0.03 0.14 0.22 0.20 0.16 0.30 0.29 0.28 0.33 0.22 0.16 0.22 0.16 0.01 0.00 0.00 0.00 0.00 0.00 0.01 0.04 0.07 0.06 0.09 0.21 0.11 0.14 0.22 0.13
0.00 0.00 0.00 0.00 0.00 0.00 0.00 0.00 0.00 0.00 0.00 0.00 0.00 0.00 0.02 0.10 0.17 0.07 0.12 0.16 0.24 0.58 0.63 0.46 0.23 0.23 0.30 0.28 0.05 0.00 0.00 0.00 0.01 0.00 0.01 0.03 0.02 0.02 0.03 0.05 0.08 0.06 0.10 0.14
0.00 0.00 0.00 0.00 0.00 0.00 0.00 0.00 0.00 0.00 0.00 0.00 0.07 0.07 0.12 0.13 0.12 0.14 0.13 0.15 0.15 0.60 1.46 1.63 1.18 0.53 0.45 0.56 0.33 0.22 0.09 0.06 0.12 0.05 0.07 0.15 0.10 0.08 0.04 0.08 0.05 0.11 0.09 0.28
0.00 0.01 0.00 0.00 0.00 0.00 0.00 0.00 0.00 0.00 0.00 0.00 0.05 0.11 0.12 0.16 0.13 0.07 0.07 0.17 0.18 0.38 1.25 2.47 2.44 1.95 0.98 0.95 0.62 0.81 0.72 0.65 0.63 0.51 0.23 0.16 0.15 0.09 0.08 0.05 0.03 0.09 0.19 0.21
0.03 0.05 0.01 0.00 0.00 0.00 0.00 0.00 0.00 0.00 0.00 0.00 0.02 0.07 0.08 0.24 0.16 0.08 0.07 0.13 0.15 0.34 0.65 1.30 1.86 1.78 1.58 1.39 0.92 1.09 1.74 1.05 0.81 0.64 0.61 0.34 0.27 0.23 0.23 0.10 0.06 0.08 0.09 0.16
0.11 0.09 0.03 0.00 0.00 0.00 0.00 0.00 0.00 0.00 0.00 0.00 0.01 0.01 0.01 0.16 0.18 0.05 0.03 0.05 0.06 0.16 0.16 0.36 0.78 1.06 1.53 1.61 1.21 1.31 1.80 2.57 1.25 1.15 0.86 0.58 0.46 0.40 0.30 0.19 0.12 0.07 0.06 0.17
0.26 0.11 0.02 0.00 0.00 0.00 0.00 0.00 0.00 0.00 0.00 0.00 0.01 0.01 0.00 0.00 0.00 0.00 0.00 0.00 0.07 0.20 0.23 0.37 0.41 0.61 1.05 1.21 1.10 1.32 1.72 1.89 2.13 1.59 1.59 0.89 0.55 0.46 0.38 0.26 0.23 0.16 0.12 0.05
0.18 0.08 0.01 0.00 0.00 0.00 0.00 0.00 0.00 0.00 0.00 0.00 0.03 0.00 0.00 0.00 0.00 0.00 0.00 0.00 0.01 0.07 0.27 0.32 0.26 0.27 0.72 0.78 0.63 0.83 0.84 0.87 0.98 0.93 1.33 1.73 1.69 0.95 0.82 0.57 0.59 0.39 0.27 0.17
0.09 0.07 0.04 0.01 0.00 0.00 0.00 0.00 0.00 0.00 0.00 0.00 0.00 0.01 0.00 0.00 0.00 0.00 0.00 0.00 0.00 0.01 0.06 0.07 0.10 0.14 0.26 0.41 0.41 0.53 0.70 0.62 0.52 0.46 0.55 0.69 1.28 1.24 0.88 0.84 0.61 0.46 0.38 0.36
0.15 0.17 0.17 0.03 0.00 0.01 0.01 0.00 0.00 0.01 0.01 0.00 0.02 0.01 0.00 0.00 0.00 0.00 0.00 0.00 0.00 0.00 0.01 0.03 0.08 0.14 0.24 0.21 0.20 0.23 0.42 0.40 0.41 0.34 0.37 0.41 0.47 0.37 0.31 0.29 0.33 0.34 0.29 0.35
0.13 0.31 0.37 0.10 0.10 0.18 0.02 0.00 0.00 0.00 0.01 0.00 0.00 0.00 0.00 0.00 0.00 0.00 0.00 0.00 0.01 0.01 0.02 0.01 0.04 0.15 0.27 0.45 0.58 0.35 0.25 0.25 0.20 0.16 0.06 0.08 0.25 0.36 0.30 0.23 0.28 0.33 0.28 0.29
0.08 0.31 0.37 0.29 0.28 0.17 0.08 0.02 0.00 0.00 0.01 0.00 0.00 0.00 0.00 0.00 0.00 0.00 0.00 0.01 0.01 0.01 0.01 0.02 0.01 0.07 0.16 0.42 0.57 1.16 0.71 0.34 0.18 0.14 0.14 0.10 0.05 0.04 0.13 0.20 0.26 0.33 0.31 0.32
0.20 0.30 0.55 0.44 0.52 0.47 0.19 0.09 0.03 0.04 0.06 0.02 0.00 0.00 0.00 0.01 0.02 0.00 0.01 0.01 0.06 0.04 0.04 0.02 0.02 0.03 0.01 0.14 0.26 0.47 1.07 0.53 0.27 0.10 0.09 0.10 0.08 0.04 0.06 0.19 0.26 0.41 0.67 0.55
0.41 0.57 0.58 0.43 0.62 0.58 0.25 0.16 0.25 0.30 0.12 0.02 0.02 0.00 0.00 0.01 0.01 0.02 0.02 0.01 0.02 0.07 0.02 0.01 0.01 0.01 0.00 0.03 0.17 0.25 0.20 0.12 0.22 0.12 0.13 0.12 0.05 0.06 0.16 0.27 0.32 0.48 0.52 0.36
0.72 0.95 0.97 0.65 0.81 0.94 0.30 0.47 0.56 0.35 0.16 0.05 0.02 0.00 0.00 0.02 0.05 0.04 0.01 0.01 0.02 0.02 0.01 0.00 0.01 0.01 0.00 0.04 0.08 0.16 0.23 0.11 0.04 0.11 0.12 0.05 0.04 0.08 0.19 0.23 0.25 0.30 0.32 0.29
0.92 0.98 1.01 0.76 1.02 0.95 0.64 0.77 0.61 0.40 0.47 0.23 0.07 0.03 0.03 0.04 0.06 0.07 0.03 0.02 0.01 0.00 0.00 0.00 0.01 0.00 0.02 0.04 0.03 0.01 0.05 0.19 0.18 0.07 0.10 0.10 0.07 0.05 0.12 0.19 0.17 0.10 0.15 0.22
0.81 0.94 0.89 0.74 0.84 0.96 0.71 0.85 0.82 0.71 0.70 0.43 0.16 0.05 0.07 0.08 0.09 0.09 0.07 0.05 0.03 0.02 0.01 0.02 0.02 0.01 0.01 0.01 0.01 0.00 0.00 0.00 0.07 0.11 0.07 0.09 0.17 0.17 0.20 0.32 0.18 0.12 0.23 0.29
1.03 0.94 0.88 0.86 0.92 1.06 0.90 1.29 1.12 0.86 0.66 0.49 0.37 0.31 0.18 0.20 0.18 0.16 0.12 0.12 0.13 0.16 0.13 0.10 0.13 0.11 0.08 0.04 0.02 0.01 0.01 0.01 0.02 0.13 0.28 0.39 0.42 0.37 0.28 0.41 0.37 0.46 0.66 0.69
1.33 1.36 1.31 1.07 0.94 1.24 1.09 1.33 1.19 1.13 1.02 0.86 0.81 0.77 0.72 0.70 0.82 0.69 0.55 0.52 0.48 0.59 0.67 0.65 0.53 0.48 0.56 0.54 0.38 0.26 0.20 0.21 0.23 0.29 0.28 0.30 0.33 0.48 0.53 0.55 0.56 0.81 0.96 0.91

GFSCGP_prec_precacc_096.txt.gz
Total_Precipitation_Accumulation
0.00 0.00 0.00 0.01 0.00 0.00 0.01 0.05 0.14 0.11 0.13 0.89 0.98 0.85 1.39 0.76 0.62 0.91 0.33 0.16 0.07 0.01 0.01 0.00 0.00 0.00 0.00 0.00 0.00 0.00 0.00 0.02 0.06 0.08 0.03 0.05 0.10 0.05 0.10 0.17 0.28 0.38 0.35 0.36
0.00 0.00 0.00 0.00 0.00 0.00 0.00 0.01 0.03 0.16 0.47 0.63 1.08 0.76 0.61 0.53 0.48 0.65 0.65 0.16 0.08 0.02 0.01 0.00 0.00 0.00 0.01 0.00 0.00 0.00 0.01 0.02 0.02 0.03 0.05 0.04 0.06 0.06 0.12 0.26 0.33 0.16 0.21 0.33
0.00 0.00 0.00 0.00 0.00 0.00 0.00 0.00 0.00 0.11 0.38 0.56 0.71 0.78 0.49 0.66 0.72 0.69 0.86 0.33 0.23 0.04 0.04 0.00 0.00 0.00 0.02 0.01 0.00 0.00 0.00 0.00 0.01 0.02 0.06 0.29 0.25 0.26 0.41 0.32 0.17 0.08 0.16 0.15
0.00 0.00 0.00 0.00 0.00 0.00 0.00 0.00 0.00 0.00 0.07 0.26 0.23 0.40 0.34 0.34 0.68 1.40 1.17 0.39 0.17 0.07 0.05 0.04 0.00 0.01 0.01 0.01 0.00 0.00 0.00 0.00 0.01 0.04 0.03 0.20 0.25 0.28 0.19 0.06 0.10 0.09 0.09 0.09
0.00 0.00 0.00 0.00 0.00 0.01 0.00 0.00 0.00 0.00 0.01 0.08 0.09 0.09 0.09 0.31 0.60 1.18 1.22 0.35 0.23 0.19 0.08 0.06 0.02 0.03 0.04 0.00 0.00 0.00 0.00 0.00 0.01 0.03 0.06 0.10 0.11 0.30 0.22 0.10 0.53 0.25 0.16 0.10
0.00 0.00 0.00 0.00 0.00 0.00 0.00 0.00 0.00 0.00 0.00 0.02 0.01 0.01 0.03 0.29 0.47 0.70 0.68 0.42 0.31 0.10 0.11 0.10 0.05 0.05 0.04 0.01 0.00 0.00 0.00 0.00 0.01 0.01 0.02 0.08 0.18 0.35 0.50 0.44 0.48 0.18 0.07 0.12
0.00 0.00 0.00 0.00 0.00 0.00 0.00 0.00 0.00 0.00 0.00 0.00 0.00 0.00 0.02 0.08 0.49 0.59 0.53 0.42 0.31 0.19 0.20 0.09 0.06 0.07 0.09 0.02 0.00 0.00 0.00 0.00 0.00 0.00 0.01 0.05 0.11 0.25 0.49 0.61 0.22 0.12 0.27 0.17
0.00 0.00 0.00 0.00 0.00 0.00 0.00 0.00 0.00 0.00 0.00 0.00 0.00 0.00 0.00 0.03 0.14 0.22 0.20 0.16 0.30 0.29 0.28 0.33 0.22 0.16 0.22 0.16 0.01 0.00 0.00 0.00 0.00 0.01 0.01 0.04 0.09 0.10 0.19 0.27 0.24 0.22 0.28 0.16
0.00 0.00 0.00 0.00 0.00 0.00 0.00 0.00 0.00 0.00 0.00 0.00 0.00 0.00 0.02 0.10 0.17 0.07 0.12 0.16 0.24 0.58 0.63 0.47 0.23 0.23 0.30 0.28 0.06 0.00 0.00 0.00 0.01 0.01 0.01 0.05 0.09 0.06 0.07 0.22 0.18 0.14 0.20 0.16
0.00 0.00 0.00 0.00 0.00 0.00 0.00 0.00 0.00 0.00 0.00 0.00 0.07 0.07 0.12 0.13 0.12 0.14 0.13 0.15 0.15 0.60 1.48 1.66 1.18 0.53 0.45 0.56 0.37 0.24 0.09 0.07 0.13 0.05 0.10 0.22 0.15 0.13 0.09 0.15 0.15 0.18 0.10 0.33
0.00 0.01 0.00 0.00 0.00 0.00 0.00 0.00 0.00 0.00 0.00 0.00 0.05 0.11 0.12 0.16 0.13 0.07 0.07 0.17 0.18 0.38 1.25 2.47 2.45 1.95 0.98 0.95 0.63 0.92 0.79 0.70 0.63 0.51 0.23 0.24 0.22 0.11 0.11 0.12 0.12 0.17 0.22 0.23
0.03 0.05 0.01 0.00 0.00 0.00 0.00 0.00 0.00 0.00 0.00 0.00 0.02 0.07 0.08 0.24 0.16 0.08 0.07 0.13 0.15 0.34 0.65 1.31 1.90 1.78 1.58 1.39 0.92 1.12 1.82 1.15 0.85 0.67 0.62 0.34 0.30 0.28 0.24 0.11 0.12 0.16 0.16 0.26
0.11 0.09 0.03 0.00 0.00 0.00 0.00 0.00 0.00 0.00 0.00 0.00 0.01 0.01 0.01 0.16 0.18 0.05 0.03 0.05 0.06 0.17 0.19 0.40 0.83 1.07 1.53 1.61 1.21 1.31 1.81 2.66 1.28 1.22 0.94 0.63 0.52 0.48 0.34 0.21 0.13 0.09 0.11 0.32
0.26 0.11 0.02 0.00 0.00 0.00 0.00 0.00 0.00 0.00 0.00 0.00 0.01 0.01 0.00 0.00 0.00 0.00 0.00 0.00 0.07 0.20 0.25 0.38 0.42 0.62 1.05 1.22 1.10 1.32 1.72 1.92 2.24 1.73 1.69 0.98 0.62 0.50 0.42 0.28 0.24 0.18 0.14 0.11
0.18 0.08 0.01 0.00 0.00 0.00 0.00 0.00 0.00 0.00 0.00 0.00 0.03 0.00 0.00 0.00 0.00 0.00 0.00 0.00 0.01 0.07 0.27 0.32 0.26 0.28 0.72 0.79 0.64 0.84 0.85 0.88 1.01 0.99 1.36 1.77 1.74 1.00 0.88 0.60 0.61 0.39 0.27 0.17
0.09 0.07 0.04 0.01 0.00 0.00 0.00 0.00 0.00 0.00 0.00 0.00 0.00 0.01 0.00 0.00 0.00 0.00 0.00 0.00 0.00 0.01 0.06 0.08 0.11 0.14 0.26 0.42 0.42 0.54 0.73 0.62 0.53 0.48 0.58 0.71 1.29 1.26 0.96 0.86 0.61 0.46 0.38 0.36
0.16 0.17 0.17 0.03 0.00 0.01 0.01 0.00 0.00 0.01 0.01 0.00 0.02 0.01 0.00 0.00 0.00 0.00 0.00 0.00 0.00 0.00 0.01 0.03 0.08 0.14 0.24 0.22 0.23 0.25 0.44 0.42 0.42 0.35 0.41 0.42 0.47 0.37 0.36 0.41 0.38 0.35 0.29 0.35
0.13 0.31 0.37 0.10 0.10 0.18 0.02 0.00 0.00 0.00 0.01 0.00 0.00 0.00 0.00 0.00 0.00 0.00 0.00 0.00 0.01 0.01 0.02 0.01 0.04 0.16 0.28 0.47 0.62 0.38 0.26 0.28 0.22 0.17 0.08 0.09 0.25 0.36 0.30 0.23 0.28 0.34 0.28 0.29
0.08 0.31 0.37 0.29 0.28 0.18 0.08 0.02 0.00 0.00 0.01 0.00 0.00 0.00 0.00 0.00 0.00 0.00 0.00 0.01 0.01 0.01 0.01 0.02 0.01 0.07 0.16 0.44 0.62 1.20 0.73 0.35 0.20 0.15 0.15 0.10 0.05 0.04 0.13 0.20 0.26 0.33 0.31 0.32
0.20 0.30 0.55 0.44 0.52 0.47 0.19 0.09 0.03 0.04 0.06 0.02 0.00 0.00 0.00 0.01 0.02 0.00 0.01 0.01 0.06 0.04 0.04 0.02 0.02 0.03 0.01 0.14 0.27 0.48 1.09 0.54 0.28 0.11 0.10 0.10 0.08 0.04 0.06 0.19 0.26 0.41 0.67 0.55
0.41 0.57 0.58 0.43 0.62 0.58 0.25 0.16 0.25 0.30 0.12 0.02 0.02 0.00 0.00 0.01 0.04 0.03 0.02 0.01 0.02 0.07 0.02 0.01 0.01 0.01 0.00 0.03 0.17 0.25 0.20 0.12 0.22 0.12 0.13 0.12 0.05 0.06 0.16 0.27 0.32 0.48 0.52 0.36
0.72 0.95 0.97 0.65 0.81 0.94 0.30 0.47 0.56 0.35 0.16 0.05 0.02 0.00 0.00 0.02 0.05 0.04 0.01 0.01 0.02 0.02 0.01 0.00 0.01 0.01 0.00 0.04 0.08 0.16 0.23 0.11 0.04 0.11 0.12 0.05 0.04 0.08 0.19 0.23 0.25 0.30 0.32 0.29
0.92 0.98 1.01 0.76 1.02 0.95 0.64 0.77 0.61 0.40 0.47 0.23 0.07 0.03 0.03 0.04 0.06 0.07 0.04 0.02 0.01 0.01 0.00 0.00 0.01 0.00 0.02 0.04 0.03 0.01 0.05 0.19 0.18 0.07 0.10 0.10 0.07 0.05 0.12 0.19 0.17 0.10 0.15 0.22
0.81 0.94 0.89 0.74 0.84 0.96 0.71 0.85 0.82 0.71 0.70 0.43 0.16 0.05 0.07 0.08 0.09 0.09 0.07 0.05 0.03 0.02 0.01 0.02 0.02 0.01 0.01 0.01 0.01 0.00 0.00 0.00 0.07 0.11 0.07 0.09 0.17 0.17 0.20 0.32 0.18 0.12 0.23 0.29
1.03 0.94 0.88 0.86 0.92 1.06 0.90 1.29 1.12 0.86 0.66 0.49 0.37 0.31 0.18 0.20 0.18 0.17 0.13 0.12 0.13 0.16 0.13 0.10 0.13 0.11 0.08 0.04 0.02 0.01 0.01 0.01 0.02 0.13 0.28 0.39 0.42 0.37 0.28 0.41 0.37 0.46 0.66 0.69
1.33 1.36 1.31 1.07 0.94 1.24 1.09 1.33 1.19 1.13 1.02 0.86 0.81 0.77 0.72 0.70 0.82 0.69 0.55 0.52 0.48 0.59 0.67 0.65 0.53 0.48 0.56 0.54 0.38 0.26 0.20 0.21 0.23 0.29 0.28 0.30 0.33 0.48 0.53 0.55 0.56 0.81 0.96 0.91

GFSCGP_prec_precacc_099.txt.gz
Total_Precipitation_Accumulation
0.00 0.00 0.00 0.01 0.00 0.03 0.07 0.29 0.61 0.24 0.16 1.17 1.17 1.04 1.64 1.05 0.76 0.93 0.33 0.16 0.07 0.01 0.01 0.00 0.00 0.00 0.00 0.00 0.00 0.00 0.01 0.05 0.12 0.12 0.03 0.05 0.10 0.05 0.10 0.17 0.28 0.38 0.35 0.36
0.00 0.00 0.00 0.00 0.00 0.00 0.00 0.15 0.78 0.49 0.52 0.69 1.29 0.94 0.93 1.12 0.81 0.70 0.65 0.16 0.08 0.02 0.01 0.00 0.00 0.00 0.01 0.00 0.00 0.00 0.01 0.06 0.06 0.04 0.06 0.05 0.07 0.06 0.13 0.26 0.34 0.16 0.21 0.33
0.00 0.00 0.00 0.00 0.00 0.00 0.00 0.04 0.53 0.59 0.46 0.68 0.94 1.07 0.67 1.00 1.18 0.82 0.88 0.33 0.23 0.04 0.04 0.00 0.00 0.00 0.02 0.01 0.00 0.00 0.00 0.03 0.02 0.04 0.09 0.32 0.31 0.37 0.47 0.33 0.17 0.08 0.16 0.15
0.00 0.00 0.00 0.00 0.00 0.00 0.00 0.01 0.29 0.39 0.10 0.36 0.35 0.52 0.40 0.40 1.06 1.65 1.21 0.39 0.18 0.08 0.06 0.04 0.00 0.01 0.01 0.01 0.00 0.00 0.00 0.01 0.02 0.04 0.05 0.23 0.42 0.46 0.28 0.09 0.14 0.10 0.09 0.09
0.00 0.00 0.00 0.00 0.00 0.01 0.00 0.00 0.12 0.11 0.04 0.10 0.12 0.14 0.13 0.33 0.81 1.45 1.24 0.36 0.23 0.20 0.08 0.07 0.02 0.03 0.04 0.00 0.00 0.00 0.00 0.00 0.02 0.03 0.09 0.12 0.11 0.31 0.24 0.18 0.62 0.30 0.17 0.10
0.00 0.00 0.00 0.00 0.00 0.00 0.00 0.00 0.00 0.00 0.01 0.07 0.02 0.01 0.04 0.30 0.54 0.89 0.73 0.45 0.31 0.11 0.11 0.11 0.05 0.05 0.04 0.01 0.00 0.00 0.00 0.00 0.01 0.02 0.03 0.11 0.26 0.38 0.62 0.64 0.63 0.19 0.07 0.12
0.00 0.00 0.00 0.00 0.00 0.00 0.00 0.00 0.00 0.00 0.02 0.00 0.00 0.00 0.02 0.08 0.51 0.64 0.56 0.43 0.31 0.21 0.21 0.10 0.06 0.08 0.09 0.02 0.00 0.00 0.00 0.00 0.00 0.00 0.01 0.05 0.14 0.30 0.52 0.68 0.26 0.20 0.30 0.20
0.00 0.00 0.00 0.00 0.00 0.00 0.00 0.00 0.00 0.00 0.00 0.00 0.00 0.00 0.00 0.03 0.14 0.22 0.20 0.16 0.30 0.29 0.29 0.33 0.22 0.18 0.23 0.16 0.01 0.00 0.00 0.00 0.00 0.02 0.03 0.05 0.10 0.10 0.20 0.28 0.24 0.23 0.33 0.16
0.00 0.00 0.00 0.00 0.00 0.00 0.00 0.00 0.00 0.00 0.00 0.01 0.01 0.00 0.02 0.10 0.17 0.07 0.12 0.16 0.24 0.58 0.64 0.47 0.23 0.24 0.31 0.29 0.06 0.02 0.00 0.01 0.03 0.03 0.04 0.11 0.14 0.07 0.10 0.29 0.18 0.15 0.22 0.32
0.00 0.00 0.00 0.00 0.00 0.00 0.00 0.00 0.00 0.00 0.00 0.00 0.07 0.07 0.12 0.13 0.12 0.14 0.13 0.15 0.15 0.60 1.48 1.66 1.18 0.53 0.45 0.58 0.42 0.26 0.10 0.07 0.14 0.07 0.12 0.24 0.15 0.13 0.09 0.15 0.15 0.22 0.13 0.64
0.00 0.01 0.00 0.00 0.00 0.00 0.00 0.00 0.00 0.00 0.00 0.00 0.06 0.11 0.12 0.16 0.13 0.07 0.07 0.17 0.18 0.38 1.25 2.47 2.45 1.95 0.98 0.95 0.66 0.94 0.81 0.70 0.66 0.55 0.29 0.35 0.22 0.11 0.11 0.12 0.12 0.17 0.24 0.31
0.03 0.05 0.01 0.00 0.00 0.00 0.00 0.00 0.00 0.00 0.00 0.00 0.02 0.08 0.08 0.24 0.16 0.08 0.07 0.13 0.15 0.38 0.69 1.31 1.90 1.79 1.59 1.41 0.94 1.12 1.87 1.24 0.90 0.71 0.69 0.44 0.31 0.30 0.27 0.13 0.12 0.16 0.17 0.27
0.11 0.09 0.03 0.00 0.00 0.00 0.00 0.00 0.00 0.00 0.00 0.00 0.01 0.01 0.01 0.16 0.18 0.05 0.03 0.05 0.06 0.21 0.23 0.42 0.83 1.09 1.56 1.63 1.21 1.31 1.81 2.69 1.36 1.28 1.05 0.75 0.56 0.53 0.37 0.28 0.15 0.09 0.14 0.33
0.26 0.11 0.02 0.00 0.00 0.00 0.00 0.00 0.00 0.00 0.00 0.00 0.01 0.01 0.00 0.00 0.00 0.00 0.00 0.00 0.07 0.21 0.27 0.41 0.47 0.63 1.06 1.22 1.11 1.32 1.73 1.93 2.25 1.76 1.76 1.05 0.65 0.50 0.46 0.33 0.31 0.20 0.16 0.12
0.18 0.08 0.01 0.00 0.00 0.00 0.00 0.00 0.00 0.00 0.00 0.00 0.03 0.00 0.00 0.00 0.00 0.00 0.00 0.00 0.01 0.08 0.27 0.34 0.31 0.33 0.76 0.80 0.65 0.87 0.86 0.88 1.01 1.00 1.40 1.80 1.77 1.02 0.91 0.67 0.70 0.49 0.31 0.20
0.09 0.07 0.04 0.01 0.00 0.00 0.00 0.00 0.00 0.00 0.00 0.00 0.00 0.01 0.00 0.00 0.00 0.00 0.00 0.00 0.00 0.01 0.06 0.09 0.14 0.18 0.28 0.42 0.44 0.59 0.80 0.65 0.55 0.51 0.61 0.72 1.33 1.35 1.07 0.99 0.72 0.53 0.43 0.39
0.16 0.19 0.18 0.04 0.00 0.01 0.01 0.00 0.00 0.01 0.01 0.00 0.02 0.01 0.00 0.00 0.00 0.00 0.00 0.00 0.00 0.00 0.01 0.03 0.09 0.14 0.26 0.23 0.24 0.25 0.47 0.50 0.44 0.39 0.44 0.43 0.48 0.39 0.38 0.44 0.46 0.43 0.37 0.39
0.13 0.36 0.38 0.12 0.11 0.19 0.02 0.00 0.00 0.00 0.01 0.00 0.00 0.00 0.00 0.00 0.00 0.00 0.00 0.00 0.01 0.01 0.02 0.01 0.04 0.16 0.28 0.48 0.65 0.40 0.31 0.31 0.25 0.19 0.08 0.09 0.26 0.37 0.30 0.23 0.29 0.34 0.29 0.29
0.08 0.32 0.38 0.30 0.33 0.20 0.08 0.02 0.00 0.00 0.01 0.00 0.00 0.00 0.00 0.00 0.00 0.00 0.00 0.01 0.01 0.01 0.01 0.02 0.01 0.07 0.16 0.47 0.69 1.24 0.77 0.45 0.29 0.19 0.18 0.10 0.05 0.04 0.13 0.20 0.26 0.33 0.31 0.33
0.20 0.30 0.56 0.44 0.55 0.50 0.20 0.09 0.03 0.04 0.06 0.02 0.00 0.00 0.00 0.01 0.03 0.00 0.01 0.01 0.06 0.04 0.04 0.02 0.02 0.03 0.01 0.15 0.30 0.51 1.11 0.57 0.32 0.17 0.13 0.11 0.08 0.04 0.06 0.19 0.26 0.41 0.67 0.56
0.41 0.57 0.58 0.43 0.62 0.60 0.25 0.16 0.25 0.30 0.12 0.02 0.02 0.00 0.00 0.01 0.06 0.04 0.02 0.01 0.02 0.07 0.02 0.01 0.01 0.01 0.00 0.03 0.18 0.26 0.20 0.13 0.23 0.12 0.14 0.13 0.05 0.06 0.16 0.27 0.32 0.48 0.52 0.36
0.72 0.95 0.97 0.66 0.82 0.94 0.30 0.47 0.56 0.35 0.16 0.05 0.02 0.00 0.00 0.02 0.05 0.04 0.01 0.01 0.02 0.02 0.01 0.00 0.01 0.01 0.00 0.04 0.08 0.16 0.23 0.11 0.04 0.11 0.12 0.05 0.04 0.09 0.19 0.23 0.25 0.30 0.32 0.29
0.92 0.98 1.01 0.76 1.02 0.95 0.64 0.77 0.61 0.40 0.47 0.23 0.07 0.03 0.03 0.04 0.06 0.07 0.04 0.02 0.01 0.01 0.00 0.00 0.01 0.00 0.02 0.04 0.03 0.01 0.05 0.19 0.18 0.07 0.10 0.10 0.07 0.05 0.12 0.19 0.17 0.10 0.15 0.22
0.81 0.94 0.89 0.74 0.84 0.96 0.71 0.85 0.82 0.71 0.70 0.43 0.16 0.05 0.07 0.08 0.09 0.09 0.07 0.05 0.03 0.03 0.02 0.02 0.03 0.01 0.01 0.01 0.01 0.00 0.00 0.00 0.08 0.12 0.07 0.09 0.17 0.17 0.20 0.32 0.18 0.12 0.23 0.29
1.03 0.94 0.88 0.86 0.92 1.06 0.90 1.29 1.12 0.86 0.66 0.49 0.37 0.31 0.18 0.20 0.18 0.17 0.13 0.12 0.13 0.16 0.13 0.10 0.13 0.11 0.08 0.04 0.02 0.01 0.01 0.01 0.02 0.13 0.28 0.39 0.42 0.37 0.28 0.41 0.37 0.46 0.66 0.69
1.33 1.36 1.31 1.07 0.94 1.24 1.09 1.33 1.19 1.13 1.02 0.86 0.81 0.77 0.72 0.70 0.82 0.69 0.55 0.52 0.48 0.59 0.67 0.65 0.53 0.48 0.56 0.54 0.38 0.26 0.20 0.21 0.23 0.29 0.28 0.30 0.33 0.48 0.53 0.55 0.56 0.81 0.96 0.91

GFSCGP_prec_precacc_102.txt.gz
Total_Precipitation_Accumulation
0.00 0.00 0.00 0.01 0.00 0.05 0.38 0.54 0.94 0.67 0.39 1.18 1.18 1.11 1.77 1.07 0.76 0.93 0.33 0.16 0.07 0.01 0.01 0.00 0.00 0.00 0.00 0.00 0.00 0.00 0.01 0.05 0.12 0.12 0.04 0.05 0.10 0.05 0.11 0.17 0.28 0.38 0.35 0.36
0.00 0.00 0.00 0.00 0.00 0.00 0.03 0.24 1.18 1.36 1.04 0.92 1.31 0.96 1.00 1.46 0.87 0.71 0.66 0.16 0.08 0.02 0.01 0.00 0.00 0.00 0.01 0.00 0.00 0.00 0.04 0.08 0.06 0.05 0.08 0.10 0.08 0.07 0.13 0.26 0.34 0.16 0.21 0.33
0.00 0.00 0.00 0.00 0.00 0.00 0.00 0.05 0.83 1.80 1.54 1.18 0.98 1.17 0.83 1.33 1.50 0.91 0.90 0.33 0.25 0.04 0.04 0.00 0.00 0.00 0.02 0.01 0.00 0.00 0.02 0.07 0.04 0.11 0.13 0.39 0.39 0.45 0.54 0.37 0.19 0.08 0.16 0.15
0.00 0.00 0.00 0.00 0.00 0.01 0.01 0.07 0.34 1.12 1.25 0.75 0.40 0.58 0.58 0.60 1.27 1.84 1.25 0.40 0.18 0.08 0.06 0.04 0.00 0.01 0.01 0.01 0.00 0.00 0.01 0.08 0.05 0.10 0.11 0.28 0.47 0.53 0.34 0.19 0.37 0.25 0.09 0.09
0.00 0.00 0.00 0.00 0.00 0.02 0.00 0.00 0.17 0.62 0.83 0.52 0.18 0.16 0.16 0.35 0.84 1.64 1.31 0.39 0.24 0.20 0.09 0.07 0.02 0.03 0.04 0.00 0.00 0.00 0.00 0.01 0.03 0.05 0.23 0.19 0.12 0.33 0.30 0.29 0.87 0.43 0.20 0.10
0.00 0.00 0.00 0.00 0.00 0.00 0.00 0.00 0.00 0.24 0.82 0.32 0.04 0.03 0.07 0.30 0.55 0.98 0.79 0.61 0.34 0.12 0.12 0.12 0.06 0.05 0.04 0.01 0.00 0.00 0.00 0.00 0.02 0.02 0.05 0.21 0.32 0.45 0.70 0.89 0.78 0.30 0.16 0.14
0.00 0.00 0.00 0.00 0.00 0.00 0.00 0.00 0.02 0.11 0.31 0.18 0.06 0.01 0.03 0.08 0.51 0.67 0.58 0.53 0.38 0.23 0.22 0.11 0.07 0.08 0.09 0.02 0.00 0.00 0.00 0.00 0.00 0.00 0.01 0.06 0.17 0.36 0.60 0.77 0.31 0.28 0.45 0.44
0.00 0.00 0.00 0.00 0.00 0.00 0.00 0.00 0.00 0.02 0.04 0.11 0.07 0.03 0.00 0.03 0.14 0.22 0.21 0.17 0.50 0.33 0.32 0.37 0.25 0.21 0.25 0.16 0.01 0.06 0.02 0.02 0.00 0.02 0.03 0.05 0.10 0.10 0.22 0.33 0.33 0.44 0.53 0.45
0.00 0.00 0.00 0.00 0.00 0.00 0.00 0.00 0.00 0.00 0.01 0.03 0.08 0.07 0.02 0.10 0.17 0.07 0.12 0.16 0.32 0.61 0.69 0.50 0.25 0.29 0.58 0.38 0.19 0.04 0.08 0.06 0.06 0.03 0.04 0.11 0.14 0.08 0.12 0.32 0.19 0.19 0.33 0.58
0.00 0.00 0.00 0.00 0.00 0.00 0.00 0.00 0.00 0.00 0.00 0.02 0.10 0.11 0.13 0.13 0.12 0.14 0.13 0.15 0.15 0.62 1.54 1.72 1.24 0.59 0.54 0.69 0.84 0.44 0.14 0.11 0.20 0.08 0.12 0.24 0.15 0.13 0.09 0.15 0.16 0.29 0.39 1.69
0.00 0.01 0.00 0.00 0.00 0.00 0.00 0.00 0.00 0.00 0.00 0.00 0.08 0.16 0.13 0.16 0.13 0.07 0.07 0.17 0.18 0.38 1.29 2.56 2.52 2.03 1.00 0.96 0.69 0.97 0.82 0.71 0.67 0.55 0.38 0.47 0.28 0.12 0.12 0.12 0.12 0.18 0.31 0.59
0.03 0.05 0.01 0.00 0.00 0.00 0.00 0.00 0.00 0.00 0.00 0.00 0.02 0.12 0.19 0.35 0.17 0.08 0.07 0.13 0.15 0.38 0.70 1.39 1.97 1.93 1.61 1.44 0.95 1.12 1.87 1.25 0.91 0.72 0.71 0.49 0.62 0.43 0.31 0.19 0.18 0.18 0.19 0.30
0.11 0.09 0.03 0.00 0.00 0.00 0.00 0.00 0.00 0.00 0.00 0.00 0.01 0.02 0.02 0.22 0.20 0.05 0.03 0.05 0.07 0.27 0.25 0.44 0.89 1.21 1.67 1.66 1.21 1.31 1.81 2.69 1.37 1.31 1.09 0.80 0.66 0.58 0.47 0.44 0.52 0.26 0.18 0.36
0.26 0.11 0.02 0.00 0.00 0.00 0.00 0.00 0.00 0.00 0.00 0.00 0.01 0.01 0.00 0.00 0.00 0.00 0.00 0.00 0.09 0.23 0.36 0.47 0.50 0.70 1.15 1.26 1.11 1.32 1.73 1.93 2.26 1.76 1.79 1.09 0.68 0.53 0.48 0.36 0.32 0.22 0.20 0.18
0.18 0.08 0.01 0.00 0.00 0.00 0.00 0.00 0.00 0.00 0.00 0.00 0.03 0.00 0.00 0.01 0.00 0.00 0.00 0.00 0.01 0.08 0.29 0.39 0.39 0.52 0.82 0.81 0.66 0.87 0.86 0.88 1.01 1.00 1.41 1.81 1.77 1.02 0.91 0.68 0.72 0.52 0.35 0.24
0.09 0.07 0.04 0.01 0.00 0.00 0.00 0.00 0.00 0.00 0.00 0.00 0.00 0.01 0.17 0.27 0.28 0.01 0.00 0.00 0.00 0.01 0.06 0.10 0.17 0.20 0.33 0.47 0.45 0.60 0.81 0.65 0.55 0.53 0.65 0.77 1.34 1.36 1.09 1.01 0.77 0.64 0.56 0.46
0.16 0.19 0.18 0.04 0.00 0.01 0.01 0.00 0.00 0.01 0.01 0.00 0.02 0.02 0.04 0.19 0.27 0.03 0.00 0.00 0.00 0.00 0.01 0.05 0.12 0.16 0.30 0.30 0.25 0.26 0.48 0.54 0.50 0.43 0.48 0.50 0.55 0.40 0.42 0.50 0.56 0.57 0.58 0.52
0.13 0.38 0.39 0.27 0.13 0.19 0.03 0.00 0.00 0.00 0.01 0.00 0.00 0.00 0.01 0.09 0.00 0.00 0.00 0.00 0.01 0.01 0.02 0.02 0.05 0.18 0.30 0.49 0.67 0.42 0.34 0.32 0.29 0.23 0.10 0.11 0.27 0.37 0.30 0.24 0.29 0.36 0.37 0.40
0.08 0.33 0.46 0.40 0.39 0.24 0.09 0.03 0.00 0.01 0.02 0.00 0.00 0.00 0.00 0.10 0.01 0.00 0.00 0.01 0.01 0.01 0.01 0.02 0.01 0.07 0.16 0.47 0.71 1.25 0.83 0.55 0.35 0.24 0.18 0.11 0.05 0.04 0.13 0.20 0.27 0.34 0.33 0.36
0.20 0.31 0.66 0.48 0.65 0.62 0.27 0.11 0.03 0.04 0.17 0.06 0.01 0.00 0.00 0.01 0.05 0.02 0.01 0.01 0.06 0.04 0.04 0.02 0.02 0.03 0.01 0.15 0.30 0.54 1.17 0.62 0.37 0.20 0.15 0.11 0.09 0.05 0.07 0.19 0.26 0.41 0.68 0.59
0.41 0.58 0.61 0.51 0.73 0.67 0.31 0.19 0.25 0.30 0.13 0.03 0.02 0.00 0.00 0.01 0.07 0.05 0.02 0.01 0.02 0.07 0.02 0.01 0.01 0.01 0.00 0.03 0.18 0.28 0.22 0.15 0.25 0.15 0.18 0.15 0.06 0.08 0.17 0.28 0.32 0.48 0.52 0.36
0.72 0.95 0.97 0.66 0.88 1.00 0.31 0.47 0.56 0.36 0.16 0.05 0.02 0.00 0.00 0.02 0.05 0.04 0.01 0.01 0.02 0.02 0.01 0.00 0.01 0.01 0.00 0.04 0.08 0.17 0.23 0.12 0.05 0.12 0.13 0.06 0.04 0.09 0.20 0.23 0.25 0.30 0.32 0.29
0.92 0.98 1.01 0.76 1.06 0.97 0.64 0.77 0.61 0.40 0.47 0.23 0.07 0.03 0.03 0.04 0.06 0.07 0.04 0.02 0.01 0.01 0.00 0.00 0.01 0.00 0.02 0.04 0.03 0.01 0.05 0.19 0.18 0.07 0.11 0.10 0.07 0.05 0.12 0.19 0.17 0.10 0.15 0.22
0.81 0.94 0.89 0.74 0.84 0.96 0.71 0.85 0.82 0.71 0.70 0.43 0.16 0.05 0.07 0.08 0.09 0.09 0.07 0.05 0.03 0.03 0.02 0.02 0.03 0.01 0.01 0.01 0.01 0.00 0.00 0.00 0.08 0.12 0.07 0.09 0.18 0.18 0.20 0.33 0.20 0.13 0.23 0.29
1.03 0.94 0.88 0.86 0.92 1.06 0.90 1.29 1.12 0.86 0.66 0.49 0.37 0.31 0.18 0.20 0.18 0.17 0.13 0.12 0.13 0.16 0.13 0.10 0.13 0.11 0.09 0.04 0.02 0.01 0.01 0.01 0.02 0.13 0.28 0.39 0.42 0.37 0.28 0.41 0.37 0.46 0.66 0.69
1.33 1.36 1.31 1.07 0.94 1.24 1.09 1.33 1.19 1.13 1.02 0.86 0.81 0.77 0.72 0.70 0.82 0.69 0.55 0.52 0.48 0.59 0.67 0.65 0.53 0.48 0.56 0.54 0.38 0.26 0.20 0.21 0.23 0.29 0.28 0.30 0.33 0.48 0.53 0.55 0.56 0.81 0.96 0.91

GFSCGP_prec_precacc_105.txt.gz
Total_Precipitation_Accumulation
0.00 0.00 0.00 0.01 0.00 0.05 0.39 0.64 1.08 1.11 1.58 1.98 1.35 1.15 1.83 1.08 0.76 0.93 0.33 0.16 0.07 0.01 0.01 0.00 0.00 0.00 0.00 0.00 0.00 0.00 0.01 0.05 0.12 0.13 0.05 0.06 0.11 0.05 0.11 0.17 0.28 0.38 0.35 0.36
0.00 0.00 0.00 0.00 0.00 0.00 0.06 0.29 1.32 1.56 1.76 1.52 1.59 1.02 1.06 1.49 0.87 0.71 0.66 0.17 0.08 0.02 0.01 0.00 0.00 0.00 0.01 0.00 0.00 0.00 0.04 0.08 0.06 0.06 0.09 0.10 0.09 0.08 0.14 0.27 0.34 0.16 0.21 0.33
0.00 0.00 0.00 0.00 0.00 0.02 0.03 0.08 0.85 1.91 1.78 1.84 1.45 1.30 0.88 1.36 1.53 0.91 0.90 0.33 0.25 0.04 0.04 0.00 0.00 0.00 0.02 0.01 0.00 0.00 0.02 0.09 0.05 0.12 0.13 0.40 0.39 0.46 0.59 0.41 0.24 0.09 0.16 0.15
0.00 0.00 0.00 0.00 0.00 0.01 0.08 0.13 0.38 1.14 1.39 1.41 1.22 0.89 0.69 0.65 1.31 1.86 1.25 0.40 0.19 0.09 0.06 0.04 0.00 0.01 0.01 0.01 0.00 0.00 0.01 0.10 0.08 0.10 0.11 0.29 0.48 0.56 0.37 0.22 0.41 0.27 0.10 0.09
0.00 0.00 0.00 0.00 0.00 0.02 0.04 0.03 0.18 0.62 0.94 0.89 0.69 0.51 0.28 0.38 0.86 1.64 1.31 0.39 0.25 0.21 0.09 0.08 0.02 0.03 0.04 0.00 0.00 0.00 0.00 0.03 0.05 0.07 0.24 0.22 0.15 0.37 0.36 0.31 0.89 0.43 0.21 0.11
0.00 0.00 0.00 0.00 0.00 0.01 0.01 0.03 0.03 0.25 0.90 0.54 0.18 0.18 0.14 0.31 0.55 0.98 0.79 0.61 0.34 0.13 0.13 0.13 0.06 0.05 0.04 0.01 0.00 0.00 0.00 0.00 0.02 0.02 0.07 0.22 0.35 0.50 0.76 0.91 0.80 0.33 0.20 0.16
0.00 0.00 0.00 0.00 0.00 0.00 0.00 0.01 0.10 0.16 0.45 0.42 0.11 0.12 0.18 0.08 0.51 0.67 0.58 0.54 0.39 0.24 0.22 0.12 0.08 0.09 0.09 0.02 0.00 0.00 0.00 0.00 0.00 0.00 0.01 0.07 0.20 0.40 0.64 0.78 0.35 0.31 0.49 0.54
0.00 0.00 0.00 0.00 0.00 0.00 0.00 0.00 0.01 0.04 0.09 0.16 0.13 0.31 0.09 0.04 0.14 0.22 0.21 0.19 0.51 0.34 0.32 0.37 0.25 0.23 0.30 0.16 0.02 0.06 0.02 0.02 0.00 0.02 0.03 0.05 0.10 0.11 0.24 0.35 0.51 0.55 0.64 0.73
0.00 0.00 0.00 0.00 0.00 0.00 0.00 0.00 0.00 0.01 0.04 0.07 0.23 0.40 0.12 0.12 0.17 0.07 0.12 0.16 0.32 0.62 0.70 0.50 0.25 0.41 0.81 0.52 0.25 0.07 0.08 0.07 0.06 0.03 0.04 0.11 0.14 0.08 0.13 0.36 0.34 0.34 0.45 0.74
0.00 0.00 0.00 0.00 0.00 0.00 0.00 0.00 0.00 0.00 0.00 0.05 0.25 0.64 0.33 0.14 0.12 0.14 0.13 0.15 0.15 0.62 1.55 1.72 1.24 0.65 0.81 1.07 1.03 0.64 0.21 0.15 0.22 0.08 0.12 0.25 0.15 0.14 0.10 0.19 0.25 0.37 0.47 1.72
0.00 0.01 0.00 0.00 0.00 0.00 0.00 0.00 0.00 0.00 0.00 0.00 0.11 0.21 0.17 0.18 0.13 0.07 0.07 0.18 0.19 0.38 1.30 2.59 2.53 2.09 1.12 1.14 0.83 1.59 0.89 0.74 0.68 0.57 0.49 0.62 0.33 0.15 0.14 0.14 0.14 0.21 0.38 0.62
0.03 0.05 0.01 0.00 0.00 0.00 0.00 0.00 0.00 0.00 0.00 0.00 0.02 0.15 0.24 0.38 0.19 0.09 0.10 0.17 0.20 0.39 0.72 1.43 1.99 2.13 1.79 1.49 1.03 1.24 1.94 1.32 1.02 0.85 0.90 0.59 0.72 0.59 0.38 0.24 0.20 0.21 0.20 0.30
0.11 0.09 0.03 0.00 0.00 0.00 0.00 0.00 0.00 0.00 0.00 0.00 0.01 0.03 0.02 0.22 0.21 0.05 0.03 0.08 0.11 0.31 0.35 0.58 1.11 1.63 1.89 1.73 1.31 1.41 1.93 2.84 1.50 1.41 1.22 0.93 0.78 0.72 0.61 0.48 0.58 0.30 0.20 0.37
0.26 0.11 0.02 0.00 0.00 0.00 0.00 0.00 0.00 0.00 0.00 0.00 0.01 0.01 0.01 0.00 0.01 0.08 0.15 0.17 0.23 0.34 0.51 0.64 0.69 1.00 1.41 1.51 1.21 1.41 1.81 1.98 2.29 1.77 1.81 1.10 0.76 0.64 0.59 0.39 0.35 0.25 0.24 0.19
0.18 0.08 0.01 0.00 0.00 0.00 0.00 0.00 0.00 0.00 0.00 0.00 0.03 0.01 0.02 0.04 0.06 0.10 0.21 0.20 0.24 0.26 0.37 0.48 0.69 0.87 1.07 1.24 0.98 1.06 0.91 0.91 1.02 1.00 1.41 1.81 1.79 1.04 0.91 0.68 0.72 0.54 0.36 0.27
0.09 0.07 0.04 0.01 0.00 0.00 0.00 0.00 0.00 0.00 0.00 0.00 0.00 0.03 0.24 0.39 0.64 0.21 0.05 0.02 0.07 0.11 0.18 0.21 0.46 0.50 0.67 0.60 0.53 0.62 0.81 0.65 0.55 0.53 0.65 0.78 1.37 1.36 1.12 1.04 0.77 0.64 0.57 0.49
0.16 0.19 0.18 0.04 0.01 0.01 0.02 0.00 0.00 0.01 0.01 0.00 0.02 0.02 0.04 0.21 0.41 0.27 0.03 0.01 0.00 0.01 0.06 0.13 0.24 0.31 0.42 0.49 0.30 0.26 0.49 0.55 0.51 0.43 0.49 0.51 0.56 0.43 0.44 0.51 0.56 0.57 0.58 0.54
0.13 0.38 0.39 0.27 0.15 0.22 0.05 0.01 0.01 0.02 0.03 0.01 0.01 0.01 0.02 0.10 0.04 0.01 0.01 0.01 0.01 0.01 0.02 0.02 0.06 0.23 0.39 0.56 0.71 0.44 0.36 0.33 0.30 0.24 0.11 0.11 0.28 0.37 0.30 0.24 0.29 0.36 0.37 0.43
0.08 0.33 0.47 0.41 0.40 0.29 0.11 0.05 0.01 0.01 0.05 0.06 0.12 0.08 0.02 0.13 0.14 0.08 0.02 0.02 0.01 0.01 0.01 0.02 0.02 0.09 0.19 0.50 0.77 1.30 0.88 0.66 0.39 0.26 0.20 0.12 0.05 0.04 0.13 0.20 0.27 0.34 0.33 0.37
0.20 0.31 0.67 0.54 0.79 0.67 0.30 0.12 0.05 0.05 0.18 0.08 0.14 0.16 0.15 0.12 0.13 0.09 0.02 0.03 0.06 0.04 0.04 0.02 0.02 0.03 0.01 0.15 0.31 0.54 1.19 0.69 0.40 0.22 0.20 0.15 0.10 0.06 0.07 0.19 0.26 0.41 0.68 0.60
0.41 0.58 0.61 0.51 0.78 0.70 0.32 0.20 0.27 0.32 0.15 0.09 0.07 0.35 0.49 0.89 0.41 0.23 0.09 0.03 0.02 0.07 0.02 0.01 0.01 0.01 0.00 0.03 0.18 0.28 0.24 0.16 0.27 0.17 0.21 0.18 0.07 0.09 0.17 0.28 0.32 0.48 0.52 0.36
0.73 0.99 1.00 0.67 1.08 1.05 0.31 0.47 0.56 0.36 0.16 0.06 0.05 0.39 0.15 0.22 0.20 0.07 0.09 0.03 0.02 0.02 0.01 0.00 0.01 0.01 0.00 0.04 0.08 0.18 0.25 0.13 0.06 0.12 0.14 0.07 0.06 0.10 0.20 0.23 0.25 0.30 0.32 0.29
0.92 0.99 1.03 0.79 1.16 1.00 0.65 0.78 0.62 0.40 0.47 0.23 0.07 0.11 0.11 0.11 0.11 0.07 0.04 0.02 0.01 0.01 0.00 0.00 0.01 0.00 0.02 0.04 0.03 0.01 0.05 0.19 0.18 0.07 0.11 0.10 0.07 0.05 0.12 0.19 0.17 0.10 0.15 0.22
0.81 0.94 0.89 0.74 0.84 0.96 0.71 0.87 0.82 0.71 0.70 0.43 0.16 0.05 0.07 0.09 0.12 0.09 0.07 0.05 0.03 0.03 0.02 0.02 0.03 0.01 0.01 0.01 0.01 0.00 0.00 0.00 0.08 0.12 0.07 0.09 0.18 0.18 0.20 0.33 0.20 0.13 0.23 0.29
1.03 0.94 0.88 0.86 0.92 1.06 0.90 1.29 1.12 0.86 0.66 0.49 0.37 0.31 0.18 0.20 0.18 0.17 0.13 0.12 0.13 0.16 0.13 0.10 0.13 0.11 0.09 0.04 0.02 0.01 0.01 0.01 0.02 0.13 0.28 0.39 0.42 0.37 0.28 0.41 0.37 0.46 0.66 0.69
1.33 1.36 1.31 1.07 0.94 1.24 1.09 1.33 1.19 1.13 1.02 0.86 0.81 0.77 0.72 0.70 0.82 0.69 0.55 0.52 0.48 0.59 0.67 0.65 0.53 0.48 0.56 0.54 0.38 0.26 0.20 0.21 0.23 0.29 0.28 0.30 0.33 0.48 0.53 0.55 0.56 0.81 0.96 0.91

GFSCGP_prec_precacc_108.txt.gz
Total_Precipitation_Accumulation
0.00 0.00 0.00 0.01 0.00 0.06 0.39 0.71 1.19 1.27 1.86 2.52 2.01 1.30 1.90 1.09 0.76 0.93 0.33 0.16 0.07 0.01 0.01 0.00 0.00 0.00 0.00 0.00 0.00 0.00 0.01 0.05 0.12 0.13 0.05 0.07 0.12 0.06 0.12 0.20 0.28 0.39 0.35 0.37
0.00 0.00 0.00 0.00 0.00 0.01 0.11 0.37 1.36 1.58 1.88 1.79 2.19 1.30 1.15 1.54 0.89 0.71 0.66 0.17 0.08 0.02 0.01 0.00 0.00 0.00 0.01 0.00 0.00 0.00 0.04 0.08 0.06 0.06 0.09 0.11 0.09 0.08 0.14 0.31 0.36 0.17 0.21 0.34
0.00 0.00 0.00 0.00 0.00 0.05 0.07 0.11 0.87 1.91 1.80 1.86 1.61 1.79 0.98 1.39 1.55 0.91 0.90 0.33 0.25 0.04 0.04 0.00 0.00 0.00 0.02 0.01 0.00 0.00 0.02 0.09 0.05 0.12 0.13 0.40 0.39 0.46 0.60 0.44 0.25 0.09 0.18 0.17
0.00 0.00 0.00 0.00 0.00 0.02 0.10 0.14 0.40 1.15 1.40 1.42 1.33 1.24 1.06 0.71 1.32 1.86 1.25 0.40 0.19 0.09 0.06 0.04 0.00 0.01 0.01 0.01 0.00 0.00 0.01 0.10 0.08 0.10 0.11 0.29 0.48 0.56 0.38 0.24 0.41 0.27 0.11 0.11
0.00 0.00 0.00 0.00 0.00 0.02 0.04 0.03 0.18 0.62 0.94 0.90 0.78 0.75 0.57 0.61 0.88 1.64 1.31 0.39 0.25 0.21 0.09 0.08 0.02 0.03 0.04 0.00 0.00 0.00 0.00 0.03 0.05 0.07 0.25 0.22 0.15 0.37 0.36 0.31 0.89 0.43 0.22 0.11
0.00 0.00 0.00 0.00 0.00 0.01 0.01 0.04 0.04 0.25 0.90 0.56 0.25 0.35 0.34 0.50 0.58 0.98 0.80 0.62 0.34 0.13 0.13 0.13 0.06 0.05 0.04 0.01 0.00 0.00 0.00 0.00 0.02 0.02 0.07 0.22 0.35 0.50 0.80 0.95 0.80 0.33 0.20 0.16
0.00 0.00 0.00 0.00 0.02 0.03 0.00 0.01 0.11 0.18 0.46 0.43 0.12 0.15 0.30 0.10 0.51 0.67 0.59 0.54 0.39 0.24 0.22 0.12 0.08 0.09 0.09 0.02 0.00 0.00 0.00 0.00 0.00 0.00 0.01 0.07 0.22 0.41 0.65 0.78 0.36 0.31 0.49 0.54
0.00 0.00 0.00 0.00 0.00 0.00 0.00 0.00 0.01 0.05 0.11 0.19 0.17 0.34 0.13 0.04 0.14 0.22 0.21 0.19 0.52 0.34 0.32 0.37 0.25 0.23 0.30 0.16 0.02 0.06 0.02 0.02 0.00 0.02 0.03 0.05 0.12 0.12 0.25 0.36 0.53 0.55 0.64 0.73
0.00 0.00 0.00 0.00 0.00 0.00 0.00 0.00 0.00 0.01 0.04 0.08 0.28 0.45 0.15 0.12 0.17 0.07 0.12 0.17 0.32 0.62 0.70 0.50 0.25 0.41 0.81 0.52 0.27 0.07 0.08 0.07 0.06 0.03 0.04 0.11 0.14 0.08 0.13 0.36 0.36 0.36 0.45 0.74
0.00 0.00 0.00 0.00 0.00 0.00 0.00 0.00 0.00 0.01 0.00 0.05 0.26 0.77 0.42 0.14 0.12 0.14 0.13 0.15 0.15 0.63 1.55 1.72 1.24 0.65 0.82 1.27 1.11 0.72 0.23 0.15 0.22 0.08 0.12 0.25 0.15 0.14 0.11 0.19 0.25 0.37 0.47 1.72
0.00 0.01 0.00 0.00 0.00 0.00 0.00 0.00 0.00 0.00 0.00 0.00 0.12 0.25 0.18 0.18 0.13 0.07 0.07 0.18 0.19 0.38 1.31 2.60 2.54 2.12 1.13 1.53 1.05 1.76 0.98 0.76 0.69 0.57 0.50 0.62 0.33 0.15 0.14 0.14 0.14 0.21 0.38 0.62
0.03 0.05 0.01 0.00 0.00 0.00 0.00 0.00 0.00 0.00 0.00 0.00 0.02 0.15 0.24 0.38 0.19 0.09 0.10 0.17 0.20 0.40 0.73 1.43 1.99 2.14 1.80 1.58 1.13 1.34 2.05 1.49 1.23 1.11 1.21 0.77 0.83 0.68 0.44 0.27 0.21 0.21 0.20 0.30
0.11 0.09 0.03 0.00 0.00 0.00 0.00 0.00 0.00 0.00 0.00 0.00 0.01 0.03 0.02 0.22 0.21 0.05 0.04 0.12 0.12 0.31 0.36 0.58 1.11 1.63 1.91 1.76 1.33 1.46 2.00 2.92 1.65 1.68 1.59 1.22 0.89 0.81 0.70 0.57 0.69 0.37 0.20 0.38
0.26 0.11 0.03 0.00 0.00 0.00 0.00 0.00 0.00 0.00 0.00 0.00 0.01 0.01 0.01 0.00 0.01 0.13 0.24 0.24 0.26 0.40 0.58 0.69 0.71 1.00 1.42 1.53 1.22 1.45 1.83 2.03 2.42 2.01 2.02 1.27 0.88 0.73 0.70 0.50 0.52 0.33 0.25 0.27
0.18 0.08 0.01 0.00 0.00 0.00 0.00 0.00 0.00 0.00 0.00 0.00 0.03 0.01 0.02 0.04 0.06 0.11 0.28 0.31 0.34 0.35 0.43 0.54 0.76 0.90 1.08 1.38 1.26 1.17 0.99 1.05 1.11 1.14 1.50 1.83 1.81 1.07 0.98 0.78 0.81 0.63 0.39 0.29
0.09 0.07 0.04 0.01 0.00 0.00 0.00 0.00 0.00 0.00 0.00 0.00 0.00 0.03 0.24 0.39 0.64 0.23 0.05 0.03 0.09 0.13 0.22 0.28 0.51 0.53 0.90 0.84 1.18 1.01 0.97 0.89 0.73 0.74 0.78 0.78 1.37 1.37 1.12 1.04 0.78 0.65 0.57 0.49
0.16 0.19 0.18 0.05 0.01 0.02 0.04 0.01 0.00 0.01 0.01 0.01 0.03 0.02 0.04 0.21 0.41 0.28 0.03 0.01 0.00 0.01 0.09 0.20 0.31 0.37 0.65 0.75 0.72 0.60 0.64 0.75 0.64 0.51 0.51 0.51 0.57 0.43 0.44 0.51 0.56 0.57 0.58 0.54
0.13 0.38 0.39 0.27 0.15 0.26 0.09 0.04 0.03 0.03 0.05 0.02 0.01 0.02 0.06 0.14 0.05 0.01 0.01 0.01 0.03 0.04 0.07 0.08 0.11 0.28 0.51 0.74 0.99 0.79 0.75 0.52 0.38 0.29 0.12 0.11 0.28 0.37 0.30 0.24 0.29 0.36 0.37 0.43
0.08 0.33 0.47 0.41 0.40 0.31 0.15 0.09 0.04 0.03 0.07 0.10 0.15 0.11 0.05 0.15 0.16 0.12 0.06 0.09 0.03 0.04 0.05 0.09 0.09 0.21 0.34 0.67 1.03 1.51 1.14 0.80 0.40 0.26 0.21 0.12 0.06 0.04 0.16 0.22 0.27 0.34 0.33 0.37
0.20 0.31 0.67 0.54 0.79 0.67 0.32 0.13 0.06 0.06 0.20 0.12 0.16 0.25 0.21 0.19 0.17 0.11 0.15 0.15 0.07 0.04 0.04 0.02 0.04 0.06 0.07 0.23 0.46 0.63 1.33 0.79 0.46 0.28 0.27 0.20 0.17 0.13 0.09 0.22 0.27 0.41 0.68 0.60
0.42 0.59 0.61 0.51 0.78 0.70 0.32 0.21 0.28 0.33 0.16 0.10 0.08 0.37 0.61 1.15 0.84 0.49 0.34 0.23 0.06 0.07 0.02 0.01 0.01 0.01 0.01 0.07 0.21 0.37 0.32 0.23 0.32 0.21 0.28 0.22 0.11 0.12 0.18 0.29 0.32 0.48 0.52 0.36
0.78 1.01 1.09 0.67 1.08 1.05 0.31 0.48 0.58 0.37 0.16 0.06 0.06 0.40 0.16 0.28 0.65 0.42 0.22 0.13 0.03 0.02 0.01 0.00 0.01 0.01 0.00 0.05 0.09 0.19 0.28 0.16 0.11 0.16 0.17 0.11 0.08 0.11 0.20 0.23 0.25 0.30 0.32 0.29
0.92 1.00 1.16 0.82 1.17 1.00 0.65 0.79 0.63 0.41 0.47 0.23 0.07 0.15 0.42 0.20 0.19 0.16 0.10 0.02 0.01 0.01 0.00 0.00 0.01 0.00 0.02 0.04 0.03 0.01 0.05 0.20 0.19 0.08 0.11 0.11 0.08 0.05 0.12 0.19 0.17 0.10 0.15 0.22
0.81 0.94 0.89 0.74 0.84 0.96 0.71 0.87 0.84 0.73 0.70 0.43 0.16 0.06 0.12 0.13 0.19 0.13 0.08 0.05 0.03 0.03 0.02 0.02 0.03 0.01 0.01 0.01 0.01 0.00 0.00 0.00 0.08 0.12 0.07 0.09 0.18 0.18 0.20 0.33 0.20 0.13 0.23 0.29
1.03 0.94 0.88 0.86 0.92 1.06 0.90 1.29 1.12 0.86 0.66 0.49 0.37 0.31 0.22 0.28 0.24 0.18 0.13 0.12 0.13 0.16 0.13 0.10 0.13 0.11 0.09 0.04 0.02 0.01 0.01 0.01 0.02 0.13 0.28 0.39 0.42 0.37 0.28 0.41 0.37 0.46 0.66 0.69
1.33 1.36 1.31 1.07 0.94 1.24 1.09 1.33 1.19 1.13 1.02 0.86 0.81 0.77 0.72 0.72 0.85 0.71 0.56 0.52 0.48 0.59 0.67 0.65 0.53 0.48 0.56 0.54 0.38 0.26 0.20 0.21 0.23 0.29 0.28 0.30 0.33 0.48 0.53 0.55 0.56 0.81 0.96 0.91

GFSCGP_prec_precacc_111.txt.gz
Total_Precipitation_Accumulation
0.00 0.00 0.00 0.01 0.00 0.06 0.39 0.71 1.25 1.36 2.14 3.18 2.66 1.79 2.14 1.14 0.79 0.93 0.33 0.16 0.07 0.01 0.01 0.00 0.00 0.00 0.00 0.00 0.00 0.00 0.01 0.05 0.12 0.13 0.06 0.08 0.12 0.06 0.12 0.24 0.34 0.43 0.38 0.41
0.00 0.00 0.00 0.00 0.00 0.01 0.11 0.37 1.38 1.60 1.99 1.90 2.54 1.77 1.65 1.62 0.93 0.71 0.66 0.17 0.08 0.02 0.01 0.00 0.00 0.00 0.01 0.00 0.00 0.00 0.04 0.08 0.06 0.06 0.09 0.11 0.09 0.09 0.16 0.33 0.41 0.20 0.25 0.36
0.00 0.00 0.00 0.00 0.00 0.06 0.12 0.13 0.88 1.91 1.80 1.86 1.66 2.13 1.31 1.50 1.60 0.92 0.90 0.34 0.25 0.04 0.04 0.00 0.00 0.00 0.02 0.01 0.00 0.00 0.02 0.09 0.05 0.12 0.13 0.40 0.39 0.47 0.60 0.44 0.25 0.11 0.19 0.17
0.00 0.00 0.00 0.00 0.00 0.03 0.15 0.15 0.40 1.15 1.40 1.42 1.34 1.40 1.30 0.85 1.39 1.88 1.25 0.40 0.19 0.09 0.06 0.04 0.00 0.01 0.01 0.01 0.00 0.00 0.01 0.10 0.08 0.10 0.11 0.29 0.48 0.56 0.38 0.28 0.44 0.27 0.11 0.11
0.00 0.00 0.00 0.00 0.00 0.02 0.04 0.04 0.18 0.62 0.94 0.90 0.79 0.76 0.65 0.80 0.97 1.66 1.32 0.39 0.25 0.21 0.09 0.08 0.02 0.03 0.04 0.00 0.00 0.00 0.00 0.03 0.05 0.07 0.25 0.22 0.15 0.37 0.36 0.31 0.90 0.43 0.22 0.11
0.00 0.00 0.00 0.00 0.00 0.01 0.02 0.04 0.04 0.25 0.90 0.56 0.25 0.35 0.35 0.58 0.66 0.99 0.81 0.62 0.35 0.13 0.13 0.13 0.06 0.05 0.04 0.01 0.00 0.00 0.00 0.00 0.02 0.02 0.07 0.22 0.35 0.50 0.80 0.95 0.80 0.33 0.20 0.16
0.00 0.00 0.00 0.00 0.02 0.04 0.01 0.02 0.11 0.18 0.46 0.43 0.12 0.15 0.30 0.11 0.55 0.72 0.61 0.56 0.39 0.24 0.22 0.12 0.08 0.09 0.09 0.02 0.00 0.00 0.00 0.00 0.00 0.00 0.01 0.07 0.22 0.41 0.65 0.78 0.36 0.31 0.49 0.54
0.00 0.00 0.00 0.00 0.00 0.01 0.00 0.00 0.01 0.05 0.11 0.21 0.19 0.35 0.14 0.04 0.14 0.25 0.23 0.21 0.53 0.35 0.33 0.37 0.25 0.23 0.30 0.16 0.02 0.06 0.02 0.02 0.00 0.02 0.03 0.05 0.12 0.12 0.25 0.36 0.53 0.55 0.64 0.73
0.00 0.00 0.00 0.00 0.00 0.00 0.01 0.00 0.00 0.01 0.04 0.08 0.28 0.45 0.15 0.12 0.17 0.07 0.13 0.17 0.34 0.63 0.72 0.50 0.26 0.41 0.81 0.52 0.27 0.07 0.08 0.07 0.06 0.03 0.04 0.11 0.14 0.08 0.13 0.36 0.40 0.41 0.46 0.74
0.00 0.00 0.00 0.00 0.00 0.00 0.00 0.00 0.00 0.01 0.00 0.05 0.26 0.77 0.42 0.14 0.12 0.14 0.13 0.15 0.15 0.63 1.56 1.72 1.24 0.65 0.82 1.27 1.11 0.72 0.23 0.15 0.22 0.08 0.12 0.25 0.15 0.14 0.11 0.19 0.28 0.46 0.52 1.72
0.00 0.01 0.00 0.00 0.00 0.00 0.00 0.00 0.00 0.00 0.00 0.00 0.12 0.25 0.18 0.18 0.13 0.07 0.07 0.18 0.19 0.38 1.32 2.60 2.54 2.12 1.13 1.53 1.05 1.76 0.98 0.76 0.69 0.57 0.50 0.62 0.33 0.15 0.14 0.14 0.14 0.21 0.39 0.62
0.03 0.05 0.01 0.00 0.00 0.00 0.00 0.00 0.00 0.00 0.00 0.00 0.02 0.15 0.24 0.38 0.19 0.09 0.10 0.17 0.20 0.40 0.74 1.43 1.99 2.14 1.80 1.58 1.15 1.35 2.07 1.50 1.29 1.20 1.35 0.93 0.94 0.76 0.46 0.27 0.21 0.21 0.20 0.30
0.11 0.09 0.03 0.00 0.00 0.00 0.00 0.00 0.00 0.00 0.00 0.00 0.01 0.03 0.02 0.22 0.21 0.05 0.04 0.12 0.12 0.31 0.37 0.59 1.11 1.63 1.94 1.81 1.42 1.52 2.03 3.02 1.81 1.79 1.73 1.46 1.09 1.00 0.91 0.70 0.74 0.38 0.20 0.38
0.26 0.11 0.03 0.01 0.00 0.00 0.00 0.00 0.00 0.00 0.00 0.00 0.01 0.01 0.01 0.00 0.01 0.13 0.24 0.24 0.26 0.40 0.58 0.70 0.71 1.02 1.50 1.63 1.32 1.49 1.88 2.08 2.49 2.08 2.06 1.44 1.13 0.88 0.78 0.67 0.67 0.46 0.38 0.40
0.18 0.08 0.01 0.00 0.00 0.00 0.00 0.00 0.00 0.00 0.00 0.00 0.03 0.01 0.02 0.04 0.06 0.11 0.28 0.31 0.34 0.37 0.43 0.55 0.76 0.90 1.10 1.42 1.30 1.19 0.99 1.06 1.15 1.20 1.55 1.94 1.93 1.24 1.04 0.90 0.99 0.77 0.51 0.37
0.09 0.07 0.04 0.01 0.00 0.00 0.00 0.00 0.00 0.00 0.00 0.00 0.00 0.03 0.24 0.39 0.64 0.23 0.05 0.03 0.10 0.16 0.22 0.28 0.51 0.53 0.90 0.85 1.19 1.01 0.98 0.91 0.77 0.83 0.94 0.96 1.56 1.46 1.15 1.11 0.82 0.69 0.60 0.51
0.16 0.19 0.18 0.05 0.01 0.02 0.04 0.01 0.00 0.01 0.01 0.01 0.03 0.02 0.04 0.23 0.44 0.31 0.05 0.07 0.08 0.09 0.13 0.22 0.31 0.37 0.67 0.83 0.78 0.64 0.67 0.79 0.70 0.62 0.66 0.64 0.76 0.50 0.46 0.52 0.57 0.60 0.59 0.55
0.13 0.38 0.39 0.27 0.15 0.27 0.09 0.05 0.03 0.03 0.05 0.02 0.01 0.07 0.14 0.18 0.07 0.03 0.04 0.08 0.18 0.17 0.21 0.18 0.16 0.30 0.55 0.91 1.02 0.86 1.02 0.83 0.56 0.57 0.39 0.20 0.35 0.39 0.31 0.24 0.29 0.36 0.37 0.43
0.08 0.33 0.47 0.41 0.40 0.31 0.16 0.09 0.04 0.03 0.08 0.11 0.16 0.14 0.10 0.16 0.16 0.14 0.11 0.16 0.12 0.13 0.14 0.19 0.22 0.29 0.45 0.94 1.17 1.58 1.29 1.65 1.50 0.60 0.38 0.21 0.08 0.05 0.16 0.22 0.27 0.35 0.33 0.37
0.20 0.31 0.67 0.54 0.79 0.67 0.32 0.13 0.06 0.06 0.21 0.13 0.17 0.25 0.24 0.28 0.26 0.16 0.17 0.17 0.08 0.04 0.06 0.08 0.10 0.16 0.15 0.40 0.66 0.88 1.54 1.09 1.16 1.08 0.47 0.25 0.20 0.15 0.11 0.28 0.35 0.46 0.69 0.60
0.42 0.59 0.61 0.51 0.78 0.70 0.32 0.21 0.28 0.33 0.16 0.10 0.08 0.38 0.64 1.21 0.98 0.55 0.36 0.25 0.06 0.07 0.02 0.01 0.01 0.05 0.08 0.20 0.31 0.46 0.50 0.53 0.63 0.63 0.64 0.43 0.26 0.21 0.23 0.37 0.41 0.56 0.55 0.37
0.78 1.01 1.09 0.67 1.08 1.05 0.31 0.48 0.58 0.37 0.16 0.06 0.06 0.40 0.17 0.32 0.70 0.45 0.23 0.14 0.03 0.02 0.01 0.00 0.01 0.01 0.01 0.08 0.17 0.23 0.39 0.31 0.35 0.47 0.51 0.38 0.24 0.20 0.22 0.25 0.27 0.31 0.33 0.29
0.93 1.00 1.17 0.83 1.17 1.01 0.66 0.79 0.63 0.41 0.47 0.23 0.07 0.15 0.42 0.20 0.19 0.20 0.16 0.05 0.01 0.01 0.00 0.00 0.01 0.01 0.02 0.04 0.03 0.02 0.06 0.24 0.26 0.17 0.17 0.15 0.09 0.06 0.12 0.19 0.17 0.10 0.15 0.22
0.81 0.94 0.89 0.74 0.84 1.00 0.77 0.93 0.86 0.74 0.70 0.43 0.16 0.06 0.12 0.13 0.19 0.13 0.08 0.05 0.03 0.03 0.02 0.02 0.03 0.01 0.01 0.01 0.01 0.00 0.00 0.00 0.08 0.12 0.07 0.10 0.18 0.18 0.20 0.33 0.20 0.13 0.23 0.29
1.03 0.94 0.88 0.86 0.92 1.08 0.91 1.30 1.12 0.86 0.66 0.49 0.37 0.31 0.22 0.28 0.25 0.18 0.13 0.12 0.13 0.16 0.13 0.10 0.13 0.11 0.09 0.04 0.02 0.01 0.01 0.01 0.02 0.13 0.28 0.39 0.42 0.37 0.28 0.41 0.37 0.46 0.66 0.69
1.33 1.36 1.31 1.07 0.94 1.24 1.09 1.33 1.19 1.13 1.02 0.86 0.81 0.77 0.72 0.73 0.86 0.71 0.56 0.52 0.48 0.59 0.67 0.65 0.53 0.48 0.56 0.54 0.38 0.26 0.20 0.21 0.23 0.29 0.28 0.30 0.33 0.48 0.53 0.55 0.56 0.81 0.96 0.91

GFSCGP_prec_precacc_114.txt.gz
Total_Precipitation_Accumulation
0.00 0.00 0.00 0.01 0.00 0.06 0.39 0.71 1.25 1.36 2.17 3.33 2.91 2.09 2.33 1.17 0.81 0.95 0.33 0.16 0.07 0.01 0.01 0.00 0.00 0.00 0.00 0.00 0.00 0.00 0.01 0.05 0.12 0.13 0.06 0.08 0.12 0.06 0.13 0.24 0.36 0.48 0.41 0.42
0.00 0.00 0.00 0.00 0.00 0.01 0.11 0.37 1.38 1.60 1.99 1.92 2.71 2.00 1.88 1.75 0.97 0.72 0.66 0.17 0.08 0.02 0.01 0.00 0.00 0.00 0.01 0.00 0.00 0.00 0.04 0.08 0.06 0.06 0.09 0.11 0.09 0.09 0.16 0.35 0.43 0.22 0.32 0.40
0.00 0.00 0.00 0.00 0.00 0.06 0.13 0.14 0.88 1.91 1.80 1.86 1.68 2.23 1.66 1.72 1.71 0.93 0.90 0.34 0.25 0.04 0.04 0.00 0.00 0.00 0.02 0.01 0.00 0.00 0.02 0.09 0.05 0.12 0.13 0.40 0.39 0.48 0.60 0.44 0.26 0.13 0.22 0.24
0.00 0.00 0.00 0.00 0.00 0.03 0.16 0.16 0.40 1.15 1.40 1.42 1.34 1.41 1.52 1.20 1.55 1.91 1.26 0.40 0.19 0.09 0.06 0.04 0.00 0.01 0.01 0.01 0.00 0.00 0.01 0.10 0.08 0.10 0.11 0.29 0.48 0.56 0.39 0.28 0.44 0.27 0.11 0.14
0.00 0.00 0.00 0.00 0.00 0.02 0.04 0.06 0.22 0.62 0.94 0.90 0.79 0.76 0.72 1.11 1.20 1.70 1.32 0.39 0.25 0.21 0.09 0.08 0.02 0.03 0.04 0.00 0.00 0.00 0.00 0.03 0.05 0.07 0.25 0.22 0.15 0.37 0.36 0.31 0.90 0.43 0.22 0.11
0.00 0.00 0.00 0.00 0.00 0.01 0.02 0.05 0.05 0.25 0.90 0.56 0.25 0.35 0.35 0.69 0.79 1.03 0.82 0.62 0.35 0.13 0.13 0.13 0.06 0.05 0.04 0.01 0.00 0.00 0.00 0.00 0.02 0.02 0.07 0.22 0.35 0.50 0.80 0.95 0.80 0.33 0.20 0.16
0.00 0.00 0.00 0.00 0.02 0.04 0.01 0.02 0.13 0.19 0.46 0.43 0.12 0.15 0.30 0.11 0.60 0.74 0.62 0.56 0.40 0.24 0.23 0.13 0.08 0.09 0.09 0.02 0.00 0.00 0.00 0.00 0.00 0.00 0.01 0.07 0.22 0.41 0.65 0.78 0.36 0.31 0.49 0.54
0.00 0.00 0.00 0.00 0.00 0.01 0.01 0.01 0.02 0.05 0.11 0.21 0.19 0.35 0.14 0.04 0.14 0.25 0.23 0.21 0.53 0.36 0.34 0.38 0.25 0.23 0.30 0.16 0.02 0.06 0.02 0.02 0.00 0.02 0.03 0.05 0.12 0.12 0.25 0.36 0.53 0.55 0.64 0.73
0.00 0.00 0.00 0.00 0.00 0.00 0.02 0.01 0.03 0.02 0.04 0.08 0.28 0.45 0.15 0.12 0.17 0.07 0.14 0.19 0.34 0.63 0.72 0.50 0.26 0.41 0.81 0.52 0.27 0.07 0.08 0.07 0.06 0.03 0.04 0.11 0.14 0.09 0.13 0.36 0.41 0.44 0.57 0.77
0.00 0.00 0.00 0.00 0.00 0.00 0.00 0.03 0.02 0.02 0.03 0.06 0.26 0.77 0.42 0.14 0.12 0.14 0.13 0.17 0.16 0.64 1.56 1.72 1.25 0.65 0.82 1.27 1.11 0.72 0.23 0.15 0.22 0.08 0.12 0.25 0.16 0.15 0.16 0.19 0.28 0.52 0.61 1.76
0.00 0.01 0.00 0.00 0.00 0.00 0.00 0.01 0.02 0.01 0.01 0.01 0.12 0.25 0.18 0.18 0.13 0.07 0.07 0.18 0.19 0.38 1.32 2.60 2.54 2.13 1.16 1.54 1.05 1.76 0.98 0.76 0.69 0.57 0.50 0.62 0.33 0.15 0.15 0.16 0.22 0.26 0.39 0.62
0.03 0.05 0.01 0.00 0.00 0.00 0.00 0.00 0.00 0.00 0.00 0.00 0.02 0.15 0.24 0.38 0.19 0.09 0.10 0.17 0.20 0.40 0.74 1.44 2.00 2.15 1.82 1.58 1.15 1.35 2.07 1.50 1.29 1.20 1.35 0.93 0.94 0.77 0.46 0.27 0.25 0.25 0.22 0.30
0.11 0.09 0.03 0.00 0.00 0.00 0.00 0.00 0.00 0.00 0.00 0.00 0.01 0.03 0.02 0.22 0.21 0.05 0.04 0.12 0.12 0.31 0.37 0.59 1.11 1.63 1.95 1.81 1.42 1.52 2.03 3.02 1.85 1.84 1.79 1.48 1.10 1.01 0.95 0.75 0.78 0.43 0.24 0.39
0.26 0.11 0.03 0.01 0.01 0.00 0.00 0.00 0.00 0.00 0.00 0.00 0.01 0.01 0.01 0.00 0.01 0.13 0.24 0.24 0.26 0.40 0.59 0.73 0.71 1.03 1.51 1.65 1.35 1.51 1.96 2.14 2.53 2.13 2.11 1.52 1.15 0.89 0.84 0.71 0.70 0.51 0.47 0.49
0.18 0.08 0.01 0.00 0.01 0.01 0.00 0.00 0.00 0.00 0.00 0.00 0.03 0.01 0.02 0.04 0.06 0.11 0.28 0.31 0.34 0.38 0.43 0.57 0.77 0.91 1.11 1.46 1.37 1.30 1.16 1.21 1.24 1.27 1.65 2.02 1.98 1.29 1.10 0.95 1.05 0.82 0.59 0.50
0.09 0.07 0.04 0.01 0.00 0.00 0.00 0.00 0.00 0.00 0.00 0.00 0.00 0.03 0.24 0.39 0.64 0.23 0.05 0.03 0.10 0.16 0.23 0.28 0.53 0.54 0.92 0.91 1.30 1.15 1.05 0.94 0.79 0.89 1.05 1.03 1.61 1.61 1.26 1.19 0.93 0.79 0.68 0.57
0.16 0.20 0.18 0.05 0.02 0.02 0.06 0.01 0.00 0.01 0.01 0.01 0.03 0.02 0.06 0.27 0.51 0.37 0.12 0.13 0.13 0.11 0.14 0.24 0.33 0.39 0.72 0.87 0.86 0.71 0.73 0.85 0.76 0.70 0.75 0.75 0.89 0.63 0.61 0.60 0.65 0.71 0.69 0.64
0.13 0.39 0.40 0.28 0.16 0.27 0.10 0.05 0.03 0.03 0.05 0.02 0.01 0.08 0.16 0.20 0.09 0.05 0.05 0.11 0.27 0.28 0.31 0.25 0.17 0.31 0.56 0.91 1.03 0.90 1.11 0.90 0.60 0.61 0.48 0.34 0.48 0.50 0.37 0.27 0.31 0.37 0.38 0.46
0.08 0.33 0.47 0.42 0.40 0.31 0.16 0.09 0.04 0.03 0.08 0.11 0.16 0.15 0.11 0.18 0.21 0.17 0.13 0.16 0.13 0.14 0.17 0.28 0.27 0.31 0.46 1.05 1.25 1.65 1.34 1.69 1.56 0.67 0.49 0.30 0.15 0.13 0.29 0.34 0.36 0.40 0.34 0.37
0.20 0.32 0.67 0.54 0.79 0.67 0.32 0.13 0.06 0.06 0.22 0.13 0.17 0.28 0.33 0.40 0.36 0.19 0.19 0.18 0.08 0.04 0.06 0.09 0.12 0.21 0.23 0.57 0.76 0.98 1.61 1.15 1.28 1.15 0.65 0.38 0.36 0.36 0.38 0.61 0.64 0.62 0.70 0.60
0.42 0.59 0.61 0.51 0.78 0.70 0.32 0.21 0.28 0.34 0.16 0.11 0.09 0.40 0.70 1.27 1.04 0.55 0.38 0.26 0.06 0.07 0.02 0.02 0.02 0.06 0.13 0.30 0.41 0.61 0.59 0.68 0.92 1.01 1.22 0.84 0.51 0.49 0.48 0.56 0.70 0.83 0.61 0.37
0.78 1.01 1.09 0.67 1.08 1.05 0.31 0.48 0.58 0.37 0.16 0.07 0.07 0.43 0.22 0.34 0.70 0.45 0.24 0.14 0.03 0.02 0.01 0.00 0.01 0.04 0.06 0.15 0.24 0.30 0.43 0.39 0.51 0.96 0.98 1.40 1.10 0.80 0.45 0.34 0.33 0.41 0.39 0.33
0.93 1.00 1.17 0.83 1.17 1.01 0.66 0.79 0.63 0.42 0.47 0.23 0.07 0.16 0.42 0.20 0.19 0.20 0.16 0.05 0.01 0.01 0.00 0.00 0.01 0.01 0.03 0.06 0.06 0.06 0.11 0.31 0.33 0.34 0.57 0.72 0.99 0.49 0.25 0.22 0.18 0.10 0.15 0.22
0.81 0.94 0.89 0.74 0.84 1.01 0.78 0.93 0.87 0.75 0.70 0.43 0.16 0.06 0.12 0.13 0.19 0.13 0.08 0.05 0.03 0.03 0.02 0.02 0.03 0.01 0.01 0.01 0.01 0.00 0.01 0.01 0.08 0.12 0.08 0.15 0.27 0.25 0.25 0.36 0.21 0.16 0.24 0.29
1.03 0.94 0.88 0.86 0.92 1.09 0.93 1.33 1.13 0.86 0.66 0.49 0.37 0.31 0.23 0.28 0.25 0.18 0.13 0.12 0.13 0.16 0.13 0.10 0.13 0.11 0.09 0.04 0.02 0.01 0.01 0.01 0.02 0.13 0.28 0.39 0.42 0.37 0.28 0.41 0.37 0.46 0.66 0.69
1.33 1.36 1.31 1.07 0.94 1.24 1.09 1.33 1.19 1.13 1.02 0.86 0.81 0.78 0.74 0.78 0.87 0.71 0.56 0.52 0.48 0.59 0.67 0.65 0.53 0.48 0.56 0.54 0.38 0.26 0.20 0.21 0.23 0.29 0.28 0.30 0.33 0.48 0.53 0.55 0.56 0.81 0.96 0.91

GFSCGP_prec_precacc_117.txt.gz
Total_Precipitation_Accumulation
0.00 0.00 0.00 0.01 0.00 0.06 0.39 0.71 1.25 1.37 2.18 3.33 2.91 2.14 2.54 1.22 0.83 0.96 0.34 0.17 0.07 0.01 0.01 0.00 0.00 0.00 0.00 0.00 0.00 0.00 0.01 0.06 0.12 0.13 0.06 0.08 0.13 0.06 0.13 0.24 0.36 0.48 0.41 0.42
0.00 0.00 0.00 0.00 0.00 0.01 0.11 0.37 1.38 1.60 1.99 1.92 2.71 2.03 2.02 1.91 0.98 0.73 0.67 0.18 0.08 0.02 0.01 0.00 0.00 0.00 0.01 0.00 0.00 0.00 0.04 0.08 0.06 0.06 0.09 0.11 0.09 0.09 0.16 0.35 0.43 0.22 0.32 0.40
0.00 0.00 0.00 0.00 0.00 0.06 0.13 0.14 0.88 1.92 1.80 1.86 1.68 2.24 1.73 1.84 1.74 0.93 0.90 0.34 0.25 0.04 0.04 0.00 0.00 0.00 0.02 0.01 0.00 0.00 0.02 0.09 0.05 0.12 0.13 0.40 0.39 0.51 0.61 0.44 0.27 0.15 0.22 0.24
0.00 0.00 0.00 0.00 0.00 0.03 0.16 0.16 0.41 1.15 1.40 1.42 1.34 1.41 1.53 1.24 1.58 1.91 1.26 0.40 0.19 0.09 0.06 0.04 0.00 0.01 0.01 0.01 0.00 0.00 0.01 0.10 0.08 0.10 0.11 0.32 0.50 0.57 0.42 0.33 0.48 0.27 0.12 0.14
0.00 0.00 0.00 0.00 0.00 0.02 0.04 0.07 0.24 0.63 0.94 0.90 0.79 0.76 0.72 1.12 1.22 1.71 1.32 0.39 0.25 0.21 0.09 0.08 0.02 0.03 0.04 0.00 0.00 0.00 0.00 0.03 0.05 0.07 0.25 0.25 0.18 0.38 0.38 0.34 0.94 0.44 0.22 0.11
0.00 0.00 0.00 0.00 0.00 0.01 0.02 0.06 0.08 0.28 0.90 0.56 0.25 0.35 0.35 0.69 0.80 1.03 0.82 0.62 0.35 0.13 0.13 0.13 0.06 0.05 0.04 0.01 0.00 0.00 0.00 0.00 0.02 0.02 0.07 0.23 0.39 0.53 0.82 0.99 0.82 0.35 0.20 0.16
0.00 0.00 0.00 0.00 0.02 0.04 0.01 0.02 0.15 0.22 0.48 0.43 0.12 0.15 0.30 0.11 0.60 0.74 0.62 0.56 0.40 0.24 0.23 0.13 0.08 0.09 0.09 0.02 0.00 0.00 0.00 0.00 0.00 0.00 0.01 0.07 0.22 0.42 0.68 0.84 0.40 0.35 0.52 0.56
0.00 0.00 0.00 0.00 0.00 0.01 0.01 0.01 0.02 0.05 0.11 0.21 0.19 0.35 0.14 0.04 0.14 0.25 0.23 0.21 0.53 0.36 0.34 0.38 0.25 0.23 0.30 0.16 0.02 0.06 0.02 0.02 0.00 0.02 0.03 0.05 0.12 0.12 0.25 0.39 0.57 0.56 0.64 0.74
0.00 0.00 0.00 0.00 0.00 0.00 0.02 0.01 0.03 0.04 0.06 0.10 0.28 0.45 0.15 0.12 0.17 0.07 0.14 0.19 0.34 0.63 0.72 0.50 0.26 0.41 0.81 0.52 0.27 0.07 0.08 0.07 0.06 0.03 0.04 0.11 0.14 0.09 0.13 0.36 0.42 0.45 0.57 0.77
0.00 0.00 0.00 0.00 0.00 0.00 0.00 0.04 0.06 0.06 0.07 0.07 0.26 0.77 0.42 0.14 0.12 0.14 0.13 0.17 0.16 0.64 1.56 1.72 1.25 0.65 0.82 1.27 1.11 0.72 0.23 0.15 0.22 0.08 0.12 0.25 0.16 0.15 0.20 0.20 0.29 0.54 0.62 1.76
0.00 0.01 0.00 0.00 0.00 0.00 0.00 0.02 0.05 0.03 0.02 0.02 0.12 0.25 0.18 0.18 0.13 0.07 0.07 0.18 0.19 0.38 1.32 2.61 2.55 2.13 1.16 1.54 1.05 1.76 0.98 0.76 0.69 0.57 0.50 0.62 0.33 0.15 0.17 0.19 0.24 0.31 0.42 0.62
0.03 0.05 0.01 0.00 0.00 0.00 0.00 0.00 0.00 0.00 0.00 0.00 0.02 0.15 0.24 0.38 0.19 0.09 0.10 0.17 0.20 0.40 0.74 1.44 2.02 2.15 1.82 1.58 1.15 1.35 2.07 1.50 1.29 1.20 1.35 0.93 0.94 0.77 0.46 0.27 0.25 0.25 0.23 0.31
0.11 0.09 0.03 0.00 0.00 0.00 0.00 0.00 0.00 0.00 0.00 0.00 0.01 0.03 0.02 0.22 0.21 0.05 0.04 0.12 0.12 0.31 0.37 0.60 1.12 1.64 1.95 1.81 1.42 1.52 2.03 3.02 1.85 1.84 1.79 1.48 1.10 1.01 0.95 0.75 0.78 0.43 0.24 0.39
0.26 0.11 0.03 0.01 0.01 0.00 0.00 0.00 0.00 0.00 0.00 0.00 0.01 0.01 0.01 0.00 0.01 0.13 0.24 0.24 0.26 0.40 0.59 0.74 0.72 1.03 1.51 1.65 1.35 1.51 1.96 2.14 2.53 2.13 2.11 1.52 1.16 0.90 0.85 0.72 0.70 0.51 0.47 0.49
0.18 0.08 0.01 0.00 0.01 0.01 0.02 0.00 0.00 0.00 0.00 0.00 0.03 0.01 0.02 0.04 0.06 0.11 0.28 0.31 0.34 0.38 0.43 0.57 0.78 0.91 1.13 1.49 1.37 1.30 1.17 1.25 1.30 1.33 1.68 2.06 2.05 1.31 1.11 0.95 1.05 0.82 0.59 0.50
0.09 0.07 0.04 0.02 0.01 0.00 0.01 0.01 0.00 0.02 0.01 0.00 0.00 0.03 0.25 0.41 0.64 0.23 0.05 0.03 0.10 0.16 0.23 0.29 0.58 0.63 0.98 0.98 1.34 1.23 1.18 1.11 0.87 0.91 1.17 1.22 1.72 1.63 1.27 1.19 0.94 0.80 0.69 0.59
0.16 0.20 0.18 0.05 0.02 0.03 0.06 0.01 0.00 0.02 0.01 0.02 0.03 0.02 0.08 0.30 0.51 0.37 0.12 0.13 0.13 0.11 0.15 0.25 0.37 0.46 0.83 0.97 0.97 0.89 0.88 0.88 0.80 0.75 0.83 0.82 0.93 0.66 0.63 0.62 0.67 0.74 0.73 0.69
0.13 0.39 0.41 0.28 0.16 0.28 0.10 0.05 0.03 0.03 0.05 0.02 0.01 0.10 0.23 0.24 0.16 0.08 0.06 0.11 0.27 0.28 0.32 0.29 0.23 0.41 0.69 0.95 1.06 0.95 1.20 0.96 0.67 0.71 0.61 0.43 0.59 0.64 0.48 0.33 0.33 0.40 0.44 0.52
0.08 0.33 0.47 0.44 0.43 0.32 0.16 0.09 0.04 0.03 0.08 0.11 0.16 0.20 0.17 0.31 0.37 0.27 0.19 0.20 0.14 0.14 0.18 0.31 0.37 0.37 0.52 1.09 1.30 1.69 1.38 1.75 1.62 0.81 0.67 0.42 0.25 0.20 0.36 0.41 0.48 0.53 0.43 0.42
0.20 0.32 0.67 0.54 0.80 0.68 0.32 0.13 0.06 0.06 0.22 0.13 0.17 0.39 0.46 0.46 0.39 0.21 0.23 0.22 0.12 0.05 0.09 0.11 0.12 0.23 0.24 0.64 0.88 1.08 1.66 1.19 1.33 1.24 0.84 0.74 0.67 0.46 0.42 0.69 0.76 0.85 0.99 0.78
0.42 0.59 0.61 0.51 0.78 0.70 0.32 0.21 0.28 0.34 0.16 0.11 0.09 0.56 0.87 1.39 1.06 0.57 0.42 0.27 0.07 0.07 0.02 0.02 0.03 0.07 0.15 0.38 0.48 0.67 0.66 0.70 1.00 1.12 1.30 0.92 0.77 0.71 0.67 0.82 1.01 1.21 1.13 0.79
0.78 1.01 1.10 0.67 1.08 1.05 0.31 0.48 0.58 0.37 0.16 0.07 0.10 0.59 0.43 0.48 0.75 0.52 0.25 0.14 0.03 0.02 0.01 0.00 0.01 0.04 0.07 0.17 0.26 0.33 0.51 0.42 0.59 1.16 1.28 1.59 1.22 1.23 1.17 1.21 1.17 0.88 0.89 0.65
0.93 1.00 1.17 0.83 1.17 1.01 0.66 0.79 0.63 0.43 0.47 0.23 0.10 0.24 0.54 0.28 0.26 0.23 0.16 0.05 0.01 0.01 0.00 0.00 0.01 0.01 0.03 0.10 0.11 0.10 0.13 0.33 0.39 0.41 0.62 0.82 1.27 0.98 1.01 0.91 0.73 0.51 0.41 0.31
0.81 0.94 0.89 0.74 0.84 1.01 0.78 0.94 0.88 0.75 0.70 0.43 0.17 0.07 0.13 0.14 0.19 0.13 0.08 0.05 0.03 0.03 0.02 0.02 0.03 0.01 0.01 0.02 0.01 0.02 0.02 0.02 0.10 0.15 0.10 0.17 0.36 0.35 0.41 0.52 0.36 0.31 0.43 0.41
1.03 0.94 0.88 0.86 0.92 1.09 0.96 1.37 1.13 0.86 0.66 0.49 0.38 0.31 0.23 0.28 0.25 0.18 0.13 0.12 0.13 0.16 0.13 0.10 0.13 0.11 0.09 0.04 0.02 0.01 0.01 0.01 0.02 0.13 0.28 0.39 0.43 0.39 0.33 0.47 0.43 0.50 0.72 0.74
1.33 1.36 1.31 1.07 0.94 1.24 1.09 1.33 1.19 1.13 1.02 0.86 0.81 0.78 0.75 0.78 0.87 0.71 0.56 0.52 0.48 0.59 0.67 0.65 0.53 0.48 0.56 0.54 0.38 0.26 0.20 0.21 0.23 0.29 0.28 0.30 0.33 0.48 0.53 0.55 0.56 0.81 0.96 0.91

GFSCGP_prec_precacc_120.txt.gz
Total_Precipitation_Accumulation
0.00 0.00 0.00 0.01 0.00 0.06 0.39 0.71 1.25 1.37 2.18 3.33 2.91 2.16 2.56 1.25 0.86 0.97 0.34 0.17 0.07 0.01 0.01 0.00 0.00 0.00 0.00 0.00 0.00 0.00 0.01 0.07 0.12 0.13 0.06 0.08 0.17 0.07 0.13 0.24 0.36 0.48 0.41 0.42
0.00 0.00 0.00 0.00 0.00 0.01 0.11 0.37 1.39 1.61 1.99 1.92 2.71 2.03 2.02 1.93 0.99 0.73 0.67 0.19 0.08 0.02 0.01 0.00 0.00 0.00 0.01 0.00 0.00 0.00 0.04 0.11 0.09 0.06 0.12 0.12 0.10 0.09 0.16 0.35 0.43 0.22 0.32 0.40
0.00 0.00 0.00 0.00 0.00 0.06 0.13 0.14 0.88 1.93 1.81 1.86 1.68 2.24 1.73 1.85 1.75 0.93 0.91 0.35 0.25 0.04 0.04 0.00 0.00 0.00 0.02 0.01 0.00 0.00 0.02 0.12 0.14 0.14 0.14 0.44 0.46 0.59 0.65 0.46 0.27 0.15 0.22 0.24
0.00 0.00 0.00 0.00 0.00 0.03 0.16 0.16 0.41 1.18 1.43 1.43 1.34 1.41 1.53 1.24 1.60 1.92 1.26 0.40 0.19 0.09 0.06 0.04 0.00 0.01 0.01 0.01 0.00 0.00 0.01 0.14 0.12 0.10 0.14 0.43 0.56 0.59 0.47 0.38 0.54 0.34 0.13 0.14
0.00 0.00 0.00 0.00 0.00 0.02 0.04 0.07 0.25 0.66 0.97 0.92 0.80 0.76 0.72 1.12 1.22 1.71 1.32 0.39 0.25 0.21 0.09 0.08 0.02 0.03 0.04 0.00 0.00 0.00 0.00 0.10 0.08 0.08 0.36 0.28 0.19 0.41 0.41 0.38 0.95 0.49 0.28 0.12
0.00 0.00 0.00 0.00 0.00 0.01 0.02 0.06 0.09 0.31 0.96 0.58 0.25 0.35 0.35 0.69 0.80 1.03 0.82 0.62 0.35 0.13 0.13 0.13 0.06 0.05 0.04 0.01 0.00 0.00 0.00 0.01 0.03 0.05 0.14 0.29 0.41 0.57 0.89 1.07 0.86 0.39 0.22 0.16
0.00 0.00 0.00 0.00 0.02 0.04 0.01 0.02 0.16 0.23 0.49 0.43 0.12 0.16 0.30 0.11 0.60 0.74 0.62 0.56 0.40 0.24 0.23 0.13 0.08 0.09 0.09 0.02 0.00 0.00 0.00 0.00 0.00 0.04 0.06 0.12 0.26 0.45 0.74 0.89 0.47 0.43 0.57 0.59
0.00 0.00 0.00 0.00 0.00 0.01 0.01 0.01 0.02 0.05 0.11 0.23 0.20 0.36 0.14 0.04 0.14 0.25 0.23 0.21 0.53 0.36 0.34 0.38 0.25 0.23 0.30 0.16 0.02 0.06 0.02 0.02 0.00 0.02 0.03 0.07 0.16 0.18 0.30 0.44 0.68 0.67 0.73 0.80
0.00 0.00 0.00 0.00 0.00 0.00 0.02 0.01 0.03 0.04 0.07 0.12 0.29 0.45 0.15 0.12 0.17 0.07 0.14 0.19 0.34 0.63 0.72 0.50 0.26 0.41 0.81 0.52 0.27 0.07 0.08 0.07 0.06 0.03 0.04 0.11 0.16 0.12 0.14 0.37 0.53 0.51 0.65 0.82
0.00 0.00 0.00 0.00 0.00 0.00 0.00 0.04 0.07 0.06 0.08 0.08 0.26 0.77 0.42 0.14 0.12 0.14 0.13 0.17 0.16 0.64 1.56 1.72 1.25 0.65 0.82 1.27 1.11 0.72 0.23 0.15 0.22 0.08 0.12 0.25 0.16 0.15 0.20 0.20 0.34 0.55 0.63 1.80
0.00 0.01 0.00 0.00 0.00 0.00 0.00 0.02 0.05 0.04 0.02 0.02 0.13 0.26 0.18 0.18 0.13 0.07 0.07 0.18 0.19 0.38 1.32 2.61 2.55 2.13 1.16 1.54 1.05 1.76 0.98 0.76 0.69 0.57 0.50 0.62 0.33 0.15 0.17 0.19 0.27 0.40 0.48 0.63
0.03 0.05 0.01 0.00 0.00 0.00 0.00 0.00 0.00 0.02 0.00 0.00 0.02 0.16 0.24 0.38 0.19 0.09 0.10 0.17 0.20 0.40 0.74 1.44 2.02 2.15 1.82 1.58 1.15 1.35 2.07 1.50 1.29 1.20 1.35 0.93 0.94 0.77 0.46 0.32 0.28 0.31 0.30 0.39
0.11 0.09 0.03 0.00 0.00 0.00 0.00 0.00 0.00 0.00 0.01 0.04 0.01 0.03 0.02 0.22 0.21 0.05 0.04 0.12 0.12 0.31 0.38 0.62 1.12 1.65 1.95 1.81 1.42 1.52 2.03 3.02 1.85 1.84 1.79 1.48 1.10 1.01 0.95 0.75 0.78 0.44 0.24 0.40
0.26 0.11 0.03 0.01 0.01 0.00 0.00 0.00 0.00 0.00 0.00 0.00 0.01 0.01 0.01 0.00 0.01 0.13 0.24 0.24 0.26 0.40 0.59 0.75 0.74 1.03 1.52 1.65 1.35 1.51 1.96 2.14 2.53 2.13 2.11 1.52 1.16 0.91 0.85 0.72 0.70 0.51 0.47 0.49
0.18 0.08 0.01 0.00 0.01 0.01 0.02 0.00 0.00 0.00 0.00 0.00 0.03 0.01 0.02 0.04 0.06 0.11 0.28 0.31 0.34 0.38 0.43 0.59 0.80 0.92 1.14 1.51 1.39 1.30 1.17 1.25 1.30 1.33 1.68 2.06 2.10 1.39 1.20 1.00 1.07 0.83 0.59 0.51
0.09 0.07 0.04 0.02 0.01 0.00 0.01 0.01 0.00 0.02 0.01 0.00 0.00 0.03 0.25 0.41 0.65 0.23 0.05 0.03 0.10 0.16 0.23 0.33 0.69 0.70 1.01 1.00 1.37 1.28 1.20 1.11 0.88 0.93 1.21 1.34 1.88 1.77 1.38 1.25 1.01 0.84 0.70 0.59
0.16 0.20 0.18 0.05 0.02 0.03 0.06 0.01 0.00 0.02 0.01 0.02 0.04 0.02 0.08 0.31 0.52 0.37 0.12 0.13 0.13 0.12 0.15 0.26 0.41 0.49 0.89 1.04 1.05 0.96 0.91 0.89 0.82 0.81 0.88 0.88 1.03 0.75 0.73 0.71 0.77 0.82 0.78 0.70
0.13 0.39 0.41 0.29 0.20 0.33 0.10 0.05 0.03 0.03 0.05 0.02 0.01 0.10 0.23 0.27 0.18 0.08 0.07 0.13 0.30 0.29 0.33 0.31 0.25 0.45 0.85 1.15 1.31 1.08 1.26 1.02 0.70 0.74 0.69 0.54 0.68 0.75 0.62 0.44 0.41 0.46 0.47 0.53
0.08 0.33 0.48 0.46 0.49 0.34 0.16 0.09 0.04 0.03 0.08 0.11 0.16 0.21 0.20 0.36 0.41 0.33 0.35 0.34 0.20 0.20 0.32 0.46 0.47 0.44 0.60 1.30 1.56 1.93 1.52 1.86 1.69 0.85 0.69 0.47 0.35 0.36 0.53 0.57 0.64 0.67 0.51 0.50
0.20 0.32 0.67 0.57 0.86 0.70 0.32 0.13 0.06 0.06 0.22 0.13 0.17 0.40 0.49 0.46 0.46 0.23 0.30 0.29 0.18 0.12 0.19 0.26 0.17 0.24 0.35 0.83 0.97 1.11 1.74 1.28 1.39 1.30 0.93 0.81 0.84 0.68 0.70 1.15 1.14 1.17 1.25 0.91
0.42 0.59 0.62 0.53 0.81 0.70 0.32 0.21 0.28 0.35 0.17 0.11 0.09 0.56 0.89 1.42 1.09 0.61 0.45 0.28 0.07 0.07 0.02 0.03 0.04 0.08 0.15 0.45 0.57 0.68 0.71 0.77 1.05 1.23 1.38 0.99 0.92 1.13 1.08 1.06 1.21 1.44 1.37 1.14
0.78 1.02 1.11 0.69 1.12 1.06 0.31 0.48 0.60 0.38 0.16 0.08 0.10 0.61 0.57 0.62 0.77 0.55 0.26 0.14 0.03 0.02 0.01 0.01 0.01 0.04 0.08 0.19 0.36 0.36 0.57 0.51 0.62 1.20 1.36 1.80 1.40 1.38 1.48 1.53 1.50 1.43 1.41 1.35
0.94 1.01 1.19 0.84 1.18 1.01 0.66 0.79 0.63 0.43 0.52 0.27 0.11 0.29 0.60 0.40 0.32 0.25 0.17 0.05 0.01 0.01 0.00 0.00 0.01 0.01 0.04 0.12 0.13 0.13 0.20 0.43 0.44 0.50 0.71 0.95 1.38 1.00 1.04 1.03 0.95 0.79 0.70 0.63
0.81 0.94 0.89 0.74 0.84 1.01 0.78 0.94 0.88 0.76 0.70 0.43 0.18 0.08 0.14 0.16 0.21 0.15 0.08 0.05 0.04 0.03 0.02 0.02 0.03 0.01 0.01 0.02 0.03 0.07 0.06 0.03 0.11 0.17 0.11 0.19 0.38 0.35 0.41 0.54 0.45 0.51 0.67 0.77
1.03 0.94 0.88 0.86 0.92 1.10 0.96 1.37 1.14 0.86 0.66 0.49 0.38 0.31 0.23 0.28 0.25 0.18 0.13 0.13 0.13 0.16 0.13 0.10 0.13 0.11 0.09 0.04 0.02 0.01 0.01 0.01 0.02 0.13 0.28 0.39 0.43 0.39 0.33 0.48 0.49 0.60 0.83 0.89
1.33 1.36 1.31 1.07 0.94 1.24 1.09 1.33 1.19 1.13 1.02 0.86 0.81 0.78 0.75 0.78 0.87 0.71 0.56 0.52 0.48 0.59 0.67 0.65 0.53 0.48 0.56 0.54 0.38 0.26 0.20 0.21 0.23 0.29 0.28 0.30 0.33 0.48 0.53 0.55 0.56 0.82 0.99 0.94

GFSCGP_prec_precacc_123.txt.gz
Total_Precipitation_Accumulation
0.00 0.00 0.00 0.01 0.00 0.06 0.39 0.71 1.25 1.37 2.18 3.34 2.92 2.20 2.56 1.25 0.88 0.99 0.37 0.17 0.07 0.01 0.01 0.00 0.00 0.00 0.00 0.00 0.00 0.00 0.01 0.07 0.12 0.13 0.06 0.08 0.17 0.07 0.13 0.24 0.36 0.48 0.41 0.42
0.00 0.00 0.00 0.00 0.00 0.01 0.11 0.37 1.39 1.61 1.99 1.92 2.71 2.03 2.02 1.93 0.99 0.73 0.70 0.19 0.08 0.02 0.01 0.00 0.00 0.00 0.01 0.00 0.00 0.00 0.04 0.12 0.13 0.07 0.12 0.12 0.10 0.09 0.16 0.35 0.43 0.22 0.32 0.40
0.00 0.00 0.00 0.00 0.00 0.06 0.13 0.14 0.88 1.93 1.82 1.86 1.68 2.24 1.73 1.85 1.75 0.93 0.91 0.38 0.25 0.04 0.04 0.00 0.00 0.00 0.02 0.01 0.00 0.00 0.02 0.12 0.15 0.16 0.15 0.45 0.50 0.59 0.65 0.46 0.27 0.15 0.22 0.24
0.00 0.00 0.00 0.00 0.00 0.03 0.16 0.16 0.41 1.18 1.43 1.45 1.34 1.41 1.53 1.24 1.60 1.92 1.26 0.42 0.20 0.09 0.06 0.04 0.00 0.01 0.01 0.01 0.00 0.00 0.01 0.15 0.12 0.11 0.17 0.45 0.58 0.59 0.48 0.38 0.54 0.34 0.13 0.14
0.00 0.00 0.00 0.00 0.00 0.02 0.04 0.07 0.25 0.66 0.97 0.92 0.80 0.76 0.72 1.12 1.22 1.71 1.32 0.39 0.26 0.21 0.09 0.08 0.02 0.03 0.04 0.00 0.00 0.00 0.00 0.11 0.09 0.12 0.48 0.28 0.19 0.41 0.41 0.38 0.96 0.49 0.28 0.12
0.00 0.00 0.00 0.00 0.00 0.01 0.02 0.06 0.09 0.31 0.96 0.58 0.25 0.35 0.35 0.70 0.80 1.03 0.82 0.62 0.35 0.13 0.13 0.13 0.06 0.05 0.04 0.01 0.00 0.00 0.00 0.01 0.04 0.14 0.15 0.30 0.42 0.58 0.93 1.08 0.87 0.39 0.22 0.16
0.00 0.00 0.00 0.00 0.02 0.04 0.01 0.02 0.16 0.23 0.49 0.43 0.12 0.16 0.30 0.13 0.61 0.74 0.62 0.56 0.40 0.24 0.23 0.13 0.08 0.09 0.09 0.02 0.00 0.00 0.00 0.00 0.00 0.07 0.07 0.12 0.26 0.45 0.76 0.90 0.47 0.43 0.57 0.59
0.00 0.00 0.00 0.00 0.00 0.01 0.01 0.01 0.02 0.05 0.11 0.23 0.20 0.36 0.14 0.05 0.14 0.25 0.23 0.21 0.53 0.36 0.34 0.38 0.25 0.23 0.30 0.16 0.02 0.06 0.02 0.02 0.00 0.02 0.03 0.07 0.16 0.18 0.30 0.44 0.69 0.67 0.73 0.80
0.00 0.00 0.00 0.00 0.00 0.00 0.02 0.01 0.03 0.04 0.07 0.12 0.29 0.45 0.15 0.13 0.18 0.07 0.14 0.19 0.34 0.63 0.72 0.50 0.26 0.41 0.81 0.52 0.27 0.07 0.08 0.07 0.06 0.03 0.04 0.11 0.16 0.12 0.14 0.40 0.58 0.51 0.66 0.83
0.00 0.00 0.00 0.00 0.00 0.00 0.00 0.06 0.07 0.06 0.08 0.08 0.26 0.77 0.42 0.15 0.12 0.14 0.13 0.17 0.16 0.64 1.56 1.73 1.25 0.65 0.82 1.27 1.11 0.72 0.23 0.15 0.22 0.08 0.12 0.25 0.16 0.15 0.20 0.23 0.39 0.55 0.70 1.86
0.00 0.01 0.00 0.00 0.00 0.00 0.00 0.02 0.05 0.04 0.03 0.03 0.14 0.27 0.24 0.19 0.13 0.08 0.09 0.18 0.19 0.38 1.32 2.61 2.56 2.13 1.16 1.54 1.05 1.76 0.98 0.76 0.69 0.57 0.50 0.62 0.33 0.15 0.17 0.20 0.31 0.46 0.55 0.71
0.03 0.05 0.01 0.00 0.00 0.00 0.00 0.00 0.00 0.02 0.01 0.02 0.03 0.18 0.26 0.38 0.19 0.09 0.11 0.17 0.20 0.40 0.75 1.45 2.02 2.16 1.82 1.58 1.15 1.35 2.07 1.50 1.29 1.20 1.35 0.93 0.94 0.77 0.46 0.32 0.29 0.38 0.36 0.47
0.11 0.09 0.03 0.00 0.00 0.00 0.00 0.00 0.00 0.00 0.02 0.06 0.03 0.04 0.09 0.22 0.21 0.05 0.04 0.12 0.12 0.32 0.39 0.62 1.13 1.66 1.95 1.81 1.42 1.52 2.03 3.02 1.85 1.84 1.79 1.48 1.10 1.01 0.95 0.75 0.78 0.46 0.28 0.44
0.26 0.11 0.03 0.01 0.01 0.01 0.03 0.02 0.00 0.00 0.00 0.00 0.01 0.01 0.04 0.02 0.01 0.13 0.24 0.24 0.26 0.46 0.66 0.78 0.75 1.04 1.52 1.66 1.36 1.51 1.96 2.14 2.53 2.13 2.11 1.52 1.16 0.91 0.85 0.72 0.70 0.52 0.47 0.51
0.18 0.08 0.01 0.00 0.01 0.01 0.03 0.12 0.15 0.03 0.00 0.00 0.03 0.02 0.04 0.19 0.06 0.11 0.28 0.31 0.35 0.39 0.46 0.64 0.83 0.94 1.15 1.52 1.39 1.31 1.17 1.25 1.30 1.34 1.68 2.06 2.10 1.41 1.24 1.04 1.11 0.87 0.61 0.51
0.09 0.07 0.04 0.02 0.01 0.00 0.01 0.01 0.01 0.04 0.01 0.00 0.01 0.03 0.25 0.43 0.65 0.23 0.05 0.03 0.10 0.17 0.23 0.35 0.77 0.73 1.02 1.00 1.38 1.30 1.24 1.19 0.96 0.99 1.25 1.37 1.93 1.83 1.43 1.30 1.09 0.92 0.75 0.63
0.16 0.20 0.18 0.05 0.02 0.03 0.06 0.01 0.00 0.02 0.03 0.04 0.05 0.03 0.14 0.37 0.53 0.39 0.13 0.16 0.25 0.17 0.16 0.31 0.60 0.63 0.96 1.06 1.08 1.02 1.01 1.04 0.92 0.88 0.90 0.90 1.09 0.80 0.76 0.75 0.89 0.97 0.91 0.81
0.13 0.39 0.41 0.29 0.20 0.37 0.16 0.06 0.04 0.03 0.05 0.04 0.04 0.10 0.23 0.27 0.19 0.10 0.09 0.20 0.45 0.41 0.40 0.44 0.50 0.64 0.99 1.32 1.40 1.19 1.35 1.14 0.80 0.79 0.72 0.58 0.72 0.83 0.73 0.55 0.51 0.54 0.50 0.58
0.08 0.33 0.48 0.46 0.50 0.34 0.16 0.09 0.05 0.03 0.08 0.11 0.17 0.21 0.20 0.37 0.42 0.37 0.38 0.38 0.34 0.43 0.66 0.73 0.57 0.57 0.70 1.55 1.77 2.16 1.80 2.03 1.86 0.96 0.72 0.48 0.39 0.40 0.60 0.66 0.75 0.74 0.57 0.56
0.20 0.32 0.67 0.57 0.92 0.74 0.36 0.25 0.17 0.09 0.22 0.13 0.17 0.40 0.49 0.47 0.55 0.31 0.31 0.33 0.28 0.30 0.40 0.38 0.23 0.30 0.42 0.87 1.11 1.42 2.04 1.63 1.65 1.52 1.03 0.85 0.89 0.74 0.75 1.25 1.45 1.46 1.57 1.21
0.42 0.59 0.62 0.53 0.84 0.71 0.33 0.23 0.28 0.40 0.24 0.12 0.09 0.57 0.94 1.56 1.24 0.72 0.47 0.28 0.09 0.10 0.16 0.19 0.07 0.21 0.25 0.51 0.66 0.85 0.88 0.90 1.23 1.40 1.53 1.11 1.01 1.21 1.22 1.36 1.59 1.80 1.82 1.65
0.78 1.02 1.11 0.69 1.17 1.11 0.31 0.48 0.61 0.41 0.18 0.12 0.16 0.74 0.67 0.64 0.77 0.55 0.26 0.15 0.03 0.03 0.06 0.07 0.07 0.12 0.20 0.28 0.39 0.45 0.76 0.80 0.78 1.41 1.46 1.92 1.52 1.46 1.53 1.60 1.68 1.71 1.71 1.57
0.94 1.01 1.20 0.85 1.21 1.02 0.66 0.79 0.63 0.43 0.52 0.27 0.15 0.32 0.62 0.40 0.32 0.25 0.17 0.06 0.01 0.01 0.00 0.01 0.03 0.03 0.08 0.16 0.20 0.22 0.28 0.56 0.55 0.63 0.86 1.16 1.74 1.18 1.08 1.04 0.98 0.90 0.84 0.70
0.81 0.94 0.89 0.75 0.85 1.01 0.78 0.94 0.88 0.76 0.71 0.43 0.18 0.09 0.14 0.16 0.21 0.15 0.08 0.06 0.04 0.03 0.02 0.02 0.03 0.01 0.01 0.04 0.08 0.12 0.11 0.12 0.19 0.24 0.23 0.28 0.46 0.41 0.42 0.54 0.45 0.51 0.70 0.83
1.04 0.94 0.88 0.86 0.92 1.11 0.96 1.37 1.14 0.86 0.67 0.50 0.38 0.32 0.23 0.28 0.25 0.18 0.13 0.13 0.13 0.16 0.13 0.10 0.13 0.11 0.09 0.04 0.03 0.02 0.02 0.02 0.03 0.14 0.28 0.39 0.44 0.40 0.33 0.48 0.49 0.60 0.83 0.91
1.33 1.36 1.31 1.07 0.94 1.28 1.11 1.33 1.19 1.14 1.05 0.86 0.81 0.78 0.75 0.78 0.87 0.71 0.56 0.52 0.48 0.59 0.67 0.65 0.53 0.48 0.56 0.54 0.38 0.26 0.20 0.21 0.23 0.29 0.28 0.30 0.33 0.48 0.53 0.55 0.56 0.82 1.00 0.95

GFSCGP_prec_precacc_126.txt.gz
Total_Precipitation_Accumulation
0.00 0.00 0.00 0.01 0.00 0.06 0.39 0.71 1.25 1.37 2.18 3.35 2.92 2.21 2.57 1.25 0.88 1.09 0.53 0.17 0.07 0.01 0.01 0.00 0.00 0.00 0.00 0.00 0.00 0.00 0.01 0.08 0.13 0.14 0.07 0.09 0.17 0.07 0.13 0.26 0.36 0.48 0.41 0.42
0.00 0.00 0.00 0.00 0.00 0.01 0.11 0.37 1.39 1.61 1.99 1.92 2.71 2.03 2.02 1.93 0.99 0.74 0.75 0.27 0.10 0.02 0.01 0.00 0.00 0.00 0.01 0.00 0.00 0.00 0.06 0.14 0.13 0.07 0.13 0.14 0.11 0.10 0.17 0.35 0.43 0.22 0.32 0.40
0.00 0.00 0.00 0.00 0.00 0.06 0.13 0.14 0.88 1.93 1.82 1.86 1.68 2.24 1.73 1.85 1.75 0.93 0.92 0.51 0.29 0.04 0.04 0.00 0.00 0.00 0.02 0.01 0.00 0.00 0.05 0.15 0.15 0.17 0.16 0.46 0.53 0.61 0.71 0.48 0.27 0.15 0.22 0.24
0.00 0.00 0.00 0.00 0.00 0.03 0.16 0.16 0.41 1.18 1.43 1.45 1.35 1.42 1.53 1.24 1.60 1.92 1.26 0.43 0.22 0.09 0.06 0.04 0.00 0.01 0.01 0.01 0.00 0.00 0.02 0.17 0.14 0.13 0.20 0.48 0.59 0.60 0.49 0.39 0.54 0.34 0.13 0.14
0.00 0.00 0.00 0.00 0.00 0.02 0.04 0.07 0.25 0.66 0.97 0.92 0.80 0.76 0.72 1.12 1.22 1.71 1.32 0.39 0.28 0.21 0.09 0.08 0.02 0.03 0.04 0.00 0.00 0.00 0.00 0.15 0.14 0.22 0.53 0.30 0.19 0.42 0.43 0.41 0.98 0.50 0.28 0.12
0.00 0.00 0.00 0.00 0.00 0.01 0.02 0.06 0.09 0.31 0.96 0.58 0.25 0.35 0.35 0.70 0.81 1.06 0.84 0.62 0.36 0.13 0.14 0.13 0.06 0.05 0.04 0.01 0.00 0.00 0.00 0.04 0.11 0.18 0.18 0.31 0.43 0.60 0.99 1.13 0.93 0.39 0.22 0.16
0.00 0.00 0.00 0.00 0.02 0.04 0.01 0.02 0.16 0.23 0.49 0.43 0.12 0.16 0.30 0.13 0.65 0.76 0.64 0.56 0.40 0.25 0.23 0.13 0.09 0.09 0.09 0.02 0.00 0.00 0.00 0.01 0.04 0.11 0.08 0.17 0.28 0.48 0.79 0.92 0.47 0.44 0.57 0.59
0.00 0.00 0.00 0.00 0.00 0.01 0.01 0.01 0.02 0.05 0.11 0.23 0.20 0.36 0.14 0.05 0.15 0.25 0.26 0.22 0.53 0.36 0.34 0.38 0.25 0.23 0.30 0.16 0.02 0.06 0.02 0.02 0.01 0.08 0.07 0.12 0.21 0.20 0.31 0.44 0.69 0.67 0.73 0.80
0.00 0.00 0.00 0.00 0.00 0.00 0.02 0.01 0.03 0.04 0.07 0.12 0.29 0.45 0.15 0.14 0.22 0.08 0.14 0.19 0.34 0.63 0.73 0.51 0.26 0.41 0.81 0.52 0.27 0.07 0.08 0.07 0.06 0.04 0.07 0.16 0.20 0.15 0.15 0.41 0.59 0.51 0.66 0.83
0.00 0.00 0.00 0.00 0.00 0.00 0.00 0.06 0.07 0.06 0.08 0.08 0.26 0.77 0.43 0.15 0.12 0.15 0.14 0.17 0.16 0.64 1.56 1.74 1.26 0.65 0.82 1.27 1.11 0.72 0.23 0.15 0.22 0.08 0.12 0.25 0.16 0.16 0.22 0.28 0.44 0.57 0.73 1.87
0.00 0.01 0.00 0.00 0.00 0.00 0.00 0.02 0.05 0.04 0.03 0.03 0.14 0.29 0.27 0.26 0.13 0.08 0.11 0.21 0.20 0.39 1.33 2.63 2.62 2.17 1.20 1.54 1.05 1.76 0.98 0.76 0.69 0.57 0.50 0.62 0.33 0.16 0.17 0.23 0.36 0.52 0.63 0.76
0.03 0.05 0.01 0.00 0.00 0.00 0.00 0.00 0.00 0.02 0.01 0.02 0.03 0.20 0.26 0.38 0.19 0.10 0.27 0.30 0.21 0.44 0.78 1.45 2.12 2.31 1.89 1.63 1.15 1.35 2.07 1.50 1.29 1.20 1.36 0.94 0.94 0.77 0.46 0.32 0.31 0.43 0.53 0.57
0.11 0.09 0.03 0.00 0.00 0.00 0.00 0.00 0.00 0.00 0.02 0.06 0.05 0.06 0.09 0.22 0.21 0.05 0.05 0.22 0.16 0.33 0.40 0.62 1.15 1.77 2.10 1.91 1.47 1.52 2.03 3.02 1.85 1.84 1.79 1.49 1.10 1.01 0.96 0.77 0.80 0.51 0.41 0.52
0.26 0.11 0.03 0.01 0.01 0.01 0.03 0.02 0.00 0.00 0.00 0.00 0.01 0.01 0.04 0.02 0.01 0.13 0.24 0.25 0.26 0.46 0.67 0.79 0.77 1.11 1.74 1.92 1.54 1.52 1.96 2.14 2.53 2.13 2.11 1.53 1.18 0.93 0.85 0.74 0.73 0.57 0.54 0.56
0.18 0.08 0.01 0.00 0.01 0.01 0.03 0.12 0.15 0.03 0.00 0.01 0.03 0.02 0.05 0.20 0.07 0.11 0.28 0.31 0.35 0.39 0.46 0.65 0.84 0.97 1.53 2.08 1.86 1.35 1.18 1.25 1.30 1.34 1.68 2.06 2.10 1.42 1.27 1.07 1.14 0.89 0.62 0.53
0.09 0.07 0.04 0.02 0.01 0.00 0.01 0.01 0.01 0.06 0.03 0.01 0.01 0.05 0.29 0.72 0.91 0.29 0.09 0.04 0.10 0.18 0.23 0.36 0.78 0.74 1.06 1.32 2.42 2.16 1.46 1.40 1.05 1.05 1.30 1.42 1.97 1.87 1.46 1.32 1.12 0.95 0.79 0.69
0.16 0.20 0.18 0.05 0.02 0.03 0.06 0.01 0.00 0.02 0.03 0.04 0.05 0.03 0.17 0.61 1.01 0.45 0.17 0.24 0.30 0.24 0.35 0.46 0.68 0.70 0.98 1.08 1.23 1.51 1.27 1.22 1.16 1.27 1.03 1.00 1.17 0.86 0.81 0.79 0.95 1.02 0.97 0.90
0.13 0.39 0.41 0.29 0.20 0.37 0.16 0.06 0.04 0.03 0.05 0.04 0.05 0.12 0.38 0.38 0.23 0.14 0.13 0.26 0.52 0.64 1.00 1.30 0.70 0.86 1.11 1.39 1.47 1.27 1.42 1.22 0.90 1.13 1.10 0.79 0.86 0.94 0.83 0.62 0.58 0.63 0.61 0.69
0.08 0.33 0.48 0.46 0.50 0.34 0.16 0.09 0.05 0.04 0.08 0.11 0.18 0.33 0.42 0.89 0.57 0.49 0.44 0.41 0.38 0.51 0.89 1.02 0.68 0.75 0.86 1.73 2.03 2.27 1.86 2.10 1.94 1.13 0.98 0.78 0.54 0.47 0.63 0.70 0.83 0.89 0.74 0.65
0.20 0.32 0.67 0.57 0.92 0.75 0.36 0.25 0.18 0.16 0.24 0.13 0.18 0.41 0.51 0.52 0.64 0.47 0.33 0.34 0.28 0.31 0.50 0.55 0.29 0.38 0.46 0.90 1.22 1.79 2.33 1.79 1.83 1.70 1.21 1.11 1.20 0.90 0.80 1.27 1.50 1.55 1.63 1.28
0.42 0.59 0.62 0.53 0.84 0.71 0.33 0.24 0.28 0.43 0.25 0.13 0.16 0.64 1.04 1.70 1.28 0.75 0.47 0.29 0.09 0.10 0.18 0.28 0.16 0.39 0.35 0.52 0.73 0.98 1.06 1.11 1.50 1.76 1.96 1.46 1.28 1.40 1.30 1.39 1.65 1.93 1.92 1.76
0.78 1.02 1.11 0.70 1.20 1.14 0.31 0.48 0.61 0.42 0.19 0.75 0.88 1.31 0.99 0.65 0.77 0.55 0.27 0.16 0.03 0.04 0.08 0.09 0.11 0.27 0.28 0.31 0.54 0.77 0.99 0.97 1.05 1.74 1.73 2.19 1.82 1.70 1.67 1.69 1.73 1.76 1.82 1.72
0.94 1.01 1.21 0.86 1.23 1.02 0.66 0.79 0.63 0.43 0.52 0.47 0.63 0.79 1.02 0.40 0.32 0.25 0.17 0.06 0.02 0.01 0.01 0.03 0.06 0.15 0.17 0.19 0.28 0.39 0.71 0.98 0.82 0.88 1.05 1.48 2.38 1.57 1.24 1.15 1.02 0.93 0.90 0.78
0.81 0.94 0.89 0.75 0.86 1.01 0.78 0.94 0.88 0.76 0.78 0.87 0.29 0.14 0.15 0.16 0.21 0.15 0.08 0.06 0.04 0.03 0.02 0.02 0.04 0.03 0.07 0.12 0.17 0.24 0.21 0.32 0.50 0.60 0.61 0.63 0.91 0.64 0.50 0.56 0.46 0.51 0.70 0.83
1.07 0.96 0.88 0.86 0.92 1.11 0.97 1.38 1.14 0.86 0.67 0.54 0.45 0.33 0.24 0.28 0.25 0.18 0.14 0.13 0.13 0.16 0.13 0.10 0.13 0.11 0.09 0.05 0.04 0.04 0.04 0.08 0.13 0.24 0.35 0.43 0.49 0.47 0.35 0.49 0.49 0.60 0.83 0.91
1.33 1.37 1.31 1.07 0.94 1.35 1.31 1.36 1.19 1.14 1.13 1.22 1.04 0.79 0.76 0.78 0.87 0.71 0.56 0.52 0.48 0.59 0.67 0.65 0.53 0.48 0.56 0.54 0.38 0.26 0.21 0.21 0.24 0.29 0.28 0.30 0.33 0.48 0.53 0.55 0.56 0.82 1.00 0.95

GFSCGP_prec_precacc_129.txt.gz
Total_Precipitation_Accumulation
0.00 0.00 0.00 0.01 0.00 0.06 0.39 0.71 1.25 1.38 2.18 3.35 2.92 2.21 2.58 1.25 0.89 1.14 0.54 0.17 0.07 0.01 0.01 0.00 0.00 0.00 0.00 0.00 0.00 0.00 0.01 0.08 0.13 0.14 0.09 0.11 0.19 0.08 0.15 0.27 0.36 0.48 0.42 0.42
0.00 0.00 0.00 0.00 0.00 0.01 0.11 0.37 1.39 1.61 2.00 1.92 2.71 2.03 2.02 1.93 0.99 0.75 0.75 0.27 0.10 0.03 0.01 0.00 0.00 0.00 0.01 0.00 0.00 0.00 0.07 0.14 0.13 0.08 0.14 0.14 0.12 0.12 0.18 0.38 0.44 0.22 0.32 0.40
0.00 0.00 0.00 0.00 0.00 0.06 0.13 0.14 0.88 1.93 1.82 1.86 1.68 2.24 1.73 1.85 1.77 0.93 0.92 0.51 0.30 0.04 0.04 0.00 0.00 0.00 0.02 0.01 0.00 0.00 0.06 0.16 0.15 0.19 0.17 0.47 0.56 0.63 0.73 0.53 0.28 0.15 0.22 0.24
0.00 0.00 0.00 0.00 0.00 0.03 0.16 0.16 0.41 1.18 1.43 1.45 1.35 1.42 1.53 1.24 1.61 1.93 1.26 0.43 0.22 0.09 0.06 0.04 0.00 0.01 0.01 0.01 0.00 0.00 0.02 0.17 0.16 0.16 0.23 0.50 0.60 0.61 0.49 0.39 0.55 0.34 0.13 0.14
0.00 0.00 0.00 0.00 0.00 0.02 0.04 0.07 0.25 0.66 0.97 0.92 0.80 0.76 0.72 1.12 1.22 1.72 1.34 0.39 0.28 0.21 0.10 0.08 0.02 0.03 0.04 0.00 0.00 0.00 0.00 0.15 0.15 0.22 0.55 0.31 0.20 0.43 0.43 0.42 1.00 0.50 0.28 0.12
0.00 0.00 0.00 0.00 0.00 0.01 0.02 0.06 0.09 0.31 0.96 0.58 0.25 0.35 0.35 0.70 0.81 1.06 0.91 0.63 0.36 0.13 0.15 0.15 0.06 0.05 0.04 0.01 0.00 0.00 0.00 0.04 0.12 0.19 0.18 0.32 0.45 0.60 0.99 1.13 0.94 0.39 0.22 0.16
0.00 0.00 0.00 0.00 0.02 0.04 0.01 0.02 0.16 0.23 0.49 0.43 0.12 0.16 0.30 0.13 0.65 0.76 0.67 0.58 0.40 0.25 0.24 0.18 0.09 0.09 0.09 0.02 0.00 0.00 0.00 0.01 0.04 0.11 0.08 0.17 0.29 0.48 0.80 0.92 0.47 0.44 0.57 0.59
0.00 0.00 0.00 0.00 0.00 0.01 0.01 0.01 0.02 0.05 0.11 0.23 0.20 0.36 0.14 0.05 0.15 0.25 0.27 0.24 0.53 0.37 0.36 0.39 0.26 0.24 0.30 0.16 0.02 0.06 0.02 0.02 0.01 0.08 0.07 0.13 0.22 0.21 0.32 0.45 0.69 0.67 0.73 0.80
0.00 0.00 0.00 0.00 0.00 0.00 0.02 0.01 0.03 0.04 0.07 0.12 0.29 0.45 0.15 0.14 0.22 0.08 0.14 0.19 0.34 0.63 0.74 0.51 0.28 0.44 0.81 0.52 0.27 0.07 0.08 0.07 0.06 0.04 0.07 0.17 0.20 0.16 0.16 0.41 0.59 0.51 0.66 0.83
0.00 0.00 0.00 0.00 0.00 0.00 0.00 0.06 0.07 0.06 0.08 0.08 0.26 0.77 0.43 0.15 0.12 0.15 0.14 0.19 0.17 0.64 1.57 1.74 1.27 0.68 0.82 1.28 1.11 0.72 0.23 0.15 0.22 0.08 0.12 0.25 0.16 0.16 0.22 0.28 0.44 0.57 0.73 1.88
0.00 0.01 0.00 0.00 0.00 0.00 0.00 0.02 0.05 0.04 0.03 0.03 0.14 0.29 0.27 0.26 0.13 0.08 0.12 0.23 0.27 0.42 1.38 2.68 2.63 2.19 1.21 1.56 1.05 1.76 0.98 0.76 0.69 0.57 0.50 0.62 0.33 0.16 0.17 0.23 0.36 0.53 0.64 0.76
0.03 0.05 0.01 0.00 0.00 0.00 0.00 0.00 0.00 0.02 0.01 0.02 0.03 0.20 0.26 0.38 0.19 0.10 0.27 0.31 0.30 0.45 0.81 1.55 2.19 2.39 1.91 1.71 1.21 1.39 2.08 1.50 1.29 1.20 1.36 0.94 0.94 0.77 0.46 0.32 0.31 0.43 0.53 0.58
0.11 0.09 0.03 0.00 0.00 0.00 0.00 0.00 0.00 0.00 0.02 0.06 0.05 0.06 0.09 0.22 0.21 0.05 0.05 0.22 0.16 0.33 0.40 0.64 1.18 1.81 2.13 1.99 1.63 1.64 2.12 3.04 1.85 1.84 1.79 1.49 1.10 1.01 0.96 0.77 0.80 0.52 0.41 0.52
0.26 0.11 0.03 0.01 0.01 0.01 0.03 0.02 0.00 0.00 0.00 0.00 0.01 0.01 0.04 0.03 0.03 0.14 0.25 0.27 0.26 0.46 0.67 0.79 0.77 1.12 1.75 1.93 1.73 1.90 2.18 2.27 2.54 2.13 2.11 1.53 1.18 0.93 0.85 0.74 0.74 0.58 0.54 0.56
0.18 0.08 0.01 0.00 0.01 0.01 0.03 0.12 0.15 0.03 0.00 0.01 0.03 0.02 0.05 0.20 0.07 0.12 0.32 0.37 0.37 0.39 0.46 0.66 0.87 0.99 1.58 2.11 2.01 2.17 1.90 1.82 1.45 1.35 1.68 2.06 2.10 1.42 1.29 1.09 1.15 0.90 0.62 0.53
0.09 0.07 0.04 0.02 0.01 0.00 0.01 0.01 0.01 0.06 0.03 0.01 0.01 0.05 0.31 0.73 0.91 0.29 0.09 0.08 0.23 0.33 0.30 0.43 0.83 0.78 1.15 1.46 2.71 2.66 2.58 2.56 1.86 1.16 1.32 1.42 1.98 1.87 1.46 1.33 1.13 0.95 0.79 0.70
0.16 0.20 0.18 0.05 0.02 0.03 0.06 0.01 0.00 0.02 0.03 0.04 0.05 0.04 0.19 0.64 1.02 0.45 0.17 0.26 0.41 0.32 0.38 0.52 0.81 0.87 1.13 1.18 1.35 1.96 1.96 2.93 2.66 1.66 1.15 1.06 1.22 0.90 0.82 0.81 0.98 1.06 1.02 0.95
0.13 0.39 0.41 0.29 0.20 0.37 0.16 0.06 0.04 0.03 0.05 0.04 0.05 0.12 0.38 0.39 0.23 0.14 0.14 0.28 0.54 0.65 1.00 1.51 1.28 1.29 1.45 1.73 1.61 1.37 1.70 2.03 2.54 2.38 1.88 1.02 1.00 1.08 0.96 0.74 0.69 0.72 0.73 0.87
0.08 0.33 0.48 0.46 0.50 0.34 0.16 0.09 0.05 0.04 0.08 0.11 0.18 0.33 0.42 0.89 0.57 0.49 0.46 0.43 0.41 0.55 0.89 1.09 0.96 1.17 1.16 1.87 2.09 2.32 2.01 2.54 2.64 1.69 1.89 1.53 0.90 0.76 0.84 0.90 1.04 1.05 0.90 0.85
0.20 0.32 0.67 0.57 0.92 0.75 0.36 0.25 0.18 0.16 0.24 0.13 0.18 0.42 0.51 0.52 0.64 0.48 0.33 0.34 0.29 0.31 0.50 0.55 0.30 0.42 0.53 1.01 1.33 1.86 2.41 1.92 2.24 1.97 1.47 1.44 1.43 1.20 1.04 1.43 1.61 1.63 1.71 1.30
0.42 0.59 0.62 0.53 0.84 0.71 0.33 0.24 0.28 0.43 0.25 0.13 0.16 0.65 1.08 1.80 1.41 0.83 0.49 0.29 0.09 0.10 0.18 0.28 0.16 0.41 0.38 0.55 0.82 1.03 1.23 1.48 1.86 2.01 2.14 1.58 1.35 1.59 1.60 1.67 1.78 1.96 1.94 1.77
0.78 1.02 1.11 0.70 1.20 1.14 0.31 0.48 0.61 0.43 0.19 0.75 0.88 1.32 1.21 1.05 1.02 0.65 0.31 0.17 0.04 0.05 0.08 0.09 0.11 0.27 0.29 0.33 0.61 0.95 1.05 1.03 1.35 2.18 2.06 2.45 2.02 1.87 1.87 1.88 1.87 1.84 1.84 1.73
0.94 1.01 1.21 0.86 1.24 1.03 0.66 0.79 0.63 0.43 0.52 0.48 0.67 1.09 1.59 1.28 0.63 0.27 0.19 0.07 0.02 0.01 0.01 0.03 0.06 0.15 0.17 0.19 0.33 0.53 0.92 1.16 0.95 1.04 1.23 1.80 2.80 1.84 1.33 1.22 1.11 0.99 0.94 0.80
0.81 0.94 0.89 0.75 0.87 1.01 0.78 0.94 0.88 0.76 0.81 0.96 0.39 0.52 0.41 0.54 0.45 0.18 0.09 0.06 0.04 0.03 0.02 0.02 0.04 0.03 0.08 0.13 0.23 0.31 0.39 0.62 0.84 1.13 1.22 1.35 1.32 0.84 0.57 0.60 0.47 0.52 0.70 0.83
1.08 0.96 0.88 0.86 0.92 1.11 0.97 1.38 1.15 0.91 0.74 0.94 1.64 1.25 0.57 0.35 0.26 0.20 0.14 0.13 0.14 0.17 0.13 0.10 0.13 0.11 0.09 0.06 0.05 0.08 0.14 0.19 0.31 0.44 0.52 0.55 0.57 0.56 0.38 0.51 0.49 0.60 0.83 0.91
1.33 1.37 1.31 1.07 0.94 1.35 1.31 1.37 1.25 1.32 1.31 1.35 1.79 1.16 0.90 0.78 0.87 0.72 0.56 0.52 0.48 0.59 0.67 0.65 0.53 0.48 0.56 0.54 0.38 0.27 0.23 0.26 0.32 0.36 0.30 0.32 0.37 0.50 0.55 0.56 0.56 0.82 1.00 0.95

GFSCGP_prec_precacc_132.txt.gz
Total_Precipitation_Accumulation
0.00 0.00 0.00 0.01 0.00 0.06 0.39 0.71 1.25 1.38 2.18 3.36 2.92 2.21 2.58 1.25 0.89 1.14 0.54 0.17 0.07 0.01 0.01 0.00 0.00 0.00 0.00 0.00 0.00 0.00 0.02 0.08 0.13 0.14 0.10 0.12 0.21 0.10 0.16 0.28 0.36 0.48 0.42 0.42
0.00 0.00 0.00 0.00 0.00 0.01 0.11 0.37 1.39 1.61 2.00 1.93 2.71 2.03 2.02 1.93 0.99 0.75 0.75 0.27 0.10 0.03 0.01 0.00 0.00 0.00 0.01 0.00 0.00 0.00 0.07 0.14 0.13 0.08 0.14 0.15 0.13 0.12 0.21 0.38 0.44 0.22 0.32 0.41
0.00 0.00 0.00 0.00 0.00 0.06 0.13 0.14 0.88 1.93 1.82 1.86 1.68 2.24 1.73 1.85 1.77 0.93 0.92 0.51 0.30 0.04 0.04 0.00 0.00 0.00 0.02 0.01 0.00 0.00 0.06 0.16 0.15 0.19 0.18 0.49 0.58 0.65 0.77 0.53 0.28 0.15 0.22 0.24
0.00 0.00 0.00 0.00 0.00 0.03 0.16 0.16 0.41 1.18 1.43 1.45 1.35 1.42 1.53 1.24 1.61 1.93 1.26 0.43 0.22 0.09 0.06 0.04 0.00 0.01 0.01 0.01 0.00 0.00 0.02 0.17 0.16 0.16 0.23 0.50 0.60 0.61 0.49 0.39 0.55 0.34 0.13 0.14
0.00 0.00 0.00 0.00 0.00 0.02 0.04 0.07 0.25 0.66 0.97 0.92 0.80 0.76 0.72 1.12 1.22 1.72 1.34 0.39 0.28 0.21 0.10 0.08 0.02 0.03 0.04 0.00 0.00 0.00 0.00 0.15 0.15 0.22 0.57 0.34 0.20 0.44 0.43 0.42 1.00 0.50 0.28 0.12
0.00 0.00 0.00 0.00 0.00 0.01 0.02 0.06 0.09 0.31 0.96 0.58 0.25 0.35 0.35 0.70 0.81 1.06 0.91 0.63 0.36 0.13 0.15 0.15 0.06 0.05 0.04 0.01 0.00 0.00 0.00 0.04 0.12 0.19 0.18 0.32 0.45 0.61 0.99 1.13 0.94 0.39 0.22 0.16
0.00 0.00 0.00 0.00 0.02 0.04 0.01 0.02 0.16 0.23 0.49 0.43 0.12 0.16 0.30 0.13 0.65 0.76 0.67 0.58 0.40 0.25 0.24 0.18 0.09 0.10 0.09 0.02 0.00 0.00 0.00 0.01 0.04 0.11 0.08 0.17 0.29 0.48 0.80 0.92 0.47 0.44 0.57 0.59
0.00 0.00 0.00 0.00 0.00 0.01 0.01 0.01 0.02 0.05 0.11 0.23 0.20 0.36 0.14 0.05 0.15 0.25 0.27 0.24 0.53 0.37 0.36 0.39 0.26 0.24 0.32 0.16 0.02 0.06 0.02 0.02 0.01 0.08 0.07 0.13 0.22 0.21 0.32 0.45 0.69 0.67 0.73 0.80
0.00 0.00 0.00 0.00 0.00 0.00 0.02 0.01 0.03 0.04 0.07 0.12 0.29 0.45 0.15 0.14 0.22 0.08 0.14 0.19 0.34 0.63 0.74 0.51 0.28 0.44 0.83 0.53 0.27 0.07 0.08 0.07 0.06 0.04 0.07 0.17 0.20 0.16 0.16 0.41 0.59 0.51 0.66 0.83
0.00 0.00 0.00 0.00 0.00 0.00 0.00 0.06 0.07 0.06 0.08 0.08 0.27 0.78 0.43 0.15 0.12 0.15 0.14 0.19 0.17 0.66 1.61 1.81 1.36 0.71 0.82 1.28 1.11 0.72 0.23 0.15 0.22 0.08 0.12 0.25 0.16 0.16 0.22 0.28 0.44 0.57 0.73 1.88
0.00 0.01 0.00 0.00 0.00 0.00 0.00 0.02 0.05 0.04 0.03 0.03 0.14 0.29 0.27 0.26 0.13 0.08 0.12 0.23 0.28 0.43 1.40 2.69 2.70 2.23 1.23 1.56 1.05 1.76 0.98 0.76 0.69 0.57 0.50 0.62 0.33 0.16 0.17 0.23 0.36 0.53 0.64 0.76
0.03 0.05 0.01 0.00 0.00 0.00 0.00 0.00 0.00 0.02 0.01 0.02 0.03 0.20 0.26 0.38 0.19 0.10 0.27 0.31 0.31 0.47 0.83 1.59 2.26 2.47 1.91 1.72 1.22 1.39 2.08 1.50 1.29 1.20 1.36 0.94 0.94 0.77 0.46 0.32 0.31 0.43 0.54 0.58
0.11 0.09 0.03 0.00 0.00 0.00 0.00 0.00 0.00 0.00 0.02 0.06 0.05 0.06 0.09 0.22 0.21 0.05 0.05 0.22 0.16 0.33 0.41 0.65 1.22 1.89 2.21 2.01 1.69 1.74 2.18 3.07 1.86 1.84 1.79 1.49 1.10 1.01 0.96 0.77 0.80 0.52 0.42 0.52
0.26 0.11 0.03 0.01 0.01 0.01 0.03 0.02 0.00 0.00 0.00 0.00 0.01 0.01 0.04 0.03 0.03 0.14 0.25 0.27 0.26 0.46 0.67 0.79 0.78 1.15 1.86 2.03 1.82 1.99 2.31 2.50 2.75 2.27 2.14 1.53 1.18 0.93 0.85 0.74 0.75 0.59 0.54 0.56
0.18 0.08 0.01 0.00 0.01 0.01 0.03 0.12 0.15 0.03 0.00 0.01 0.03 0.02 0.05 0.20 0.07 0.12 0.32 0.37 0.39 0.40 0.47 0.66 0.87 1.00 1.61 2.18 2.04 2.20 2.03 2.07 1.83 1.62 1.88 2.18 2.15 1.43 1.29 1.10 1.18 0.95 0.67 0.59
0.09 0.07 0.04 0.02 0.01 0.00 0.01 0.01 0.01 0.06 0.03 0.01 0.01 0.05 0.31 0.73 0.91 0.29 0.09 0.08 0.23 0.37 0.37 0.46 0.83 0.78 1.16 1.49 2.76 2.70 2.68 2.80 2.69 2.09 1.65 1.59 2.08 1.94 1.48 1.34 1.14 0.99 0.87 0.82
0.16 0.20 0.18 0.05 0.02 0.03 0.06 0.01 0.00 0.02 0.03 0.04 0.05 0.04 0.19 0.64 1.02 0.45 0.17 0.26 0.41 0.33 0.41 0.53 0.81 0.87 1.13 1.20 1.41 2.05 2.08 3.02 3.10 2.85 1.92 1.36 1.36 0.99 0.90 0.87 1.03 1.07 1.08 1.03
0.13 0.39 0.41 0.29 0.20 0.37 0.16 0.06 0.04 0.03 0.05 0.04 0.05 0.12 0.38 0.39 0.23 0.14 0.14 0.28 0.54 0.65 1.00 1.51 1.28 1.29 1.45 1.81 1.76 1.51 1.76 2.07 2.66 2.69 2.32 1.30 1.21 1.24 1.10 0.86 0.78 0.80 0.82 0.96
0.08 0.33 0.48 0.46 0.50 0.34 0.16 0.09 0.05 0.04 0.08 0.11 0.18 0.33 0.42 0.89 0.57 0.49 0.46 0.43 0.41 0.55 0.89 1.09 0.96 1.17 1.16 1.88 2.11 2.40 2.10 2.58 2.75 2.05 3.00 2.53 1.19 0.97 1.05 1.03 1.13 1.15 1.00 0.94
0.20 0.32 0.67 0.57 0.92 0.75 0.36 0.25 0.18 0.16 0.24 0.13 0.18 0.42 0.51 0.52 0.64 0.48 0.33 0.34 0.29 0.31 0.51 0.55 0.30 0.42 0.53 1.01 1.36 1.88 2.46 2.02 2.50 2.36 1.92 2.78 2.83 1.71 1.29 1.61 1.77 1.76 1.84 1.46
0.42 0.59 0.62 0.53 0.84 0.71 0.33 0.24 0.28 0.43 0.25 0.13 0.16 0.65 1.08 1.80 1.41 0.83 0.49 0.29 0.09 0.10 0.18 0.28 0.16 0.41 0.38 0.56 0.85 1.06 1.28 1.86 2.26 2.25 2.42 2.02 2.09 2.30 1.93 2.24 2.27 2.19 2.07 1.86
0.78 1.02 1.11 0.70 1.20 1.14 0.31 0.48 0.61 0.43 0.19 0.75 0.88 1.32 1.21 1.05 1.02 0.66 0.31 0.18 0.05 0.05 0.08 0.09 0.11 0.27 0.29 0.35 0.66 0.97 1.07 1.19 2.14 3.00 2.71 3.20 2.78 2.35 2.11 2.06 2.43 2.32 2.11 1.92
0.94 1.01 1.21 0.86 1.24 1.03 0.66 0.79 0.64 0.43 0.52 0.48 0.67 1.09 1.59 1.30 0.68 0.34 0.21 0.09 0.05 0.02 0.01 0.03 0.06 0.15 0.17 0.21 0.41 0.56 0.95 1.29 1.20 1.41 1.83 2.65 3.64 2.64 1.96 1.56 1.31 1.11 1.05 0.92
0.81 0.94 0.89 0.75 0.87 1.01 0.78 0.94 0.88 0.76 0.81 0.96 0.39 0.53 0.42 0.60 0.56 0.27 0.15 0.11 0.06 0.05 0.02 0.02 0.04 0.04 0.08 0.14 0.25 0.33 0.45 0.75 1.17 1.58 1.53 1.59 1.56 1.06 0.76 0.72 0.56 0.60 0.73 0.85
1.08 0.96 0.88 0.86 0.92 1.11 0.97 1.38 1.15 0.91 0.75 0.94 1.68 1.35 0.65 0.38 0.27 0.23 0.16 0.15 0.14 0.17 0.13 0.10 0.14 0.11 0.09 0.07 0.07 0.12 0.18 0.30 0.51 0.63 0.60 0.60 0.62 0.65 0.53 0.59 0.52 0.62 0.84 0.92
1.33 1.37 1.31 1.07 0.94 1.35 1.31 1.37 1.25 1.33 1.32 1.35 1.81 1.22 1.00 0.88 0.89 0.73 0.56 0.52 0.48 0.59 0.67 0.65 0.53 0.49 0.56 0.55 0.41 0.29 0.26 0.30 0.38 0.42 0.35 0.39 0.45 0.56 0.60 0.57 0.57 0.83 1.00 0.95

GFSCGP_prec_precacc_135.txt.gz
Total_Precipitation_Accumulation
0.00 0.00 0.00 0.01 0.00 0.06 0.39 0.71 1.25 1.38 2.18 3.36 2.92 2.21 2.58 1.25 0.89 1.14 0.54 0.17 0.07 0.01 0.01 0.01 0.00 0.00 0.00 0.00 0.00 0.00 0.02 0.08 0.13 0.14 0.10 0.12 0.21 0.12 0.16 0.28 0.36 0.48 0.42 0.42
0.00 0.00 0.00 0.00 0.00 0.01 0.11 0.37 1.39 1.61 2.00 1.93 2.71 2.03 2.02 1.93 0.99 0.75 0.75 0.27 0.10 0.03 0.01 0.00 0.00 0.00 0.01 0.00 0.00 0.00 0.07 0.14 0.13 0.08 0.14 0.15 0.13 0.12 0.21 0.38 0.44 0.22 0.32 0.41
0.00 0.00 0.00 0.00 0.00 0.06 0.13 0.14 0.88 1.93 1.83 1.88 1.68 2.24 1.73 1.85 1.77 0.93 0.92 0.51 0.30 0.04 0.04 0.00 0.00 0.00 0.02 0.01 0.00 0.00 0.06 0.16 0.15 0.20 0.18 0.49 0.58 0.65 0.78 0.54 0.31 0.16 0.22 0.24
0.00 0.00 0.00 0.00 0.00 0.03 0.16 0.16 0.41 1.18 1.43 1.46 1.35 1.42 1.53 1.24 1.61 1.93 1.26 0.43 0.22 0.09 0.06 0.04 0.00 0.01 0.01 0.01 0.00 0.00 0.02 0.17 0.16 0.16 0.23 0.50 0.60 0.61 0.49 0.39 0.55 0.34 0.13 0.14
0.00 0.00 0.00 0.00 0.00 0.02 0.04 0.07 0.25 0.66 0.97 0.92 0.80 0.76 0.72 1.12 1.22 1.72 1.34 0.39 0.28 0.21 0.10 0.08 0.02 0.03 0.04 0.00 0.00 0.00 0.00 0.15 0.15 0.22 0.57 0.34 0.20 0.44 0.43 0.42 1.00 0.50 0.28 0.12
0.00 0.00 0.00 0.00 0.00 0.01 0.02 0.06 0.09 0.31 0.96 0.58 0.25 0.35 0.35 0.70 0.81 1.06 0.91 0.63 0.36 0.13 0.15 0.15 0.07 0.05 0.04 0.01 0.00 0.00 0.00 0.04 0.12 0.19 0.18 0.32 0.45 0.61 0.99 1.13 0.94 0.39 0.22 0.16
0.00 0.00 0.00 0.00 0.02 0.04 0.01 0.02 0.16 0.23 0.49 0.43 0.12 0.16 0.30 0.13 0.65 0.76 0.67 0.58 0.40 0.25 0.24 0.18 0.10 0.13 0.10 0.02 0.00 0.00 0.00 0.01 0.04 0.11 0.08 0.17 0.29 0.48 0.80 0.92 0.47 0.44 0.57 0.59
0.00 0.00 0.00 0.00 0.00 0.01 0.01 0.01 0.02 0.05 0.11 0.23 0.20 0.36 0.14 0.05 0.15 0.25 0.27 0.24 0.53 0.37 0.36 0.39 0.26 0.28 0.38 0.18 0.02 0.06 0.02 0.02 0.01 0.08 0.07 0.13 0.22 0.21 0.32 0.46 0.69 0.67 0.73 0.80
0.00 0.00 0.00 0.00 0.00 0.00 0.02 0.01 0.03 0.04 0.07 0.12 0.29 0.45 0.15 0.14 0.22 0.08 0.14 0.19 0.34 0.64 0.74 0.51 0.28 0.45 0.88 0.57 0.28 0.07 0.08 0.07 0.06 0.04 0.07 0.17 0.20 0.16 0.16 0.43 0.59 0.51 0.66 0.83
0.00 0.00 0.00 0.00 0.00 0.00 0.00 0.06 0.07 0.06 0.08 0.08 0.27 0.78 0.43 0.15 0.12 0.15 0.14 0.19 0.17 0.67 1.61 1.81 1.37 0.72 0.83 1.34 1.14 0.72 0.23 0.15 0.22 0.08 0.12 0.25 0.16 0.16 0.22 0.28 0.44 0.57 0.73 1.88
0.00 0.01 0.00 0.00 0.00 0.00 0.00 0.02 0.05 0.04 0.03 0.03 0.14 0.29 0.27 0.26 0.13 0.08 0.12 0.23 0.28 0.43 1.41 2.70 2.72 2.29 1.27 1.61 1.10 1.78 0.98 0.76 0.69 0.57 0.50 0.62 0.33 0.16 0.17 0.23 0.36 0.53 0.64 0.76
0.03 0.05 0.01 0.00 0.00 0.00 0.00 0.00 0.00 0.02 0.01 0.02 0.03 0.20 0.26 0.38 0.19 0.10 0.27 0.31 0.31 0.47 0.83 1.59 2.29 2.52 1.95 1.74 1.26 1.43 2.09 1.50 1.29 1.22 1.36 0.94 0.94 0.77 0.46 0.32 0.31 0.43 0.55 0.59
0.11 0.09 0.03 0.00 0.00 0.00 0.00 0.00 0.00 0.00 0.02 0.06 0.05 0.06 0.09 0.22 0.21 0.05 0.05 0.22 0.16 0.33 0.41 0.65 1.23 1.89 2.22 2.01 1.70 1.74 2.18 3.09 1.88 1.87 1.80 1.49 1.10 1.01 0.96 0.77 0.80 0.52 0.43 0.53
0.26 0.11 0.03 0.01 0.01 0.01 0.03 0.02 0.00 0.00 0.00 0.00 0.01 0.01 0.04 0.03 0.03 0.14 0.25 0.27 0.26 0.46 0.67 0.79 0.78 1.15 1.86 2.05 1.84 2.02 2.36 2.55 2.89 2.38 2.21 1.56 1.19 0.93 0.85 0.74 0.75 0.59 0.54 0.56
0.18 0.08 0.01 0.00 0.01 0.01 0.03 0.12 0.15 0.03 0.00 0.01 0.03 0.02 0.05 0.20 0.07 0.12 0.32 0.37 0.39 0.40 0.47 0.66 0.87 1.00 1.61 2.18 2.04 2.20 2.07 2.16 1.97 1.84 2.07 2.33 2.26 1.46 1.29 1.10 1.18 0.95 0.67 0.59
0.09 0.07 0.04 0.02 0.01 0.00 0.01 0.01 0.01 0.06 0.03 0.01 0.01 0.05 0.31 0.73 0.91 0.29 0.09 0.08 0.23 0.37 0.37 0.46 0.83 0.78 1.16 1.49 2.76 2.71 2.68 2.82 2.75 2.20 1.83 1.78 2.24 2.02 1.52 1.37 1.15 0.99 0.87 0.82
0.16 0.20 0.18 0.05 0.02 0.03 0.06 0.01 0.00 0.02 0.03 0.04 0.05 0.04 0.19 0.64 1.02 0.45 0.17 0.26 0.41 0.33 0.41 0.53 0.81 0.87 1.13 1.20 1.41 2.05 2.08 3.02 3.13 2.97 2.19 1.53 1.53 1.13 0.97 0.94 1.13 1.12 1.12 1.10
0.13 0.39 0.41 0.29 0.20 0.37 0.16 0.06 0.04 0.03 0.05 0.04 0.05 0.12 0.38 0.39 0.23 0.14 0.14 0.28 0.54 0.65 1.00 1.51 1.28 1.29 1.45 1.81 1.76 1.51 1.76 2.08 2.68 2.73 2.54 1.72 1.45 1.36 1.19 0.93 0.83 0.87 0.92 1.07
0.08 0.33 0.48 0.46 0.50 0.34 0.16 0.09 0.05 0.04 0.08 0.11 0.18 0.33 0.42 0.89 0.57 0.49 0.46 0.43 0.41 0.55 0.89 1.09 0.96 1.17 1.16 1.88 2.11 2.40 2.10 2.58 2.76 2.06 3.02 2.60 1.26 1.00 1.08 1.08 1.17 1.19 1.06 1.03
0.20 0.32 0.67 0.57 0.92 0.75 0.36 0.25 0.18 0.16 0.24 0.13 0.18 0.42 0.51 0.52 0.64 0.48 0.33 0.34 0.29 0.32 0.51 0.55 0.30 0.42 0.53 1.01 1.36 1.88 2.46 2.03 2.51 2.37 1.93 2.80 2.85 1.76 1.34 1.69 1.85 1.83 1.93 1.54
0.42 0.59 0.62 0.53 0.84 0.71 0.33 0.24 0.28 0.43 0.25 0.13 0.16 0.65 1.08 1.80 1.41 0.83 0.49 0.29 0.09 0.11 0.19 0.28 0.16 0.41 0.38 0.56 0.85 1.06 1.28 1.87 2.27 2.27 2.45 2.03 2.11 2.53 2.30 2.36 2.41 2.35 2.22 1.98
0.78 1.02 1.11 0.70 1.20 1.14 0.31 0.48 0.61 0.43 0.19 0.75 0.88 1.32 1.21 1.05 1.02 0.66 0.31 0.18 0.05 0.05 0.08 0.09 0.11 0.27 0.29 0.35 0.66 0.97 1.07 1.20 2.23 3.45 3.01 3.35 2.82 2.47 2.51 2.48 2.83 2.95 2.45 2.08
0.94 1.01 1.21 0.86 1.24 1.03 0.66 0.79 0.64 0.43 0.52 0.48 0.67 1.09 1.59 1.30 0.68 0.34 0.21 0.09 0.06 0.02 0.01 0.03 0.06 0.15 0.17 0.21 0.43 0.57 0.95 1.32 1.27 1.74 2.48 3.60 4.27 3.10 2.19 1.94 1.71 1.73 1.79 1.32
0.81 0.94 0.89 0.75 0.87 1.01 0.78 0.94 0.88 0.76 0.81 0.96 0.39 0.53 0.42 0.61 0.60 0.30 0.17 0.17 0.12 0.09 0.06 0.02 0.04 0.04 0.09 0.15 0.28 0.35 0.46 0.76 1.21 1.69 1.65 1.88 2.18 1.77 1.41 1.16 0.97 0.95 1.15 1.23
1.08 0.96 0.88 0.86 0.92 1.11 0.97 1.38 1.15 0.91 0.75 0.94 1.68 1.35 0.65 0.38 0.27 0.24 0.16 0.18 0.17 0.18 0.14 0.11 0.15 0.11 0.11 0.09 0.09 0.15 0.21 0.31 0.52 0.66 0.68 0.72 0.80 0.90 0.79 0.83 0.75 0.80 1.04 1.11
1.33 1.37 1.31 1.07 0.94 1.35 1.31 1.37 1.25 1.33 1.32 1.35 1.81 1.22 1.00 0.88 0.89 0.73 0.57 0.53 0.48 0.59 0.67 0.66 0.55 0.51 0.60 0.57 0.45 0.41 0.31 0.33 0.40 0.43 0.36 0.45 0.55 0.64 0.66 0.64 0.64 0.91 1.07 0.98

GFSCGP_prec_precacc_138.txt.gz
Total_Precipitation_Accumulation
0.00 0.00 0.00 0.01 0.00 0.06 0.39 0.71 1.25 1.38 2.18 3.36 2.92 2.21 2.58 1.25 0.89 1.14 0.54 0.17 0.07 0.01 0.01 0.01 0.00 0.00 0.00 0.00 0.00 0.00 0.02 0.08 0.13 0.14 0.10 0.12 0.21 0.12 0.16 0.28 0.36 0.48 0.43 0.42
0.00 0.00 0.00 0.00 0.00 0.01 0.11 0.37 1.39 1.61 2.00 1.93 2.71 2.03 2.02 1.93 0.99 0.75 0.75 0.27 0.11 0.04 0.01 0.00 0.00 0.00 0.01 0.00 0.00 0.00 0.07 0.14 0.13 0.08 0.14 0.15 0.13 0.12 0.21 0.38 0.44 0.22 0.32 0.41
0.00 0.00 0.00 0.00 0.00 0.06 0.13 0.14 0.88 1.93 1.83 1.90 1.68 2.24 1.73 1.85 1.77 0.93 0.92 0.51 0.31 0.05 0.06 0.01 0.00 0.00 0.02 0.01 0.00 0.00 0.06 0.16 0.15 0.20 0.18 0.49 0.58 0.65 0.78 0.54 0.31 0.16 0.22 0.24
0.00 0.00 0.00 0.00 0.00 0.03 0.16 0.16 0.41 1.18 1.44 1.47 1.35 1.42 1.53 1.24 1.61 1.93 1.26 0.43 0.22 0.11 0.08 0.07 0.00 0.01 0.01 0.01 0.00 0.00 0.02 0.17 0.16 0.16 0.23 0.50 0.60 0.61 0.49 0.39 0.55 0.35 0.14 0.14
0.00 0.00 0.00 0.00 0.00 0.02 0.04 0.07 0.25 0.66 0.97 0.93 0.80 0.76 0.72 1.12 1.22 1.72 1.34 0.39 0.28 0.22 0.12 0.11 0.02 0.03 0.04 0.00 0.00 0.00 0.00 0.15 0.15 0.22 0.57 0.34 0.20 0.44 0.43 0.42 1.00 0.50 0.28 0.12
0.00 0.00 0.00 0.00 0.00 0.01 0.02 0.06 0.09 0.32 0.99 0.58 0.25 0.35 0.35 0.70 0.81 1.06 0.91 0.63 0.36 0.13 0.15 0.16 0.08 0.05 0.04 0.01 0.00 0.00 0.00 0.04 0.12 0.19 0.18 0.32 0.45 0.61 0.99 1.13 0.94 0.39 0.22 0.16
0.00 0.00 0.00 0.00 0.02 0.04 0.01 0.02 0.16 0.23 0.50 0.44 0.12 0.16 0.30 0.13 0.65 0.76 0.67 0.58 0.40 0.25 0.24 0.18 0.10 0.13 0.10 0.02 0.00 0.00 0.00 0.01 0.04 0.11 0.08 0.17 0.29 0.48 0.80 0.92 0.47 0.44 0.57 0.59
0.00 0.00 0.00 0.00 0.00 0.01 0.01 0.01 0.02 0.05 0.11 0.23 0.20 0.36 0.14 0.05 0.15 0.25 0.27 0.24 0.53 0.37 0.36 0.39 0.26 0.30 0.38 0.18 0.02 0.06 0.02 0.02 0.01 0.08 0.07 0.13 0.22 0.21 0.32 0.46 0.69 0.67 0.73 0.80
0.00 0.00 0.00 0.00 0.00 0.00 0.02 0.01 0.03 0.04 0.07 0.12 0.29 0.45 0.15 0.14 0.22 0.08 0.14 0.19 0.34 0.64 0.76 0.53 0.30 0.45 0.89 0.58 0.28 0.07 0.08 0.07 0.06 0.04 0.07 0.17 0.20 0.16 0.16 0.43 0.59 0.51 0.66 0.83
0.00 0.00 0.00 0.00 0.00 0.00 0.00 0.06 0.07 0.06 0.08 0.08 0.27 0.78 0.43 0.15 0.12 0.15 0.14 0.19 0.17 0.67 1.61 1.81 1.38 0.73 0.84 1.36 1.17 0.75 0.24 0.15 0.22 0.08 0.12 0.25 0.16 0.16 0.22 0.28 0.44 0.57 0.73 1.88
0.00 0.01 0.00 0.00 0.00 0.00 0.00 0.02 0.05 0.04 0.03 0.03 0.14 0.29 0.27 0.26 0.13 0.08 0.12 0.23 0.28 0.43 1.41 2.71 2.72 2.30 1.36 1.68 1.14 1.79 0.99 0.76 0.70 0.57 0.50 0.62 0.33 0.16 0.17 0.23 0.36 0.53 0.64 0.76
0.03 0.05 0.01 0.00 0.00 0.00 0.00 0.00 0.00 0.02 0.01 0.02 0.03 0.20 0.26 0.38 0.19 0.10 0.27 0.31 0.31 0.47 0.84 1.59 2.29 2.52 1.96 1.76 1.33 1.46 2.10 1.50 1.31 1.25 1.42 0.94 0.94 0.77 0.46 0.32 0.31 0.43 0.55 0.59
0.11 0.09 0.03 0.00 0.00 0.00 0.00 0.00 0.00 0.00 0.02 0.06 0.05 0.06 0.09 0.22 0.21 0.05 0.05 0.22 0.16 0.33 0.41 0.65 1.23 1.89 2.22 2.01 1.70 1.78 2.20 3.10 1.89 1.89 1.87 1.51 1.11 1.01 0.96 0.77 0.80 0.52 0.43 0.53
0.26 0.11 0.03 0.01 0.01 0.01 0.03 0.02 0.00 0.00 0.00 0.00 0.01 0.01 0.04 0.03 0.03 0.14 0.25 0.27 0.26 0.46 0.67 0.79 0.78 1.15 1.86 2.05 1.84 2.02 2.37 2.57 2.90 2.42 2.27 1.64 1.22 0.93 0.85 0.74 0.75 0.59 0.54 0.56
0.18 0.08 0.01 0.00 0.01 0.01 0.03 0.12 0.15 0.03 0.00 0.01 0.03 0.02 0.05 0.20 0.07 0.12 0.32 0.37 0.39 0.40 0.47 0.66 0.87 1.00 1.61 2.18 2.04 2.20 2.07 2.16 1.97 1.84 2.08 2.34 2.29 1.50 1.31 1.10 1.19 0.95 0.67 0.59
0.09 0.07 0.04 0.02 0.01 0.00 0.01 0.01 0.01 0.06 0.03 0.01 0.01 0.05 0.31 0.73 0.91 0.29 0.09 0.08 0.23 0.37 0.37 0.46 0.83 0.78 1.16 1.49 2.76 2.71 2.68 2.82 2.75 2.20 1.83 1.79 2.26 2.10 1.64 1.42 1.17 1.01 0.88 0.82
0.16 0.20 0.18 0.05 0.02 0.03 0.06 0.01 0.00 0.02 0.03 0.04 0.05 0.04 0.19 0.64 1.02 0.45 0.17 0.26 0.41 0.33 0.41 0.53 0.81 0.87 1.13 1.20 1.41 2.05 2.08 3.02 3.13 2.97 2.20 1.56 1.59 1.22 1.05 1.02 1.19 1.13 1.13 1.11
0.13 0.39 0.41 0.29 0.20 0.37 0.16 0.06 0.04 0.03 0.05 0.04 0.05 0.12 0.38 0.39 0.23 0.14 0.14 0.28 0.54 0.65 1.00 1.51 1.28 1.29 1.45 1.81 1.77 1.51 1.76 2.08 2.68 2.73 2.55 1.75 1.51 1.51 1.33 1.04 0.92 0.92 0.96 1.08
0.08 0.33 0.48 0.46 0.50 0.34 0.16 0.09 0.05 0.04 0.08 0.11 0.18 0.33 0.42 0.89 0.57 0.49 0.46 0.43 0.41 0.55 0.89 1.09 0.96 1.17 1.16 1.88 2.11 2.40 2.10 2.58 2.76 2.07 3.03 2.62 1.30 1.09 1.19 1.19 1.27 1.26 1.10 1.05
0.20 0.32 0.67 0.57 0.92 0.75 0.36 0.25 0.18 0.16 0.24 0.13 0.18 0.42 0.51 0.52 0.64 0.48 0.33 0.34 0.29 0.32 0.51 0.55 0.30 0.42 0.53 1.01 1.36 1.88 2.46 2.03 2.51 2.37 1.93 2.80 2.89 1.86 1.42 1.73 1.91 1.88 1.96 1.56
0.42 0.59 0.62 0.53 0.84 0.71 0.33 0.24 0.28 0.43 0.25 0.13 0.16 0.65 1.08 1.80 1.41 0.83 0.49 0.29 0.09 0.11 0.19 0.29 0.17 0.41 0.38 0.56 0.85 1.06 1.28 1.87 2.28 2.27 2.45 2.03 2.11 2.54 2.36 2.50 2.51 2.38 2.25 2.04
0.78 1.02 1.11 0.70 1.20 1.14 0.31 0.48 0.61 0.43 0.19 0.75 0.88 1.32 1.21 1.05 1.02 0.66 0.31 0.18 0.05 0.05 0.08 0.09 0.11 0.27 0.29 0.35 0.66 0.97 1.08 1.20 2.23 3.46 3.02 3.39 2.87 2.49 2.52 2.50 2.94 3.03 2.49 2.16
0.94 1.01 1.21 0.86 1.24 1.03 0.66 0.79 0.64 0.43 0.52 0.48 0.67 1.09 1.59 1.30 0.68 0.34 0.21 0.09 0.06 0.02 0.01 0.03 0.06 0.15 0.18 0.22 0.44 0.58 0.95 1.32 1.27 1.74 2.50 3.78 4.52 3.25 2.24 2.02 1.80 1.77 1.87 1.44
0.81 0.94 0.89 0.75 0.87 1.01 0.78 0.94 0.88 0.76 0.81 0.96 0.39 0.53 0.42 0.61 0.60 0.30 0.17 0.17 0.13 0.10 0.07 0.03 0.04 0.04 0.09 0.16 0.29 0.36 0.46 0.76 1.21 1.69 1.67 1.97 2.52 2.23 1.87 1.36 1.25 1.16 1.44 1.58
1.08 0.96 0.88 0.86 0.92 1.11 0.97 1.38 1.15 0.91 0.75 0.94 1.68 1.35 0.65 0.38 0.27 0.24 0.16 0.18 0.18 0.20 0.15 0.12 0.15 0.12 0.12 0.16 0.16 0.17 0.21 0.31 0.52 0.66 0.70 0.77 0.96 1.23 1.28 1.33 1.22 1.27 1.43 1.61
1.33 1.37 1.31 1.07 0.94 1.35 1.31 1.37 1.25 1.33 1.32 1.35 1.81 1.22 1.00 0.88 0.89 0.73 0.57 0.53 0.48 0.59 0.67 0.66 0.57 0.53 0.64 0.62 0.51 0.44 0.32 0.33 0.40 0.43 0.37 0.47 0.58 0.73 0.84 0.87 0.98 1.30 1.46 1.38

GFSCGP_prec_precacc_141.txt.gz
Total_Precipitation_Accumulation
0.00 0.00 0.00 0.01 0.00 0.06 0.39 0.71 1.25 1.38 2.18 3.36 2.92 2.21 2.58 1.25 0.89 1.15 0.54 0.17 0.07 0.01 0.01 0.01 0.00 0.00 0.00 0.00 0.00 0.00 0.02 0.08 0.13 0.14 0.10 0.12 0.21 0.12 0.16 0.28 0.36 0.48 0.43 0.42
0.00 0.00 0.00 0.00 0.00 0.01 0.11 0.37 1.39 1.61 2.00 1.93 2.71 2.03 2.02 1.93 0.99 0.75 0.75 0.27 0.11 0.04 0.01 0.00 0.00 0.00 0.01 0.00 0.00 0.00 0.07 0.14 0.13 0.08 0.14 0.15 0.13 0.12 0.21 0.38 0.44 0.22 0.32 0.41
0.00 0.00 0.00 0.00 0.00 0.06 0.13 0.14 0.88 1.93 1.83 1.90 1.68 2.24 1.73 1.85 1.77 0.93 0.92 0.51 0.31 0.05 0.06 0.01 0.00 0.00 0.02 0.01 0.00 0.00 0.06 0.16 0.15 0.20 0.18 0.49 0.58 0.65 0.78 0.54 0.31 0.16 0.22 0.24
0.00 0.00 0.00 0.00 0.00 0.03 0.16 0.16 0.41 1.18 1.44 1.47 1.35 1.42 1.53 1.24 1.61 1.93 1.26 0.43 0.22 0.11 0.08 0.07 0.00 0.01 0.01 0.01 0.00 0.00 0.02 0.17 0.16 0.16 0.23 0.50 0.60 0.61 0.49 0.39 0.55 0.35 0.14 0.14
0.00 0.00 0.00 0.00 0.00 0.02 0.04 0.07 0.25 0.66 0.98 0.94 0.80 0.76 0.72 1.12 1.22 1.72 1.34 0.39 0.28 0.22 0.12 0.11 0.02 0.03 0.04 0.00 0.00 0.00 0.00 0.15 0.15 0.22 0.57 0.34 0.20 0.44 0.43 0.42 1.00 0.50 0.28 0.12
0.00 0.00 0.00 0.00 0.00 0.01 0.02 0.06 0.09 0.33 1.00 0.60 0.25 0.35 0.35 0.70 0.81 1.06 0.91 0.63 0.36 0.13 0.15 0.16 0.09 0.06 0.04 0.01 0.00 0.00 0.00 0.04 0.12 0.19 0.18 0.32 0.45 0.61 0.99 1.13 0.94 0.39 0.22 0.16
0.00 0.00 0.00 0.00 0.02 0.04 0.01 0.02 0.16 0.24 0.52 0.44 0.12 0.16 0.30 0.13 0.65 0.76 0.67 0.58 0.40 0.25 0.24 0.18 0.11 0.13 0.10 0.02 0.00 0.00 0.00 0.01 0.04 0.11 0.08 0.17 0.29 0.48 0.80 0.94 0.47 0.44 0.57 0.59
0.00 0.00 0.00 0.00 0.00 0.01 0.01 0.01 0.02 0.05 0.11 0.23 0.20 0.36 0.14 0.05 0.15 0.25 0.27 0.24 0.53 0.37 0.36 0.39 0.26 0.30 0.38 0.18 0.02 0.06 0.02 0.02 0.01 0.08 0.07 0.13 0.22 0.21 0.32 0.46 0.69 0.67 0.73 0.80
0.00 0.00 0.00 0.00 0.00 0.00 0.02 0.01 0.03 0.04 0.07 0.12 0.29 0.45 0.15 0.14 0.22 0.08 0.14 0.19 0.34 0.64 0.76 0.53 0.30 0.45 0.89 0.58 0.28 0.07 0.08 0.07 0.06 0.04 0.07 0.17 0.20 0.16 0.16 0.43 0.59 0.51 0.66 0.83
0.00 0.00 0.00 0.00 0.00 0.00 0.00 0.06 0.07 0.06 0.08 0.08 0.27 0.78 0.43 0.15 0.12 0.15 0.14 0.19 0.17 0.67 1.61 1.81 1.38 0.73 0.85 1.36 1.17 0.75 0.24 0.15 0.22 0.08 0.12 0.25 0.16 0.16 0.22 0.28 0.44 0.57 0.73 1.88
0.00 0.01 0.00 0.00 0.00 0.00 0.00 0.02 0.05 0.04 0.03 0.03 0.14 0.29 0.27 0.26 0.13 0.08 0.12 0.23 0.28 0.43 1.41 2.71 2.72 2.30 1.37 1.69 1.14 1.79 0.99 0.76 0.70 0.57 0.50 0.62 0.33 0.16 0.17 0.23 0.36 0.53 0.64 0.76
0.03 0.05 0.01 0.00 0.00 0.00 0.00 0.00 0.00 0.02 0.01 0.02 0.03 0.20 0.26 0.38 0.19 0.10 0.27 0.31 0.31 0.47 0.84 1.59 2.29 2.52 1.96 1.76 1.33 1.46 2.10 1.50 1.32 1.26 1.42 0.94 0.94 0.77 0.46 0.32 0.31 0.43 0.55 0.59
0.11 0.09 0.03 0.00 0.00 0.00 0.00 0.00 0.00 0.00 0.02 0.06 0.05 0.06 0.09 0.22 0.21 0.05 0.05 0.22 0.16 0.33 0.41 0.65 1.23 1.89 2.22 2.01 1.70 1.78 2.20 3.10 1.89 1.89 1.87 1.51 1.11 1.01 0.96 0.77 0.80 0.52 0.43 0.53
0.26 0.11 0.03 0.01 0.01 0.01 0.03 0.02 0.00 0.00 0.00 0.00 0.01 0.01 0.04 0.03 0.03 0.14 0.25 0.27 0.26 0.46 0.67 0.79 0.78 1.15 1.86 2.05 1.84 2.02 2.37 2.58 2.90 2.42 2.27 1.64 1.22 0.93 0.85 0.74 0.75 0.59 0.54 0.56
0.18 0.08 0.01 0.00 0.01 0.01 0.03 0.12 0.15 0.03 0.00 0.01 0.03 0.02 0.05 0.20 0.07 0.12 0.32 0.37 0.39 0.40 0.47 0.66 0.87 1.00 1.61 2.18 2.04 2.20 2.07 2.16 1.97 1.84 2.08 2.34 2.29 1.50 1.31 1.10 1.19 0.95 0.67 0.59
0.09 0.07 0.04 0.02 0.01 0.00 0.01 0.01 0.01 0.06 0.03 0.01 0.01 0.05 0.31 0.73 0.91 0.29 0.09 0.08 0.23 0.37 0.37 0.46 0.83 0.78 1.16 1.49 2.76 2.71 2.68 2.82 2.75 2.20 1.83 1.79 2.26 2.10 1.64 1.42 1.17 1.01 0.88 0.82
0.16 0.20 0.18 0.05 0.02 0.03 0.06 0.01 0.00 0.02 0.03 0.04 0.05 0.04 0.19 0.64 1.02 0.45 0.17 0.26 0.41 0.33 0.41 0.53 0.81 0.87 1.13 1.20 1.41 2.05 2.08 3.02 3.13 2.98 2.20 1.56 1.60 1.23 1.05 1.02 1.19 1.13 1.13 1.11
0.13 0.39 0.41 0.29 0.20 0.37 0.16 0.06 0.04 0.03 0.05 0.04 0.05 0.12 0.38 0.39 0.23 0.14 0.14 0.28 0.54 0.65 1.00 1.51 1.28 1.29 1.45 1.81 1.77 1.51 1.76 2.08 2.68 2.73 2.55 1.75 1.52 1.52 1.33 1.05 0.93 0.92 0.96 1.08
0.08 0.33 0.48 0.46 0.50 0.34 0.16 0.09 0.05 0.04 0.08 0.11 0.18 0.33 0.42 0.89 0.57 0.49 0.46 0.43 0.41 0.55 0.89 1.09 0.96 1.17 1.16 1.88 2.11 2.40 2.10 2.58 2.76 2.07 3.03 2.62 1.31 1.09 1.20 1.20 1.30 1.27 1.12 1.05
0.20 0.32 0.67 0.57 0.92 0.75 0.36 0.25 0.18 0.16 0.24 0.13 0.18 0.42 0.51 0.52 0.64 0.48 0.33 0.34 0.29 0.32 0.51 0.55 0.30 0.42 0.53 1.01 1.36 1.88 2.46 2.03 2.51 2.37 1.93 2.80 2.89 1.87 1.43 1.74 1.92 1.89 1.99 1.58
0.42 0.59 0.62 0.53 0.84 0.71 0.33 0.24 0.28 0.43 0.25 0.13 0.16 0.65 1.08 1.80 1.41 0.83 0.49 0.29 0.09 0.11 0.19 0.29 0.17 0.41 0.38 0.57 0.85 1.06 1.28 1.87 2.28 2.27 2.45 2.03 2.11 2.54 2.36 2.51 2.52 2.39 2.28 2.08
0.78 1.02 1.11 0.70 1.20 1.14 0.31 0.48 0.61 0.43 0.19 0.75 0.88 1.32 1.21 1.05 1.02 0.66 0.31 0.18 0.05 0.05 0.08 0.09 0.11 0.27 0.29 0.35 0.66 0.97 1.08 1.20 2.23 3.46 3.02 3.39 2.87 2.49 2.53 2.52 2.96 3.19 2.59 2.24
0.94 1.01 1.21 0.86 1.24 1.03 0.66 0.79 0.64 0.43 0.52 0.48 0.67 1.09 1.59 1.30 0.68 0.34 0.21 0.09 0.06 0.02 0.01 0.03 0.06 0.15 0.18 0.22 0.44 0.58 0.95 1.32 1.27 1.74 2.50 3.78 4.55 3.29 2.29 2.04 1.83 1.84 2.10 1.67
0.81 0.94 0.89 0.75 0.87 1.01 0.78 0.94 0.88 0.76 0.81 0.96 0.39 0.53 0.42 0.61 0.60 0.30 0.17 0.17 0.13 0.10 0.07 0.03 0.04 0.04 0.09 0.16 0.29 0.36 0.46 0.76 1.21 1.69 1.67 1.97 2.53 2.31 2.03 1.56 1.34 1.24 1.54 1.76
1.08 0.96 0.88 0.86 0.92 1.11 0.97 1.38 1.15 0.91 0.75 0.94 1.68 1.35 0.65 0.38 0.27 0.24 0.16 0.18 0.18 0.20 0.15 0.12 0.15 0.12 0.12 0.16 0.16 0.17 0.21 0.31 0.52 0.66 0.70 0.77 0.97 1.28 1.51 1.73 1.55 1.50 1.66 1.90
1.33 1.37 1.31 1.07 0.94 1.35 1.31 1.37 1.25 1.33 1.32 1.35 1.81 1.22 1.00 0.88 0.89 0.73 0.57 0.53 0.48 0.59 0.67 0.67 0.57 0.54 0.64 0.63 0.51 0.44 0.32 0.33 0.40 0.43 0.38 0.47 0.60 0.78 0.98 1.25 1.55 1.97 2.14 1.98

GFSCGP_prec_precacc_144.txt.gz
Total_Precipitation_Accumulation
0.00 0.00 0.00 0.01 0.00 0.06 0.39 0.71 1.25 1.38 2.18 3.36 2.92 2.21 2.58 1.25 0.89 1.15 0.54 0.17 0.07 0.01 0.01 0.01 0.00 0.00 0.00 0.00 0.00 0.00 0.02 0.08 0.13 0.14 0.10 0.12 0.21 0.12 0.16 0.28 0.36 0.48 0.43 0.42
0.00 0.00 0.00 0.00 0.00 0.01 0.11 0.37 1.39 1.61 2.00 1.93 2.71 2.03 2.02 1.93 0.99 0.75 0.75 0.27 0.11 0.04 0.01 0.00 0.00 0.00 0.01 0.00 0.00 0.00 0.07 0.14 0.13 0.08 0.14 0.15 0.13 0.12 0.21 0.38 0.44 0.22 0.32 0.41
0.00 0.00 0.00 0.00 0.00 0.06 0.13 0.14 0.88 1.93 1.83 1.90 1.68 2.24 1.73 1.85 1.77 0.93 0.92 0.51 0.31 0.05 0.06 0.01 0.00 0.00 0.02 0.01 0.00 0.00 0.06 0.16 0.15 0.20 0.18 0.49 0.58 0.65 0.78 0.54 0.31 0.16 0.22 0.24
0.00 0.00 0.00 0.00 0.00 0.03 0.16 0.16 0.41 1.18 1.44 1.47 1.35 1.42 1.53 1.24 1.61 1.93 1.26 0.43 0.22 0.11 0.08 0.07 0.00 0.01 0.01 0.01 0.00 0.00 0.02 0.17 0.16 0.16 0.23 0.50 0.60 0.61 0.49 0.39 0.55 0.35 0.14 0.14
0.00 0.00 0.00 0.00 0.00 0.02 0.04 0.07 0.25 0.66 0.98 0.94 0.80 0.76 0.72 1.12 1.22 1.72 1.34 0.39 0.28 0.22 0.12 0.11 0.02 0.03 0.04 0.00 0.00 0.00 0.00 0.15 0.15 0.22 0.57 0.34 0.20 0.44 0.43 0.42 1.01 0.53 0.28 0.12
0.00 0.00 0.00 0.00 0.00 0.01 0.02 0.06 0.09 0.33 1.00 0.60 0.25 0.35 0.35 0.70 0.81 1.06 0.91 0.63 0.36 0.13 0.15 0.16 0.09 0.06 0.04 0.01 0.00 0.00 0.00 0.04 0.12 0.19 0.18 0.32 0.45 0.61 1.00 1.16 0.96 0.40 0.22 0.16
0.00 0.00 0.00 0.00 0.02 0.04 0.01 0.02 0.16 0.24 0.52 0.44 0.12 0.16 0.30 0.13 0.65 0.76 0.67 0.58 0.40 0.25 0.24 0.18 0.11 0.13 0.10 0.02 0.00 0.00 0.00 0.01 0.04 0.11 0.08 0.17 0.29 0.48 0.81 1.02 0.49 0.45 0.57 0.59
0.00 0.00 0.00 0.00 0.00 0.01 0.01 0.01 0.02 0.05 0.11 0.23 0.20 0.36 0.14 0.05 0.15 0.25 0.27 0.24 0.53 0.37 0.36 0.39 0.26 0.30 0.38 0.18 0.02 0.06 0.02 0.02 0.01 0.08 0.07 0.13 0.22 0.21 0.32 0.46 0.69 0.69 0.73 0.80
0.00 0.00 0.00 0.00 0.00 0.00 0.02 0.01 0.03 0.04 0.07 0.12 0.29 0.45 0.15 0.14 0.22 0.08 0.14 0.19 0.34 0.64 0.76 0.53 0.30 0.45 0.89 0.58 0.28 0.07 0.08 0.07 0.06 0.04 0.07 0.17 0.20 0.16 0.16 0.43 0.59 0.51 0.66 0.83
0.00 0.00 0.00 0.00 0.00 0.00 0.00 0.06 0.07 0.06 0.08 0.08 0.27 0.78 0.43 0.15 0.12 0.15 0.14 0.19 0.17 0.67 1.61 1.81 1.38 0.73 0.85 1.36 1.17 0.75 0.24 0.15 0.22 0.08 0.12 0.25 0.16 0.16 0.22 0.28 0.44 0.57 0.73 1.88
0.00 0.01 0.00 0.00 0.00 0.00 0.00 0.02 0.05 0.04 0.03 0.03 0.14 0.29 0.27 0.26 0.13 0.08 0.12 0.23 0.28 0.43 1.41 2.71 2.72 2.30 1.37 1.69 1.14 1.79 0.99 0.76 0.70 0.57 0.50 0.62 0.33 0.16 0.17 0.23 0.36 0.53 0.64 0.76
0.03 0.05 0.01 0.00 0.00 0.00 0.00 0.00 0.00 0.02 0.01 0.02 0.03 0.20 0.26 0.38 0.19 0.10 0.27 0.31 0.31 0.47 0.84 1.59 2.29 2.52 1.96 1.76 1.33 1.46 2.10 1.50 1.32 1.26 1.42 0.94 0.94 0.77 0.46 0.32 0.31 0.43 0.55 0.59
0.11 0.09 0.03 0.00 0.00 0.00 0.00 0.00 0.00 0.00 0.02 0.06 0.05 0.06 0.09 0.22 0.21 0.05 0.05 0.22 0.16 0.33 0.41 0.65 1.23 1.89 2.22 2.01 1.70 1.78 2.20 3.10 1.89 1.89 1.87 1.51 1.11 1.01 0.96 0.77 0.80 0.52 0.43 0.53
0.26 0.11 0.03 0.01 0.01 0.01 0.03 0.02 0.00 0.00 0.00 0.00 0.01 0.01 0.04 0.03 0.03 0.14 0.25 0.27 0.26 0.46 0.67 0.79 0.78 1.15 1.86 2.05 1.84 2.02 2.37 2.58 2.90 2.42 2.27 1.64 1.22 0.93 0.85 0.74 0.75 0.59 0.54 0.56
0.18 0.08 0.01 0.00 0.01 0.01 0.03 0.12 0.15 0.03 0.00 0.01 0.03 0.02 0.05 0.20 0.07 0.12 0.32 0.37 0.39 0.40 0.47 0.66 0.87 1.00 1.61 2.18 2.04 2.20 2.07 2.16 1.97 1.84 2.08 2.34 2.29 1.50 1.31 1.10 1.19 0.95 0.67 0.60
0.09 0.07 0.04 0.02 0.01 0.00 0.01 0.01 0.01 0.06 0.03 0.01 0.01 0.05 0.31 0.73 0.91 0.29 0.09 0.08 0.23 0.37 0.37 0.46 0.83 0.78 1.16 1.49 2.76 2.71 2.68 2.82 2.75 2.20 1.83 1.79 2.26 2.11 1.64 1.42 1.17 1.01 0.88 0.83
0.16 0.20 0.18 0.05 0.02 0.03 0.06 0.01 0.00 0.02 0.03 0.04 0.05 0.04 0.19 0.64 1.02 0.45 0.17 0.26 0.41 0.33 0.41 0.53 0.81 0.87 1.13 1.20 1.41 2.05 2.08 3.02 3.13 2.98 2.21 1.56 1.60 1.23 1.05 1.02 1.20 1.14 1.14 1.11
0.13 0.39 0.41 0.29 0.20 0.37 0.16 0.06 0.04 0.03 0.05 0.04 0.05 0.12 0.38 0.39 0.23 0.14 0.14 0.28 0.54 0.65 1.00 1.51 1.28 1.29 1.45 1.81 1.77 1.51 1.76 2.08 2.68 2.73 2.55 1.75 1.52 1.52 1.34 1.06 0.94 0.94 0.97 1.09
0.08 0.33 0.48 0.46 0.50 0.34 0.16 0.09 0.05 0.04 0.08 0.11 0.18 0.33 0.42 0.89 0.57 0.49 0.46 0.43 0.41 0.55 0.89 1.09 0.96 1.17 1.16 1.88 2.11 2.40 2.10 2.58 2.76 2.07 3.03 2.62 1.31 1.09 1.20 1.20 1.30 1.29 1.14 1.07
0.20 0.32 0.67 0.57 0.92 0.75 0.36 0.25 0.18 0.16 0.24 0.13 0.18 0.42 0.51 0.52 0.64 0.48 0.33 0.34 0.29 0.32 0.51 0.55 0.30 0.42 0.53 1.01 1.36 1.88 2.46 2.03 2.51 2.37 1.93 2.80 2.89 1.87 1.43 1.74 1.92 1.90 2.01 1.62
0.42 0.59 0.62 0.53 0.84 0.71 0.33 0.24 0.28 0.43 0.25 0.13 0.16 0.65 1.08 1.80 1.41 0.83 0.49 0.29 0.09 0.11 0.19 0.29 0.17 0.41 0.38 0.57 0.85 1.06 1.29 1.87 2.28 2.27 2.45 2.04 2.11 2.55 2.36 2.51 2.53 2.40 2.30 2.13
0.78 1.02 1.11 0.70 1.20 1.14 0.31 0.48 0.61 0.43 0.19 0.75 0.88 1.32 1.21 1.05 1.02 0.66 0.31 0.18 0.05 0.05 0.08 0.09 0.11 0.27 0.29 0.35 0.67 0.97 1.08 1.20 2.23 3.46 3.02 3.39 2.87 2.49 2.53 2.52 2.97 3.21 2.62 2.27
0.94 1.01 1.21 0.86 1.24 1.03 0.66 0.79 0.64 0.43 0.52 0.48 0.67 1.09 1.59 1.30 0.68 0.34 0.21 0.09 0.06 0.02 0.01 0.03 0.06 0.15 0.18 0.22 0.45 0.58 0.95 1.32 1.27 1.74 2.50 3.78 4.55 3.30 2.30 2.06 1.86 1.87 2.13 1.69
0.81 0.94 0.89 0.75 0.87 1.01 0.78 0.94 0.88 0.76 0.81 0.96 0.39 0.53 0.42 0.61 0.60 0.30 0.17 0.17 0.13 0.10 0.07 0.03 0.05 0.05 0.09 0.16 0.29 0.37 0.47 0.76 1.21 1.69 1.67 1.97 2.54 2.32 2.03 1.58 1.42 1.32 1.58 1.79
1.08 0.96 0.88 0.86 0.92 1.11 0.97 1.38 1.15 0.91 0.75 0.94 1.68 1.35 0.65 0.38 0.27 0.24 0.16 0.18 0.18 0.20 0.15 0.12 0.16 0.12 0.13 0.17 0.16 0.18 0.22 0.31 0.52 0.66 0.70 0.77 0.97 1.29 1.51 1.75 1.66 1.67 1.79 2.08
1.33 1.37 1.31 1.07 0.94 1.35 1.31 1.37 1.25 1.33 1.32 1.35 1.81 1.22 1.00 0.88 0.89 0.73 0.57 0.53 0.48 0.59 0.68 0.67 0.57 0.54 0.64 0.63 0.52 0.44 0.32 0.34 0.40 0.43 0.38 0.47 0.61 0.79 0.98 1.27 1.64 2.13 2.37 2.21

GFSCGP_prec_precacc_147.txt.gz
Total_Precipitation_Accumulation
0.00 0.00 0.00 0.01 0.00 0.06 0.39 0.72 1.26 1.38 2.18 3.36 2.92 2.21 2.58 1.25 0.89 1.15 0.54 0.17 0.07 0.01 0.01 0.01 0.00 0.00 0.00 0.00 0.00 0.00 0.02 0.08 0.13 0.14 0.10 0.12 0.21 0.12 0.16 0.28 0.36 0.48 0.43 0.42
0.00 0.00 0.00 0.00 0.00 0.01 0.11 0.37 1.39 1.61 2.00 1.93 2.71 2.03 2.02 1.93 0.99 0.75 0.75 0.27 0.11 0.04 0.01 0.00 0.00 0.00 0.01 0.00 0.00 0.00 0.07 0.14 0.13 0.08 0.14 0.15 0.13 0.12 0.21 0.38 0.44 0.22 0.32 0.41
0.00 0.00 0.00 0.00 0.00 0.06 0.13 0.14 0.88 1.93 1.83 1.90 1.68 2.24 1.74 1.85 1.77 0.93 0.92 0.51 0.32 0.05 0.06 0.01 0.00 0.00 0.02 0.01 0.00 0.00 0.06 0.16 0.15 0.20 0.18 0.49 0.58 0.65 0.78 0.54 0.31 0.16 0.22 0.24
0.00 0.00 0.00 0.00 0.00 0.03 0.16 0.16 0.41 1.18 1.44 1.47 1.36 1.42 1.56 1.24 1.61 1.93 1.26 0.43 0.22 0.11 0.08 0.07 0.00 0.01 0.01 0.01 0.00 0.00 0.02 0.17 0.16 0.16 0.23 0.50 0.60 0.61 0.49 0.39 0.55 0.35 0.14 0.14
0.00 0.00 0.00 0.00 0.00 0.02 0.04 0.07 0.25 0.66 0.98 0.94 0.80 0.76 0.72 1.12 1.22 1.72 1.34 0.39 0.28 0.22 0.12 0.11 0.02 0.03 0.04 0.00 0.00 0.00 0.00 0.15 0.15 0.22 0.57 0.34 0.20 0.44 0.43 0.42 1.01 0.54 0.28 0.12
0.00 0.00 0.00 0.00 0.00 0.01 0.02 0.06 0.09 0.33 1.00 0.60 0.25 0.35 0.35 0.70 0.81 1.06 0.91 0.63 0.36 0.13 0.15 0.16 0.09 0.06 0.04 0.01 0.00 0.00 0.00 0.04 0.12 0.19 0.18 0.32 0.45 0.61 1.01 1.17 0.97 0.40 0.22 0.16
0.00 0.00 0.00 0.00 0.02 0.04 0.01 0.02 0.16 0.24 0.52 0.44 0.12 0.16 0.30 0.13 0.65 0.76 0.67 0.58 0.40 0.25 0.24 0.18 0.11 0.13 0.10 0.02 0.00 0.00 0.00 0.01 0.04 0.11 0.08 0.17 0.29 0.48 0.81 1.11 0.50 0.46 0.57 0.59
0.00 0.00 0.00 0.00 0.00 0.01 0.01 0.01 0.02 0.05 0.11 0.23 0.20 0.36 0.14 0.05 0.15 0.25 0.27 0.24 0.53 0.37 0.36 0.39 0.26 0.30 0.38 0.18 0.02 0.06 0.02 0.02 0.01 0.08 0.07 0.13 0.22 0.21 0.32 0.46 0.69 0.69 0.73 0.80
0.00 0.00 0.00 0.00 0.00 0.00 0.02 0.01 0.03 0.04 0.07 0.12 0.30 0.46 0.15 0.14 0.22 0.08 0.14 0.19 0.34 0.64 0.76 0.53 0.30 0.45 0.89 0.58 0.28 0.07 0.08 0.07 0.06 0.04 0.07 0.17 0.20 0.16 0.16 0.43 0.59 0.51 0.66 0.83
0.00 0.00 0.00 0.00 0.00 0.00 0.00 0.06 0.07 0.06 0.08 0.08 0.27 0.78 0.43 0.15 0.12 0.15 0.14 0.19 0.17 0.67 1.61 1.81 1.38 0.73 0.85 1.36 1.17 0.75 0.24 0.15 0.22 0.08 0.12 0.25 0.16 0.16 0.22 0.28 0.44 0.57 0.73 1.88
0.00 0.01 0.00 0.00 0.00 0.00 0.00 0.02 0.05 0.04 0.03 0.03 0.14 0.29 0.27 0.26 0.13 0.08 0.12 0.23 0.28 0.43 1.41 2.71 2.72 2.30 1.37 1.69 1.14 1.79 0.99 0.76 0.70 0.57 0.50 0.62 0.33 0.16 0.17 0.23 0.36 0.53 0.64 0.76
0.03 0.05 0.01 0.00 0.00 0.00 0.00 0.00 0.00 0.02 0.01 0.02 0.03 0.20 0.26 0.38 0.19 0.10 0.27 0.31 0.31 0.47 0.84 1.59 2.29 2.52 1.96 1.76 1.33 1.46 2.10 1.50 1.32 1.26 1.42 0.94 0.94 0.77 0.46 0.32 0.31 0.44 0.56 0.59
0.11 0.09 0.03 0.00 0.00 0.00 0.00 0.00 0.00 0.00 0.02 0.06 0.05 0.06 0.09 0.22 0.21 0.05 0.05 0.22 0.16 0.33 0.41 0.65 1.23 1.89 2.22 2.01 1.70 1.78 2.20 3.10 1.89 1.89 1.88 1.51 1.11 1.01 0.96 0.77 0.80 0.53 0.48 0.56
0.26 0.11 0.03 0.01 0.01 0.01 0.03 0.02 0.00 0.00 0.00 0.00 0.01 0.01 0.04 0.03 0.03 0.14 0.25 0.27 0.26 0.46 0.67 0.79 0.78 1.15 1.86 2.05 1.84 2.02 2.37 2.58 2.90 2.42 2.27 1.64 1.22 0.93 0.85 0.74 0.75 0.60 0.63 0.63
0.18 0.08 0.01 0.00 0.01 0.01 0.03 0.12 0.15 0.03 0.00 0.01 0.03 0.02 0.05 0.20 0.07 0.12 0.32 0.37 0.39 0.40 0.47 0.66 0.87 1.00 1.61 2.18 2.04 2.20 2.07 2.16 1.97 1.84 2.08 2.34 2.32 1.50 1.31 1.13 1.23 0.99 0.73 0.64
0.09 0.07 0.04 0.02 0.01 0.00 0.01 0.01 0.01 0.06 0.03 0.01 0.01 0.05 0.31 0.73 0.91 0.29 0.09 0.08 0.23 0.37 0.37 0.46 0.83 0.78 1.16 1.49 2.76 2.71 2.68 2.82 2.75 2.20 1.83 1.79 2.32 2.15 1.66 1.48 1.20 1.05 0.92 0.86
0.16 0.20 0.18 0.05 0.02 0.03 0.06 0.01 0.00 0.02 0.03 0.04 0.05 0.04 0.19 0.64 1.02 0.45 0.17 0.26 0.41 0.33 0.41 0.53 0.81 0.87 1.13 1.20 1.41 2.05 2.08 3.02 3.13 2.98 2.21 1.57 1.63 1.29 1.18 1.14 1.30 1.21 1.19 1.16
0.13 0.39 0.41 0.29 0.20 0.38 0.16 0.06 0.04 0.03 0.05 0.04 0.05 0.12 0.38 0.39 0.23 0.14 0.14 0.28 0.54 0.65 1.00 1.51 1.28 1.29 1.45 1.81 1.77 1.51 1.76 2.08 2.68 2.73 2.55 1.75 1.52 1.52 1.35 1.09 0.98 0.98 1.06 1.17
0.08 0.33 0.48 0.46 0.50 0.35 0.16 0.09 0.05 0.04 0.08 0.11 0.18 0.33 0.42 0.89 0.57 0.49 0.46 0.43 0.41 0.55 0.89 1.09 0.96 1.17 1.16 1.88 2.11 2.40 2.10 2.58 2.76 2.07 3.03 2.62 1.31 1.09 1.20 1.20 1.30 1.29 1.18 1.13
0.20 0.32 0.67 0.57 0.92 0.75 0.37 0.25 0.18 0.16 0.24 0.13 0.18 0.42 0.51 0.52 0.64 0.48 0.33 0.34 0.29 0.32 0.51 0.55 0.30 0.42 0.53 1.01 1.36 1.88 2.46 2.03 2.51 2.37 1.93 2.80 2.89 1.87 1.43 1.74 1.92 1.90 2.01 1.63
0.42 0.59 0.62 0.53 0.84 0.71 0.33 0.24 0.28 0.43 0.25 0.13 0.16 0.65 1.08 1.80 1.41 0.83 0.49 0.29 0.09 0.11 0.19 0.29 0.17 0.41 0.38 0.57 0.85 1.06 1.29 1.87 2.28 2.27 2.45 2.04 2.11 2.55 2.37 2.51 2.53 2.41 2.30 2.13
0.78 1.02 1.11 0.70 1.20 1.14 0.31 0.48 0.61 0.43 0.19 0.75 0.88 1.32 1.21 1.05 1.02 0.66 0.31 0.18 0.05 0.05 0.08 0.09 0.11 0.27 0.29 0.35 0.67 0.98 1.08 1.20 2.23 3.46 3.02 3.39 2.87 2.50 2.53 2.52 2.97 3.21 2.63 2.29
0.94 1.01 1.21 0.86 1.24 1.03 0.66 0.79 0.64 0.43 0.52 0.48 0.67 1.09 1.59 1.30 0.68 0.34 0.21 0.09 0.06 0.02 0.01 0.03 0.06 0.15 0.18 0.22 0.45 0.59 0.96 1.32 1.28 1.74 2.50 3.78 4.55 3.30 2.30 2.06 1.86 1.87 2.15 1.72
0.81 0.94 0.89 0.75 0.87 1.01 0.78 0.94 0.88 0.76 0.81 0.96 0.39 0.53 0.42 0.61 0.60 0.30 0.17 0.17 0.13 0.10 0.07 0.03 0.05 0.05 0.09 0.16 0.30 0.43 0.47 0.77 1.22 1.70 1.67 1.97 2.54 2.32 2.03 1.58 1.43 1.34 1.63 1.84
1.12 0.97 0.88 0.86 0.92 1.11 0.97 1.38 1.15 0.91 0.75 0.94 1.68 1.35 0.65 0.38 0.27 0.24 0.16 0.18 0.18 0.20 0.15 0.12 0.16 0.12 0.13 0.17 0.20 0.23 0.22 0.31 0.53 0.67 0.70 0.77 0.97 1.29 1.51 1.76 1.70 1.72 1.88 2.19
1.37 1.39 1.31 1.07 0.94 1.35 1.31 1.37 1.25 1.33 1.32 1.35 1.81 1.22 1.00 0.88 0.89 0.73 0.57 0.53 0.48 0.59 0.68 0.67 0.58 0.54 0.65 0.64 0.54 0.46 0.33 0.35 0.41 0.43 0.39 0.47 0.61 0.79 0.99 1.28 1.67 2.25 2.50 2.32